
Distance (Route):
Temperature : 0°C
Humidity : 0%
Pressure : 0hPa| Receiver | Frames | First received | Last received |
|---|---|---|---|
| DO3MHA-12 | 539 | 2026-09-03 11:36:46 | 2026-09-03 13:06:22 |
| DK7TD | 378 | 2026-09-03 11:34:47 | 2026-09-03 12:46:26 |
| IW2NTF | 261 | 2026-09-03 11:59:41 | 2026-09-03 12:45:31 |
| NBG1-10 | 122 | 2026-09-03 11:38:09 | 2026-09-03 13:01:23 |
| DB0UT-7 | 109 | 2026-09-03 11:34:41 | 2026-09-03 12:53:07 |
| DG1MJG | 85 | 2026-09-03 11:53:54 | 2026-09-03 13:05:34 |
| DB0NH | 82 | 2026-09-03 11:48:56 | 2026-09-03 12:54:03 |
| DN1GJH-1 | 74 | 2026-09-03 12:15:42 | 2026-09-03 12:48:46 |
| BIOWL1-15 | 58 | 2026-09-03 12:14:59 | 2026-09-03 12:27:44 |
| DO8TBO-1 | 44 | 2026-09-03 12:10:50 | 2026-09-03 12:40:32 |
| DM0DOS-11 | 25 | 2026-09-03 12:18:09 | 2026-09-03 12:24:53 |
| OE3JTB-15 | 23 | 2026-09-03 12:07:27 | 2026-09-03 12:43:41 |
| DB0ND-19 | 7 | 2026-09-03 11:34:23 | 2026-09-03 12:52:03 |
| DF7PN | 3 | 2026-09-03 11:48:02 | 2026-09-03 12:18:04 |
| DL6DJ-15 | 3 | 2026-09-03 11:55:04 | 2026-09-03 12:53:03 |
| DF3TZ-5 | 2 | 2026-09-03 12:28:03 | 2026-09-03 12:43:03 |
| HARRO8 | 1 | 2026-09-03 11:48:03 | 2026-09-03 11:48:03 |
| DH7VM-15 | 1 | 2026-09-03 12:13:28 | 2026-09-03 12:13:28 |
| LOEBOVI | 1 | 2026-09-03 12:18:05 | 2026-09-03 12:18:05 |
| Receiver | Date | Latitude | Longitude | Direction | Speed | Altitude | Climb | Temperature | Humidity | Pressure | Voltage | Killtimer | Uptime | BKT | XDATA |
|---|---|---|---|---|---|---|---|---|---|---|---|---|---|---|---|
| DO3MHA-12 | 2026-09-03 13:06:22 | 47.27082 | 10.44392 | 57° | 20km/h | 2694m | -5.9m/s | 0°C | 0% | 0hPa | 4.3V | 00:00:00 | 00:00:00 | 00:00:00 | |
| DO3MHA-12 | 2026-09-03 13:06:16 | 47.27060 | 10.44358 | 46° | 24km/h | 2721m | -5.3m/s | 0°C | 0% | 0hPa | 4.3V | 00:00:00 | 00:00:00 | 00:00:00 | |
| DO3MHA-12 | 2026-09-03 13:06:11 | 47.27042 | 10.44323 | 60° | 26km/h | 2750m | -5.4m/s | 0°C | 0% | 0hPa | 4.3V | 00:00:00 | 00:00:00 | 00:00:00 | |
| DO3MHA-12 | 2026-09-03 13:06:06 | 47.27025 | 10.44283 | 51° | 29km/h | 2777m | -5.1m/s | 0°C | 0% | 0hPa | 4.3V | 00:00:00 | 00:00:00 | 00:00:00 | |
| DO3MHA-12 | 2026-09-03 13:06:01 | 47.27001 | 10.44240 | 52° | 29km/h | 2807m | -6.0m/s | 0°C | 0% | 0hPa | 4.3V | 00:00:00 | 00:00:00 | 00:00:00 | |
| DO3MHA-12 | 2026-09-03 13:05:56 | 47.26978 | 10.44193 | 57° | 31km/h | 2837m | -6.3m/s | 0°C | 0% | 0hPa | 4.3V | 00:00:00 | 00:00:00 | 00:00:00 | |
| DO3MHA-12 | 2026-09-03 13:05:51 | 47.26955 | 10.44146 | 55° | 31km/h | 2868m | -6.3m/s | 0°C | 0% | 0hPa | 4.3V | 00:00:00 | 00:00:00 | 00:00:00 | |
| DO3MHA-12 | 2026-09-03 13:05:46 | 47.26932 | 10.44097 | 57° | 35km/h | 2899m | -5.4m/s | 0°C | 0% | 0hPa | 4.3V | 00:00:00 | 00:00:00 | 00:00:00 | |
| DO3MHA-12 | 2026-09-03 13:05:41 | 47.26910 | 10.44042 | 64° | 33km/h | 2926m | -5.7m/s | 0°C | 0% | 0hPa | 4.3V | 00:00:00 | 00:00:00 | 00:00:00 | |
| DO3MHA-12 | 2026-09-03 13:05:36 | 47.26889 | 10.43990 | 54° | 31km/h | 2956m | -6.3m/s | 0°C | 0% | 0hPa | 4.3V | 00:00:00 | 00:00:00 | 00:00:00 | |
| DG1MJG | 2026-09-03 13:05:34 | 47.26880 | 10.43971 | 55° | 31km/h | 2962m | -6.0m/s | 5.7°C | 0% | 0hPa | 4.3V | 00:00:00 | 00:00:00 | 00:00:00 | |
| DO3MHA-12 | 2026-09-03 13:05:31 | 47.26868 | 10.43945 | 63° | 27km/h | 2987m | -6.2m/s | 0°C | 0% | 0hPa | 4.3V | 00:00:00 | 00:00:00 | 00:00:00 | |
| DO3MHA-12 | 2026-09-03 13:05:25 | 47.26852 | 10.43888 | 73° | 29km/h | 3026m | -7.0m/s | 0°C | 0% | 0hPa | 4.3V | 00:00:00 | 00:00:00 | 00:00:00 | |
| DO3MHA-12 | 2026-09-03 13:05:20 | 47.26840 | 10.43836 | 70° | 27km/h | 3058m | -5.9m/s | 0°C | 0% | 0hPa | 4.3V | 00:00:00 | 00:00:00 | 00:00:00 | |
| DO3MHA-12 | 2026-09-03 13:05:15 | 47.26829 | 10.43788 | 73° | 27km/h | 3090m | -6.3m/s | 0°C | 0% | 0hPa | 4.3V | 00:00:00 | 00:00:00 | 00:00:00 | |
| DO3MHA-12 | 2026-09-03 13:05:05 | 47.26807 | 10.43684 | 74° | 31km/h | 3143m | -4.8m/s | 0°C | 0% | 0hPa | 4.3V | 00:00:00 | 00:00:00 | 00:00:00 | |
| DG1MJG | 2026-09-03 13:05:03 | 47.26803 | 10.43662 | 74° | 31km/h | 3148m | -4.5m/s | 3.8°C | 0% | 0hPa | 4.3V | 00:00:00 | 00:00:00 | 00:00:00 | |
| DO3MHA-12 | 2026-09-03 13:04:59 | 47.26795 | 10.43619 | 78° | 29km/h | 3171m | -4.9m/s | 0°C | 0% | 0hPa | 4.3V | 00:00:00 | 00:00:00 | 00:00:00 | |
| DO3MHA-12 | 2026-09-03 13:04:54 | 47.26787 | 10.43564 | 79° | 31km/h | 3199m | -6.7m/s | 0°C | 0% | 0hPa | 4.3V | 00:00:00 | 00:00:00 | 00:00:00 | |
| DO3MHA-12 | 2026-09-03 13:04:49 | 47.26780 | 10.43509 | 87° | 27km/h | 3231m | -5.9m/s | 0°C | 0% | 0hPa | 4.3V | 00:00:00 | 00:00:00 | 00:00:00 | |
| DO3MHA-12 | 2026-09-03 13:04:44 | 47.26779 | 10.43456 | 95° | 27km/h | 3260m | -5.6m/s | 0°C | 0% | 0hPa | 4.3V | 00:00:00 | 00:00:00 | 00:00:00 | |
| DO3MHA-12 | 2026-09-03 13:04:34 | 47.26789 | 10.43352 | 101° | 29km/h | 3316m | -5.1m/s | 0°C | 0% | 0hPa | 4.3V | 00:00:00 | 00:00:00 | 00:00:00 | |
| DG1MJG | 2026-09-03 13:04:31 | 47.26794 | 10.43321 | 106° | 29km/h | 3326m | -5.0m/s | 3.8°C | 0% | 0hPa | 4.3V | 00:00:00 | 00:00:00 | 00:00:00 | |
| DO3MHA-12 | 2026-09-03 13:04:29 | 47.26798 | 10.43299 | 109° | 29km/h | 3342m | -5.0m/s | 0°C | 0% | 0hPa | 4.3V | 00:00:00 | 00:00:00 | 00:00:00 | |
| DO3MHA-12 | 2026-09-03 13:04:24 | 47.26808 | 10.43249 | 101° | 29km/h | 3368m | -5.3m/s | 0°C | 0% | 0hPa | 4.3V | 00:00:00 | 00:00:00 | 00:00:00 | |
| DO3MHA-12 | 2026-09-03 13:04:19 | 47.26817 | 10.43195 | 106° | 33km/h | 3393m | -5.0m/s | 0°C | 0% | 0hPa | 4.3V | 00:00:00 | 00:00:00 | 00:00:00 | |
| DO3MHA-12 | 2026-09-03 13:04:14 | 47.26830 | 10.43137 | 112° | 31km/h | 3419m | -4.9m/s | 0°C | 0% | 0hPa | 4.3V | 00:00:00 | 00:00:00 | 00:00:00 | |
| DO3MHA-12 | 2026-09-03 13:04:09 | 47.26843 | 10.43082 | 106° | 33km/h | 3445m | -5.3m/s | 0°C | 0% | 0hPa | 4.3V | 00:00:00 | 00:00:00 | 00:00:00 | |
| DO3MHA-12 | 2026-09-03 13:04:04 | 47.26855 | 10.43022 | 109° | 35km/h | 3471m | -5.3m/s | 0°C | 0% | 0hPa | 4.3V | 00:00:00 | 00:00:00 | 00:00:00 | |
| DG1MJG | 2026-09-03 13:04:01 | 47.26864 | 10.42986 | 114° | 35km/h | 3482m | -5.2m/s | 2.5°C | 0% | 0hPa | 4.3V | 00:00:00 | 00:00:00 | 00:00:00 | |
| DO3MHA-12 | 2026-09-03 13:03:59 | 47.26872 | 10.42962 | 115° | 37km/h | 3498m | -5.5m/s | 0°C | 0% | 0hPa | 4.3V | 00:00:00 | 00:00:00 | 00:00:00 | |
| DO3MHA-12 | 2026-09-03 13:03:54 | 47.26892 | 10.42901 | 118° | 38km/h | 3526m | -5.5m/s | 0°C | 0% | 0hPa | 4.3V | 00:00:00 | 00:00:00 | 00:00:00 | |
| DO3MHA-12 | 2026-09-03 13:03:49 | 47.26917 | 10.42840 | 123° | 40km/h | 3553m | -5.5m/s | 0°C | 0% | 0hPa | 4.3V | 00:00:00 | 00:00:00 | 00:00:00 | |
| DO3MHA-12 | 2026-09-03 13:03:44 | 47.26944 | 10.42779 | 127° | 38km/h | 3581m | -5.4m/s | 0°C | 0% | 0hPa | 4.3V | 00:00:00 | 00:00:00 | 00:00:00 | |
| DO3MHA-12 | 2026-09-03 13:03:39 | 47.26973 | 10.42724 | 132° | 40km/h | 3609m | -5.7m/s | 0°C | 0% | 0hPa | 4.3V | 00:00:00 | 00:00:00 | 00:00:00 | |
| DO3MHA-12 | 2026-09-03 13:03:33 | 47.27011 | 10.42654 | 126° | 38km/h | 3643m | -5.7m/s | 0°C | 0% | 0hPa | 4.3V | 00:00:00 | 00:00:00 | 00:00:00 | |
| DG1MJG | 2026-09-03 13:03:31 | 47.27022 | 10.42631 | 127° | 37km/h | 3649m | -5.7m/s | 2.0°C | 0% | 0hPa | 4.3V | 00:00:00 | 00:00:00 | 00:00:00 | |
| DO3MHA-12 | 2026-09-03 13:03:28 | 47.27040 | 10.42599 | 132° | 38km/h | 3672m | -5.6m/s | 0°C | 0% | 0hPa | 4.3V | 00:00:00 | 00:00:00 | 00:00:00 | |
| DO3MHA-12 | 2026-09-03 13:03:23 | 47.27073 | 10.42544 | 129° | 38km/h | 3700m | -5.7m/s | 0°C | 0% | 0hPa | 4.3V | 00:00:00 | 00:00:00 | 00:00:00 | |
| DO3MHA-12 | 2026-09-03 13:03:18 | 47.27101 | 10.42486 | 130° | 38km/h | 3729m | -5.6m/s | 0°C | 0% | 0hPa | 4.3V | 00:00:00 | 00:00:00 | 00:00:00 | |
| DO3MHA-12 | 2026-09-03 13:03:13 | 47.27133 | 10.42434 | 130° | 40km/h | 3756m | -5.7m/s | 0°C | 0% | 0hPa | 4.3V | 00:00:00 | 00:00:00 | 00:00:00 | |
| DO3MHA-12 | 2026-09-03 13:03:08 | 47.27164 | 10.42374 | 125° | 38km/h | 3785m | -5.7m/s | 0°C | 0% | 0hPa | 4.3V | 00:00:00 | 00:00:00 | 00:00:00 | |
| DO3MHA-12 | 2026-09-03 13:03:03 | 47.27193 | 10.42319 | 131° | 40km/h | 3813m | -5.6m/s | 0°C | 0% | 0hPa | 4.3V | 00:00:00 | 00:00:00 | 00:00:00 | |
| DG1MJG | 2026-09-03 13:03:01 | 47.27206 | 10.42295 | 130° | 40km/h | 3819m | -5.8m/s | 0.3°C | 0% | 0hPa | 4.3V | 00:00:00 | 00:00:00 | 00:00:00 | |
| DO3MHA-12 | 2026-09-03 13:02:58 | 47.27224 | 10.42260 | 127° | 40km/h | 3843m | -5.6m/s | 0°C | 0% | 0hPa | 4.3V | 00:00:00 | 00:00:00 | 00:00:00 | |
| DO3MHA-12 | 2026-09-03 13:02:53 | 47.27255 | 10.42201 | 128° | 38km/h | 3872m | -5.8m/s | 0°C | 0% | 0hPa | 4.3V | 00:00:00 | 00:00:00 | 00:00:00 | |
| DO3MHA-12 | 2026-09-03 13:02:48 | 47.27284 | 10.42145 | 128° | 38km/h | 3901m | -5.9m/s | 0°C | 0% | 0hPa | 4.3V | 00:00:00 | 00:00:00 | 00:00:00 | |
| DO3MHA-12 | 2026-09-03 13:02:43 | 47.27315 | 10.42089 | 129° | 40km/h | 3931m | -6.0m/s | 0°C | 0% | 0hPa | 4.3V | 00:00:00 | 00:00:00 | 00:00:00 | |
| DO3MHA-12 | 2026-09-03 13:02:37 | 47.27353 | 10.42019 | 133° | 40km/h | 3968m | -6.0m/s | 0°C | 0% | 0hPa | 4.3V | 00:00:00 | 00:00:00 | 00:00:00 | |
| DO3MHA-12 | 2026-09-03 13:02:32 | 47.27388 | 10.41965 | 133° | 37km/h | 3997m | -6.6m/s | 0°C | 0% | 0hPa | 4.3V | 00:00:00 | 00:00:00 | 00:00:00 | |
| DG1MJG | 2026-09-03 13:02:31 | 47.27395 | 10.41955 | 133° | 37km/h | 3997m | -6.7m/s | -1.2°C | 0% | 0hPa | 4.3V | 00:00:00 | 00:00:00 | 00:00:00 | |
| DO3MHA-12 | 2026-09-03 13:02:27 | 47.27420 | 10.41915 | 135° | 38km/h | 4023m | -5.5m/s | 0°C | 0% | 0hPa | 4.3V | 00:00:00 | 00:00:00 | 00:00:00 | |
| DO3MHA-12 | 2026-09-03 13:02:22 | 47.27454 | 10.41864 | 135° | 40km/h | 4050m | -6.4m/s | 0°C | 0% | 0hPa | 4.3V | 00:00:00 | 00:00:00 | 00:00:00 | |
| DO3MHA-12 | 2026-09-03 13:02:17 | 47.27489 | 10.41810 | 135° | 42km/h | 4077m | -5.5m/s | 0°C | 0% | 0hPa | 4.3V | 00:00:00 | 00:00:00 | 00:00:00 | |
| DO3MHA-12 | 2026-09-03 13:02:11 | 47.27535 | 10.41744 | 136° | 44km/h | 4109m | -5.5m/s | 0°C | 0% | 0hPa | 4.3V | 00:00:00 | 00:00:00 | 00:00:00 | |
| DO3MHA-12 | 2026-09-03 13:02:06 | 47.27574 | 10.41687 | 137° | 44km/h | 4132m | -4.7m/s | 0°C | 0% | 0hPa | 4.3V | 00:00:00 | 00:00:00 | 00:00:00 | |
| DO3MHA-12 | 2026-09-03 13:02:01 | 47.27614 | 10.41630 | 137° | 44km/h | 4155m | -4.6m/s | 0°C | 0% | 0hPa | 4.3V | 00:00:00 | 00:00:00 | 00:00:00 | |
| DG1MJG | 2026-09-03 13:02:00 | 47.27622 | 10.41619 | 138° | 44km/h | 4155m | -4.6m/s | -2.3°C | 0% | 0hPa | 4.3V | 00:00:00 | 00:00:00 | 00:00:00 | |
| DO3MHA-12 | 2026-09-03 13:01:56 | 47.27655 | 10.41575 | 140° | 49km/h | 4179m | -4.6m/s | 0°C | 0% | 0hPa | 4.3V | 00:00:00 | 00:00:00 | 00:00:00 | |
| DO3MHA-12 | 2026-09-03 13:01:51 | 47.27702 | 10.41514 | 139° | 51km/h | 4202m | -4.4m/s | 0°C | 0% | 0hPa | 4.3V | 00:00:00 | 00:00:00 | 00:00:00 | |
| DO3MHA-12 | 2026-09-03 13:01:46 | 47.27751 | 10.41451 | 140° | 55km/h | 4227m | -4.6m/s | 0°C | 0% | 0hPa | 4.3V | 00:00:00 | 00:00:00 | 00:00:00 | |
| DO3MHA-12 | 2026-09-03 13:01:41 | 47.27804 | 10.41383 | 138° | 57km/h | 4254m | -5.8m/s | 0°C | 0% | 0hPa | 4.3V | 00:00:00 | 00:00:00 | 00:00:00 | |
| DO3MHA-12 | 2026-09-03 13:01:36 | 47.27858 | 10.41313 | 141° | 57km/h | 4280m | -4.6m/s | 0°C | 0% | 0hPa | 4.3V | 00:00:00 | 00:00:00 | 00:00:00 | |
| DO3MHA-12 | 2026-09-03 13:01:31 | 47.27914 | 10.41247 | 142° | 58km/h | 4302m | -4.3m/s | 0°C | 0% | 0hPa | 4.3V | 00:00:00 | 00:00:00 | 00:00:00 | |
| DG1MJG | 2026-09-03 13:01:30 | 47.27926 | 10.41233 | 142° | 58km/h | 4302m | -4.3m/s | -1.3°C | 0% | 0hPa | 4.3V | 00:00:00 | 00:00:00 | 00:00:00 | |
| DO3MHA-12 | 2026-09-03 13:01:26 | 47.27972 | 10.41177 | 142° | 60km/h | 4326m | -4.5m/s | 0°C | 0% | 0hPa | 4.3V | 00:00:00 | 00:00:00 | 00:00:00 | |
| NBG1-10 | 2026-09-03 13:01:23 | 47.28008 | 10.41136 | 143° | 62km/h | 4343m | -4.5m/s | 0°C | 0% | 0hPa | 4.3V | 00:00:00 | 00:00:00 | 00:00:00 | |
| DO3MHA-12 | 2026-09-03 13:01:21 | 47.28033 | 10.41108 | 143° | 62km/h | 4348m | -4.4m/s | 0°C | 0% | 0hPa | 4.3V | 00:00:00 | 00:00:00 | 00:00:00 | |
| DO3MHA-12 | 2026-09-03 13:01:15 | 47.28107 | 10.41022 | 143° | 64km/h | 4374m | -4.4m/s | 0°C | 0% | 0hPa | 4.3V | 00:00:00 | 00:00:00 | 00:00:00 | |
| DO3MHA-12 | 2026-09-03 13:01:10 | 47.28171 | 10.40950 | 142° | 64km/h | 4398m | -4.4m/s | 0°C | 0% | 0hPa | 4.3V | 00:00:00 | 00:00:00 | 00:00:00 | |
| DO3MHA-12 | 2026-09-03 13:01:05 | 47.28234 | 10.40875 | 141° | 64km/h | 4420m | -4.4m/s | 0°C | 0% | 0hPa | 4.3V | 00:00:00 | 00:00:00 | 00:00:00 | |
| DO3MHA-12 | 2026-09-03 13:01:00 | 47.28297 | 10.40801 | 142° | 64km/h | 4442m | -4.3m/s | 0°C | 0% | 0hPa | 4.3V | 00:00:00 | 00:00:00 | 00:00:00 | |
| DO3MHA-12 | 2026-09-03 13:00:55 | 47.28360 | 10.40725 | 141° | 64km/h | 4465m | -4.5m/s | 0°C | 0% | 0hPa | 4.3V | 00:00:00 | 00:00:00 | 00:00:00 | |
| DO3MHA-12 | 2026-09-03 13:00:50 | 47.28422 | 10.40648 | 140° | 64km/h | 4487m | -4.5m/s | 0°C | 0% | 0hPa | 4.3V | 00:00:00 | 00:00:00 | 00:00:00 | |
| NBG1-10 | 2026-09-03 13:00:46 | 47.28471 | 10.40585 | 139° | 68km/h | 4505m | -4.5m/s | 0°C | 0% | 0hPa | 4.3V | 00:00:00 | 00:00:00 | 00:00:00 | |
| DO3MHA-12 | 2026-09-03 13:00:45 | 47.28483 | 10.40569 | 139° | 66km/h | 4509m | -4.3m/s | 0°C | 0% | 0hPa | 4.3V | 00:00:00 | 00:00:00 | 00:00:00 | |
| DO3MHA-12 | 2026-09-03 13:00:40 | 47.28545 | 10.40488 | 138° | 66km/h | 4531m | -4.6m/s | 0°C | 0% | 0hPa | 4.3V | 00:00:00 | 00:00:00 | 00:00:00 | |
| DO3MHA-12 | 2026-09-03 13:00:35 | 47.28608 | 10.40406 | 139° | 68km/h | 4554m | -4.2m/s | 0°C | 0% | 0hPa | 4.3V | 00:00:00 | 00:00:00 | 00:00:00 | |
| DO3MHA-12 | 2026-09-03 13:00:30 | 47.28672 | 10.40321 | 138° | 68km/h | 4575m | -4.3m/s | 0°C | 0% | 0hPa | 4.3V | 00:00:00 | 00:00:00 | 00:00:00 | |
| DO3MHA-12 | 2026-09-03 13:00:25 | 47.28734 | 10.40235 | 137° | 68km/h | 4598m | -4.6m/s | 0°C | 0% | 0hPa | 4.3V | 00:00:00 | 00:00:00 | 00:00:00 | |
| DO3MHA-12 | 2026-09-03 13:00:20 | 47.28797 | 10.40147 | 137° | 68km/h | 4623m | -4.4m/s | 0°C | 0% | 0hPa | 4.3V | 00:00:00 | 00:00:00 | 00:00:00 | |
| DO3MHA-12 | 2026-09-03 13:00:15 | 47.28858 | 10.40060 | 136° | 69km/h | 4645m | -4.3m/s | 0°C | 0% | 0hPa | 4.3V | 00:00:00 | 00:00:00 | 00:00:00 | |
| NBG1-10 | 2026-09-03 13:00:13 | 47.28883 | 10.40024 | 136° | 69km/h | 4654m | -4.3m/s | 0°C | 0% | 0hPa | 4.3V | 00:00:00 | 00:00:00 | 00:00:00 | |
| DO3MHA-12 | 2026-09-03 13:00:10 | 47.28920 | 10.39970 | 135° | 68km/h | 4667m | -4.4m/s | 0°C | 0% | 0hPa | 4.3V | 00:00:00 | 00:00:00 | 00:00:00 | |
| DO3MHA-12 | 2026-09-03 13:00:05 | 47.28980 | 10.39880 | 134° | 69km/h | 4689m | -4.4m/s | 0°C | 0% | 0hPa | 4.3V | 00:00:00 | 00:00:00 | 00:00:00 | |
| DO3MHA-12 | 2026-09-03 13:00:00 | 47.29040 | 10.39787 | 134° | 69km/h | 4710m | -3.9m/s | 0°C | 0% | 0hPa | 4.3V | 00:00:00 | 00:00:00 | 00:00:00 | |
| DO3MHA-12 | 2026-09-03 12:59:55 | 47.29101 | 10.39692 | 133° | 69km/h | 4731m | -4.0m/s | 0°C | 0% | 0hPa | 4.3V | 00:00:00 | 00:00:00 | 00:00:00 | |
| DO3MHA-12 | 2026-09-03 12:59:50 | 47.29161 | 10.39596 | 132° | 69km/h | 4752m | -4.3m/s | 0°C | 0% | 0hPa | 4.3V | 00:00:00 | 00:00:00 | 00:00:00 | |
| DO3MHA-12 | 2026-09-03 12:59:45 | 47.29219 | 10.39499 | 131° | 69km/h | 4773m | -4.1m/s | 0°C | 0% | 0hPa | 4.3V | 00:00:00 | 00:00:00 | 00:00:00 | |
| DO3MHA-12 | 2026-09-03 12:59:40 | 47.29275 | 10.39400 | 130° | 69km/h | 4794m | -4.0m/s | 0°C | 0% | 0hPa | 4.3V | 00:00:00 | 00:00:00 | 00:00:00 | |
| DO3MHA-12 | 2026-09-03 12:59:35 | 47.29330 | 10.39300 | 130° | 69km/h | 4814m | -4.0m/s | 0°C | 0% | 0hPa | 4.3V | 00:00:00 | 00:00:00 | 00:00:00 | |
| DO3MHA-12 | 2026-09-03 12:59:30 | 47.29387 | 10.39199 | 130° | 69km/h | 4835m | -4.1m/s | 0°C | 0% | 0hPa | 4.3V | 00:00:00 | 00:00:00 | 00:00:00 | |
| DO3MHA-12 | 2026-09-03 12:59:25 | 47.29442 | 10.39100 | 129° | 69km/h | 4855m | -4.0m/s | 0°C | 0% | 0hPa | 4.3V | 00:00:00 | 00:00:00 | 00:00:00 | |
| DO3MHA-12 | 2026-09-03 12:59:20 | 47.29497 | 10.38998 | 129° | 71km/h | 4876m | -4.1m/s | 0°C | 0% | 0hPa | 4.3V | 00:00:00 | 00:00:00 | 00:00:00 | |
| DO3MHA-12 | 2026-09-03 12:59:15 | 47.29553 | 10.38895 | 129° | 71km/h | 4898m | -4.1m/s | 0°C | 0% | 0hPa | 4.3V | 00:00:00 | 00:00:00 | 00:00:00 | |
| DO3MHA-12 | 2026-09-03 12:59:10 | 47.29609 | 10.38792 | 129° | 71km/h | 4918m | -4.1m/s | 0°C | 0% | 0hPa | 4.3V | 00:00:00 | 00:00:00 | 00:00:00 | |
| NBG1-10 | 2026-09-03 12:59:07 | 47.29642 | 10.38730 | 129° | 73km/h | 4930m | -4.0m/s | 0°C | 0% | 0hPa | 4.3V | 00:00:00 | 00:00:00 | 00:00:00 | |
| DO3MHA-12 | 2026-09-03 12:59:05 | 47.29665 | 10.38690 | 130° | 71km/h | 4939m | -3.9m/s | 0°C | 0% | 0hPa | 4.3V | 00:00:00 | 00:00:00 | 00:00:00 | |
| DO3MHA-12 | 2026-09-03 12:59:00 | 47.29721 | 10.38587 | 129° | 71km/h | 4958m | -4.0m/s | 0°C | 0% | 0hPa | 4.3V | 00:00:00 | 00:00:00 | 00:00:00 | |
| DO3MHA-12 | 2026-09-03 12:58:55 | 47.29777 | 10.38485 | 129° | 71km/h | 4979m | -3.9m/s | 0°C | 0% | 0hPa | 4.3V | 00:00:00 | 00:00:00 | 00:00:00 | |
| DO3MHA-12 | 2026-09-03 12:58:50 | 47.29833 | 10.38379 | 129° | 73km/h | 4998m | -3.7m/s | 0°C | 0% | 0hPa | 4.3V | 00:00:00 | 00:00:00 | 00:00:00 | |
| DO3MHA-12 | 2026-09-03 12:58:40 | 47.29951 | 10.38168 | 130° | 75km/h | 5038m | -3.9m/s | 0°C | 0% | 0hPa | 4.3V | 00:00:00 | 00:00:00 | 00:00:00 | |
| NBG1-10 | 2026-09-03 12:58:34 | 47.30023 | 10.38038 | 129° | 78km/h | 5061m | -3.8m/s | 0°C | 0% | 0hPa | 4.3V | 00:00:00 | 00:00:00 | 00:00:00 | |
| DO3MHA-12 | 2026-09-03 12:58:20 | 47.30195 | 10.37725 | 128° | 80km/h | 5115m | -3.6m/s | 0°C | 0% | 0hPa | 4.3V | 00:00:00 | 00:00:00 | 00:00:00 | |
| DO3MHA-12 | 2026-09-03 12:58:10 | 47.30323 | 10.37493 | 130° | 80km/h | 5152m | -3.7m/s | 0°C | 0% | 0hPa | 4.3V | 00:00:00 | 00:00:00 | 00:00:00 | |
| DG1MJG | 2026-09-03 12:58:05 | 47.30388 | 10.37377 | 131° | 82km/h | 5166m | -3.6m/s | 47.0°C | 0% | 0hPa | 4.3V | 00:00:00 | 00:00:00 | 00:00:00 | |
| NBG1-10 | 2026-09-03 12:58:01 | 47.30442 | 10.37284 | 131° | 82km/h | 5185m | -3.5m/s | 0°C | 0% | 0hPa | 4.3V | 00:00:00 | 00:00:00 | 00:00:00 | |
| DO3MHA-12 | 2026-09-03 12:58:00 | 47.30456 | 10.37262 | 131° | 80km/h | 5188m | -3.4m/s | 0°C | 0% | 0hPa | 4.3V | 00:00:00 | 00:00:00 | 00:00:00 | |
| DO3MHA-12 | 2026-09-03 12:57:50 | 47.30589 | 10.37034 | 131° | 82km/h | 5224m | -3.6m/s | 0°C | 0% | 0hPa | 4.3V | 00:00:00 | 00:00:00 | 00:00:00 | |
| DO3MHA-12 | 2026-09-03 12:57:39 | 47.30739 | 10.36775 | 131° | 82km/h | 5263m | -3.4m/s | 0°C | 0% | 0hPa | 4.3V | 00:00:00 | 00:00:00 | 00:00:00 | |
| DG1MJG | 2026-09-03 12:57:35 | 47.30807 | 10.36657 | 131° | 82km/h | 5277m | -3.5m/s | -7.8°C | 0% | 0hPa | 4.3V | 00:00:00 | 00:00:00 | 00:00:00 | |
| NBG1-10 | 2026-09-03 12:57:28 | 47.30886 | 10.36514 | 130° | 82km/h | 5301m | -3.5m/s | 0°C | 0% | 0hPa | 4.3V | 00:00:00 | 00:00:00 | 00:00:00 | |
| DO3MHA-12 | 2026-09-03 12:57:19 | 47.31005 | 10.36300 | 129° | 82km/h | 5332m | -3.3m/s | 0°C | 0% | 0hPa | 4.3V | 00:00:00 | 00:00:00 | 00:00:00 | |
| DO3MHA-12 | 2026-09-03 12:57:09 | 47.31134 | 10.36060 | 128° | 82km/h | 5365m | -3.2m/s | 0°C | 0% | 0hPa | 4.3V | 00:00:00 | 00:00:00 | 00:00:00 | |
| DG1MJG | 2026-09-03 12:57:04 | 47.31197 | 10.35938 | 129° | 82km/h | 5379m | -3.3m/s | -8.5°C | 0% | 0hPa | 4.3V | 00:00:00 | 00:00:00 | 00:00:00 | |
| DO3MHA-12 | 2026-09-03 12:56:59 | 47.31262 | 10.35817 | 128° | 82km/h | 5398m | -3.4m/s | 0°C | 0% | 0hPa | 4.3V | 00:00:00 | 00:00:00 | 00:00:00 | |
| NBG1-10 | 2026-09-03 12:56:55 | 47.31312 | 10.35721 | 128° | 80km/h | 5411m | -3.3m/s | 0°C | 0% | 0hPa | 4.3V | 00:00:00 | 00:00:00 | 00:00:00 | |
| DO3MHA-12 | 2026-09-03 12:56:49 | 47.31388 | 10.35578 | 129° | 80km/h | 5432m | -3.1m/s | 0°C | 0% | 0hPa | 4.3V | 00:00:00 | 00:00:00 | 00:00:00 | |
| DO3MHA-12 | 2026-09-03 12:56:39 | 47.31516 | 10.35344 | 130° | 78km/h | 5465m | -3.3m/s | 0°C | 0% | 0hPa | 4.3V | 00:00:00 | 00:00:00 | 00:00:00 | |
| DG1MJG | 2026-09-03 12:56:34 | 47.31580 | 10.35231 | 131° | 78km/h | 5478m | -3.5m/s | -9.3°C | 0% | 0hPa | 4.3V | 00:00:00 | 00:00:00 | 00:00:00 | |
| DO3MHA-12 | 2026-09-03 12:56:29 | 47.31644 | 10.35119 | 131° | 78km/h | 5499m | -3.4m/s | 0°C | 0% | 0hPa | 4.3V | 00:00:00 | 00:00:00 | 00:00:00 | |
| NBG1-10 | 2026-09-03 12:56:22 | 47.31733 | 10.34961 | 130° | 80km/h | 5524m | -3.4m/s | 0°C | 0% | 0hPa | 4.3V | 00:00:00 | 00:00:00 | 00:00:00 | |
| DO3MHA-12 | 2026-09-03 12:56:19 | 47.31773 | 10.34893 | 132° | 80km/h | 5534m | -3.2m/s | 0°C | 0% | 0hPa | 4.3V | 00:00:00 | 00:00:00 | 00:00:00 | |
| DO3MHA-12 | 2026-09-03 12:56:09 | 47.31907 | 10.34670 | 131° | 80km/h | 5567m | -3.3m/s | 0°C | 0% | 0hPa | 4.3V | 00:00:00 | 00:00:00 | 00:00:00 | |
| DG1MJG | 2026-09-03 12:56:04 | 47.31974 | 10.34557 | 133° | 82km/h | 5581m | -3.5m/s | -9.9°C | 0% | 0hPa | 4.3V | 00:00:00 | 00:00:00 | 00:00:00 | |
| DO3MHA-12 | 2026-09-03 12:55:59 | 47.32043 | 10.34443 | 132° | 80km/h | 5603m | -3.4m/s | 0°C | 0% | 0hPa | 4.3V | 00:00:00 | 00:00:00 | 00:00:00 | |
| DO3MHA-12 | 2026-09-03 12:55:49 | 47.32180 | 10.34220 | 133° | 82km/h | 5638m | -3.6m/s | 0°C | 0% | 0hPa | 4.3V | 00:00:00 | 00:00:00 | 00:00:00 | |
| DO3MHA-12 | 2026-09-03 12:55:39 | 47.32318 | 10.33993 | 132° | 84km/h | 5675m | -3.7m/s | 0°C | 0% | 0hPa | 4.3V | 00:00:00 | 00:00:00 | 00:00:00 | |
| DG1MJG | 2026-09-03 12:55:35 | 47.32388 | 10.33878 | 133° | 84km/h | 5691m | -3.7m/s | -10.7°C | 0% | 0hPa | 4.3V | 00:00:00 | 00:00:00 | 00:00:00 | |
| DO3MHA-12 | 2026-09-03 12:55:29 | 47.32459 | 10.33764 | 132° | 84km/h | 5713m | -3.8m/s | 0°C | 0% | 0hPa | 4.3V | 00:00:00 | 00:00:00 | 00:00:00 | |
| DO3MHA-12 | 2026-09-03 12:55:19 | 47.32601 | 10.33534 | 133° | 84km/h | 5752m | -4.0m/s | 0°C | 0% | 0hPa | 4.3V | 00:00:00 | 00:00:00 | 00:00:00 | |
| NBG1-10 | 2026-09-03 12:55:16 | 47.32645 | 10.33465 | 134° | 86km/h | 5764m | -4.1m/s | 0°C | 0% | 0hPa | 4.3V | 00:00:00 | 00:00:00 | 00:00:00 | |
| DO3MHA-12 | 2026-09-03 12:55:09 | 47.32747 | 10.33303 | 134° | 86km/h | 5794m | -4.2m/s | 0°C | 0% | 0hPa | 4.3V | 00:00:00 | 00:00:00 | 00:00:00 | |
| DG1MJG | 2026-09-03 12:55:04 | 47.32836 | 10.33164 | 135° | 86km/h | 5815m | -4.1m/s | -11.7°C | 0% | 0hPa | 4.3V | 00:00:00 | 00:00:00 | 00:00:00 | |
| DO3MHA-12 | 2026-09-03 12:54:59 | 47.32896 | 10.33071 | 134° | 88km/h | 5837m | -4.2m/s | 0°C | 0% | 0hPa | 4.3V | 00:00:00 | 00:00:00 | 00:00:00 | |
| DO3MHA-12 | 2026-09-03 12:54:49 | 47.33043 | 10.32830 | 132° | 88km/h | 5880m | -4.0m/s | 0°C | 0% | 0hPa | 4.3V | 00:00:00 | 00:00:00 | 00:00:00 | |
| NBG1-10 | 2026-09-03 12:54:43 | 47.33132 | 10.32684 | 134° | 86km/h | 5906m | -4.2m/s | 0°C | 0% | 0hPa | 4.3V | 00:00:00 | 00:00:00 | 00:00:00 | |
| DO3MHA-12 | 2026-09-03 12:54:38 | 47.33210 | 10.32566 | 134° | 86km/h | 5928m | -4.4m/s | 0°C | 0% | 0hPa | 4.3V | 00:00:00 | 00:00:00 | 00:00:00 | |
| DG1MJG | 2026-09-03 12:54:34 | 47.33284 | 10.32451 | 135° | 84km/h | 5946m | -4.6m/s | -12.3°C | 0% | 0hPa | 4.3V | 00:00:00 | 00:00:00 | 00:00:00 | |
| DO3MHA-12 | 2026-09-03 12:54:28 | 47.33361 | 10.32340 | 137° | 86km/h | 5974m | -4.5m/s | 0°C | 0% | 0hPa | 4.3V | 00:00:00 | 00:00:00 | 00:00:00 | |
| DO3MHA-12 | 2026-09-03 12:54:18 | 47.33516 | 10.32119 | 137° | 88km/h | 6020m | -4.5m/s | 0°C | 0% | 0hPa | 4.3V | 00:00:00 | 00:00:00 | 00:00:00 | |
| NBG1-10 | 2026-09-03 12:54:10 | 47.33646 | 10.31943 | 138° | 93km/h | 6059m | -5.2m/s | 0°C | 0% | 0hPa | 4.3V | 00:00:00 | 00:00:00 | 00:00:00 | |
| DO3MHA-12 | 2026-09-03 12:54:08 | 47.33678 | 10.31898 | 136° | 91km/h | 6070m | -5.3m/s | 0°C | 0% | 0hPa | 4.3V | 00:00:00 | 00:00:00 | 00:00:00 | |
| DB0NH | 2026-09-03 12:54:03 | 47.33758 | 10.31782 | 136° | 93km/h | 6100m | -6.0m/s | 0°C | 0% | 0hPa | 4.3V | 00:00:00 | 00:00:00 | 00:00:00 | |
| DG1MJG | 2026-09-03 12:54:02 | 47.33775 | 10.31758 | 138° | 91km/h | 6100m | -6.1m/s | -13.0°C | 0% | 0hPa | 4.3V | 00:00:00 | 00:00:00 | 00:00:00 | |
| DO3MHA-12 | 2026-09-03 12:53:58 | 47.33842 | 10.31662 | 132° | 95km/h | 6133m | -5.7m/s | 0°C | 0% | 0hPa | 4.3V | 00:00:00 | 00:00:00 | 00:00:00 | |
| DO3MHA-12 | 2026-09-03 12:53:48 | 47.34000 | 10.31396 | 130° | 95km/h | 6196m | -6.5m/s | 0°C | 0% | 0hPa | 4.3V | 00:00:00 | 00:00:00 | 00:00:00 | |
| DO3MHA-12 | 2026-09-03 12:53:38 | 47.34149 | 10.31125 | 128° | 91km/h | 6265m | -7.4m/s | 0°C | 0% | 0hPa | 4.3V | 00:00:00 | 00:00:00 | 00:00:00 | |
| NBG1-10 | 2026-09-03 12:53:37 | 47.34163 | 10.31097 | 128° | 91km/h | 6273m | -9.4m/s | 0°C | 0% | 0hPa | 4.3V | 00:00:00 | 00:00:00 | 00:00:00 | |
| DB0NH | 2026-09-03 12:53:33 | 47.34221 | 10.30987 | 129° | 89km/h | 6305m | -7.9m/s | 0°C | 0% | 0hPa | 4.3V | 00:00:00 | 00:00:00 | 00:00:00 | |
| DG1MJG | 2026-09-03 12:53:31 | 47.34249 | 10.30934 | 127° | 89km/h | 6313m | -8.6m/s | -14.6°C | 0% | 0hPa | 4.3V | 00:00:00 | 00:00:00 | 00:00:00 | |
| DO3MHA-12 | 2026-09-03 12:53:28 | 47.34286 | 10.30852 | 121° | 89km/h | 6347m | -8.3m/s | 0°C | 0% | 0hPa | 4.3V | 00:00:00 | 00:00:00 | 00:00:00 | |
| DO3MHA-12 | 2026-09-03 12:53:18 | 47.34405 | 10.30572 | 124° | 91km/h | 6427m | -7.6m/s | 0°C | 0% | 0hPa | 4.3V | 00:00:00 | 00:00:00 | 00:00:00 | |
| DO3MHA-12 | 2026-09-03 12:53:08 | 47.34532 | 10.30291 | 123° | 93km/h | 6501m | -7.2m/s | 0°C | 0% | 0hPa | 4.3V | 00:00:00 | 00:00:00 | 00:00:00 | |
| DB0UT-7 | 2026-09-03 12:53:07 | 47.34544 | 10.30262 | 123° | 89km/h | 6508m | -7.0m/s | 0°C | 0% | 0hPa | 4.3V | 00:00:00 | 00:00:00 | 00:00:00 | |
| NBG1-10 | 2026-09-03 12:53:04 | 47.34583 | 10.30173 | 123° | 89km/h | 6529m | -6.5m/s | 0°C | 0% | 0hPa | 4.3V | 00:00:00 | 00:00:00 | 00:00:00 | |
| DL6DJ-15 | 2026-09-03 12:53:03 | 47.34622 | 10.30086 | 123° | 89km/h | 6543m | -7.1m/s | -16.6°C | -1.0% | -1.0hPa | 4.3V | 00:00:00 | 00:00:00 | 00:00:00 | |
| DG1MJG | 2026-09-03 12:53:00 | 47.34634 | 10.30058 | 125° | 91km/h | 6550m | -7.1m/s | -16.5°C | 0% | 0hPa | 4.3V | 00:00:00 | 00:00:00 | 00:00:00 | |
| DO3MHA-12 | 2026-09-03 12:52:58 | 47.34660 | 10.30004 | 124° | 89km/h | 6570m | -6.6m/s | 0°C | 0% | 0hPa | 4.3V | 00:00:00 | 00:00:00 | 00:00:00 | |
| DO3MHA-12 | 2026-09-03 12:52:48 | 47.34788 | 10.29725 | 127° | 88km/h | 6634m | -6.6m/s | 0°C | 0% | 0hPa | 4.3V | 00:00:00 | 00:00:00 | 00:00:00 | |
| DO3MHA-12 | 2026-09-03 12:52:38 | 47.34926 | 10.29468 | 129° | 88km/h | 6696m | -6.0m/s | 0°C | 0% | 0hPa | 4.3V | 00:00:00 | 00:00:00 | 00:00:00 | |
| DB0UT-7 | 2026-09-03 12:52:37 | 47.34940 | 10.29443 | 129° | 88km/h | 6702m | -6.0m/s | 0°C | 0% | 0hPa | 4.3V | 00:00:00 | 00:00:00 | 00:00:00 | |
| NBG1-10 | 2026-09-03 12:52:31 | 47.35025 | 10.29290 | 129° | 89km/h | 6738m | -6.0m/s | 0°C | 0% | 0hPa | 4.3V | 00:00:00 | 00:00:00 | 00:00:00 | |
| DG1MJG | 2026-09-03 12:52:30 | 47.35039 | 10.29264 | 130° | 89km/h | 6738m | -6.1m/s | -16.4°C | 0% | 0hPa | 4.3V | 00:00:00 | 00:00:00 | 00:00:00 | |
| DO3MHA-12 | 2026-09-03 12:52:28 | 47.35068 | 10.29213 | 131° | 89km/h | 6757m | -5.9m/s | 0°C | 0% | 0hPa | 4.3V | 00:00:00 | 00:00:00 | 00:00:00 | |
| DO3MHA-12 | 2026-09-03 12:52:18 | 47.35211 | 10.28959 | 129° | 89km/h | 6817m | -6.1m/s | 0°C | 0% | 0hPa | 4.3V | 00:00:00 | 00:00:00 | 00:00:00 | |
| DO3MHA-12 | 2026-09-03 12:52:08 | 47.35350 | 10.28699 | 129° | 89km/h | 6878m | -6.1m/s | 0°C | 0% | 0hPa | 4.3V | 00:00:00 | 00:00:00 | 00:00:00 | |
| DB0UT-7 | 2026-09-03 12:52:07 | 47.35364 | 10.28673 | 129° | 89km/h | 6884m | -5.9m/s | 0°C | 0% | 0hPa | 4.3V | 00:00:00 | 00:00:00 | 00:00:00 | |
| DB0ND-19 | 2026-09-03 12:52:03 | 47.35435 | 10.28543 | 129° | 89km/h | 6908m | -6.1m/s | -16.7°C | -1.0% | -1.0hPa | 4.3V | 00:00:00 | 00:00:00 | 00:00:00 | |
| DB0NH | 2026-09-03 12:51:59 | 47.35479 | 10.28465 | 130° | 93km/h | 6933m | -6.1m/s | 0°C | 0% | 0hPa | 4.3V | 00:00:00 | 00:00:00 | 00:00:00 | |
| DO3MHA-12 | 2026-09-03 12:51:58 | 47.35493 | 10.28439 | 130° | 89km/h | 6939m | -6.0m/s | 0°C | 0% | 0hPa | 4.3V | 00:00:00 | 00:00:00 | 00:00:00 | |
| DO3MHA-12 | 2026-09-03 12:51:48 | 47.35635 | 10.28176 | 129° | 89km/h | 7000m | -5.8m/s | 0°C | 0% | 0hPa | 4.3V | 00:00:00 | 00:00:00 | 00:00:00 | |
| DO3MHA-12 | 2026-09-03 12:51:38 | 47.35781 | 10.27919 | 131° | 91km/h | 7061m | -6.1m/s | 0°C | 0% | 0hPa | 4.3V | 00:00:00 | 00:00:00 | 00:00:00 | |
| DB0UT-7 | 2026-09-03 12:51:37 | 47.35795 | 10.27894 | 131° | 91km/h | 7067m | -6.0m/s | 0°C | 0% | 0hPa | 4.3V | 00:00:00 | 00:00:00 | 00:00:00 | |
| DG1MJG | 2026-09-03 12:51:29 | 47.35915 | 10.27689 | 132° | 91km/h | 7109m | -5.9m/s | -18.9°C | 0% | 0hPa | 4.3V | 00:00:00 | 00:00:00 | 00:00:00 | |
| DO3MHA-12 | 2026-09-03 12:51:28 | 47.35930 | 10.27663 | 131° | 91km/h | 7120m | -6.0m/s | 0°C | 0% | 0hPa | 4.3V | 00:00:00 | 00:00:00 | 00:00:00 | |
| DO3MHA-12 | 2026-09-03 12:51:18 | 47.36079 | 10.27401 | 130° | 91km/h | 7182m | -6.0m/s | 0°C | 0% | 0hPa | 4.3V | 00:00:00 | 00:00:00 | 00:00:00 | |
| NBG1-10 | 2026-09-03 12:51:13 | 47.36153 | 10.27268 | 130° | 97km/h | 7212m | -5.8m/s | 0°C | 0% | 0hPa | 4.3V | 00:00:00 | 00:00:00 | 00:00:00 | |
| DO3MHA-12 | 2026-09-03 12:51:07 | 47.36242 | 10.27109 | 130° | 95km/h | 7248m | -5.7m/s | 0°C | 0% | 0hPa | 4.3V | 00:00:00 | 00:00:00 | 00:00:00 | |
| DG1MJG | 2026-09-03 12:50:59 | 47.36362 | 10.26887 | 130° | 99km/h | 7290m | -5.7m/s | -20.5°C | 0% | 0hPa | 4.3V | 00:00:00 | 00:00:00 | 00:00:00 | |
| DO3MHA-12 | 2026-09-03 12:50:57 | 47.36393 | 10.26831 | 130° | 100km/h | 7307m | -5.7m/s | 0°C | 0% | 0hPa | 4.3V | 00:00:00 | 00:00:00 | 00:00:00 | |
| DO3MHA-12 | 2026-09-03 12:50:47 | 47.36553 | 10.26541 | 130° | 102km/h | 7367m | -6.1m/s | 0°C | 0% | 0hPa | 4.3V | 00:00:00 | 00:00:00 | 00:00:00 | |
| NBG1-10 | 2026-09-03 12:50:40 | 47.36669 | 10.26341 | 131° | 104km/h | 7417m | -6.1m/s | 0°C | 0% | 0hPa | 4.3V | 00:00:00 | 00:00:00 | 00:00:00 | |
| DO3MHA-12 | 2026-09-03 12:50:37 | 47.36719 | 10.26252 | 130° | 102km/h | 7429m | -6.1m/s | 0°C | 0% | 0hPa | 4.3V | 00:00:00 | 00:00:00 | 00:00:00 | |
| DG1MJG | 2026-09-03 12:50:29 | 47.36851 | 10.26019 | 131° | 102km/h | 7473m | -6.2m/s | -20.7°C | 0% | 0hPa | 4.3V | 00:00:00 | 00:00:00 | 00:00:00 | |
| DO3MHA-12 | 2026-09-03 12:50:17 | 47.37056 | 10.25665 | 131° | 106km/h | 7555m | -6.4m/s | 0°C | 0% | 0hPa | 4.3V | 00:00:00 | 00:00:00 | 00:00:00 | |
| DO3MHA-12 | 2026-09-03 12:50:07 | 47.37229 | 10.25366 | 131° | 104km/h | 7619m | -6.3m/s | 0°C | 0% | 0hPa | 4.3V | 00:00:00 | 00:00:00 | 00:00:00 | |
| DB0UT-7 | 2026-09-03 12:50:06 | 47.37247 | 10.25336 | 132° | 106km/h | 7625m | -6.3m/s | 0°C | 0% | 0hPa | 4.3V | 00:00:00 | 00:00:00 | 00:00:00 | |
| DG1MJG | 2026-09-03 12:49:59 | 47.37368 | 10.25133 | 132° | 106km/h | 7663m | -6.3m/s | -22.3°C | 0% | 0hPa | 4.3V | 00:00:00 | 00:00:00 | 00:00:00 | |
| DO3MHA-12 | 2026-09-03 12:49:57 | 47.37403 | 10.25074 | 131° | 106km/h | 7682m | -6.3m/s | 0°C | 0% | 0hPa | 4.3V | 00:00:00 | 00:00:00 | 00:00:00 | |
| DO3MHA-12 | 2026-09-03 12:49:47 | 47.37578 | 10.24774 | 131° | 108km/h | 7747m | -6.1m/s | 0°C | 0% | 0hPa | 4.3V | 00:00:00 | 00:00:00 | 00:00:00 | |
| DB0NH | 2026-09-03 12:49:39 | 47.37719 | 10.24527 | 130° | 117km/h | 7869m | -6.2m/s | 0°C | 0% | 0hPa | 4.3V | 00:00:00 | 00:00:00 | 00:00:00 | |
| DO3MHA-12 | 2026-09-03 12:49:37 | 47.37756 | 10.24464 | 131° | 110km/h | 7811m | -6.3m/s | 0°C | 0% | 0hPa | 4.3V | 00:00:00 | 00:00:00 | 00:00:00 | |
| DB0UT-7 | 2026-09-03 12:49:36 | 47.37774 | 10.24433 | 131° | 113km/h | 7818m | -6.3m/s | 0°C | 0% | 0hPa | 4.3V | 00:00:00 | 00:00:00 | 00:00:00 | |
| NBG1-10 | 2026-09-03 12:49:34 | 47.37810 | 10.24372 | 132° | 115km/h | 7831m | -6.2m/s | 0°C | 0% | 0hPa | 4.3V | 00:00:00 | 00:00:00 | 00:00:00 | |
| DG1MJG | 2026-09-03 12:49:29 | 47.37902 | 10.24216 | 132° | 113km/h | 7857m | -6.5m/s | -23.9°C | 0% | 0hPa | 4.3V | 00:00:00 | 00:00:00 | 00:00:00 | |
| DO3MHA-12 | 2026-09-03 12:49:27 | 47.37939 | 10.24153 | 132° | 113km/h | 7876m | -6.0m/s | 0°C | 0% | 0hPa | 4.3V | 00:00:00 | 00:00:00 | 00:00:00 | |
| DO3MHA-12 | 2026-09-03 12:49:17 | 47.38130 | 10.23836 | 131° | 117km/h | 7938m | -6.0m/s | 0°C | 0% | 0hPa | 4.3V | 00:00:00 | 00:00:00 | 00:00:00 | |
| DO3MHA-12 | 2026-09-03 12:49:07 | 47.38325 | 10.23509 | 131° | 119km/h | 8000m | -6.2m/s | 0°C | 0% | 0hPa | 4.3V | 00:00:00 | 00:00:00 | 00:00:00 | |
| DB0UT-7 | 2026-09-03 12:49:06 | 47.38344 | 10.23475 | 132° | 117km/h | 8006m | -6.2m/s | 0°C | 0% | 0hPa | 4.3V | 00:00:00 | 00:00:00 | 00:00:00 | |
| DB0NH | 2026-09-03 12:49:03 | 47.38403 | 10.23376 | 131° | 119km/h | 8025m | -6.1m/s | 0°C | 0% | 0hPa | 4.3V | 00:00:00 | 00:00:00 | 00:00:00 | |
| NBG1-10 | 2026-09-03 12:49:01 | 47.38442 | 10.23309 | 131° | 119km/h | 8038m | -6.0m/s | 0°C | 0% | 0hPa | 4.3V | 00:00:00 | 00:00:00 | 00:00:00 | |
| DG1MJG | 2026-09-03 12:48:59 | 47.38481 | 10.23241 | 132° | 119km/h | 8044m | -6.3m/s | -25.3°C | 0% | 0hPa | 4.3V | 00:00:00 | 00:00:00 | 00:00:00 | |
| DO3MHA-12 | 2026-09-03 12:48:57 | 47.38521 | 10.23173 | 132° | 120km/h | 8063m | -6.1m/s | 0°C | 0% | 0hPa | 4.3V | 00:00:00 | 00:00:00 | 00:00:00 | |
| DO3MHA-12 | 2026-09-03 12:48:47 | 47.38722 | 10.22840 | 132° | 119km/h | 8125m | -6.1m/s | 0°C | 0% | 0hPa | 4.3V | 00:00:00 | 00:00:00 | 00:00:00 | |
| DN1GJH-1 | 2026-09-03 12:48:46 | 47.38742 | 10.22806 | 133° | 120km/h | 8125m | -6.2m/s | -25.9°C | 0% | 0hPa | 4.3V | 00:00:00 | 00:00:00 | 00:00:00 | |
| DO3MHA-12 | 2026-09-03 12:48:37 | 47.38924 | 10.22508 | 133° | 119km/h | 8186m | -6.0m/s | 0°C | 0% | 0hPa | 4.3V | 00:00:00 | 00:00:00 | 00:00:00 | |
| DB0NH | 2026-09-03 12:48:33 | 47.39005 | 10.22376 | 132° | 117km/h | 8211m | -6.0m/s | 0°C | 0% | 0hPa | 4.3V | 00:00:00 | 00:00:00 | 00:00:00 | |
| DG1MJG | 2026-09-03 12:48:29 | 47.39084 | 10.22242 | 132° | 119km/h | 8229m | -6.1m/s | -26.7°C | 0% | 0hPa | 4.3V | 00:00:00 | 00:00:00 | 00:00:00 | |
| NBG1-10 | 2026-09-03 12:48:28 | 47.39104 | 10.22209 | 131° | 117km/h | 8241m | -6.0m/s | 0°C | 0% | 0hPa | 4.3V | 00:00:00 | 00:00:00 | 00:00:00 | |
| DO3MHA-12 | 2026-09-03 12:48:27 | 47.39123 | 10.22175 | 131° | 119km/h | 8248m | -6.0m/s | 0°C | 0% | 0hPa | 4.3V | 00:00:00 | 00:00:00 | 00:00:00 | |
| DN1GJH-1 | 2026-09-03 12:48:25 | 47.39163 | 10.22109 | 133° | 117km/h | 8254m | -6.1m/s | -26.8°C | 0% | 0hPa | 4.3V | 00:00:00 | 00:00:00 | 00:00:00 | |
| DO3MHA-12 | 2026-09-03 12:48:17 | 47.39325 | 10.21847 | 132° | 117km/h | 8308m | -6.1m/s | 0°C | 0% | 0hPa | 4.3V | 00:00:00 | 00:00:00 | 00:00:00 | |
| DO3MHA-12 | 2026-09-03 12:48:06 | 47.39541 | 10.21490 | 132° | 115km/h | 8373m | -5.9m/s | 0°C | 0% | 0hPa | 4.3V | 00:00:00 | 00:00:00 | 00:00:00 | |
| DB0NH | 2026-09-03 12:48:03 | 47.39599 | 10.21392 | 132° | 117km/h | 8386m | -6.0m/s | 0°C | 0% | 0hPa | 4.3V | 00:00:00 | 00:00:00 | 00:00:00 | |
| DG1MJG | 2026-09-03 12:47:58 | 47.39696 | 10.21232 | 134° | 115km/h | 8416m | -6.0m/s | -28.1°C | 0% | 0hPa | 4.3V | 00:00:00 | 00:00:00 | 00:00:00 | |
| DO3MHA-12 | 2026-09-03 12:47:56 | 47.39735 | 10.21170 | 133° | 117km/h | 8434m | -5.9m/s | 0°C | 0% | 0hPa | 4.3V | 00:00:00 | 00:00:00 | 00:00:00 | |
| NBG1-10 | 2026-09-03 12:47:55 | 47.39756 | 10.21137 | 133° | 117km/h | 8440m | -5.9m/s | 0°C | 0% | 0hPa | 4.3V | 00:00:00 | 00:00:00 | 00:00:00 | |
| DO3MHA-12 | 2026-09-03 12:47:46 | 47.39932 | 10.20846 | 134° | 117km/h | 8493m | -5.9m/s | 0°C | 0% | 0hPa | 4.3V | 00:00:00 | 00:00:00 | 00:00:00 | |
| DN1GJH-1 | 2026-09-03 12:47:45 | 47.39952 | 10.20814 | 135° | 115km/h | 8493m | -6.0m/s | -28.7°C | 0% | 0hPa | 4.3V | 00:00:00 | 00:00:00 | 00:00:00 | |
| DB0UT-7 | 2026-09-03 12:47:40 | 47.40053 | 10.20654 | 132° | 117km/h | 8530m | -5.9m/s | 0°C | 0% | 0hPa | 4.3V | 00:00:00 | 00:00:00 | 00:00:00 | |
| DO3MHA-12 | 2026-09-03 12:47:36 | 47.40131 | 10.20524 | 133° | 117km/h | 8554m | -5.8m/s | 0°C | 0% | 0hPa | 4.3V | 00:00:00 | 00:00:00 | 00:00:00 | |
| DB0NH | 2026-09-03 12:47:33 | 47.40191 | 10.20429 | 134° | 117km/h | 8571m | -5.9m/s | 0°C | 0% | 0hPa | 4.3V | 00:00:00 | 00:00:00 | 00:00:00 | |
| DG1MJG | 2026-09-03 12:47:28 | 47.40293 | 10.20270 | 133° | 119km/h | 8594m | -5.7m/s | -29.5°C | 0% | 0hPa | 4.3V | 00:00:00 | 00:00:00 | 00:00:00 | |
| DO3MHA-12 | 2026-09-03 12:47:26 | 47.40334 | 10.20205 | 133° | 117km/h | 8611m | -5.8m/s | 0°C | 0% | 0hPa | 4.3V | 00:00:00 | 00:00:00 | 00:00:00 | |
| NBG1-10 | 2026-09-03 12:47:22 | 47.40414 | 10.20081 | 135° | 119km/h | 8634m | -5.7m/s | 0°C | 0% | 0hPa | 4.3V | 00:00:00 | 00:00:00 | 00:00:00 | |
| DN1GJH-1 | 2026-09-03 12:47:21 | 47.40435 | 10.20050 | 135° | 117km/h | 8634m | -5.7m/s | -29.8°C | 0% | 0hPa | 4.3V | 00:00:00 | 00:00:00 | 00:00:00 | |
| DO3MHA-12 | 2026-09-03 12:47:16 | 47.40540 | 10.19892 | 135° | 117km/h | 8667m | -5.9m/s | 0°C | 0% | 0hPa | 4.3V | 00:00:00 | 00:00:00 | 00:00:00 | |
| DB0UT-7 | 2026-09-03 12:47:10 | 47.40665 | 10.19708 | 137° | 120km/h | 8701m | -5.6m/s | 0°C | 0% | 0hPa | 4.3V | 00:00:00 | 00:00:00 | 00:00:00 | |
| DO3MHA-12 | 2026-09-03 12:47:06 | 47.40751 | 10.19584 | 135° | 119km/h | 8724m | -5.6m/s | 0°C | 0% | 0hPa | 4.3V | 00:00:00 | 00:00:00 | 00:00:00 | |
| DN1GJH-1 | 2026-09-03 12:47:00 | 47.40878 | 10.19395 | 136° | 115km/h | 8752m | -5.7m/s | -30.7°C | 0% | 0hPa | 4.3V | 00:00:00 | 00:00:00 | 00:00:00 | |
| DO3MHA-12 | 2026-09-03 12:46:56 | 47.40963 | 10.19274 | 136° | 120km/h | 8779m | -5.7m/s | 0°C | 0% | 0hPa | 4.3V | 00:00:00 | 00:00:00 | 00:00:00 | |
| NBG1-10 | 2026-09-03 12:46:49 | 47.41112 | 10.19052 | 136° | 120km/h | 8819m | -5.5m/s | 0°C | 0% | 0hPa | 4.3V | 00:00:00 | 00:00:00 | 00:00:00 | |
| DO3MHA-12 | 2026-09-03 12:46:46 | 47.41177 | 10.18958 | 137° | 120km/h | 8836m | -5.7m/s | 0°C | 0% | 0hPa | 4.3V | 00:00:00 | 00:00:00 | 00:00:00 | |
| DN1GJH-1 | 2026-09-03 12:46:39 | 47.41331 | 10.18735 | 136° | 120km/h | 8870m | -5.7m/s | -31.7°C | 0% | 0hPa | 4.3V | 00:00:00 | 00:00:00 | 00:00:00 | |
| DO3MHA-12 | 2026-09-03 12:46:36 | 47.41395 | 10.18642 | 136° | 120km/h | 8893m | -5.7m/s | 0°C | 0% | 0hPa | 4.3V | 00:00:00 | 00:00:00 | 00:00:00 | |
| DG1MJG | 2026-09-03 12:46:27 | 47.41592 | 10.18360 | 137° | 120km/h | 8939m | -5.6m/s | -32.3°C | 0% | 0hPa | 4.3V | 00:00:00 | 00:00:00 | 00:00:00 | |
| DK7TD | 2026-09-03 12:46:26 | 47.41637 | 10.18298 | 137° | 120km/h | 8950m | -6m/s | -32.4°C | 0% | 0hPa | 4.3V | 00:00:00 | 00:00:00 | 00:00:00 | |
| DO3MHA-12 | 2026-09-03 12:46:26 | 47.41614 | 10.18328 | 137° | 119km/h | 8950m | -6.0m/s | 0°C | 0% | 0hPa | 4.3V | 00:00:00 | 00:00:00 | 00:00:00 | |
| DN1GJH-1 | 2026-09-03 12:46:18 | 47.41789 | 10.18084 | 137° | 119km/h | 8992m | -5.8m/s | -32.6°C | 0% | 0hPa | 4.3V | 00:00:00 | 00:00:00 | 00:00:00 | |
| DO3MHA-12 | 2026-09-03 12:46:16 | 47.41832 | 10.18023 | 137° | 120km/h | 9009m | -5.8m/s | 0°C | 0% | 0hPa | 4.3V | 00:00:00 | 00:00:00 | 00:00:00 | |
| DK7TD | 2026-09-03 12:46:15 | 47.41877 | 10.17962 | 137° | 120km/h | 9014m | -6m/s | -32.9°C | 0% | 0hPa | 4.3V | 00:00:00 | 00:00:00 | 00:00:00 | |
| DB0UT-7 | 2026-09-03 12:46:05 | 47.42080 | 10.17691 | 139° | 120km/h | 9072m | -5.6m/s | 0°C | 0% | 0hPa | 4.3V | 00:00:00 | 00:00:00 | 00:00:00 | |
| DK7TD | 2026-09-03 12:46:04 | 47.42126 | 10.17632 | 139° | 120km/h | 9077m | -5.8m/s | -33.4°C | 0% | 0hPa | 4.3V | 00:00:00 | 00:00:00 | 00:00:00 | |
| DG1MJG | 2026-09-03 12:45:57 | 47.42263 | 10.17454 | 140° | 119km/h | 9111m | -5.7m/s | -33.7°C | 0% | 0hPa | 4.3V | 00:00:00 | 00:00:00 | 00:00:00 | |
| DO3MHA-12 | 2026-09-03 12:45:56 | 47.42286 | 10.17425 | 140° | 120km/h | 9123m | -5.7m/s | 0°C | 0% | 0hPa | 4.3V | 00:00:00 | 00:00:00 | 00:00:00 | |
| DK7TD | 2026-09-03 12:45:54 | 47.42355 | 10.17336 | 139° | 120km/h | 9134m | -6m/s | -33.8°C | 0% | 0hPa | 4.3V | 00:00:00 | 00:00:00 | 00:00:00 | |
| DN1GJH-1 | 2026-09-03 12:45:47 | 47.42493 | 10.17161 | 140° | 119km/h | 9169m | -6.1m/s | -34.1°C | 0% | 0hPa | 4.3V | 00:00:00 | 00:00:00 | 00:00:00 | |
| DO3MHA-12 | 2026-09-03 12:45:46 | 47.42516 | 10.17132 | 140° | 120km/h | 9181m | -5.9m/s | 0°C | 0% | 0hPa | 4.3V | 00:00:00 | 00:00:00 | 00:00:00 | |
| DK7TD | 2026-09-03 12:45:43 | 47.42609 | 10.17016 | 139° | 120km/h | 9199m | -6.1m/s | -34.3°C | 0% | 0hPa | 4.3V | 00:00:00 | 00:00:00 | 00:00:00 | |
| NBG1-10 | 2026-09-03 12:45:43 | 47.42586 | 10.17045 | 140° | 122km/h | 9199m | -6.0m/s | 0°C | 0% | 0hPa | 4.2V | 00:00:00 | 00:00:00 | 00:00:00 | |
| DO3MHA-12 | 2026-09-03 12:45:36 | 47.42748 | 10.16839 | 141° | 120km/h | 9239m | -5.8m/s | 0°C | 0% | 0hPa | 4.2V | 00:00:00 | 00:00:00 | 00:00:00 | |
| DB0UT-7 | 2026-09-03 12:45:35 | 47.42771 | 10.16810 | 141° | 122km/h | 9245m | -5.7m/s | 0°C | 0% | 0hPa | 4.2V | 00:00:00 | 00:00:00 | 00:00:00 | |
| DK7TD | 2026-09-03 12:45:32 | 47.42865 | 10.16694 | 139° | 120km/h | 9262m | -5.6m/s | -34.9°C | 0% | 0hPa | 4.2V | 00:00:00 | 00:00:00 | 00:00:00 | |
| IW2NTF | 2026-09-03 12:45:31 | 47.42934 | 10.16606 | 138° | 122km/h | 9279m | -5.5m/s | 0°C | 0% | 0hPa | 0V | 00:00:00 | 00:00:00 | 00:00:00 | |
| DG1MJG | 2026-09-03 12:45:27 | 47.42957 | 10.16576 | 140° | 122km/h | 9284m | -5.4m/s | -35.1°C | 0% | 0hPa | 4.3V | 00:00:00 | 00:00:00 | 00:00:00 | |
| DO3MHA-12 | 2026-09-03 12:45:26 | 47.42980 | 10.16546 | 139° | 122km/h | 9295m | -5.6m/s | 0°C | 0% | 0hPa | 4.3V | 00:00:00 | 00:00:00 | 00:00:00 | |
| DK7TD | 2026-09-03 12:45:21 | 47.43118 | 10.16365 | 139° | 120km/h | 9323m | -5.6m/s | -35.5°C | 0% | 0hPa | 4.3V | 00:00:00 | 00:00:00 | 00:00:00 | |
| IW2NTF | 2026-09-03 12:45:18 | 47.43165 | 10.16306 | 139° | 122km/h | 9340m | -5.7m/s | 0°C | 0% | 0hPa | 0V | 00:00:00 | 00:00:00 | 00:00:00 | |
| DO3MHA-12 | 2026-09-03 12:45:16 | 47.43212 | 10.16247 | 140° | 124km/h | 9352m | -5.6m/s | 0°C | 0% | 0hPa | 0V | 00:00:00 | 00:00:00 | 00:00:00 | |
| IW2NTF | 2026-09-03 12:45:12 | 47.43401 | 10.15998 | 137° | 124km/h | 9396m | -5.5m/s | 0°C | 0% | 0hPa | 0V | 00:00:00 | 00:00:00 | 00:00:00 | |
| DK7TD | 2026-09-03 12:45:11 | 47.43355 | 10.16061 | 137° | 126km/h | 9380m | -5.6m/s | -36°C | 0% | 0hPa | 4.3V | 00:00:00 | 00:00:00 | 00:00:00 | |
| NBG1-10 | 2026-09-03 12:45:10 | 47.43355 | 10.16061 | 138° | 124km/h | 9385m | -5.5m/s | 0°C | 0% | 0hPa | 0V | 00:00:00 | 00:00:00 | 00:00:00 | |
| DO3MHA-12 | 2026-09-03 12:45:06 | 47.43447 | 10.15935 | 139° | 126km/h | 9407m | -5.4m/s | 0°C | 0% | 0hPa | 0V | 00:00:00 | 00:00:00 | 00:00:00 | |
| IW2NTF | 2026-09-03 12:44:58 | 47.43637 | 10.15686 | 137° | 126km/h | 9451m | -5.3m/s | 0°C | 0% | 0hPa | 0V | 00:00:00 | 00:00:00 | 00:00:00 | |
| DG1MJG | 2026-09-03 12:44:57 | 47.43661 | 10.15654 | 138° | 128km/h | 9451m | -5.3m/s | -36.6°C | 0% | 0hPa | 4.3V | 00:00:00 | 00:00:00 | 00:00:00 | |
| DO3MHA-12 | 2026-09-03 12:44:56 | 47.43684 | 10.15622 | 138° | 124km/h | 9462m | -5.5m/s | 0°C | 0% | 0hPa | 4.3V | 00:00:00 | 00:00:00 | 00:00:00 | |
| DN1GJH-1 | 2026-09-03 12:44:54 | 47.43731 | 10.15558 | 138° | 124km/h | 9467m | -5.3m/s | -36.7°C | 0% | 0hPa | 4.3V | 00:00:00 | 00:00:00 | 00:00:00 | |
| DK7TD | 2026-09-03 12:44:49 | 47.43872 | 10.15374 | 139° | 126km/h | 9500m | -5.7m/s | -37°C | 0% | 0hPa | 4.3V | 00:00:00 | 00:00:00 | 00:00:00 | |
| IW2NTF | 2026-09-03 12:44:48 | 47.43872 | 10.15374 | 139° | 124km/h | 9506m | -5.8m/s | 0°C | 0% | 0hPa | 0V | 00:00:00 | 00:00:00 | 00:00:00 | |
| DO3MHA-12 | 2026-09-03 12:44:46 | 47.43920 | 10.15313 | 140° | 122km/h | 9517m | -5.6m/s | 0°C | 0% | 0hPa | 4.3V | 00:00:00 | 00:00:00 | 00:00:00 | |
| DK7TD | 2026-09-03 12:44:39 | 47.44107 | 10.15075 | 139° | 122km/h | 9556m | -5.9m/s | -37.5°C | 0% | 0hPa | 4.3V | 00:00:00 | 00:00:00 | 00:00:00 | |
| IW2NTF | 2026-09-03 12:44:38 | 47.44107 | 10.15075 | 139° | 122km/h | 9562m | -5.9m/s | 0°C | 0% | 0hPa | 0V | 00:00:00 | 00:00:00 | 00:00:00 | |
| NBG1-10 | 2026-09-03 12:44:37 | 47.44131 | 10.15044 | 140° | 124km/h | 9568m | -5.8m/s | 0°C | 0% | 0hPa | 0V | 00:00:00 | 00:00:00 | 00:00:00 | |
| DO3MHA-12 | 2026-09-03 12:44:35 | 47.44180 | 10.14983 | 140° | 124km/h | 9580m | -5.7m/s | 0°C | 0% | 0hPa | 0V | 00:00:00 | 00:00:00 | 00:00:00 | |
| DN1GJH-1 | 2026-09-03 12:44:33 | 47.44228 | 10.14921 | 140° | 126km/h | 9585m | -5.7m/s | -37.7°C | 0% | 0hPa | 0V | 00:00:00 | 00:00:00 | 00:00:00 | |
| IW2NTF | 2026-09-03 12:44:28 | 47.44345 | 10.14767 | 139° | 124km/h | 9619m | -5.9m/s | 0°C | 0% | 0hPa | 0V | 00:00:00 | 00:00:00 | 00:00:00 | |
| DK7TD | 2026-09-03 12:44:28 | 47.44369 | 10.14737 | 139° | 124km/h | 9619m | -5.9m/s | -38°C | 0% | 0hPa | 4.3V | 00:00:00 | 00:00:00 | 00:00:00 | |
| DG1MJG | 2026-09-03 12:44:27 | 47.44369 | 10.14737 | 140° | 124km/h | 9619m | -5.9m/s | -38.0°C | 0% | 0hPa | 0V | 00:00:00 | 00:00:00 | 00:00:00 | |
| DO3MHA-12 | 2026-09-03 12:44:25 | 47.44417 | 10.14676 | 141° | 124km/h | 9637m | -5.8m/s | 0°C | 0% | 0hPa | 0V | 00:00:00 | 00:00:00 | 00:00:00 | |
| DB0NH | 2026-09-03 12:44:24 | 47.44442 | 10.14646 | 141° | 124km/h | 9643m | -5.8m/s | 0°C | 0% | 0hPa | 0V | 00:00:00 | 00:00:00 | 00:00:00 | |
| IW2NTF | 2026-09-03 12:44:18 | 47.44587 | 10.14466 | 139° | 122km/h | 9677m | -5.8m/s | 0°C | 0% | 0hPa | 0V | 00:00:00 | 00:00:00 | 00:00:00 | |
| DK7TD | 2026-09-03 12:44:17 | 47.44611 | 10.14436 | 140° | 124km/h | 9677m | -5.8m/s | -38.5°C | 0% | 0hPa | 4.3V | 00:00:00 | 00:00:00 | 00:00:00 | |
| DO3MHA-12 | 2026-09-03 12:44:15 | 47.44659 | 10.14377 | 141° | 124km/h | 9695m | -5.8m/s | 0°C | 0% | 0hPa | 0V | 00:00:00 | 00:00:00 | 00:00:00 | |
| IW2NTF | 2026-09-03 12:44:08 | 47.44828 | 10.14167 | 140° | 122km/h | 9735m | -5.8m/s | 0°C | 0% | 0hPa | 0V | 00:00:00 | 00:00:00 | 00:00:00 | |
| DK7TD | 2026-09-03 12:44:06 | 47.44900 | 10.14082 | 142° | 120km/h | 9747m | -5.8m/s | -39°C | 0% | 0hPa | 4.3V | 00:00:00 | 00:00:00 | 00:00:00 | |
| DO3MHA-12 | 2026-09-03 12:44:05 | 47.44900 | 10.14082 | 142° | 122km/h | 9753m | -6.0m/s | 0°C | 0% | 0hPa | 0V | 00:00:00 | 00:00:00 | 00:00:00 | |
| NBG1-10 | 2026-09-03 12:44:04 | 47.44924 | 10.14054 | 143° | 122km/h | 9758m | -5.8m/s | 0°C | 0% | 0hPa | 0V | 00:00:00 | 00:00:00 | 00:00:00 | |
| IW2NTF | 2026-09-03 12:43:58 | 47.45071 | 10.13881 | 139° | 124km/h | 9795m | -6.4m/s | 0°C | 0% | 0hPa | 0V | 00:00:00 | 00:00:00 | 00:00:00 | |
| DG1MJG | 2026-09-03 12:43:56 | 47.45118 | 10.13821 | 141° | 122km/h | 9801m | -6.2m/s | -39.5°C | 0% | 0hPa | 4.3V | 00:00:00 | 00:00:00 | 00:00:00 | |
| DK7TD | 2026-09-03 12:43:55 | 47.45166 | 10.13764 | 142° | 120km/h | 9814m | -6.3m/s | -39.6°C | 0% | 0hPa | 4.3V | 00:00:00 | 00:00:00 | 00:00:00 | |
| DO3MHA-12 | 2026-09-03 12:43:55 | 47.45142 | 10.13792 | 142° | 122km/h | 9814m | -6.3m/s | 0°C | 0% | 0hPa | 0V | 00:00:00 | 00:00:00 | 00:00:00 | |
| DB0NH | 2026-09-03 12:43:49 | 47.45288 | 10.13624 | 141° | 122km/h | 9852m | -6.3m/s | 0°C | 0% | 0hPa | 0V | 00:00:00 | 00:00:00 | 00:00:00 | |
| IW2NTF | 2026-09-03 12:43:48 | 47.45313 | 10.13594 | 140° | 126km/h | 9858m | -6.2m/s | 0°C | 0% | 0hPa | 0V | 00:00:00 | 00:00:00 | 00:00:00 | |
| DN1GJH-1 | 2026-09-03 12:43:47 | 47.45337 | 10.13564 | 140° | 124km/h | 9858m | -6.2m/s | -40.0°C | 0% | 0hPa | 4.3V | 00:00:00 | 00:00:00 | 00:00:00 | |
| DO3MHA-12 | 2026-09-03 12:43:45 | 47.45385 | 10.13504 | 140° | 122km/h | 9877m | -6.0m/s | 0°C | 0% | 0hPa | 4.3V | 00:00:00 | 00:00:00 | 00:00:00 | |
| DK7TD | 2026-09-03 12:43:44 | 47.45432 | 10.13445 | 141° | 120km/h | 9883m | -5.9m/s | -40.2°C | 0% | 0hPa | 4.3V | 00:00:00 | 00:00:00 | 00:00:00 | |
| OE3JTB-15 | 2026-09-03 12:43:41 | 47.45529 | 10.13305 | 143° | 122km/h | 9913m | -6.4m/s | 0°C | 0% | 0hPa | 0V | 00:00:00 | 00:00:00 | 00:00:00 | |
| IW2NTF | 2026-09-03 12:43:38 | 47.45553 | 10.13306 | 141° | 124km/h | 9919m | -6.3m/s | 0°C | 0% | 0hPa | 0V | 00:00:00 | 00:00:00 | 00:00:00 | |
| DO3MHA-12 | 2026-09-03 12:43:35 | 47.45626 | 10.13218 | 140° | 122km/h | 9938m | -6.1m/s | 0°C | 0% | 0hPa | 4.3V | 00:00:00 | 00:00:00 | 00:00:00 | |
| DK7TD | 2026-09-03 12:43:34 | 47.45673 | 10.13160 | 140° | 122km/h | 9944m | -6.2m/s | -40.7°C | 0% | 0hPa | 4.3V | 00:00:00 | 00:00:00 | 00:00:00 | |
| NBG1-10 | 2026-09-03 12:43:31 | 47.45721 | 10.13102 | 142° | 120km/h | 9963m | -6.3m/s | 0°C | 0% | 0hPa | 0V | 00:00:00 | 00:00:00 | 00:00:00 | |
| IW2NTF | 2026-09-03 12:43:29 | 47.45793 | 10.13017 | 141° | 122km/h | 9981m | -6.1m/s | 0°C | 0% | 0hPa | 0V | 00:00:00 | 00:00:00 | 00:00:00 | |
| DN1GJH-1 | 2026-09-03 12:43:27 | 47.45817 | 10.12989 | 143° | 122km/h | 9981m | -6.1m/s | -41.0°C | 0% | 0hPa | 4.3V | 00:00:00 | 00:00:00 | 00:00:00 | |
| DG1MJG | 2026-09-03 12:43:26 | 47.45842 | 10.12960 | 142° | 122km/h | 9987m | -6.2m/s | -41.0°C | 0% | 0hPa | 4.3V | 00:00:00 | 00:00:00 | 00:00:00 | |
| DO3MHA-12 | 2026-09-03 12:43:25 | 47.45866 | 10.12932 | 142° | 120km/h | 10000m | -6.1m/s | 0°C | 0% | 0hPa | 4.3V | 00:00:00 | 00:00:00 | 00:00:00 | |
| DK7TD | 2026-09-03 12:43:23 | 47.45936 | 10.12847 | 140° | 119km/h | 10012m | -6.1m/s | -41.3°C | 0% | 0hPa | 4.3V | 00:00:00 | 00:00:00 | 00:00:00 | |
| DB0NH | 2026-09-03 12:43:19 | 47.46006 | 10.12761 | 140° | 120km/h | 10048m | -5.7m/s | 0°C | 0% | 0hPa | 0V | 00:00:00 | 00:00:00 | 00:00:00 | |
| IW2NTF | 2026-09-03 12:43:18 | 47.46030 | 10.12733 | 139° | 120km/h | 10042m | -5.5m/s | 0°C | 0% | 0hPa | 0V | 00:00:00 | 00:00:00 | 00:00:00 | |
| DO3MHA-12 | 2026-09-03 12:43:15 | 47.46101 | 10.12647 | 142° | 120km/h | 10058m | -5.4m/s | 0°C | 0% | 0hPa | 4.3V | 00:00:00 | 00:00:00 | 00:00:00 | |
| DK7TD | 2026-09-03 12:43:12 | 47.46199 | 10.12536 | 142° | 120km/h | 10075m | -5.4m/s | -41.8°C | 0% | 0hPa | 4.3V | 00:00:00 | 00:00:00 | 00:00:00 | |
| OE3JTB-15 | 2026-09-03 12:43:11 | 47.46247 | 10.12480 | 142° | 120km/h | 10101m | -6.7m/s | 0°C | 0% | 0hPa | 0V | 00:00:00 | 00:00:00 | 00:00:00 | |
| IW2NTF | 2026-09-03 12:43:08 | 47.46271 | 10.12452 | 141° | 120km/h | 10100m | -6.7m/s | 0°C | 0% | 0hPa | 0V | 00:00:00 | 00:00:00 | 00:00:00 | |
| DN1GJH-1 | 2026-09-03 12:43:06 | 47.46318 | 10.12395 | 141° | 119km/h | 10107m | -5.8m/s | -42.1°C | 0% | 0hPa | 46.5V | 00:00:00 | 00:00:00 | 00:00:00 | |
| DO3MHA-12 | 2026-09-03 12:43:05 | 47.46341 | 10.12367 | 140° | 122km/h | 10118m | -5.7m/s | 0°C | 0% | 0hPa | 46.5V | 00:00:00 | 00:00:00 | 00:00:00 | |
| DF3TZ-5 | 2026-09-03 12:43:03 | 47.46433 | 10.12249 | 139° | 122km/h | 10137m | -7.5m/s | -42.5°C | -1.0% | -1.0hPa | 46.5V | 00:00:00 | 00:00:00 | 00:00:00 | |
| DK7TD | 2026-09-03 12:43:01 | 47.46457 | 10.12219 | 140° | 124km/h | 10145m | -8.3m/s | -42.5°C | 0% | 0hPa | 46.5V | 00:00:00 | 00:00:00 | 00:00:00 | |
| IW2NTF | 2026-09-03 12:42:58 | 47.46505 | 10.12161 | 141° | 124km/h | 10170m | -8.3m/s | 0°C | 0% | 0hPa | 0V | 00:00:00 | 00:00:00 | 00:00:00 | |
| NBG1-10 | 2026-09-03 12:42:58 | 47.46505 | 10.12161 | 142° | 122km/h | 10170m | -8.3m/s | 0°C | 0% | 0hPa | 0V | 00:00:00 | 00:00:00 | 00:00:00 | |
| DO3MHA-12 | 2026-09-03 12:42:55 | 47.46578 | 10.12077 | 142° | 119km/h | 10192m | -7.6m/s | 0°C | 0% | 0hPa | 0V | 00:00:00 | 00:00:00 | 00:00:00 | |
| IW2NTF | 2026-09-03 12:42:51 | 47.46744 | 10.11881 | 139° | 117km/h | 10236m | -6m/s | 0°C | 0% | 0hPa | 0V | 00:00:00 | 00:00:00 | 00:00:00 | |
| DB0NH | 2026-09-03 12:42:49 | 47.46721 | 10.11908 | 141° | 122km/h | 10231m | -5.2m/s | 0°C | 0% | 0hPa | 0V | 00:00:00 | 00:00:00 | 00:00:00 | |
| DK7TD | 2026-09-03 12:42:49 | 47.46744 | 10.11881 | 140° | 117km/h | 10230m | -5.2m/s | -43.2°C | 0% | 0hPa | 4.3V | 00:00:00 | 00:00:00 | 00:00:00 | |
| DO3MHA-12 | 2026-09-03 12:42:45 | 47.46812 | 10.11795 | 140° | 120km/h | 10253m | -5.0m/s | 0°C | 0% | 0hPa | 0V | 00:00:00 | 00:00:00 | 00:00:00 | |
| DN1GJH-1 | 2026-09-03 12:42:44 | 47.46834 | 10.11766 | 141° | 120km/h | 10253m | -5.1m/s | -43.4°C | 0% | 0hPa | 0V | 00:00:00 | 00:00:00 | 00:00:00 | |
| OE3JTB-15 | 2026-09-03 12:42:42 | 47.46928 | 10.11651 | 141° | 122km/h | 10274m | -4.9m/s | 0°C | 0% | 0hPa | 0V | 00:00:00 | 00:00:00 | 00:00:00 | |
| IW2NTF | 2026-09-03 12:42:38 | 47.46976 | 10.11594 | 140° | 122km/h | 10288m | -4.5m/s | 0°C | 0% | 0hPa | 0V | 00:00:00 | 00:00:00 | 00:00:00 | |
| DO3MHA-12 | 2026-09-03 12:42:35 | 47.47049 | 10.11506 | 141° | 124km/h | 10303m | -4.6m/s | 0°C | 0% | 0hPa | 4.3V | 00:00:00 | 00:00:00 | 00:00:00 | |
| DB0UT-7 | 2026-09-03 12:42:34 | 47.47073 | 10.11477 | 141° | 124km/h | 10308m | -4.8m/s | 0°C | 0% | 0hPa | 4.3V | 00:00:00 | 00:00:00 | 00:00:00 | |
| DK7TD | 2026-09-03 12:42:33 | 47.47097 | 10.11448 | 141° | 124km/h | 10308m | -4.8m/s | -43.8°C | 0% | 0hPa | 4.3V | 00:00:00 | 00:00:00 | 00:00:00 | |
| IW2NTF | 2026-09-03 12:42:31 | 47.47218 | 10.11303 | 140° | 124km/h | 10337m | -4.9m/s | 0°C | 0% | 0hPa | 0V | 00:00:00 | 00:00:00 | 00:00:00 | |
| DG1MJG | 2026-09-03 12:42:26 | 47.47266 | 10.11244 | 141° | 124km/h | 10342m | -4.7m/s | -44.1°C | 0% | 0hPa | 4.3V | 00:00:00 | 00:00:00 | 00:00:00 | |
| DO3MHA-12 | 2026-09-03 12:42:25 | 47.47291 | 10.11214 | 141° | 122km/h | 10351m | -5.1m/s | 0°C | 0% | 0hPa | 4.3V | 00:00:00 | 00:00:00 | 00:00:00 | |
| DK7TD | 2026-09-03 12:42:23 | 47.47363 | 10.11128 | 141° | 122km/h | 10361m | -5m/s | -44.3°C | 0% | 0hPa | 4.3V | 00:00:00 | 00:00:00 | 00:00:00 | |
| IW2NTF | 2026-09-03 12:42:21 | 47.47458 | 10.11012 | 140° | 122km/h | 10386m | -5m/s | 0°C | 0% | 0hPa | 0V | 00:00:00 | 00:00:00 | 00:00:00 | |
| DB0NH | 2026-09-03 12:42:19 | 47.47434 | 10.11041 | 141° | 124km/h | 10381m | -5.1m/s | 0°C | 0% | 0hPa | 4.3V | 00:00:00 | 00:00:00 | 00:00:00 | |
| DO3MHA-12 | 2026-09-03 12:42:15 | 47.47531 | 10.10925 | 142° | 124km/h | 10401m | -5.0m/s | 0°C | 0% | 0hPa | 4.3V | 00:00:00 | 00:00:00 | 00:00:00 | |
| DK7TD | 2026-09-03 12:42:12 | 47.47629 | 10.10809 | 141° | 124km/h | 10416m | -4.9m/s | -44.7°C | 0% | 0hPa | 4.3V | 00:00:00 | 00:00:00 | 00:00:00 | |
| IW2NTF | 2026-09-03 12:42:11 | 47.47702 | 10.10721 | 139° | 124km/h | 10436m | -5.1m/s | 0°C | 0% | 0hPa | 0V | 00:00:00 | 00:00:00 | 00:00:00 | |
| DO3MHA-12 | 2026-09-03 12:42:05 | 47.47775 | 10.10631 | 142° | 122km/h | 10451m | -4.7m/s | 0°C | 0% | 0hPa | 0V | 00:00:00 | 00:00:00 | 00:00:00 | |
| DB0UT-7 | 2026-09-03 12:42:04 | 47.47799 | 10.10602 | 142° | 126km/h | 10456m | -5.0m/s | 0°C | 0% | 0hPa | 0V | 00:00:00 | 00:00:00 | 00:00:00 | |
| DN1GJH-1 | 2026-09-03 12:42:03 | 47.47824 | 10.10573 | 142° | 122km/h | 10456m | -5.1m/s | -45.1°C | 0% | 0hPa | 0V | 00:00:00 | 00:00:00 | 00:00:00 | |
| IW2NTF | 2026-09-03 12:42:01 | 47.47943 | 10.10433 | 141° | 122km/h | 10487m | -5.1m/s | 0°C | 0% | 0hPa | 0V | 00:00:00 | 00:00:00 | 00:00:00 | |
| DK7TD | 2026-09-03 12:42:01 | 47.47895 | 10.10489 | 142° | 120km/h | 10471m | -5.5m/s | -45.2°C | 0% | 0hPa | 4.3V | 00:00:00 | 00:00:00 | 00:00:00 | |
| DG1MJG | 2026-09-03 12:41:56 | 47.48018 | 10.10346 | 143° | 128km/h | 10497m | -5.5m/s | -45.5°C | 0% | 0hPa | 0V | 00:00:00 | 00:00:00 | 00:00:00 | |
| DO3MHA-12 | 2026-09-03 12:41:55 | 47.48018 | 10.10346 | 143° | 126km/h | 10502m | -4.9m/s | 0°C | 0% | 0hPa | 0V | 00:00:00 | 00:00:00 | 00:00:00 | |
| NBG1-10 | 2026-09-03 12:41:52 | 47.48095 | 10.10258 | 142° | 128km/h | 10517m | -5.2m/s | 0°C | 0% | 0hPa | 0V | 00:00:00 | 00:00:00 | 00:00:00 | |
| DB0NH | 2026-09-03 12:41:49 | 47.48171 | 10.10171 | 142° | 128km/h | 10533m | -5.6m/s | 0°C | 0% | 0hPa | 0V | 00:00:00 | 00:00:00 | 00:00:00 | |
| IW2NTF | 2026-09-03 12:41:48 | 47.48196 | 10.10142 | 141° | 124km/h | 10538m | -5.1m/s | 0°C | 0% | 0hPa | 0V | 00:00:00 | 00:00:00 | 00:00:00 | |
| DO3MHA-12 | 2026-09-03 12:41:45 | 47.48270 | 10.10055 | 142° | 128km/h | 10552m | -4.9m/s | 0°C | 0% | 0hPa | 0V | 00:00:00 | 00:00:00 | 00:00:00 | |
| OE3JTB-15 | 2026-09-03 12:41:44 | 47.48295 | 10.10027 | 143° | 130km/h | 10552m | -4.9m/s | 0°C | 0% | 0hPa | 0V | 00:00:00 | 00:00:00 | 00:00:00 | |
| DN1GJH-1 | 2026-09-03 12:41:42 | 47.48345 | 10.09968 | 143° | 128km/h | 10562m | -4.7m/s | -46.0°C | 0% | 0hPa | 0V | 00:00:00 | 00:00:00 | 00:00:00 | |
| IW2NTF | 2026-09-03 12:41:38 | 47.48448 | 10.09849 | 141° | 128km/h | 10587m | -5.2m/s | 0°C | 0% | 0hPa | 0V | 00:00:00 | 00:00:00 | 00:00:00 | |
| DO3MHA-12 | 2026-09-03 12:41:35 | 47.48523 | 10.09762 | 143° | 130km/h | 10602m | -5.2m/s | 0°C | 0% | 0hPa | 4.3V | 00:00:00 | 00:00:00 | 00:00:00 | |
| DB0UT-7 | 2026-09-03 12:41:34 | 47.48548 | 10.09733 | 143° | 131km/h | 10607m | -4.7m/s | 0°C | 0% | 0hPa | 4.3V | 00:00:00 | 00:00:00 | 00:00:00 | |
| DK7TD | 2026-09-03 12:41:29 | 47.48704 | 10.09558 | 143° | 133km/h | 10631m | -5.3m/s | -46.6°C | 0% | 0hPa | 4.3V | 00:00:00 | 00:00:00 | 00:00:00 | |
| IW2NTF | 2026-09-03 12:41:28 | 47.48703 | 10.09558 | 142° | 133km/h | 10636m | -4.9m/s | 0°C | 0% | 0hPa | 0V | 00:00:00 | 00:00:00 | 00:00:00 | |
| DO3MHA-12 | 2026-09-03 12:41:25 | 47.48783 | 10.09469 | 144° | 130km/h | 10652m | -5.4m/s | 0°C | 0% | 0hPa | 0V | 00:00:00 | 00:00:00 | 00:00:00 | |
| DN1GJH-1 | 2026-09-03 12:41:21 | 47.48889 | 10.09353 | 144° | 128km/h | 10667m | -5.0m/s | -46.9°C | 0% | 0hPa | 0V | 00:00:00 | 00:00:00 | 00:00:00 | |
| NBG1-10 | 2026-09-03 12:41:19 | 47.48941 | 10.09295 | 143° | 133km/h | 10681m | -5.0m/s | 0°C | 0% | 0hPa | 0V | 00:00:00 | 00:00:00 | 00:00:00 | |
| IW2NTF | 2026-09-03 12:41:18 | 47.48967 | 10.09266 | 142° | 130km/h | 10686m | -5.2m/s | 0°C | 0% | 0hPa | 0V | 00:00:00 | 00:00:00 | 00:00:00 | |
| DK7TD | 2026-09-03 12:41:18 | 47.48993 | 10.09237 | 143° | 130km/h | 10687m | -5.2m/s | -47.1°C | 0% | 0hPa | 4.3V | 00:00:00 | 00:00:00 | 00:00:00 | |
| OE3JTB-15 | 2026-09-03 12:41:15 | 47.49099 | 10.09123 | 145° | 135km/h | 10712m | -5.0m/s | 0°C | 0% | 0hPa | 0V | 00:00:00 | 00:00:00 | 00:00:00 | |
| IW2NTF | 2026-09-03 12:41:13 | 47.49236 | 10.08979 | 143° | 131km/h | 10738m | -6m/s | 0°C | 0% | 0hPa | 0V | 00:00:00 | 00:00:00 | 00:00:00 | |
| DK7TD | 2026-09-03 12:41:07 | 47.49290 | 10.08920 | 143° | 130km/h | 10744m | -5.8m/s | -47.6°C | 0% | 0hPa | 4.3V | 00:00:00 | 00:00:00 | 00:00:00 | |
| DO3MHA-12 | 2026-09-03 12:41:04 | 47.49343 | 10.08861 | 144° | 135km/h | 10759m | -4.9m/s | 0°C | 0% | 0hPa | 0V | 00:00:00 | 00:00:00 | 00:00:00 | |
| DN1GJH-1 | 2026-09-03 12:41:01 | 47.49423 | 10.08774 | 145° | 133km/h | 10770m | -5.1m/s | -47.8°C | 0% | 0hPa | 0V | 00:00:00 | 00:00:00 | 00:00:00 | |
| IW2NTF | 2026-09-03 12:40:58 | 47.49507 | 10.08687 | 144° | 137km/h | 10791m | -5m/s | 0°C | 0% | 0hPa | 0V | 00:00:00 | 00:00:00 | 00:00:00 | |
| DG1MJG | 2026-09-03 12:40:56 | 47.49592 | 10.08599 | 145° | 137km/h | 10802m | -5.1m/s | -48.0°C | 0% | 0hPa | 4.3V | 00:00:00 | 00:00:00 | 00:00:00 | |
| DK7TD | 2026-09-03 12:40:54 | 47.49647 | 10.08539 | 144° | 135km/h | 10812m | -5.6m/s | -48.1°C | 0% | 0hPa | 4.3V | 00:00:00 | 00:00:00 | 00:00:00 | |
| DO3MHA-12 | 2026-09-03 12:40:54 | 47.49619 | 10.08569 | 145° | 137km/h | 10812m | -5.5m/s | 0°C | 0% | 0hPa | 0V | 00:00:00 | 00:00:00 | 00:00:00 | |
| IW2NTF | 2026-09-03 12:40:53 | 47.49788 | 10.08390 | 144° | 141km/h | 10844m | -5.2m/s | 0°C | 0% | 0hPa | 0V | 00:00:00 | 00:00:00 | 00:00:00 | |
| DB0NH | 2026-09-03 12:40:49 | 47.49759 | 10.08420 | 145° | 137km/h | 10838m | -5.2m/s | 0°C | 0% | 0hPa | 4.3V | 00:00:00 | 00:00:00 | 00:00:00 | |
| NBG1-10 | 2026-09-03 12:40:46 | 47.49845 | 10.08329 | 145° | 137km/h | 10854m | -5.3m/s | 0°C | 0% | 0hPa | 4.3V | 00:00:00 | 00:00:00 | 00:00:00 | |
| DK7TD | 2026-09-03 12:40:44 | 47.49931 | 10.08240 | 145° | 137km/h | 10864m | -5.4m/s | -48.3°C | 0% | 0hPa | 4.3V | 00:00:00 | 00:00:00 | 00:00:00 | |
| IW2NTF | 2026-09-03 12:40:42 | 47.50071 | 10.08095 | 144° | 133km/h | 10896m | -5.7m/s | 0°C | 0% | 0hPa | 0V | 00:00:00 | 00:00:00 | 00:00:00 | |
| DN1GJH-1 | 2026-09-03 12:40:41 | 47.50016 | 10.08153 | 146° | 133km/h | 10880m | -5.2m/s | -48.5°C | 0% | 0hPa | 4.3V | 00:00:00 | 00:00:00 | 00:00:00 | |
| DO3MHA-12 | 2026-09-03 12:40:34 | 47.50183 | 10.07978 | 144° | 139km/h | 10917m | -5.2m/s | 0°C | 0% | 0hPa | 4.3V | 00:00:00 | 00:00:00 | 00:00:00 | |
| DK7TD | 2026-09-03 12:40:33 | 47.50240 | 10.07916 | 144° | 141km/h | 10922m | -5.2m/s | -48.8°C | 0% | 0hPa | 4.3V | 00:00:00 | 00:00:00 | 00:00:00 | |
| DO8TBO-1 | 2026-09-03 12:40:32 | 47.50240 | 10.07916 | 144° | 139km/h | 10933m | -5.1m/s | 0°C | 0% | 0hPa | 0V | 00:00:00 | 00:00:00 | 00:00:00 | |
| IW2NTF | 2026-09-03 12:40:31 | 47.50355 | 10.07795 | 146° | 137km/h | 10948m | -5.1m/s | 0°C | 0% | 0hPa | 0V | 00:00:00 | 00:00:00 | 00:00:00 | |
| DO3MHA-12 | 2026-09-03 12:40:24 | 47.50469 | 10.07684 | 147° | 139km/h | 10970m | -5.5m/s | 0°C | 0% | 0hPa | 4.3V | 00:00:00 | 00:00:00 | 00:00:00 | |
| DK7TD | 2026-09-03 12:40:22 | 47.50556 | 10.07596 | 145° | 141km/h | 10980m | -5.5m/s | -49.4°C | 0% | 0hPa | 4.3V | 00:00:00 | 00:00:00 | 00:00:00 | |
| IW2NTF | 2026-09-03 12:40:21 | 47.50644 | 10.07504 | 144° | 141km/h | 11001m | -5.7m/s | 0°C | 0% | 0hPa | 0V | 00:00:00 | 00:00:00 | 00:00:00 | |
| DN1GJH-1 | 2026-09-03 12:40:20 | 47.50586 | 10.07565 | 145° | 142km/h | 10986m | -5.6m/s | -49.4°C | 0% | 0hPa | 4.3V | 00:00:00 | 00:00:00 | 00:00:00 | |
| DB0NH | 2026-09-03 12:40:19 | 47.50615 | 10.07534 | 144° | 139km/h | 11001m | -5.6m/s | 0°C | 0% | 0hPa | 4.3V | 00:00:00 | 00:00:00 | 00:00:00 | |
| DO3MHA-12 | 2026-09-03 12:40:14 | 47.50759 | 10.07385 | 146° | 139km/h | 11023m | -5.6m/s | 0°C | 0% | 0hPa | 4.3V | 00:00:00 | 00:00:00 | 00:00:00 | |
| NBG1-10 | 2026-09-03 12:40:13 | 47.50788 | 10.07356 | 145° | 141km/h | 11028m | -5.2m/s | 0°C | 0% | 0hPa | 4.3V | 00:00:00 | 00:00:00 | 00:00:00 | |
| DK7TD | 2026-09-03 12:40:11 | 47.50873 | 10.07267 | 145° | 137km/h | 11039m | -5.9m/s | -49.9°C | 0% | 0hPa | 4.3V | 00:00:00 | 00:00:00 | 00:00:00 | |
| IW2NTF | 2026-09-03 12:40:09 | 47.50930 | 10.07208 | 144° | 139km/h | 11056m | -5.7m/s | 0°C | 0% | 0hPa | 0V | 00:00:00 | 00:00:00 | 00:00:00 | |
| DO3MHA-12 | 2026-09-03 12:40:04 | 47.51047 | 10.07088 | 146° | 139km/h | 11077m | -5.5m/s | 0°C | 0% | 0hPa | 4.3V | 00:00:00 | 00:00:00 | 00:00:00 | |
| DB0UT-7 | 2026-09-03 12:40:03 | 47.51077 | 10.07058 | 146° | 141km/h | 11083m | -5.4m/s | 0°C | 0% | 0hPa | 4.3V | 00:00:00 | 00:00:00 | 00:00:00 | |
| DO8TBO-1 | 2026-09-03 12:40:02 | 47.51106 | 10.07029 | 146° | 146km/h | 11094m | -5.3m/s | 0°C | 0% | 0hPa | 4.3V | 00:00:00 | 00:00:00 | 00:00:00 | |
| DK7TD | 2026-09-03 12:40:00 | 47.51194 | 10.06941 | 145° | 137km/h | 11099m | -5.1m/s | -50.4°C | 0% | 0hPa | 4.3V | 00:00:00 | 00:00:00 | 00:00:00 | |
| DN1GJH-1 | 2026-09-03 12:39:59 | 47.51193 | 10.06941 | 146° | 137km/h | 11099m | -5.1m/s | -50.4°C | 0% | 0hPa | 4.3V | 00:00:00 | 00:00:00 | 00:00:00 | |
| DO3MHA-12 | 2026-09-03 12:39:54 | 47.51334 | 10.06790 | 146° | 142km/h | 11131m | -5.4m/s | 0°C | 0% | 0hPa | 4.3V | 00:00:00 | 00:00:00 | 00:00:00 | |
| DG1MJG | 2026-09-03 12:39:53 | 47.51363 | 10.06760 | 146° | 141km/h | 11131m | -5.4m/s | -50.7°C | 0% | 0hPa | 4.3V | 00:00:00 | 00:00:00 | 00:00:00 | |
| DK7TD | 2026-09-03 12:39:50 | 47.51482 | 10.06642 | 146° | 144km/h | 11152m | -5.9m/s | -50.9°C | 0% | 0hPa | 4.3V | 00:00:00 | 00:00:00 | 00:00:00 | |
| DB0NH | 2026-09-03 12:39:47 | 47.51542 | 10.06582 | 146° | 142km/h | 11169m | -5.3m/s | 0°C | 0% | 0hPa | 0V | 00:00:00 | 00:00:00 | 00:00:00 | |
| DO3MHA-12 | 2026-09-03 12:39:44 | 47.51630 | 10.06492 | 146° | 141km/h | 11186m | -5.6m/s | 0°C | 0% | 0hPa | 0V | 00:00:00 | 00:00:00 | 00:00:00 | |
| IW2NTF | 2026-09-03 12:39:41 | 47.51805 | 10.06315 | 146° | 141km/h | 11218m | -5.1m/s | 0°C | 0% | 0hPa | 0V | 00:00:00 | 00:00:00 | 00:00:00 | |
| NBG1-10 | 2026-09-03 12:39:40 | 47.51745 | 10.06373 | 146° | 142km/h | 11207m | -5.2m/s | 0°C | 0% | 0hPa | 4.3V | 00:00:00 | 00:00:00 | 00:00:00 | |
| DK7TD | 2026-09-03 12:39:39 | 47.51805 | 10.06315 | 147° | 141km/h | 11212m | -5.8m/s | -51.4°C | 0% | 0hPa | 4.3V | 00:00:00 | 00:00:00 | 00:00:00 | |
| DO3MHA-12 | 2026-09-03 12:39:34 | 47.51927 | 10.06199 | 147° | 142km/h | 11239m | -5.4m/s | 0°C | 0% | 0hPa | 0V | 00:00:00 | 00:00:00 | 00:00:00 | |
| DB0UT-7 | 2026-09-03 12:39:33 | 47.51957 | 10.06169 | 147° | 144km/h | 11244m | -5.5m/s | 0°C | 0% | 0hPa | 0V | 00:00:00 | 00:00:00 | 00:00:00 | |
| IW2NTF | 2026-09-03 12:39:31 | 47.52109 | 10.06022 | 147° | 141km/h | 11272m | -5.4m/s | 0°C | 0% | 0hPa | 0V | 00:00:00 | 00:00:00 | 00:00:00 | |
| DK7TD | 2026-09-03 12:39:28 | 47.52139 | 10.05994 | 148° | 139km/h | 11272m | -5.4m/s | -51.9°C | 0% | 0hPa | 4.3V | 00:00:00 | 00:00:00 | 00:00:00 | |
| DO3MHA-12 | 2026-09-03 12:39:24 | 47.52228 | 10.05910 | 146° | 142km/h | 11293m | -5.1m/s | 0°C | 0% | 0hPa | 0V | 00:00:00 | 00:00:00 | 00:00:00 | |
| DG1MJG | 2026-09-03 12:39:23 | 47.52258 | 10.05880 | 147° | 144km/h | 11293m | -5.2m/s | -52.0°C | 0% | 0hPa | 0V | 00:00:00 | 00:00:00 | 00:00:00 | |
| IW2NTF | 2026-09-03 12:39:20 | 47.52410 | 10.05732 | 148° | 142km/h | 11325m | -5.5m/s | 0°C | 0% | 0hPa | 0V | 00:00:00 | 00:00:00 | 00:00:00 | |
| DN1GJH-1 | 2026-09-03 12:39:18 | 47.52410 | 10.05732 | 149° | 142km/h | 11320m | -5.4m/s | -52.3°C | 0% | 0hPa | 4.3V | 00:00:00 | 00:00:00 | 00:00:00 | |
| DK7TD | 2026-09-03 12:39:17 | 47.52471 | 10.05677 | 149° | 141km/h | 11331m | -5.7m/s | -52.4°C | 0% | 0hPa | 4.3V | 00:00:00 | 00:00:00 | 00:00:00 | |
| DO3MHA-12 | 2026-09-03 12:39:14 | 47.52531 | 10.05621 | 148° | 146km/h | 11347m | -5.2m/s | 0°C | 0% | 0hPa | 0V | 00:00:00 | 00:00:00 | 00:00:00 | |
| IW2NTF | 2026-09-03 12:39:10 | 47.52713 | 10.05436 | 146° | 148km/h | 11380m | -5.6m/s | 0°C | 0% | 0hPa | 0V | 00:00:00 | 00:00:00 | 00:00:00 | |
| OE3JTB-15 | 2026-09-03 12:39:10 | 47.52713 | 10.05436 | 147° | 146km/h | 11380m | -5.6m/s | 0°C | 0% | 0hPa | 4.3V | 00:00:00 | 00:00:00 | 00:00:00 | |
| DK7TD | 2026-09-03 12:39:07 | 47.52775 | 10.05376 | 148° | 148km/h | 11385m | -5.3m/s | -52.8°C | 0% | 0hPa | 4.3V | 00:00:00 | 00:00:00 | 00:00:00 | |
| DO3MHA-12 | 2026-09-03 12:39:04 | 47.52838 | 10.05319 | 150° | 146km/h | 11401m | -5.6m/s | 0°C | 0% | 0hPa | 0V | 00:00:00 | 00:00:00 | 00:00:00 | |
| DB0ND-19 | 2026-09-03 12:39:03 | 47.52934 | 10.05235 | 148° | 144km/h | 11412m | -5.4m/s | -53.9°C | -1.0% | -1.0hPa | 0V | 00:00:00 | 00:00:00 | 00:00:00 | |
| IW2NTF | 2026-09-03 12:39:00 | 47.53028 | 10.05148 | 146° | 144km/h | 11434m | -5.8m/s | 0°C | 0% | 0hPa | 0V | 00:00:00 | 00:00:00 | 00:00:00 | |
| DN1GJH-1 | 2026-09-03 12:38:58 | 47.53028 | 10.05148 | 148° | 144km/h | 11428m | -5.7m/s | -53.2°C | 0% | 0hPa | 4.3V | 00:00:00 | 00:00:00 | 00:00:00 | |
| DK7TD | 2026-09-03 12:38:56 | 47.53120 | 10.05058 | 147° | 146km/h | 11446m | -5.4m/s | -53.3°C | 0% | 0hPa | 4.3V | 00:00:00 | 00:00:00 | 00:00:00 | |
| DO3MHA-12 | 2026-09-03 12:38:54 | 47.53151 | 10.05028 | 147° | 148km/h | 11456m | -5.2m/s | 0°C | 0% | 0hPa | 0V | 00:00:00 | 00:00:00 | 00:00:00 | |
| DG1MJG | 2026-09-03 12:38:53 | 47.53182 | 10.04999 | 149° | 148km/h | 11456m | -5.2m/s | -53.4°C | 0% | 0hPa | 0V | 00:00:00 | 00:00:00 | 00:00:00 | |
| IW2NTF | 2026-09-03 12:38:50 | 47.53340 | 10.04852 | 147° | 146km/h | 11488m | -5.4m/s | 0°C | 0% | 0hPa | 0V | 00:00:00 | 00:00:00 | 00:00:00 | |
| DB0NH | 2026-09-03 12:38:47 | 47.53371 | 10.04823 | 149° | 150km/h | 11493m | -5.3m/s | 0°C | 0% | 0hPa | 4.3V | 00:00:00 | 00:00:00 | 00:00:00 | |
| DK7TD | 2026-09-03 12:38:45 | 47.53466 | 10.04735 | 148° | 148km/h | 11504m | -5.3m/s | -53.8°C | 0% | 0hPa | 4.3V | 00:00:00 | 00:00:00 | 00:00:00 | |
| DO3MHA-12 | 2026-09-03 12:38:44 | 47.53466 | 10.04735 | 149° | 148km/h | 11510m | -5.4m/s | 0°C | 0% | 0hPa | 0V | 00:00:00 | 00:00:00 | 00:00:00 | |
| IW2NTF | 2026-09-03 12:38:40 | 47.53657 | 10.04562 | 148° | 148km/h | 11542m | -5.4m/s | 0°C | 0% | 0hPa | 0V | 00:00:00 | 00:00:00 | 00:00:00 | |
| DN1GJH-1 | 2026-09-03 12:38:37 | 47.53689 | 10.04532 | 150° | 148km/h | 11542m | -5.4m/s | -54.1°C | 0% | 0hPa | 4.3V | 00:00:00 | 00:00:00 | 00:00:00 | |
| DK7TD | 2026-09-03 12:38:35 | 47.53785 | 10.04445 | 148° | 150km/h | 11558m | -5.6m/s | -54.2°C | 0% | 0hPa | 4.3V | 00:00:00 | 00:00:00 | 00:00:00 | |
| DO3MHA-12 | 2026-09-03 12:38:34 | 47.53785 | 10.04445 | 149° | 150km/h | 11564m | -5.4m/s | 0°C | 0% | 0hPa | 0V | 00:00:00 | 00:00:00 | 00:00:00 | |
| DB0UT-7 | 2026-09-03 12:38:33 | 47.53818 | 10.04416 | 149° | 151km/h | 11569m | -5.4m/s | 0°C | 0% | 0hPa | 0V | 00:00:00 | 00:00:00 | 00:00:00 | |
| IW2NTF | 2026-09-03 12:38:30 | 47.53980 | 10.04272 | 149° | 150km/h | 11595m | -5.4m/s | 0°C | 0% | 0hPa | 0V | 00:00:00 | 00:00:00 | 00:00:00 | |
| DK7TD | 2026-09-03 12:38:24 | 47.54144 | 10.04129 | 149° | 150km/h | 11617m | -5.4m/s | -54.7°C | 0% | 0hPa | 4.3V | 00:00:00 | 00:00:00 | 00:00:00 | |
| DO3MHA-12 | 2026-09-03 12:38:24 | 47.54111 | 10.04157 | 150° | 151km/h | 11617m | -5.4m/s | 0°C | 0% | 0hPa | 0V | 00:00:00 | 00:00:00 | 00:00:00 | |
| IW2NTF | 2026-09-03 12:38:20 | 47.54307 | 10.03982 | 148° | 151km/h | 11650m | -5.4m/s | 0°C | 0% | 0hPa | 0V | 00:00:00 | 00:00:00 | 00:00:00 | |
| DB0NH | 2026-09-03 12:38:17 | 47.54340 | 10.03953 | 149° | 153km/h | 11650m | -5.4m/s | 0°C | 0% | 0hPa | 4.3V | 00:00:00 | 00:00:00 | 00:00:00 | |
| DO3MHA-12 | 2026-09-03 12:38:14 | 47.54439 | 10.03865 | 149° | 153km/h | 11672m | -5.3m/s | 0°C | 0% | 0hPa | 4.3V | 00:00:00 | 00:00:00 | 00:00:00 | |
| DK7TD | 2026-09-03 12:38:13 | 47.54505 | 10.03806 | 149° | 151km/h | 11677m | -5.4m/s | -55.2°C | 0% | 0hPa | 4.3V | 00:00:00 | 00:00:00 | 00:00:00 | |
| IW2NTF | 2026-09-03 12:38:09 | 47.54637 | 10.03688 | 148° | 153km/h | 11705m | -5.5m/s | 0°C | 0% | 0hPa | 0V | 00:00:00 | 00:00:00 | 00:00:00 | |
| DO8TBO-1 | 2026-09-03 12:38:08 | 47.54703 | 10.03629 | 149° | 153km/h | 11722m | -5.4m/s | 0°C | 0% | 0hPa | 0V | 00:00:00 | 00:00:00 | 00:00:00 | |
| IW2NTF | 2026-09-03 12:38:03 | 47.54970 | 10.03389 | 148° | 151km/h | 11759m | -5.6m/s | 0°C | 0% | 0hPa | 0V | 00:00:00 | 00:00:00 | 00:00:00 | |
| DO3MHA-12 | 2026-09-03 12:38:03 | 47.54804 | 10.03538 | 149° | 153km/h | 11733m | -5.4m/s | 0°C | 0% | 0hPa | 4.3V | 00:00:00 | 00:00:00 | 00:00:00 | |
| DK7TD | 2026-09-03 12:38:02 | 47.54871 | 10.03478 | 149° | 155km/h | 11738m | -5.7m/s | -55.7°C | 0% | 0hPa | 4.3V | 00:00:00 | 00:00:00 | 00:00:00 | |
| NBG1-10 | 2026-09-03 12:38:01 | 47.54871 | 10.03478 | 149° | 153km/h | 11744m | -5.2m/s | 0°C | 0% | 0hPa | 0V | 00:00:00 | 00:00:00 | 00:00:00 | |
| DN1GJH-1 | 2026-09-03 12:37:56 | 47.55036 | 10.03330 | 150° | 153km/h | 11765m | -5.4m/s | -55.9°C | 0% | 0hPa | 0V | 00:00:00 | 00:00:00 | 00:00:00 | |
| IW2NTF | 2026-09-03 12:37:53 | 47.55302 | 10.03095 | 149° | 153km/h | 11814m | -5.4m/s | 0°C | 0% | 0hPa | 0V | 00:00:00 | 00:00:00 | 00:00:00 | |
| DO3MHA-12 | 2026-09-03 12:37:53 | 47.55135 | 10.03242 | 150° | 153km/h | 11787m | -5.4m/s | 0°C | 0% | 0hPa | 4.3V | 00:00:00 | 00:00:00 | 00:00:00 | |
| DK7TD | 2026-09-03 12:37:51 | 47.55235 | 10.03154 | 149° | 153km/h | 11798m | -5.4m/s | -56.2°C | 0% | 0hPa | 4.3V | 00:00:00 | 00:00:00 | 00:00:00 | |
| DG1MJG | 2026-09-03 12:37:50 | 47.55235 | 10.03154 | 150° | 153km/h | 11798m | -5.4m/s | -56.2°C | 0% | 0hPa | 0V | 00:00:00 | 00:00:00 | 00:00:00 | |
| DB0NH | 2026-09-03 12:37:45 | 47.55402 | 10.03007 | 150° | 155km/h | 11831m | -5.5m/s | 0°C | 0% | 0hPa | 0V | 00:00:00 | 00:00:00 | 00:00:00 | |
| DO3MHA-12 | 2026-09-03 12:37:43 | 47.55469 | 10.02947 | 150° | 155km/h | 11842m | -5.6m/s | 0°C | 0% | 0hPa | 0V | 00:00:00 | 00:00:00 | 00:00:00 | |
| IW2NTF | 2026-09-03 12:37:40 | 47.55637 | 10.02799 | 149° | 155km/h | 11869m | -5.3m/s | 0°C | 0% | 0hPa | 0V | 00:00:00 | 00:00:00 | 00:00:00 | |
| DO8TBO-1 | 2026-09-03 12:37:37 | 47.55705 | 10.02741 | 150° | 155km/h | 11880m | -5.5m/s | 0°C | 0% | 0hPa | 0V | 00:00:00 | 00:00:00 | 00:00:00 | |
| DN1GJH-1 | 2026-09-03 12:37:36 | 47.55704 | 10.02741 | 151° | 155km/h | 11875m | -5.4m/s | -56.9°C | 0% | 0hPa | 0V | 00:00:00 | 00:00:00 | 00:00:00 | |
| DO3MHA-12 | 2026-09-03 12:37:33 | 47.55806 | 10.02654 | 150° | 155km/h | 11897m | -5.5m/s | 0°C | 0% | 0hPa | 0V | 00:00:00 | 00:00:00 | 00:00:00 | |
| IW2NTF | 2026-09-03 12:37:29 | 47.55975 | 10.02508 | 149° | 157km/h | 11925m | -5.5m/s | 0°C | 0% | 0hPa | 0V | 00:00:00 | 00:00:00 | 00:00:00 | |
| NBG1-10 | 2026-09-03 12:37:28 | 47.55975 | 10.02508 | 150° | 157km/h | 11925m | -5.5m/s | 0°C | 0% | 0hPa | 0V | 00:00:00 | 00:00:00 | 00:00:00 | |
| IW2NTF | 2026-09-03 12:37:23 | 47.56314 | 10.02214 | 149° | 155km/h | 11978m | -5.4m/s | 0°C | 0% | 0hPa | 0V | 00:00:00 | 00:00:00 | 00:00:00 | |
| DO3MHA-12 | 2026-09-03 12:37:23 | 47.56145 | 10.02360 | 150° | 155km/h | 11952m | -5.3m/s | 0°C | 0% | 0hPa | 4.4V | 00:00:00 | 00:00:00 | 00:00:00 | |
| DG1MJG | 2026-09-03 12:37:20 | 47.56247 | 10.02272 | 150° | 153km/h | 11962m | -5.3m/s | -57.7°C | 0% | 0hPa | 4.4V | 00:00:00 | 00:00:00 | 00:00:00 | |
| DK7TD | 2026-09-03 12:37:19 | 47.56314 | 10.02214 | 150° | 155km/h | 11973m | -5.3m/s | -57.8°C | 0% | 0hPa | 4.4V | 00:00:00 | 00:00:00 | 00:00:00 | |
| DB0NH | 2026-09-03 12:37:15 | 47.56415 | 10.02126 | 150° | 159km/h | 12028m | -5.4m/s | 0°C | 0% | 0hPa | 0V | 00:00:00 | 00:00:00 | 00:00:00 | |
| DO3MHA-12 | 2026-09-03 12:37:13 | 47.56483 | 10.02068 | 151° | 157km/h | 12006m | -5.4m/s | 0°C | 0% | 0hPa | 0V | 00:00:00 | 00:00:00 | 00:00:00 | |
| IW2NTF | 2026-09-03 12:37:09 | 47.56656 | 10.01922 | 150° | 157km/h | 12034m | -5.6m/s | 0°C | 0% | 0hPa | 0V | 00:00:00 | 00:00:00 | 00:00:00 | |
| DK7TD | 2026-09-03 12:37:08 | 47.56691 | 10.01892 | 150° | 157km/h | 12034m | -5.6m/s | -58.3°C | 0% | 0hPa | 4.4V | 00:00:00 | 00:00:00 | 00:00:00 | |
| DO8TBO-1 | 2026-09-03 12:37:07 | 47.56690 | 10.01863 | 151° | 159km/h | 12040m | -5.4m/s | 0°C | 0% | 0hPa | 0V | 00:00:00 | 00:00:00 | 00:00:00 | |
| IW2NTF | 2026-09-03 12:37:03 | 47.57002 | 10.01628 | 150° | 159km/h | 12089m | -5.5m/s | 0°C | 0% | 0hPa | 0V | 00:00:00 | 00:00:00 | 00:00:00 | |
| DO3MHA-12 | 2026-09-03 12:37:03 | 47.56828 | 10.01775 | 151° | 159km/h | 12062m | -5.4m/s | 0°C | 0% | 0hPa | 4.4V | 00:00:00 | 00:00:00 | 00:00:00 | |
| DB0UT-7 | 2026-09-03 12:37:02 | 47.56863 | 10.01746 | 150° | 159km/h | 12067m | -5.6m/s | 0°C | 0% | 0hPa | 4.4V | 00:00:00 | 00:00:00 | 00:00:00 | |
| DK7TD | 2026-09-03 12:36:57 | 47.57072 | 10.01570 | 151° | 159km/h | 12095m | -5.6m/s | -58.8°C | 0% | 0hPa | 4.4V | 00:00:00 | 00:00:00 | 00:00:00 | |
| NBG1-10 | 2026-09-03 12:36:55 | 47.57107 | 10.01541 | 151° | 159km/h | 12106m | -5.5m/s | 0°C | 0% | 0hPa | 0V | 00:00:00 | 00:00:00 | 00:00:00 | |
| DO3MHA-12 | 2026-09-03 12:36:53 | 47.57177 | 10.01483 | 151° | 159km/h | 12117m | -5.4m/s | 0°C | 0% | 0hPa | 0V | 00:00:00 | 00:00:00 | 00:00:00 | |
| IW2NTF | 2026-09-03 12:36:49 | 47.57352 | 10.01338 | 150° | 159km/h | 12144m | -5.5m/s | 0°C | 0% | 0hPa | 0V | 00:00:00 | 00:00:00 | 00:00:00 | |
| DK7TD | 2026-09-03 12:36:47 | 47.57422 | 10.01280 | 151° | 159km/h | 12149m | -5.5m/s | -59.3°C | 0% | 0hPa | 4.4V | 00:00:00 | 00:00:00 | 00:00:00 | |
| DO3MHA-12 | 2026-09-03 12:36:43 | 47.57528 | 10.01193 | 152° | 161km/h | 12172m | -5.5m/s | 0°C | 0% | 0hPa | 0V | 00:00:00 | 00:00:00 | 00:00:00 | |
| IW2NTF | 2026-09-03 12:36:42 | 47.57741 | 10.01018 | 151° | 161km/h | 12228m | -5.5m/s | 0°C | 0% | 0hPa | 0V | 00:00:00 | 00:00:00 | 00:00:00 | |
| DO8TBO-1 | 2026-09-03 12:36:37 | 47.57776 | 10.00989 | 152° | 159km/h | 12211m | -5.7m/s | 0°C | 0% | 0hPa | 4.4V | 00:00:00 | 00:00:00 | 00:00:00 | |
| DK7TD | 2026-09-03 12:36:36 | 47.57812 | 10.00961 | 151° | 161km/h | 12211m | -5.7m/s | -59.8°C | 0% | 0hPa | 4.4V | 00:00:00 | 00:00:00 | 00:00:00 | |
| DG1MJG | 2026-09-03 12:36:35 | 47.57847 | 10.00932 | 152° | 161km/h | 12217m | -5.8m/s | -59.8°C | 0% | 0hPa | 0V | 00:00:00 | 00:00:00 | 00:00:00 | |
| DN1GJH-1 | 2026-09-03 12:36:34 | 47.57847 | 10.00932 | 152° | 161km/h | 12217m | -5.8m/s | -59.8°C | 0% | 0hPa | 0V | 00:00:00 | 00:00:00 | 00:00:00 | |
| DO3MHA-12 | 2026-09-03 12:36:33 | 47.57883 | 10.00903 | 152° | 161km/h | 12229m | -5.5m/s | 0°C | 0% | 0hPa | 0V | 00:00:00 | 00:00:00 | 00:00:00 | |
| DB0UT-7 | 2026-09-03 12:36:32 | 47.57919 | 10.00874 | 152° | 157km/h | 12234m | -5.5m/s | 0°C | 0% | 0hPa | 0V | 00:00:00 | 00:00:00 | 00:00:00 | |
| IW2NTF | 2026-09-03 12:36:29 | 47.58132 | 10.00701 | 151° | 161km/h | 12268m | -5.8m/s | 0°C | 0% | 0hPa | 0V | 00:00:00 | 00:00:00 | 00:00:00 | |
| DK7TD | 2026-09-03 12:36:25 | 47.58203 | 10.00645 | 152° | 157km/h | 12274m | -5.6m/s | -60.2°C | 0% | 0hPa | 4.4V | 00:00:00 | 00:00:00 | 00:00:00 | |
| DO3MHA-12 | 2026-09-03 12:36:23 | 47.58238 | 10.00616 | 152° | 159km/h | 12285m | -5.9m/s | 0°C | 0% | 0hPa | 0V | 00:00:00 | 00:00:00 | 00:00:00 | |
| NBG1-10 | 2026-09-03 12:36:22 | 47.58273 | 10.00588 | 152° | 155km/h | 12291m | -5.6m/s | 0°C | 0% | 0hPa | 0V | 00:00:00 | 00:00:00 | 00:00:00 | |
| IW2NTF | 2026-09-03 12:36:21 | 47.58486 | 10.00419 | 151° | 159km/h | 12325m | -5.9m/s | 0°C | 0% | 0hPa | 0V | 00:00:00 | 00:00:00 | 00:00:00 | |
| DK7TD | 2026-09-03 12:36:14 | 47.58591 | 10.00335 | 152° | 155km/h | 12336m | -5.8m/s | -60.7°C | 0% | 0hPa | 4.4V | 00:00:00 | 00:00:00 | 00:00:00 | |
| DO3MHA-12 | 2026-09-03 12:36:13 | 47.58590 | 10.00335 | 152° | 155km/h | 12342m | -5.9m/s | 0°C | 0% | 0hPa | 0V | 00:00:00 | 00:00:00 | 00:00:00 | |
| IW2NTF | 2026-09-03 12:36:09 | 47.58833 | 10.00145 | 151° | 153km/h | 12383m | -5.4m/s | 0°C | 0% | 0hPa | 0V | 00:00:00 | 00:00:00 | 00:00:00 | |
| DO8TBO-1 | 2026-09-03 12:36:07 | 47.58799 | 10.00173 | 152° | 151km/h | 12377m | -5.2m/s | 0°C | 0% | 0hPa | 4.4V | 00:00:00 | 00:00:00 | 00:00:00 | |
| DK7TD | 2026-09-03 12:36:04 | 47.58935 | 10.00062 | 151° | 151km/h | 12394m | -5.7m/s | -61.1°C | 0% | 0hPa | 4.4V | 00:00:00 | 00:00:00 | 00:00:00 | |
| DO3MHA-12 | 2026-09-03 12:36:03 | 47.58935 | 10.00062 | 152° | 153km/h | 12400m | -5.8m/s | 0°C | 0% | 0hPa | 0V | 00:00:00 | 00:00:00 | 00:00:00 | |
| DB0UT-7 | 2026-09-03 12:36:02 | 47.58968 | 10.00035 | 152° | 150km/h | 12405m | -5.7m/s | 0°C | 0% | 0hPa | 0V | 00:00:00 | 00:00:00 | 00:00:00 | |
| IW2NTF | 2026-09-03 12:35:57 | 47.59174 | 9.99876 | 152° | 151km/h | 12440m | -6m/s | 0°C | 0% | 0hPa | 0V | 00:00:00 | 00:00:00 | 00:00:00 | |
| DK7TD | 2026-09-03 12:35:53 | 47.59310 | 9.99769 | 151° | 151km/h | 12457m | -5.7m/s | -61.5°C | 0% | 0hPa | 4.4V | 00:00:00 | 00:00:00 | 00:00:00 | |
| DO3MHA-12 | 2026-09-03 12:35:53 | 47.59276 | 9.99796 | 152° | 150km/h | 12457m | -5.6m/s | 0°C | 0% | 0hPa | 0V | 00:00:00 | 00:00:00 | 00:00:00 | |
| IW2NTF | 2026-09-03 12:35:51 | 47.59510 | 9.99610 | 151° | 150km/h | 12496m | -5.8m/s | 0°C | 0% | 0hPa | 0V | 00:00:00 | 00:00:00 | 00:00:00 | |
| NBG1-10 | 2026-09-03 12:35:49 | 47.59410 | 9.99689 | 152° | 144km/h | 12480m | -5.4m/s | 0°C | 0% | 0hPa | 4.4V | 00:00:00 | 00:00:00 | 00:00:00 | |
| DO3MHA-12 | 2026-09-03 12:35:43 | 47.59610 | 9.99529 | 151° | 146km/h | 12514m | -5.6m/s | 0°C | 0% | 0hPa | 4.4V | 00:00:00 | 00:00:00 | 00:00:00 | |
| DK7TD | 2026-09-03 12:35:42 | 47.59675 | 9.99475 | 150° | 148km/h | 12520m | -5.8m/s | -61.9°C | 0% | 0hPa | 4.4V | 00:00:00 | 00:00:00 | 00:00:00 | |
| IW2NTF | 2026-09-03 12:35:39 | 47.59835 | 9.99339 | 150° | 146km/h | 12556m | -5.7m/s | 0°C | 0% | 0hPa | 0V | 00:00:00 | 00:00:00 | 00:00:00 | |
| DO8TBO-1 | 2026-09-03 12:35:37 | 47.59803 | 9.99366 | 151° | 141km/h | 12550m | -5.9m/s | 0°C | 0% | 0hPa | 4.4V | 00:00:00 | 00:00:00 | 00:00:00 | |
| DO3MHA-12 | 2026-09-03 12:35:33 | 47.59931 | 9.99258 | 151° | 142km/h | 12573m | -5.7m/s | 0°C | 0% | 0hPa | 4.4V | 00:00:00 | 00:00:00 | 00:00:00 | |
| DB0UT-7 | 2026-09-03 12:35:32 | 47.59962 | 9.99231 | 151° | 139km/h | 12579m | -5.7m/s | 0°C | 0% | 0hPa | 4.4V | 00:00:00 | 00:00:00 | 00:00:00 | |
| DK7TD | 2026-09-03 12:35:31 | 47.60026 | 9.99179 | 151° | 142km/h | 12585m | -5.8m/s | -62°C | 0% | 0hPa | 4.4V | 00:00:00 | 00:00:00 | 00:00:00 | |
| IW2NTF | 2026-09-03 12:35:27 | 47.60149 | 9.99073 | 149° | 141km/h | 12614m | -6m/s | 0°C | 0% | 0hPa | 0V | 00:00:00 | 00:00:00 | 00:00:00 | |
| DG1MJG | 2026-09-03 12:35:26 | 47.60149 | 9.99073 | 151° | 141km/h | 12608m | -5.8m/s | -62.0°C | 0% | 0hPa | 4.4V | 00:00:00 | 00:00:00 | 00:00:00 | |
| DO3MHA-12 | 2026-09-03 12:35:23 | 47.60240 | 9.98993 | 150° | 139km/h | 12632m | -5.9m/s | 0°C | 0% | 0hPa | 4.4V | 00:00:00 | 00:00:00 | 00:00:00 | |
| DK7TD | 2026-09-03 12:35:20 | 47.60363 | 9.98889 | 150° | 141km/h | 12649m | -5.7m/s | -62°C | 0% | 0hPa | 4.4V | 00:00:00 | 00:00:00 | 00:00:00 | |
| IW2NTF | 2026-09-03 12:35:19 | 47.60455 | 9.98810 | 149° | 139km/h | 12671m | -5.8m/s | 0°C | 0% | 0hPa | 0V | 00:00:00 | 00:00:00 | 00:00:00 | |
| NBG1-10 | 2026-09-03 12:35:16 | 47.60455 | 9.98810 | 150° | 131km/h | 12672m | -5.8m/s | 0°C | 0% | 0hPa | 4.4V | 00:00:00 | 00:00:00 | 00:00:00 | |
| DO3MHA-12 | 2026-09-03 12:35:13 | 47.60545 | 9.98732 | 150° | 135km/h | 12689m | -5.9m/s | 0°C | 0% | 0hPa | 4.4V | 00:00:00 | 00:00:00 | 00:00:00 | |
| DN1GJH-1 | 2026-09-03 12:35:12 | 47.60575 | 9.98706 | 151° | 137km/h | 12689m | -5.9m/s | -62.0°C | 0% | 0hPa | 4.4V | 00:00:00 | 00:00:00 | 00:00:00 | |
| DK7TD | 2026-09-03 12:35:10 | 47.60665 | 9.98629 | 150° | 137km/h | 12706m | -5.9m/s | -61.9°C | 0% | 0hPa | 4.4V | 00:00:00 | 00:00:00 | 00:00:00 | |
| IW2NTF | 2026-09-03 12:35:09 | 47.60753 | 9.98551 | 149° | 135km/h | 12730m | -5.9m/s | 0°C | 0% | 0hPa | 0V | 00:00:00 | 00:00:00 | 00:00:00 | |
| DO8TBO-1 | 2026-09-03 12:35:07 | 47.60782 | 9.98525 | 149° | 126km/h | 12736m | -5.8m/s | 0°C | 0% | 0hPa | 0V | 00:00:00 | 00:00:00 | 00:00:00 | |
| DO3MHA-12 | 2026-09-03 12:35:02 | 47.60868 | 9.98449 | 150° | 130km/h | 12754m | -5.8m/s | 0°C | 0% | 0hPa | 0V | 00:00:00 | 00:00:00 | 00:00:00 | |
| IW2NTF | 2026-09-03 12:34:59 | 47.61037 | 9.98298 | 148° | 131km/h | 12788m | -6m/s | 0°C | 0% | 0hPa | 0V | 00:00:00 | 00:00:00 | 00:00:00 | |
| DK7TD | 2026-09-03 12:34:59 | 47.60981 | 9.98348 | 149° | 130km/h | 12771m | -5.8m/s | -61.1°C | 0% | 0hPa | 4.4V | 00:00:00 | 00:00:00 | 00:00:00 | |
| DG1MJG | 2026-09-03 12:34:56 | 47.61065 | 9.98272 | 150° | 130km/h | 12788m | -6.0m/s | -61.1°C | 0% | 0hPa | 0V | 00:00:00 | 00:00:00 | 00:00:00 | |
| DO3MHA-12 | 2026-09-03 12:34:52 | 47.61148 | 9.98196 | 148° | 126km/h | 12812m | -5.8m/s | 0°C | 0% | 0hPa | 0V | 00:00:00 | 00:00:00 | 00:00:00 | |
| DN1GJH-1 | 2026-09-03 12:34:51 | 47.61175 | 9.98170 | 148° | 126km/h | 12812m | -5.8m/s | -61.1°C | 0% | 0hPa | 0V | 00:00:00 | 00:00:00 | 00:00:00 | |
| IW2NTF | 2026-09-03 12:34:47 | 47.61306 | 9.98042 | 145° | 126km/h | 12848m | -5.9m/s | 0°C | 0% | 0hPa | 0V | 00:00:00 | 00:00:00 | 00:00:00 | |
| NBG1-10 | 2026-09-03 12:34:43 | 47.61385 | 9.97961 | 145° | 119km/h | 12883m | -5.8m/s | 0°C | 0% | 0hPa | 0V | 00:00:00 | 00:00:00 | 00:00:00 | |
| DO3MHA-12 | 2026-09-03 12:34:42 | 47.61412 | 9.97934 | 146° | 122km/h | 12871m | -6.0m/s | 0°C | 0% | 0hPa | 0V | 00:00:00 | 00:00:00 | 00:00:00 | |
| DB0NH | 2026-09-03 12:34:41 | 47.61438 | 9.97907 | 145° | 120km/h | 12877m | -5.8m/s | 0°C | 0% | 0hPa | 0V | 00:00:00 | 00:00:00 | 00:00:00 | |
| IW2NTF | 2026-09-03 12:34:39 | 47.61564 | 9.97773 | 143° | 120km/h | 12906m | -5.7m/s | 0°C | 0% | 0hPa | 0V | 00:00:00 | 00:00:00 | 00:00:00 | |
| DK7TD | 2026-09-03 12:34:37 | 47.61564 | 9.97773 | 144° | 120km/h | 12901m | -5.7m/s | -61.1°C | 0% | 0hPa | 4.4V | 00:00:00 | 00:00:00 | 00:00:00 | |
| DO8TBO-1 | 2026-09-03 12:34:35 | 47.61612 | 9.97720 | 143° | 119km/h | 12918m | -5.8m/s | 0°C | 0% | 0hPa | 0V | 00:00:00 | 00:00:00 | 00:00:00 | |
| DO3MHA-12 | 2026-09-03 12:34:32 | 47.61659 | 9.97664 | 142° | 119km/h | 12930m | -6.0m/s | 0°C | 0% | 0hPa | 0V | 00:00:00 | 00:00:00 | 00:00:00 | |
| DN1GJH-1 | 2026-09-03 12:34:31 | 47.61682 | 9.97636 | 141° | 117km/h | 12930m | -6.0m/s | -61.0°C | 0% | 0hPa | 0V | 00:00:00 | 00:00:00 | 00:00:00 | |
| IW2NTF | 2026-09-03 12:34:27 | 47.61797 | 9.97494 | 139° | 119km/h | 12966m | -6m/s | 0°C | 0% | 0hPa | 0V | 00:00:00 | 00:00:00 | 00:00:00 | |
| DK7TD | 2026-09-03 12:34:27 | 47.61797 | 9.97494 | 140° | 119km/h | 12960m | -6m/s | -60.6°C | 0% | 0hPa | 4.4V | 00:00:00 | 00:00:00 | 00:00:00 | |
| DG1MJG | 2026-09-03 12:34:25 | 47.61843 | 9.97435 | 140° | 120km/h | 12973m | -5.8m/s | -60.5°C | 0% | 0hPa | 0V | 00:00:00 | 00:00:00 | 00:00:00 | |
| DO3MHA-12 | 2026-09-03 12:34:22 | 47.61888 | 9.97375 | 137° | 119km/h | 12991m | -5.9m/s | 0°C | 0% | 0hPa | 0V | 00:00:00 | 00:00:00 | 00:00:00 | |
| IW2NTF | 2026-09-03 12:34:19 | 47.62022 | 9.97189 | 135° | 119km/h | 13025m | -6m/s | 0°C | 0% | 0hPa | 0V | 00:00:00 | 00:00:00 | 00:00:00 | |
| DK7TD | 2026-09-03 12:34:16 | 47.62043 | 9.97159 | 136° | 119km/h | 13025m | -6m/s | -60.6°C | 0% | 0hPa | 4.4V | 00:00:00 | 00:00:00 | 00:00:00 | |
| DO3MHA-12 | 2026-09-03 12:34:12 | 47.62106 | 9.97067 | 136° | 115km/h | 13049m | -5.7m/s | 0°C | 0% | 0hPa | 0V | 00:00:00 | 00:00:00 | 00:00:00 | |
| IW2NTF | 2026-09-03 12:34:11 | 47.62230 | 9.96887 | 134° | 115km/h | 13084m | -6.1m/s | 0°C | 0% | 0hPa | 0V | 00:00:00 | 00:00:00 | 00:00:00 | |
| DB0NH | 2026-09-03 12:34:11 | 47.62127 | 9.97037 | 136° | 117km/h | 13055m | -5.9m/s | 0°C | 0% | 0hPa | 4.4V | 00:00:00 | 00:00:00 | 00:00:00 | |
| DN1GJH-1 | 2026-09-03 12:34:10 | 47.62147 | 9.97007 | 136° | 113km/h | 13055m | -5.9m/s | -60.4°C | 0% | 0hPa | 4.4V | 00:00:00 | 00:00:00 | 00:00:00 | |
| DK7TD | 2026-09-03 12:34:05 | 47.62271 | 9.96825 | 134° | 115km/h | 13091m | -5.9m/s | -60.4°C | 0% | 0hPa | 4.4V | 00:00:00 | 00:00:00 | 00:00:00 | |
| NBG1-10 | 2026-09-03 12:34:04 | 47.62271 | 9.96825 | 134° | 120km/h | 13097m | -5.9m/s | 0°C | 0% | 0hPa | 0V | 00:00:00 | 00:00:00 | 00:00:00 | |
| DO3MHA-12 | 2026-09-03 12:34:02 | 47.62311 | 9.96763 | 135° | 117km/h | 13109m | -5.9m/s | 0°C | 0% | 0hPa | 0V | 00:00:00 | 00:00:00 | 00:00:00 | |
| IW2NTF | 2026-09-03 12:33:59 | 47.62436 | 9.96576 | 134° | 117km/h | 13144m | -5.9m/s | 0°C | 0% | 0hPa | 0V | 00:00:00 | 00:00:00 | 00:00:00 | |
| OE3JTB-15 | 2026-09-03 12:33:58 | 47.62457 | 9.96545 | 135° | 120km/h | 13150m | -6.0m/s | 0°C | 0% | 0hPa | 4.4V | 00:00:00 | 00:00:00 | 00:00:00 | |
| DK7TD | 2026-09-03 12:33:54 | 47.62498 | 9.96483 | 135° | 117km/h | 13156m | -6m/s | -60.7°C | 0% | 0hPa | 4.4V | 00:00:00 | 00:00:00 | 00:00:00 | |
| DO3MHA-12 | 2026-09-03 12:33:52 | 47.62519 | 9.96451 | 135° | 119km/h | 13168m | -6.0m/s | 0°C | 0% | 0hPa | 0V | 00:00:00 | 00:00:00 | 00:00:00 | |
| IW2NTF | 2026-09-03 12:33:51 | 47.62645 | 9.96263 | 135° | 120km/h | 13205m | -5.9m/s | 0°C | 0% | 0hPa | 0V | 00:00:00 | 00:00:00 | 00:00:00 | |
| DN1GJH-1 | 2026-09-03 12:33:50 | 47.62560 | 9.96389 | 135° | 117km/h | 13174m | -6.0m/s | -60.7°C | 0% | 0hPa | 4.5V | 00:00:00 | 00:00:00 | 00:00:00 | |
| DG1MJG | 2026-09-03 12:33:45 | 47.62687 | 9.96200 | 135° | 119km/h | 13211m | -5.8m/s | -60.9°C | 0% | 0hPa | 4.5V | 00:00:00 | 00:00:00 | 00:00:00 | |
| DK7TD | 2026-09-03 12:33:44 | 47.62708 | 9.96168 | 135° | 120km/h | 13217m | -6m/s | -60.9°C | 0% | 0hPa | 4.5V | 00:00:00 | 00:00:00 | 00:00:00 | |
| DO3MHA-12 | 2026-09-03 12:33:42 | 47.62730 | 9.96135 | 134° | 124km/h | 13229m | -6.0m/s | 0°C | 0% | 0hPa | 0V | 00:00:00 | 00:00:00 | 00:00:00 | |
| DB0NH | 2026-09-03 12:33:41 | 47.62751 | 9.96102 | 135° | 115km/h | 13235m | -6.0m/s | 0°C | 0% | 0hPa | 0V | 00:00:00 | 00:00:00 | 00:00:00 | |
| IW2NTF | 2026-09-03 12:33:39 | 47.62862 | 9.95937 | 135° | 124km/h | 13266m | -6m/s | 0°C | 0% | 0hPa | 0V | 00:00:00 | 00:00:00 | 00:00:00 | |
| DO8TBO-1 | 2026-09-03 12:33:35 | 47.62884 | 9.95904 | 137° | 117km/h | 13272m | -6.1m/s | 0°C | 0% | 0hPa | 4.5V | 00:00:00 | 00:00:00 | 00:00:00 | |
| DK7TD | 2026-09-03 12:33:33 | 47.62952 | 9.95807 | 136° | 124km/h | 13284m | -6.2m/s | -61.2°C | 0% | 0hPa | 4.5V | 00:00:00 | 00:00:00 | 00:00:00 | |
| DO3MHA-12 | 2026-09-03 12:33:32 | 47.62952 | 9.95807 | 137° | 115km/h | 13290m | -6.1m/s | 0°C | 0% | 0hPa | 0V | 00:00:00 | 00:00:00 | 00:00:00 | |
| NBG1-10 | 2026-09-03 12:33:31 | 47.62975 | 9.95775 | 137° | 113km/h | 13296m | -6.0m/s | 0°C | 0% | 0hPa | 0V | 00:00:00 | 00:00:00 | 00:00:00 | |
| DN1GJH-1 | 2026-09-03 12:33:29 | 47.63018 | 9.95712 | 136° | 120km/h | 13302m | -5.9m/s | -61.2°C | 0% | 0hPa | 0V | 00:00:00 | 00:00:00 | 00:00:00 | |
| IW2NTF | 2026-09-03 12:33:28 | 47.63081 | 9.95619 | 133° | 113km/h | 13326m | -6m/s | 0°C | 0% | 0hPa | 0V | 00:00:00 | 00:00:00 | 00:00:00 | |
| DK7TD | 2026-09-03 12:33:22 | 47.63172 | 9.95472 | 131° | 104km/h | 13351m | -6.5m/s | -60.2°C | 0% | 0hPa | 4.5V | 00:00:00 | 00:00:00 | 00:00:00 | |
| DO3MHA-12 | 2026-09-03 12:33:22 | 47.63155 | 9.95501 | 131° | 110km/h | 13351m | -6.4m/s | 0°C | 0% | 0hPa | 0V | 00:00:00 | 00:00:00 | 00:00:00 | |
| IW2NTF | 2026-09-03 12:33:18 | 47.63260 | 9.95318 | 129° | 111km/h | 13389m | -6.3m/s | 0°C | 0% | 0hPa | 0V | 00:00:00 | 00:00:00 | 00:00:00 | |
| DG1MJG | 2026-09-03 12:33:13 | 47.63314 | 9.95220 | 129° | 113km/h | 13402m | -6.1m/s | -59.4°C | 0% | 0hPa | 4.5V | 00:00:00 | 00:00:00 | 00:00:00 | |
| DO3MHA-12 | 2026-09-03 12:33:12 | 47.63332 | 9.95187 | 129° | 115km/h | 13414m | -6.2m/s | 0°C | 0% | 0hPa | 4.5V | 00:00:00 | 00:00:00 | 00:00:00 | |
| DK7TD | 2026-09-03 12:33:11 | 47.63368 | 9.95120 | 129° | 115km/h | 13420m | -6.5m/s | -59.1°C | 0% | 0hPa | 4.5V | 00:00:00 | 00:00:00 | 00:00:00 | |
| DB0NH | 2026-09-03 12:33:11 | 47.63349 | 9.95153 | 130° | 113km/h | 13421m | -6.5m/s | 0°C | 0% | 0hPa | 0V | 00:00:00 | 00:00:00 | 00:00:00 | |
| DN1GJH-1 | 2026-09-03 12:33:09 | 47.63387 | 9.95087 | 132° | 115km/h | 13427m | -6.2m/s | -59.0°C | 0% | 0hPa | 0V | 00:00:00 | 00:00:00 | 00:00:00 | |
| IW2NTF | 2026-09-03 12:33:08 | 47.63447 | 9.94993 | 136° | 115km/h | 13458m | -6.2m/s | 0°C | 0% | 0hPa | 0V | 00:00:00 | 00:00:00 | 00:00:00 | |
| DO8TBO-1 | 2026-09-03 12:33:05 | 47.63468 | 9.94964 | 137° | 111km/h | 13452m | -6.0m/s | 0°C | 0% | 0hPa | 4.5V | 00:00:00 | 00:00:00 | 00:00:00 | |
| DO3MHA-12 | 2026-09-03 12:33:02 | 47.63532 | 9.94874 | 136° | 117km/h | 13478m | -6.4m/s | 0°C | 0% | 0hPa | 4.5V | 00:00:00 | 00:00:00 | 00:00:00 | |
| DB0UT-7 | 2026-09-03 12:33:01 | 47.63552 | 9.94843 | 135° | 111km/h | 13484m | -5.8m/s | 0°C | 0% | 0hPa | 4.5V | 00:00:00 | 00:00:00 | 00:00:00 | |
| DK7TD | 2026-09-03 12:33:00 | 47.63593 | 9.94779 | 133° | 117km/h | 13490m | -6.2m/s | -58.3°C | 0% | 0hPa | 4.5V | 00:00:00 | 00:00:00 | 00:00:00 | |
| IW2NTF | 2026-09-03 12:32:58 | 47.63654 | 9.94684 | 134° | 117km/h | 13514m | -6.3m/s | 0°C | 0% | 0hPa | 0V | 00:00:00 | 00:00:00 | 00:00:00 | |
| NBG1-10 | 2026-09-03 12:32:58 | 47.63613 | 9.94747 | 135° | 111km/h | 13502m | -5.9m/s | 0°C | 0% | 0hPa | 4.5V | 00:00:00 | 00:00:00 | 00:00:00 | |
| DO3MHA-12 | 2026-09-03 12:32:52 | 47.63735 | 9.94563 | 134° | 108km/h | 13540m | -5.9m/s | 0°C | 0% | 0hPa | 4.5V | 00:00:00 | 00:00:00 | 00:00:00 | |
| DK7TD | 2026-09-03 12:32:50 | 47.63791 | 9.94473 | 131° | 106km/h | 13552m | -6.2m/s | -57.4°C | 0% | 0hPa | 4.5V | 00:00:00 | 00:00:00 | 00:00:00 | |
| DN1GJH-1 | 2026-09-03 12:32:48 | 47.63809 | 9.94443 | 131° | 108km/h | 13559m | -6.3m/s | -57.3°C | 0% | 0hPa | 0V | 00:00:00 | 00:00:00 | 00:00:00 | |
| IW2NTF | 2026-09-03 12:32:47 | 47.63843 | 9.94382 | 129° | 106km/h | 13578m | -6.5m/s | 0°C | 0% | 0hPa | 0V | 00:00:00 | 00:00:00 | 00:00:00 | |
| DG1MJG | 2026-09-03 12:32:43 | 47.63894 | 9.94286 | 129° | 111km/h | 13591m | -6.2m/s | -57.4°C | 0% | 0hPa | 4.5V | 00:00:00 | 00:00:00 | 00:00:00 | |
| DO3MHA-12 | 2026-09-03 12:32:42 | 47.63912 | 9.94253 | 128° | 108km/h | 13604m | -6.3m/s | 0°C | 0% | 0hPa | 4.5V | 00:00:00 | 00:00:00 | 00:00:00 | |
| DB0NH | 2026-09-03 12:32:41 | 47.63929 | 9.94219 | 129° | 108km/h | 13611m | -6.8m/s | 0°C | 0% | 0hPa | 4.5V | 00:00:00 | 00:00:00 | 00:00:00 | |
| DK7TD | 2026-09-03 12:32:38 | 47.64000 | 9.94090 | 130° | 108km/h | 13631m | -6.2m/s | -57.2°C | 0% | 0hPa | 4.5V | 00:00:00 | 00:00:00 | 00:00:00 | |
| DO8TBO-1 | 2026-09-03 12:32:34 | 47.64051 | 9.94000 | 130° | 104km/h | 13657m | -6.4m/s | 0°C | 0% | 0hPa | 4.5V | 00:00:00 | 00:00:00 | 00:00:00 | |
| DO3MHA-12 | 2026-09-03 12:32:32 | 47.64084 | 9.93941 | 131° | 111km/h | 13670m | -7.1m/s | 0°C | 0% | 0hPa | 4.5V | 00:00:00 | 00:00:00 | 00:00:00 | |
| DB0UT-7 | 2026-09-03 12:32:31 | 47.64101 | 9.93910 | 131° | 102km/h | 13677m | -6.1m/s | 0°C | 0% | 0hPa | 4.5V | 00:00:00 | 00:00:00 | 00:00:00 | |
| DN1GJH-1 | 2026-09-03 12:32:28 | 47.64158 | 9.93814 | 132° | 117km/h | 13690m | -6.4m/s | -56.8°C | 0% | 0hPa | 4.5V | 00:00:00 | 00:00:00 | 00:00:00 | |
| DK7TD | 2026-09-03 12:32:27 | 47.64196 | 9.93748 | 130° | 115km/h | 13702m | -6.9m/s | -56.8°C | 0% | 0hPa | 4.5V | 00:00:00 | 00:00:00 | 00:00:00 | |
| IW2NTF | 2026-09-03 12:32:27 | 47.64196 | 9.93746 | 131° | 115km/h | 13710m | -6.9m/s | 0°C | 0% | 0hPa | 0V | 00:00:00 | 00:00:00 | 00:00:00 | |
| NBG1-10 | 2026-09-03 12:32:25 | 47.64214 | 9.93715 | 132° | 97km/h | 13717m | -6.2m/s | 0°C | 0% | 0hPa | 0V | 00:00:00 | 00:00:00 | 00:00:00 | |
| DO3MHA-12 | 2026-09-03 12:32:22 | 47.64270 | 9.93627 | 134° | 102km/h | 13736m | -6.6m/s | 0°C | 0% | 0hPa | 0V | 00:00:00 | 00:00:00 | 00:00:00 | |
| IW2NTF | 2026-09-03 12:32:21 | 47.64382 | 9.93467 | 136° | 104km/h | 13775m | -6.4m/s | 0°C | 0% | 0hPa | 0V | 00:00:00 | 00:00:00 | 00:00:00 | |
| DK7TD | 2026-09-03 12:32:17 | 47.64382 | 9.93467 | 136° | 104km/h | 13768m | -7m/s | -56.7°C | 0% | 0hPa | 4.5V | 00:00:00 | 00:00:00 | 00:00:00 | |
| DG1MJG | 2026-09-03 12:32:13 | 47.64437 | 9.93386 | 136° | 100km/h | 13788m | -7.1m/s | -56.6°C | 0% | 0hPa | 0V | 00:00:00 | 00:00:00 | 00:00:00 | |
| DO3MHA-12 | 2026-09-03 12:32:12 | 47.64455 | 9.93360 | 135° | 95km/h | 13802m | -6.7m/s | 0°C | 0% | 0hPa | 0V | 00:00:00 | 00:00:00 | 00:00:00 | |
| DB0NH | 2026-09-03 12:32:11 | 47.64472 | 9.93332 | 134° | 93km/h | 13809m | -6.7m/s | 0°C | 0% | 0hPa | 0V | 00:00:00 | 00:00:00 | 00:00:00 | |
| IW2NTF | 2026-09-03 12:32:08 | 47.64557 | 9.93204 | 134° | 91km/h | 13842m | -6.5m/s | 0°C | 0% | 0hPa | 0V | 00:00:00 | 00:00:00 | 00:00:00 | |
| DK7TD | 2026-09-03 12:32:07 | 47.64556 | 9.93204 | 135° | 91km/h | 13835m | -6.5m/s | -56.2°C | 0% | 0hPa | 4.5V | 00:00:00 | 00:00:00 | 00:00:00 | |
| DO8TBO-1 | 2026-09-03 12:32:04 | 47.64588 | 9.93157 | 133° | 93km/h | 13855m | -6.6m/s | 0°C | 0% | 0hPa | 0V | 00:00:00 | 00:00:00 | 00:00:00 | |
| DO3MHA-12 | 2026-09-03 12:32:02 | 47.64619 | 9.93108 | 131° | 93km/h | 13869m | -6.9m/s | 0°C | 0% | 0hPa | 0V | 00:00:00 | 00:00:00 | 00:00:00 | |
| IW2NTF | 2026-09-03 12:32:01 | 47.64708 | 9.92946 | 128° | 91km/h | 13910m | -6.6m/s | 0°C | 0% | 0hPa | 0V | 00:00:00 | 00:00:00 | 00:00:00 | |
| DB0UT-7 | 2026-09-03 12:32:01 | 47.64634 | 9.93081 | 131° | 93km/h | 13876m | -7.0m/s | 0°C | 0% | 0hPa | 4.5V | 00:00:00 | 00:00:00 | 00:00:00 | |
| DK7TD | 2026-09-03 12:31:56 | 47.64723 | 9.92919 | 129° | 93km/h | 13910m | -6.6m/s | -55.8°C | 0% | 0hPa | 4.5V | 00:00:00 | 00:00:00 | 00:00:00 | |
| DO3MHA-12 | 2026-09-03 12:31:52 | 47.64767 | 9.92838 | 129° | 93km/h | 13938m | -7.6m/s | 0°C | 0% | 0hPa | 0V | 00:00:00 | 00:00:00 | 00:00:00 | |
| IW2NTF | 2026-09-03 12:31:47 | 47.64852 | 9.92675 | 128° | 97km/h | 13979m | -7.4m/s | 0°C | 0% | 0hPa | 0V | 00:00:00 | 00:00:00 | 00:00:00 | |
| DN1GJH-1 | 2026-09-03 12:31:47 | 47.64837 | 9.92703 | 128° | 95km/h | 13966m | -6.8m/s | -56.0°C | 0% | 0hPa | 4.5V | 00:00:00 | 00:00:00 | 00:00:00 | |
| DK7TD | 2026-09-03 12:31:45 | 47.64883 | 9.92619 | 130° | 97km/h | 13986m | -6.7m/s | -56°C | 0% | 0hPa | 4.5V | 00:00:00 | 00:00:00 | 00:00:00 | |
| DG1MJG | 2026-09-03 12:31:43 | 47.64915 | 9.92565 | 131° | 93km/h | 14000m | -6.6m/s | -55.9°C | 0% | 0hPa | 0V | 00:00:00 | 00:00:00 | 00:00:00 | |
| IW2NTF | 2026-09-03 12:31:42 | 47.64997 | 9.92400 | 127° | 93km/h | 14048m | -7.3m/s | 0°C | 0% | 0hPa | 0V | 00:00:00 | 00:00:00 | 00:00:00 | |
| DO3MHA-12 | 2026-09-03 12:31:42 | 47.64914 | 9.92565 | 131° | 91km/h | 14006m | -7.0m/s | 0°C | 0% | 0hPa | 4.5V | 00:00:00 | 00:00:00 | 00:00:00 | |
| DB0NH | 2026-09-03 12:31:41 | 47.64929 | 9.92538 | 130° | 88km/h | 14006m | -7.0m/s | 0°C | 0% | 0hPa | 4.5V | 00:00:00 | 00:00:00 | 00:00:00 | |
| DK7TD | 2026-09-03 12:31:34 | 47.65040 | 9.92316 | 128° | 93km/h | 14062m | -6.8m/s | -56°C | 0% | 0hPa | 4.5V | 00:00:00 | 00:00:00 | 00:00:00 | |
| DO8TBO-1 | 2026-09-03 12:31:34 | 47.65025 | 9.92343 | 129° | 88km/h | 14062m | -6.8m/s | 0°C | 0% | 0hPa | 0V | 00:00:00 | 00:00:00 | 00:00:00 | |
| IW2NTF | 2026-09-03 12:31:31 | 47.65142 | 9.92132 | 130° | 91km/h | 14118m | -6.8m/s | 0°C | 0% | 0hPa | 0V | 00:00:00 | 00:00:00 | 00:00:00 | |
| DO3MHA-12 | 2026-09-03 12:31:31 | 47.65068 | 9.92263 | 129° | 91km/h | 14084m | -7.3m/s | 0°C | 0% | 0hPa | 4.5V | 00:00:00 | 00:00:00 | 00:00:00 | |
| DN1GJH-1 | 2026-09-03 12:31:27 | 47.65142 | 9.92132 | 132° | 91km/h | 14112m | -6.7m/s | -56.1°C | 0% | 0hPa | 4.5V | 00:00:00 | 00:00:00 | 00:00:00 | |
| DK7TD | 2026-09-03 12:31:24 | 47.65186 | 9.92053 | 128° | 91km/h | 14132m | -7.4m/s | -55.9°C | 0% | 0hPa | 4.5V | 00:00:00 | 00:00:00 | 00:00:00 | |
| IW2NTF | 2026-09-03 12:31:21 | 47.65284 | 9.91871 | 130° | 84km/h | 14189m | -6.8m/s | 0°C | 0% | 0hPa | 0V | 00:00:00 | 00:00:00 | 00:00:00 | |
| DO3MHA-12 | 2026-09-03 12:31:21 | 47.65214 | 9.91998 | 128° | 86km/h | 14154m | -6.7m/s | 0°C | 0% | 0hPa | 4.5V | 00:00:00 | 00:00:00 | 00:00:00 | |
| NBG1-10 | 2026-09-03 12:31:19 | 47.65242 | 9.91944 | 130° | 86km/h | 14167m | -6.6m/s | 0°C | 0% | 0hPa | 4.5V | 00:00:00 | 00:00:00 | 00:00:00 | |
| DK7TD | 2026-09-03 12:31:13 | 47.65338 | 9.91780 | 132° | 82km/h | 14211m | -7.2m/s | -55.9°C | 0% | 0hPa | 4.5V | 00:00:00 | 00:00:00 | 00:00:00 | |
| IW2NTF | 2026-09-03 12:31:11 | 47.65428 | 9.91640 | 132° | 89km/h | 14260m | -7.6m/s | 0°C | 0% | 0hPa | 0V | 00:00:00 | 00:00:00 | 00:00:00 | |
| DO3MHA-12 | 2026-09-03 12:31:11 | 47.65353 | 9.91758 | 134° | 86km/h | 14225m | -6.9m/s | 0°C | 0% | 0hPa | 4.5V | 00:00:00 | 00:00:00 | 00:00:00 | |
| DB0NH | 2026-09-03 12:31:09 | 47.65382 | 9.91712 | 135° | 84km/h | 14239m | -6.6m/s | 0°C | 0% | 0hPa | 4.5V | 00:00:00 | 00:00:00 | 00:00:00 | |
| DN1GJH-1 | 2026-09-03 12:31:06 | 47.65443 | 9.91616 | 134° | 88km/h | 14260m | -7.6m/s | -55.8°C | 0% | 0hPa | 4.5V | 00:00:00 | 00:00:00 | 00:00:00 | |
| DO8TBO-1 | 2026-09-03 12:31:04 | 47.65458 | 9.91591 | 132° | 82km/h | 14274m | -6.6m/s | 0°C | 0% | 0hPa | 4.5V | 00:00:00 | 00:00:00 | 00:00:00 | |
| DK7TD | 2026-09-03 12:31:02 | 47.65500 | 9.91520 | 128° | 82km/h | 14288m | -7.4m/s | -55.7°C | 0% | 0hPa | 4.5V | 00:00:00 | 00:00:00 | 00:00:00 | |
| IW2NTF | 2026-09-03 12:31:01 | 47.65559 | 9.91401 | 126° | 80km/h | 14331m | -6.9m/s | 0°C | 0% | 0hPa | 0V | 00:00:00 | 00:00:00 | 00:00:00 | |
| DO3MHA-12 | 2026-09-03 12:31:01 | 47.65500 | 9.91520 | 129° | 82km/h | 14296m | -7.0m/s | 0°C | 0% | 0hPa | 0V | 00:00:00 | 00:00:00 | 00:00:00 | |
| OE3JTB-15 | 2026-09-03 12:30:55 | 47.65598 | 9.91333 | 128° | 84km/h | 14353m | -7.0m/s | 0°C | 0% | 0hPa | 0V | 00:00:00 | 00:00:00 | 00:00:00 | |
| IW2NTF | 2026-09-03 12:30:51 | 47.65694 | 9.91139 | 123° | 84km/h | 14401m | -6.5m/s | 0°C | 0% | 0hPa | 0V | 00:00:00 | 00:00:00 | 00:00:00 | |
| DK7TD | 2026-09-03 12:30:51 | 47.65641 | 9.91243 | 128° | 91km/h | 14367m | -6.2m/s | -55.9°C | 0% | 0hPa | 4.5V | 00:00:00 | 00:00:00 | 00:00:00 | |
| DO3MHA-12 | 2026-09-03 12:30:51 | 47.65627 | 9.91269 | 129° | 84km/h | 14367m | -6.2m/s | 0°C | 0% | 0hPa | 0V | 00:00:00 | 00:00:00 | 00:00:00 | |
| NBG1-10 | 2026-09-03 12:30:46 | 47.65693 | 9.91139 | 124° | 77km/h | 14401m | -6.5m/s | 0°C | 0% | 0hPa | 0V | 00:00:00 | 00:00:00 | 00:00:00 | |
| DN1GJH-1 | 2026-09-03 12:30:45 | 47.65705 | 9.91113 | 123° | 82km/h | 14401m | -6.5m/s | -56.1°C | 0% | 0hPa | 0V | 00:00:00 | 00:00:00 | 00:00:00 | |
| IW2NTF | 2026-09-03 12:30:41 | 47.65799 | 9.90889 | 120° | 80km/h | 14469m | -7.3m/s | 0°C | 0% | 0hPa | 0V | 00:00:00 | 00:00:00 | 00:00:00 | |
| DK7TD | 2026-09-03 12:30:41 | 47.65756 | 9.90988 | 123° | 77km/h | 14435m | -6.7m/s | -56°C | 0% | 0hPa | 4.5V | 00:00:00 | 00:00:00 | 00:00:00 | |
| DG1MJG | 2026-09-03 12:30:40 | 47.65755 | 9.90988 | 124° | 77km/h | 14436m | -6.7m/s | -56.0°C | 0% | 0hPa | 4.5V | 00:00:00 | 00:00:00 | 00:00:00 | |
| DB0NH | 2026-09-03 12:30:39 | 47.65766 | 9.90963 | 124° | 77km/h | 14456m | -6.4m/s | 0°C | 0% | 0hPa | 4.5V | 00:00:00 | 00:00:00 | 00:00:00 | |
| DO8TBO-1 | 2026-09-03 12:30:34 | 47.65820 | 9.90836 | 120° | 77km/h | 14484m | -7.3m/s | 0°C | 0% | 0hPa | 4.5V | 00:00:00 | 00:00:00 | 00:00:00 | |
| DO3MHA-12 | 2026-09-03 12:30:31 | 47.65849 | 9.90757 | 118° | 77km/h | 14505m | -6.8m/s | 0°C | 0% | 0hPa | 4.5V | 00:00:00 | 00:00:00 | 00:00:00 | |
| DK7TD | 2026-09-03 12:30:30 | 47.65867 | 9.90704 | 116° | 78km/h | 14511m | -6.7m/s | -56.3°C | 0% | 0hPa | 4.5V | 00:00:00 | 00:00:00 | 00:00:00 | |
| IW2NTF | 2026-09-03 12:30:27 | 47.65894 | 9.90626 | 117° | 77km/h | 14539m | -7m/s | 0°C | 0% | 0hPa | 0V | 00:00:00 | 00:00:00 | 00:00:00 | |
| DN1GJH-1 | 2026-09-03 12:30:25 | 47.65912 | 9.90576 | 119° | 75km/h | 14547m | -7.2m/s | -56.3°C | 0% | 0hPa | 0V | 00:00:00 | 00:00:00 | 00:00:00 | |
| OE3JTB-15 | 2026-09-03 12:30:23 | 47.65947 | 9.90479 | 118° | 77km/h | 14582m | -6.6m/s | 0°C | 0% | 0hPa | 0V | 00:00:00 | 00:00:00 | 00:00:00 | |
| IW2NTF | 2026-09-03 12:30:21 | 47.65980 | 9.90375 | 113° | 78km/h | 14611m | -7.2m/s | 0°C | 0% | 0hPa | 0V | 00:00:00 | 00:00:00 | 00:00:00 | |
| DO3MHA-12 | 2026-09-03 12:30:21 | 47.65938 | 9.90504 | 118° | 75km/h | 14575m | -7.5m/s | 0°C | 0% | 0hPa | 4.5V | 00:00:00 | 00:00:00 | 00:00:00 | |
| DK7TD | 2026-09-03 12:30:20 | 47.65955 | 9.90455 | 117° | 77km/h | 14582m | -6.7m/s | -56.3°C | 0% | 0hPa | 4.5V | 00:00:00 | 00:00:00 | 00:00:00 | |
| IW2NTF | 2026-09-03 12:30:12 | 47.66068 | 9.90123 | 115° | 82km/h | 14682m | -7m/s | 0°C | 0% | 0hPa | 0V | 00:00:00 | 00:00:00 | 00:00:00 | |
| DO3MHA-12 | 2026-09-03 12:30:11 | 47.66020 | 9.90247 | 119° | 78km/h | 14646m | -6.6m/s | 0°C | 0% | 0hPa | 4.5V | 00:00:00 | 00:00:00 | 00:00:00 | |
| DK7TD | 2026-09-03 12:30:10 | 47.66038 | 9.90199 | 121° | 75km/h | 14653m | -7.2m/s | -56.6°C | 0% | 0hPa | 4.5V | 00:00:00 | 00:00:00 | 00:00:00 | |
| DB0NH | 2026-09-03 12:30:08 | 47.66048 | 9.90175 | 120° | 77km/h | 14668m | -7.2m/s | 0°C | 0% | 0hPa | 0V | 00:00:00 | 00:00:00 | 00:00:00 | |
| DO8TBO-1 | 2026-09-03 12:30:04 | 47.66086 | 9.90065 | 115° | 77km/h | 14696m | -6.3m/s | 0°C | 0% | 0hPa | 0V | 00:00:00 | 00:00:00 | 00:00:00 | |
| IW2NTF | 2026-09-03 12:30:01 | 47.66154 | 9.89865 | 117° | 73km/h | 14751m | -6.8m/s | 0°C | 0% | 0hPa | 0V | 00:00:00 | 00:00:00 | 00:00:00 | |
| DO3MHA-12 | 2026-09-03 12:30:01 | 47.66112 | 9.89985 | 116° | 75km/h | 14716m | -7.0m/s | 0°C | 0% | 0hPa | 4.5V | 00:00:00 | 00:00:00 | 00:00:00 | |
| DK7TD | 2026-09-03 12:30:00 | 47.66128 | 9.89936 | 118° | 71km/h | 14723m | -6.9m/s | -56.6°C | 0% | 0hPa | 4.5V | 00:00:00 | 00:00:00 | 00:00:00 | |
| IW2NTF | 2026-09-03 12:29:51 | 47.66237 | 9.89598 | 115° | 75km/h | 14822m | -6.8m/s | 0°C | 0% | 0hPa | 0V | 00:00:00 | 00:00:00 | 00:00:00 | |
| DO3MHA-12 | 2026-09-03 12:29:51 | 47.66197 | 9.89730 | 114° | 77km/h | 14787m | -7.1m/s | 0°C | 0% | 0hPa | 4.5V | 00:00:00 | 00:00:00 | 00:00:00 | |
| DK7TD | 2026-09-03 12:29:49 | 47.66222 | 9.89650 | 113° | 77km/h | 14800m | -6.8m/s | -56.8°C | 0% | 0hPa | 4.5V | 00:00:00 | 00:00:00 | 00:00:00 | |
| DN1GJH-1 | 2026-09-03 12:29:43 | 47.66263 | 9.89524 | 121° | 75km/h | 14836m | -7.4m/s | -56.9°C | 0% | 0hPa | 4.5V | 00:00:00 | 00:00:00 | 00:00:00 | |
| DO3MHA-12 | 2026-09-03 12:29:41 | 47.66283 | 9.89475 | 122° | 80km/h | 14858m | -7.5m/s | 0°C | 0% | 0hPa | 4.5V | 00:00:00 | 00:00:00 | 00:00:00 | |
| NBG1-10 | 2026-09-03 12:29:39 | 47.66303 | 9.89425 | 121° | 82km/h | 14872m | -7.0m/s | 0°C | 0% | 0hPa | 4.5V | 00:00:00 | 00:00:00 | 00:00:00 | |
| DK7TD | 2026-09-03 12:29:38 | 47.66323 | 9.89373 | 118° | 82km/h | 14879m | -7m/s | -56.9°C | 0% | 0hPa | 4.5V | 00:00:00 | 00:00:00 | 00:00:00 | |
| DB0NH | 2026-09-03 12:29:38 | 47.66313 | 9.89399 | 118° | 80km/h | 14879m | -6.9m/s | 0°C | 0% | 0hPa | 0V | 00:00:00 | 00:00:00 | 00:00:00 | |
| DG1MJG | 2026-09-03 12:29:35 | 47.66342 | 9.89319 | 120° | 80km/h | 14894m | -7.2m/s | -57.0°C | 0% | 0hPa | 0V | 00:00:00 | 00:00:00 | 00:00:00 | |
| DO8TBO-1 | 2026-09-03 12:29:34 | 47.66353 | 9.89292 | 121° | 82km/h | 14909m | -6.7m/s | 0°C | 0% | 0hPa | 0V | 00:00:00 | 00:00:00 | 00:00:00 | |
| IW2NTF | 2026-09-03 12:29:31 | 47.66440 | 9.89097 | 126° | 78km/h | 14967m | -7.5m/s | 0°C | 0% | 0hPa | 0V | 00:00:00 | 00:00:00 | 00:00:00 | |
| DO3MHA-12 | 2026-09-03 12:29:31 | 47.66384 | 9.89216 | 123° | 78km/h | 14931m | -7.1m/s | 0°C | 0% | 0hPa | 4.5V | 00:00:00 | 00:00:00 | 00:00:00 | |
| DB0UT-7 | 2026-09-03 12:29:30 | 47.66395 | 9.89191 | 124° | 82km/h | 14938m | -7.1m/s | 0°C | 0% | 0hPa | 4.5V | 00:00:00 | 00:00:00 | 00:00:00 | |
| DK7TD | 2026-09-03 12:29:27 | 47.66440 | 9.89097 | 126° | 78km/h | 14959m | -7.1m/s | -57.1°C | 0% | 0hPa | 4.5V | 00:00:00 | 00:00:00 | 00:00:00 | |
| DN1GJH-1 | 2026-09-03 12:29:23 | 47.66476 | 9.89024 | 127° | 82km/h | 14982m | -7.2m/s | -57.0°C | 0% | 0hPa | 0V | 00:00:00 | 00:00:00 | 00:00:00 | |
| IW2NTF | 2026-09-03 12:29:21 | 47.66554 | 9.88847 | 124° | 80km/h | 15039m | -7.1m/s | 0°C | 0% | 0hPa | 0V | 00:00:00 | 00:00:00 | 00:00:00 | |
| DO3MHA-12 | 2026-09-03 12:29:21 | 47.66499 | 9.88974 | 123° | 82km/h | 15003m | -7.2m/s | 0°C | 0% | 0hPa | 4.6V | 00:00:00 | 00:00:00 | 00:00:00 | |
| DK7TD | 2026-09-03 12:29:17 | 47.66554 | 9.88847 | 124° | 80km/h | 15032m | -7.1m/s | -57.1°C | 0% | 0hPa | 4.6V | 00:00:00 | 00:00:00 | 00:00:00 | |
| IW2NTF | 2026-09-03 12:29:11 | 47.66669 | 9.88580 | 118° | 84km/h | 15112m | -7.4m/s | 0°C | 0% | 0hPa | 0V | 00:00:00 | 00:00:00 | 00:00:00 | |
| DO3MHA-12 | 2026-09-03 12:29:11 | 47.66614 | 9.88716 | 125° | 84km/h | 15076m | -7.2m/s | 0°C | 0% | 0hPa | 0V | 00:00:00 | 00:00:00 | 00:00:00 | |
| DB0NH | 2026-09-03 12:29:08 | 47.66649 | 9.88635 | 119° | 84km/h | 15098m | -6.9m/s | 0°C | 0% | 0hPa | 0V | 00:00:00 | 00:00:00 | 00:00:00 | |
| NBG1-10 | 2026-09-03 12:29:06 | 47.66669 | 9.88580 | 119° | 84km/h | 15112m | -7.4m/s | 0°C | 0% | 0hPa | 0V | 00:00:00 | 00:00:00 | 00:00:00 | |
| DK7TD | 2026-09-03 12:29:06 | 47.66679 | 9.88553 | 118° | 82km/h | 15112m | -7.4m/s | -57.4°C | 0% | 0hPa | 4.6V | 00:00:00 | 00:00:00 | 00:00:00 | |
| DO8TBO-1 | 2026-09-03 12:29:04 | 47.66689 | 9.88525 | 118° | 84km/h | 15142m | -7.4m/s | 0°C | 0% | 0hPa | 0V | 00:00:00 | 00:00:00 | 00:00:00 | |
| DG1MJG | 2026-09-03 12:29:03 | 47.66699 | 9.88498 | 119° | 84km/h | 15127m | -6.7m/s | -57.5°C | 0% | 0hPa | 0V | 00:00:00 | 00:00:00 | 00:00:00 | |
| DN1GJH-1 | 2026-09-03 12:29:02 | 47.66709 | 9.88470 | 120° | 84km/h | 15134m | -7.4m/s | -57.5°C | 0% | 0hPa | 0V | 00:00:00 | 00:00:00 | 00:00:00 | |
| IW2NTF | 2026-09-03 12:29:01 | 47.66773 | 9.88301 | 121° | 88km/h | 15185m | -7.8m/s | 0°C | 0% | 0hPa | 0V | 00:00:00 | 00:00:00 | 00:00:00 | |
| DO3MHA-12 | 2026-09-03 12:29:01 | 47.66719 | 9.88442 | 119° | 88km/h | 15149m | -7.1m/s | 0°C | 0% | 0hPa | 4.6V | 00:00:00 | 00:00:00 | 00:00:00 | |
| DB0UT-7 | 2026-09-03 12:29:00 | 47.66730 | 9.88414 | 119° | 82km/h | 15156m | -7.3m/s | 0°C | 0% | 0hPa | 4.6V | 00:00:00 | 00:00:00 | 00:00:00 | |
| DK7TD | 2026-09-03 12:28:55 | 47.66797 | 9.88245 | 123° | 89km/h | 15192m | -7.7m/s | -57.7°C | 0% | 0hPa | 4.6V | 00:00:00 | 00:00:00 | 00:00:00 | |
| IW2NTF | 2026-09-03 12:28:51 | 47.66896 | 9.88032 | 128° | 82km/h | 15259m | -7.3m/s | 0°C | 0% | 0hPa | 0V | 00:00:00 | 00:00:00 | 00:00:00 | |
| DO3MHA-12 | 2026-09-03 12:28:51 | 47.66833 | 9.88162 | 124° | 84km/h | 15222m | -7.3m/s | 0°C | 0% | 0hPa | 4.6V | 00:00:00 | 00:00:00 | 00:00:00 | |
| DK7TD | 2026-09-03 12:28:44 | 47.66934 | 9.87962 | 129° | 82km/h | 15274m | -7.1m/s | -57.6°C | 0% | 0hPa | 4.6V | 00:00:00 | 00:00:00 | 00:00:00 | |
| DN1GJH-1 | 2026-09-03 12:28:43 | 47.66947 | 9.87937 | 131° | 80km/h | 15281m | -7.2m/s | -57.5°C | 0% | 0hPa | 0V | 00:00:00 | 00:00:00 | 00:00:00 | |
| IW2NTF | 2026-09-03 12:28:41 | 47.67025 | 9.87797 | 130° | 78km/h | 15332m | -7.5m/s | 0°C | 0% | 0hPa | 0V | 00:00:00 | 00:00:00 | 00:00:00 | |
| DO3MHA-12 | 2026-09-03 12:28:41 | 47.66960 | 9.87913 | 129° | 78km/h | 15296m | -7.4m/s | 0°C | 0% | 0hPa | 4.6V | 00:00:00 | 00:00:00 | 00:00:00 | |
| DB0NH | 2026-09-03 12:28:38 | 47.66999 | 9.87843 | 130° | 73km/h | 15318m | -7.3m/s | 0°C | 0% | 0hPa | 4.6V | 00:00:00 | 00:00:00 | 00:00:00 | |
| DK7TD | 2026-09-03 12:28:33 | 47.67074 | 9.87707 | 127° | 75km/h | 15355m | -7.4m/s | -57.3°C | 0% | 0hPa | 4.6V | 00:00:00 | 00:00:00 | 00:00:00 | |
| NBG1-10 | 2026-09-03 12:28:33 | 47.67062 | 9.87730 | 128° | 71km/h | 15355m | -7.4m/s | 0°C | 0% | 0hPa | 0V | 00:00:00 | 00:00:00 | 00:00:00 | |
| DO8TBO-1 | 2026-09-03 12:28:32 | 47.67073 | 9.87707 | 128° | 71km/h | 15362m | -7.3m/s | 0°C | 0% | 0hPa | 0V | 00:00:00 | 00:00:00 | 00:00:00 | |
| IW2NTF | 2026-09-03 12:28:31 | 47.67142 | 9.87576 | 126° | 73km/h | 15406m | -7.5m/s | 0°C | 0% | 0hPa | 0V | 00:00:00 | 00:00:00 | 00:00:00 | |
| DO3MHA-12 | 2026-09-03 12:28:30 | 47.67096 | 9.87663 | 129° | 73km/h | 15377m | -7.3m/s | 0°C | 0% | 0hPa | 4.6V | 00:00:00 | 00:00:00 | 00:00:00 | |
| DG1MJG | 2026-09-03 12:28:29 | 47.67108 | 9.87642 | 128° | 73km/h | 15377m | -7.4m/s | -57.3°C | 0% | 0hPa | 4.6V | 00:00:00 | 00:00:00 | 00:00:00 | |
| DK7TD | 2026-09-03 12:28:23 | 47.67185 | 9.87489 | 126° | 69km/h | 15430m | -7.5m/s | -57.3°C | 0% | 0hPa | 4.6V | 00:00:00 | 00:00:00 | 00:00:00 | |
| IW2NTF | 2026-09-03 12:28:21 | 47.67242 | 9.87356 | 119° | 71km/h | 15483m | -7.8m/s | 0°C | 0% | 0hPa | 0V | 00:00:00 | 00:00:00 | 00:00:00 | |
| DN1GJH-1 | 2026-09-03 12:28:21 | 47.67195 | 9.87468 | 125° | 69km/h | 15438m | -7.7m/s | -57.4°C | 0% | 0hPa | 4.6V | 00:00:00 | 00:00:00 | 00:00:00 | |
| DO3MHA-12 | 2026-09-03 12:28:20 | 47.67204 | 9.87447 | 123° | 71km/h | 15452m | -7.6m/s | 0°C | 0% | 0hPa | 4.6V | 00:00:00 | 00:00:00 | 00:00:00 | |
| DK7TD | 2026-09-03 12:28:12 | 47.67287 | 9.87241 | 120° | 69km/h | 15512m | -7.6m/s | -57.5°C | 0% | 0hPa | 4.6V | 00:00:00 | 00:00:00 | 00:00:00 | |
| IW2NTF | 2026-09-03 12:28:12 | 47.67330 | 9.87129 | 119° | 68km/h | 15558m | -7.5m/s | 0°C | 0% | 0hPa | 0V | 00:00:00 | 00:00:00 | 00:00:00 | |
| DO3MHA-12 | 2026-09-03 12:28:10 | 47.67295 | 9.87219 | 120° | 69km/h | 15528m | -7.4m/s | 0°C | 0% | 0hPa | 0V | 00:00:00 | 00:00:00 | 00:00:00 | |
| DB0NH | 2026-09-03 12:28:08 | 47.67312 | 9.87174 | 120° | 71km/h | 15543m | -7.5m/s | 0°C | 0% | 0hPa | 0V | 00:00:00 | 00:00:00 | 00:00:00 | |
| DF3TZ-5 | 2026-09-03 12:28:03 | 47.67366 | 9.87039 | 120° | 71km/h | 15581m | -7.5m/s | -57.5°C | -1.0% | -1.0hPa | 0V | 00:00:00 | 00:00:00 | 00:00:00 | |
| IW2NTF | 2026-09-03 12:28:02 | 47.67421 | 9.86905 | 123° | 69km/h | 15634m | -7.7m/s | 0°C | 0% | 0hPa | 0V | 00:00:00 | 00:00:00 | 00:00:00 | |
| DK7TD | 2026-09-03 12:28:01 | 47.67384 | 9.86993 | 120° | 69km/h | 15596m | -7.7m/s | -57.6°C | 0% | 0hPa | 4.6V | 00:00:00 | 00:00:00 | 00:00:00 | |
| NBG1-10 | 2026-09-03 12:28:00 | 47.67384 | 9.86993 | 120° | 73km/h | 15604m | -7.9m/s | 0°C | 0% | 0hPa | 0V | 00:00:00 | 00:00:00 | 00:00:00 | |
| DG1MJG | 2026-09-03 12:27:59 | 47.67402 | 9.86971 | 122° | 69km/h | 15604m | -7.9m/s | -57.7°C | 0% | 0hPa | 0V | 00:00:00 | 00:00:00 | 00:00:00 | |
| DO3MHA-12 | 2026-09-03 12:27:57 | 47.67397 | 9.86927 | 123° | 71km/h | 15619m | -7.7m/s | 0°C | 0% | 0hPa | 0V | 00:00:00 | 00:00:00 | 00:00:00 | |
| IW2NTF | 2026-09-03 12:27:51 | 47.67519 | 9.86675 | 121° | 71km/h | 15710m | -7.7m/s | 0°C | 0% | 0hPa | 0V | 00:00:00 | 00:00:00 | 00:00:00 | |
| DK7TD | 2026-09-03 12:27:50 | 47.67490 | 9.86747 | 122° | 75km/h | 15680m | -7.8m/s | -58°C | 0% | 0hPa | 4.6V | 00:00:00 | 00:00:00 | 00:00:00 | |
| DO3MHA-12 | 2026-09-03 12:27:47 | 47.67510 | 9.86699 | 122° | 75km/h | 15703m | -7.5m/s | 0°C | 0% | 0hPa | 4.6V | 00:00:00 | 00:00:00 | 00:00:00 | |
| BIOWL1-15 | 2026-09-03 12:27:44 | 47.67549 | 9.86606 | 123° | 73km/h | 15726m | -7.7m/s | -58.2°C | 0% | 0hPa | 4.6V | 00:00:00 | 00:00:00 | 00:00:00 | |
| IW2NTF | 2026-09-03 12:27:41 | 47.67622 | 9.86440 | 124° | 73km/h | 15788m | -8.4m/s | 0°C | 0% | 0hPa | 0V | 00:00:00 | 00:00:00 | 00:00:00 | |
| DN1GJH-1 | 2026-09-03 12:27:41 | 47.67580 | 9.86534 | 124° | 77km/h | 15749m | -7.9m/s | -58.2°C | 0% | 0hPa | 4.6V | 00:00:00 | 00:00:00 | 00:00:00 | |
| DK7TD | 2026-09-03 12:27:40 | 47.67590 | 9.86511 | 123° | 77km/h | 15757m | -7.7m/s | -58.1°C | 0% | 0hPa | 4.6V | 00:00:00 | 00:00:00 | 00:00:00 | |
| DB0NH | 2026-09-03 12:27:38 | 47.67601 | 9.86486 | 124° | 55km/h | 15772m | -7.8m/s | 0°C | 0% | 0hPa | 0V | 00:00:00 | 00:00:00 | 00:00:00 | |
| DO3MHA-12 | 2026-09-03 12:27:37 | 47.67611 | 9.86463 | 125° | 73km/h | 15780m | -8.0m/s | 0°C | 0% | 0hPa | 0V | 00:00:00 | 00:00:00 | 00:00:00 | |
| DO8TBO-1 | 2026-09-03 12:27:32 | 47.67665 | 9.86352 | 128° | 66km/h | 15820m | -7.8m/s | 0°C | 0% | 0hPa | 0V | 00:00:00 | 00:00:00 | 00:00:00 | |
| IW2NTF | 2026-09-03 12:27:31 | 47.67733 | 9.86227 | 130° | 71km/h | 15867m | -7.8m/s | 0°C | 0% | 0hPa | 0V | 00:00:00 | 00:00:00 | 00:00:00 | |
| DB0UT-7 | 2026-09-03 12:27:30 | 47.67699 | 9.86288 | 130° | 64km/h | 15836m | -7.7m/s | 0°C | 0% | 0hPa | 4.6V | 00:00:00 | 00:00:00 | 00:00:00 | |
| DK7TD | 2026-09-03 12:27:29 | 47.67710 | 9.86268 | 130° | 71km/h | 15843m | -8.2m/s | -57.8°C | 0% | 0hPa | 4.6V | 00:00:00 | 00:00:00 | 00:00:00 | |
| BIOWL1-15 | 2026-09-03 12:27:28 | 47.67734 | 9.86227 | 131° | 71km/h | 15859m | -7.9m/s | -57.7°C | 0% | 0hPa | 4.6V | 00:00:00 | 00:00:00 | 00:00:00 | |
| DO3MHA-12 | 2026-09-03 12:27:27 | 47.67722 | 9.86247 | 130° | 69km/h | 15859m | -7.9m/s | 0°C | 0% | 0hPa | 4.6V | 00:00:00 | 00:00:00 | 00:00:00 | |
| DN1GJH-1 | 2026-09-03 12:27:20 | 47.67806 | 9.86115 | 138° | 69km/h | 15906m | -7.8m/s | -57.7°C | 0% | 0hPa | 4.6V | 00:00:00 | 00:00:00 | 00:00:00 | |
| DK7TD | 2026-09-03 12:27:18 | 47.67844 | 9.86062 | 136° | 69km/h | 15929m | -7.9m/s | -57.8°C | 0% | 0hPa | 4.6V | 00:00:00 | 00:00:00 | 00:00:00 | |
| DO3MHA-12 | 2026-09-03 12:27:17 | 47.67844 | 9.86062 | 137° | 64km/h | 15937m | -7.8m/s | 0°C | 0% | 0hPa | 4.6V | 00:00:00 | 00:00:00 | 00:00:00 | |
| BIOWL1-15 | 2026-09-03 12:27:15 | 47.67892 | 9.85993 | 137° | 62km/h | 15961m | -7.8m/s | -57.7°C | 0% | 0hPa | 4.6V | 00:00:00 | 00:00:00 | 00:00:00 | |
| DG1MJG | 2026-09-03 12:27:15 | 47.67880 | 9.86009 | 138° | 66km/h | 15954m | -8.1m/s | -57.8°C | 0% | 0hPa | 0V | 00:00:00 | 00:00:00 | 00:00:00 | |
| IW2NTF | 2026-09-03 12:27:07 | 47.67972 | 9.85888 | 136° | 58km/h | 16024m | -8m/s | 0°C | 0% | 0hPa | 0V | 00:00:00 | 00:00:00 | 00:00:00 | |
| DK7TD | 2026-09-03 12:27:07 | 47.67972 | 9.85888 | 137° | 58km/h | 16016m | -8m/s | -57.8°C | 0% | 0hPa | 4.6V | 00:00:00 | 00:00:00 | 00:00:00 | |
| DO3MHA-12 | 2026-09-03 12:27:07 | 47.67961 | 9.85903 | 137° | 53km/h | 16016m | -8.0m/s | 0°C | 0% | 0hPa | 4.6V | 00:00:00 | 00:00:00 | 00:00:00 | |
| BIOWL1-15 | 2026-09-03 12:27:05 | 47.67992 | 9.85858 | 133° | 55km/h | 16032m | -7.9m/s | -57.8°C | 0% | 0hPa | 4.6V | 00:00:00 | 00:00:00 | 00:00:00 | |
| DO8TBO-1 | 2026-09-03 12:27:02 | 47.68011 | 9.85829 | 133° | 51km/h | 16056m | -7.9m/s | 0°C | 0% | 0hPa | 0V | 00:00:00 | 00:00:00 | 00:00:00 | |
| IW2NTF | 2026-09-03 12:27:01 | 47.68061 | 9.85744 | 129° | 49km/h | 16104m | -8.1m/s | 0°C | 0% | 0hPa | 0V | 00:00:00 | 00:00:00 | 00:00:00 | |
| DB0UT-7 | 2026-09-03 12:26:59 | 47.68036 | 9.85786 | 131° | 51km/h | 16080m | -8.0m/s | 0°C | 0% | 0hPa | 4.6V | 00:00:00 | 00:00:00 | 00:00:00 | |
| DK7TD | 2026-09-03 12:26:57 | 47.68061 | 9.85744 | 130° | 49km/h | 16096m | -8m/s | -57.3°C | 0% | 0hPa | 4.6V | 00:00:00 | 00:00:00 | 00:00:00 | |
| BIOWL1-15 | 2026-09-03 12:26:56 | 47.68086 | 9.85700 | 127° | 53km/h | 16120m | -8.1m/s | -57.2°C | 0% | 0hPa | 4.6V | 00:00:00 | 00:00:00 | 00:00:00 | |
| NBG1-10 | 2026-09-03 12:26:54 | 47.68077 | 9.85715 | 128° | 53km/h | 16120m | -8.1m/s | 0°C | 0% | 0hPa | 0V | 00:00:00 | 00:00:00 | 00:00:00 | |
| IW2NTF | 2026-09-03 12:26:49 | 47.68140 | 9.85592 | 126° | 47km/h | 16183m | -7.9m/s | 0°C | 0% | 0hPa | 0V | 00:00:00 | 00:00:00 | 00:00:00 | |
| DO3MHA-12 | 2026-09-03 12:26:47 | 47.68133 | 9.85606 | 127° | 49km/h | 16176m | -8.0m/s | 0°C | 0% | 0hPa | 4.6V | 00:00:00 | 00:00:00 | 00:00:00 | |
| DK7TD | 2026-09-03 12:26:46 | 47.68147 | 9.85577 | 124° | 47km/h | 16184m | -7.9m/s | -57.1°C | 0% | 0hPa | 4.6V | 00:00:00 | 00:00:00 | 00:00:00 | |
| DG1MJG | 2026-09-03 12:26:45 | 47.68154 | 9.85562 | 126° | 49km/h | 16192m | -7.9m/s | -57.1°C | 0% | 0hPa | 4.6V | 00:00:00 | 00:00:00 | 00:00:00 | |
| BIOWL1-15 | 2026-09-03 12:26:44 | 47.68161 | 9.85547 | 123° | 47km/h | 16200m | -7.9m/s | -57.1°C | 0% | 0hPa | 4.6V | 00:00:00 | 00:00:00 | 00:00:00 | |
| DB0NH | 2026-09-03 12:26:40 | 47.68181 | 9.85501 | 123° | 58km/h | 16232m | -8.0m/s | 0°C | 0% | 0hPa | 0V | 00:00:00 | 00:00:00 | 00:00:00 | |
| DN1GJH-1 | 2026-09-03 12:26:38 | 47.68195 | 9.85469 | 125° | 49km/h | 16239m | -7.9m/s | -56.9°C | 0% | 0hPa | 0V | 00:00:00 | 00:00:00 | 00:00:00 | |
| IW2NTF | 2026-09-03 12:26:37 | 47.68209 | 9.85437 | 123° | 53km/h | 16263m | -8.1m/s | 0°C | 0% | 0hPa | 0V | 00:00:00 | 00:00:00 | 00:00:00 | |
| DO3MHA-12 | 2026-09-03 12:26:37 | 47.68202 | 9.85454 | 124° | 53km/h | 16256m | -8.1m/s | 0°C | 0% | 0hPa | 4.6V | 00:00:00 | 00:00:00 | 00:00:00 | |
| DK7TD | 2026-09-03 12:26:35 | 47.68223 | 9.85404 | 120° | 53km/h | 16271m | -7.9m/s | -56.9°C | 0% | 0hPa | 4.6V | 00:00:00 | 00:00:00 | 00:00:00 | |
| BIOWL1-15 | 2026-09-03 12:26:35 | 47.68236 | 9.85368 | 116° | 53km/h | 16287m | -8m/s | -57°C | 0% | 0hPa | 4.6V | 00:00:00 | 00:00:00 | 00:00:00 | |
| IW2NTF | 2026-09-03 12:26:32 | 47.68272 | 9.85257 | 118° | 58km/h | 16344m | -8m/s | 0°C | 0% | 0hPa | 0V | 00:00:00 | 00:00:00 | 00:00:00 | |
| DB0UT-7 | 2026-09-03 12:26:29 | 47.68253 | 9.85313 | 114° | 60km/h | 16320m | -8.3m/s | 0°C | 0% | 0hPa | 4.6V | 00:00:00 | 00:00:00 | 00:00:00 | |
| DO3MHA-12 | 2026-09-03 12:26:27 | 47.68265 | 9.85276 | 118° | 62km/h | 16336m | -8.2m/s | 0°C | 0% | 0hPa | 4.6V | 00:00:00 | 00:00:00 | 00:00:00 | |
| DK7TD | 2026-09-03 12:26:24 | 47.68293 | 9.85197 | 117° | 64km/h | 16360m | -8m/s | -57.3°C | 0% | 0hPa | 4.6V | 00:00:00 | 00:00:00 | 00:00:00 | |
| BIOWL1-15 | 2026-09-03 12:26:22 | 47.68301 | 9.85176 | 118° | 64km/h | 16368m | -8.3m/s | -57.2°C | 0% | 0hPa | 4.6V | 00:00:00 | 00:00:00 | 00:00:00 | |
| IW2NTF | 2026-09-03 12:26:19 | 47.68349 | 9.85053 | 122° | 60km/h | 16425m | -8.4m/s | 0°C | 0% | 0hPa | 0V | 00:00:00 | 00:00:00 | 00:00:00 | |
| DN1GJH-1 | 2026-09-03 12:26:18 | 47.68332 | 9.85092 | 121° | 64km/h | 16401m | -8.2m/s | -57.2°C | 0% | 0hPa | 4.6V | 00:00:00 | 00:00:00 | 00:00:00 | |
| DO3MHA-12 | 2026-09-03 12:26:17 | 47.68340 | 9.85072 | 123° | 60km/h | 16417m | -7.9m/s | 0°C | 0% | 0hPa | 4.6V | 00:00:00 | 00:00:00 | 00:00:00 | |
| DK7TD | 2026-09-03 12:26:13 | 47.68382 | 9.84974 | 120° | 64km/h | 16450m | -7.9m/s | -57.2°C | 0% | 0hPa | 4.6V | 00:00:00 | 00:00:00 | 00:00:00 | |
| BIOWL1-15 | 2026-09-03 12:26:11 | 47.68397 | 9.84934 | 118° | 60km/h | 16467m | -8.3m/s | -57°C | 0% | 0hPa | 4.6V | 00:00:00 | 00:00:00 | 00:00:00 | |
| DB0NH | 2026-09-03 12:26:10 | 47.68397 | 9.84934 | 119° | 57km/h | 16475m | -8.7m/s | 0°C | 0% | 0hPa | 0V | 00:00:00 | 00:00:00 | 00:00:00 | |
| IW2NTF | 2026-09-03 12:26:07 | 47.68425 | 9.84857 | 119° | 57km/h | 16508m | -8.2m/s | 0°C | 0% | 0hPa | 0V | 00:00:00 | 00:00:00 | 00:00:00 | |
| DO3MHA-12 | 2026-09-03 12:26:07 | 47.68418 | 9.84876 | 120° | 55km/h | 16500m | -8.0m/s | 0°C | 0% | 0hPa | 4.6V | 00:00:00 | 00:00:00 | 00:00:00 | |
| DK7TD | 2026-09-03 12:26:03 | 47.68453 | 9.84784 | 119° | 55km/h | 16532m | -8.2m/s | -56.7°C | 0% | 0hPa | 4.6V | 00:00:00 | 00:00:00 | 00:00:00 | |
| DO8TBO-1 | 2026-09-03 12:26:02 | 47.68453 | 9.84784 | 119° | 57km/h | 16541m | -8.2m/s | 0°C | 0% | 0hPa | 4.6V | 00:00:00 | 00:00:00 | 00:00:00 | |
| BIOWL1-15 | 2026-09-03 12:26:00 | 47.68472 | 9.84730 | 115° | 53km/h | 16558m | -8.3m/s | -56.4°C | 0% | 0hPa | 4.6V | 00:00:00 | 00:00:00 | 00:00:00 | |
| DB0UT-7 | 2026-09-03 12:25:59 | 47.68472 | 9.84730 | 116° | 55km/h | 16566m | -8.2m/s | 0°C | 0% | 0hPa | 0V | 00:00:00 | 00:00:00 | 00:00:00 | |
| DN1GJH-1 | 2026-09-03 12:25:58 | 47.68483 | 9.84692 | 113° | 57km/h | 16574m | -8.1m/s | -56.4°C | 0% | 0hPa | 0V | 00:00:00 | 00:00:00 | 00:00:00 | |
| DO3MHA-12 | 2026-09-03 12:25:57 | 47.68483 | 9.84692 | 113° | 55km/h | 16583m | -8.3m/s | 0°C | 0% | 0hPa | 0V | 00:00:00 | 00:00:00 | 00:00:00 | |
| IW2NTF | 2026-09-03 12:25:56 | 47.68488 | 9.84673 | 107° | 55km/h | 16590m | -8.2m/s | 0°C | 0% | 0hPa | 0V | 00:00:00 | 00:00:00 | 00:00:00 | |
| DK7TD | 2026-09-03 12:25:52 | 47.68509 | 9.84575 | 109° | 55km/h | 16623m | -8.3m/s | -56.5°C | 0% | 0hPa | 4.6V | 00:00:00 | 00:00:00 | 00:00:00 | |
| BIOWL1-15 | 2026-09-03 12:25:50 | 47.68530 | 9.84498 | 113° | 53km/h | 16656m | -8.2m/s | -56.8°C | 0% | 0hPa | 4.6V | 00:00:00 | 00:00:00 | 00:00:00 | |
| NBG1-10 | 2026-09-03 12:25:48 | 47.68525 | 9.84517 | 114° | 57km/h | 16656m | -8.1m/s | 0°C | 0% | 0hPa | 4.6V | 00:00:00 | 00:00:00 | 00:00:00 | |
| DO3MHA-12 | 2026-09-03 12:25:47 | 47.68530 | 9.84498 | 113° | 57km/h | 16665m | -8.2m/s | 0°C | 0% | 0hPa | 4.6V | 00:00:00 | 00:00:00 | 00:00:00 | |
| DK7TD | 2026-09-03 12:25:41 | 47.68560 | 9.84353 | 110° | 64km/h | 16715m | -7.4m/s | -57°C | 0% | 0hPa | 4.6V | 00:00:00 | 00:00:00 | 00:00:00 | |
| DB0NH | 2026-09-03 12:25:40 | 47.68560 | 9.84353 | 110° | 57km/h | 16723m | -8.0m/s | 0°C | 0% | 0hPa | 0V | 00:00:00 | 00:00:00 | 00:00:00 | |
| IW2NTF | 2026-09-03 12:25:39 | 47.68585 | 9.84271 | 114° | 55km/h | 16755m | -8.3m/s | 0°C | 0% | 0hPa | 0V | 00:00:00 | 00:00:00 | 00:00:00 | |
| BIOWL1-15 | 2026-09-03 12:25:37 | 47.68585 | 9.84271 | 115° | 55km/h | 16747m | -8m/s | -57.1°C | 0% | 0hPa | 4.6V | 00:00:00 | 00:00:00 | 00:00:00 | |
| DO8TBO-1 | 2026-09-03 12:25:32 | 47.68606 | 9.84201 | 108° | 57km/h | 16789m | -8.2m/s | 0°C | 0% | 0hPa | 4.6V | 00:00:00 | 00:00:00 | 00:00:00 | |
| DK7TD | 2026-09-03 12:25:30 | 47.68618 | 9.84147 | 110° | 53km/h | 16805m | -8.5m/s | -56.9°C | 0% | 0hPa | 4.6V | 00:00:00 | 00:00:00 | 00:00:00 | |
| DB0UT-7 | 2026-09-03 12:25:29 | 47.68618 | 9.84147 | 111° | 57km/h | 16814m | -8.0m/s | 0°C | 0% | 0hPa | 0V | 00:00:00 | 00:00:00 | 00:00:00 | |
| IW2NTF | 2026-09-03 12:25:27 | 47.68635 | 9.84087 | 115° | 62km/h | 16838m | -8.4m/s | 0°C | 0% | 0hPa | 0V | 00:00:00 | 00:00:00 | 00:00:00 | |
| BIOWL1-15 | 2026-09-03 12:25:26 | 47.68666 | 9.83986 | 112° | 53km/h | 16870m | -8.6m/s | -56.8°C | 0% | 0hPa | 4.6V | 00:00:00 | 00:00:00 | 00:00:00 | |
| IW2NTF | 2026-09-03 12:25:20 | 47.68695 | 9.83892 | 119° | 58km/h | 16920m | -8.6m/s | 0°C | 0% | 0hPa | 0V | 00:00:00 | 00:00:00 | 00:00:00 | |
| DK7TD | 2026-09-03 12:25:20 | 47.68676 | 9.83949 | 113° | 53km/h | 16887m | -8.5m/s | -56.8°C | 0% | 0hPa | 4.6V | 00:00:00 | 00:00:00 | 00:00:00 | |
| DN1GJH-1 | 2026-09-03 12:25:16 | 47.68695 | 9.83892 | 120° | 58km/h | 16912m | -8.4m/s | -56.6°C | 0% | 0hPa | 4.6V | 00:00:00 | 00:00:00 | 00:00:00 | |
| NBG1-10 | 2026-09-03 12:25:15 | 47.68702 | 9.83872 | 124° | 53km/h | 16929m | -8.7m/s | 0°C | 0% | 0hPa | 4.6V | 00:00:00 | 00:00:00 | 00:00:00 | |
| BIOWL1-15 | 2026-09-03 12:25:12 | 47.68745 | 9.83778 | 124° | 58km/h | 16962m | -7.6m/s | -56.6°C | 0% | 0hPa | 4.6V | 00:00:00 | 00:00:00 | 00:00:00 | |
| DB0NH | 2026-09-03 12:25:10 | 47.68745 | 9.83777 | 124° | 51km/h | 16970m | -7.8m/s | 0°C | 0% | 0hPa | 0V | 00:00:00 | 00:00:00 | 00:00:00 | |
| IW2NTF | 2026-09-03 12:25:09 | 47.68776 | 9.83709 | 127° | 53km/h | 17003m | -8.6m/s | 0°C | 0% | 0hPa | 0V | 00:00:00 | 00:00:00 | 00:00:00 | |
| DK7TD | 2026-09-03 12:25:09 | 47.68760 | 9.83742 | 123° | 55km/h | 16978m | -8.3m/s | -56.5°C | 0% | 0hPa | 4.6V | 00:00:00 | 00:00:00 | 00:00:00 | |
| DL6DJ-15 | 2026-09-03 12:25:05 | 47.68794 | 9.83677 | 130° | 55km/h | 17011m | -8.4m/s | -56.3°C | -1.0% | -1.0hPa | 4.6V | 00:00:00 | 00:00:00 | 00:00:00 | |
| DB0ND-19 | 2026-09-03 12:25:04 | 47.68803 | 9.83661 | 132° | 55km/h | 17020m | -8.9m/s | -57.2°C | -1.0% | -1.0hPa | 4.6V | 00:00:00 | 00:00:00 | 00:00:00 | |
| BIOWL1-15 | 2026-09-03 12:25:02 | 47.68840 | 9.83600 | 132° | 53km/h | 17054m | -8.5m/s | -56.2°C | 0% | 0hPa | 4.6V | 00:00:00 | 00:00:00 | 00:00:00 | |
| DG1MJG | 2026-09-03 12:25:00 | 47.68831 | 9.83615 | 134° | 53km/h | 17046m | -8.8m/s | -56.2°C | 0% | 0hPa | 0V | 00:00:00 | 00:00:00 | 00:00:00 | |
| DO3MHA-12 | 2026-09-03 12:24:59 | 47.68840 | 9.83600 | 132° | 47km/h | 17063m | -8.6m/s | 0°C | 0% | 0hPa | 0V | 00:00:00 | 00:00:00 | 00:00:00 | |
| IW2NTF | 2026-09-03 12:24:57 | 47.68864 | 9.83556 | 122° | 49km/h | 17089m | -8.4m/s | 0°C | 0% | 0hPa | 0V | 00:00:00 | 00:00:00 | 00:00:00 | |
| DN1GJH-1 | 2026-09-03 12:24:56 | 47.68863 | 9.83556 | 126° | 49km/h | 17080m | -9.1m/s | -56.3°C | 0% | 0hPa | 0V | 00:00:00 | 00:00:00 | 00:00:00 | |
| DM0DOS-11 | 2026-09-03 12:24:53 | 47.68884 | 9.83511 | 125° | 47km/h | 17115m | -8.6m/s | 0°C | 0% | 0hPa | 0V | 00:00:00 | 00:00:00 | 00:00:00 | |
| BIOWL1-15 | 2026-09-03 12:24:52 | 47.68915 | 9.83461 | 142° | 46km/h | 17141m | -9m/s | -56.2°C | 0% | 0hPa | 4.6V | 00:00:00 | 00:00:00 | 00:00:00 | |
| DO3MHA-12 | 2026-09-03 12:24:49 | 47.68915 | 9.83461 | 143° | 47km/h | 17150m | -8.4m/s | 0°C | 0% | 0hPa | 4.6V | 00:00:00 | 00:00:00 | 00:00:00 | |
| DK7TD | 2026-09-03 12:24:48 | 47.68934 | 9.83440 | 142° | 47km/h | 17158m | -8.2m/s | -56.1°C | 0% | 0hPa | 4.6V | 00:00:00 | 00:00:00 | 00:00:00 | |
| DM0DOS-11 | 2026-09-03 12:24:43 | 47.68974 | 9.83388 | 136° | 51km/h | 17202m | -8.7m/s | 0°C | 0% | 0hPa | 0V | 00:00:00 | 00:00:00 | 00:00:00 | |
| NBG1-10 | 2026-09-03 12:24:42 | 47.68982 | 9.83377 | 137° | 42km/h | 17211m | -8.6m/s | 0°C | 0% | 0hPa | 4.6V | 00:00:00 | 00:00:00 | 00:00:00 | |
| BIOWL1-15 | 2026-09-03 12:24:40 | 47.69061 | 9.83285 | 130° | 58km/h | 17291m | -8.9m/s | -56.6°C | 0% | 0hPa | 4.6V | 00:00:00 | 00:00:00 | 00:00:00 | |
| DO3MHA-12 | 2026-09-03 12:24:39 | 47.69004 | 9.83350 | 149° | 44km/h | 17257m | -8.6m/s | 0°C | 0% | 0hPa | 0V | 00:00:00 | 00:00:00 | 00:00:00 | |
| DM0DOS-11 | 2026-09-03 12:24:38 | 47.69051 | 9.83300 | 135° | 53km/h | 17291m | -8.9m/s | 0°C | 0% | 0hPa | 0V | 00:00:00 | 00:00:00 | 00:00:00 | |
| IW2NTF | 2026-09-03 12:24:38 | 47.69025 | 9.83335 | 141° | 37km/h | 17265m | -8.8m/s | 0°C | 0% | 0hPa | 0V | 00:00:00 | 00:00:00 | 00:00:00 | |
| DK7TD | 2026-09-03 12:24:37 | 47.69025 | 9.83332 | 149° | 37km/h | 17257m | -8.6m/s | -56.4°C | 0% | 0hPa | 4.6V | 00:00:00 | 00:00:00 | 00:00:00 | |
| DN1GJH-1 | 2026-09-03 12:24:35 | 47.69033 | 9.83324 | 143° | 42km/h | 17265m | -8.8m/s | -56.4°C | 0% | 0hPa | 0V | 00:00:00 | 00:00:00 | 00:00:00 | |
| DO8TBO-1 | 2026-09-03 12:24:32 | 47.69061 | 9.83285 | 131° | 44km/h | 17291m | -8.9m/s | 0°C | 0% | 0hPa | 0V | 00:00:00 | 00:00:00 | 00:00:00 | |
| DG1MJG | 2026-09-03 12:24:30 | 47.69078 | 9.83251 | 127° | 57km/h | 17309m | -9.4m/s | -56.6°C | 0% | 0hPa | 0V | 00:00:00 | 00:00:00 | 00:00:00 | |
| DO3MHA-12 | 2026-09-03 12:24:29 | 47.69086 | 9.83234 | 124° | 46km/h | 17335m | -8.2m/s | 0°C | 0% | 0hPa | 0V | 00:00:00 | 00:00:00 | 00:00:00 | |
| IW2NTF | 2026-09-03 12:24:28 | 47.69106 | 9.83196 | 135° | 37km/h | 17351m | -8.8m/s | 0°C | 0% | 0hPa | 0V | 00:00:00 | 00:00:00 | 00:00:00 | |
| DM0DOS-11 | 2026-09-03 12:24:28 | 47.69134 | 9.83158 | 137° | 40km/h | 17387m | -8.8m/s | 0°C | 0% | 0hPa | 0V | 00:00:00 | 00:00:00 | 00:00:00 | |
| DK7TD | 2026-09-03 12:24:26 | 47.69112 | 9.83187 | 138° | 38km/h | 17351m | -8.8m/s | -56.9°C | 0% | 0hPa | 4.6V | 00:00:00 | 00:00:00 | 00:00:00 | |
| OE3JTB-15 | 2026-09-03 12:24:24 | 47.69141 | 9.83148 | 137° | 38km/h | 17387m | -8.8m/s | 0°C | 0% | 0hPa | 4.7V | 00:00:00 | 00:00:00 | 00:00:00 | |
| BIOWL1-15 | 2026-09-03 12:24:23 | 47.69141 | 9.83148 | 137° | 40km/h | 17387m | -8.8m/s | -57°C | 0% | 0hPa | 4.7V | 00:00:00 | 00:00:00 | 00:00:00 | |
| DO3MHA-12 | 2026-09-03 12:24:18 | 47.69165 | 9.83114 | 138° | 40km/h | 17449m | -8.5m/s | 0°C | 0% | 0hPa | 0V | 00:00:00 | 00:00:00 | 00:00:00 | |
| IW2NTF | 2026-09-03 12:24:17 | 47.69183 | 9.83093 | 147° | 44km/h | 17440m | -9m/s | 0°C | 0% | 0hPa | 0V | 00:00:00 | 00:00:00 | 00:00:00 | |
| DN1GJH-1 | 2026-09-03 12:24:15 | 47.69193 | 9.83084 | 150° | 44km/h | 17440m | -9.0m/s | -57.0°C | 0% | 0hPa | 4.7V | 00:00:00 | 00:00:00 | 00:00:00 | |
| DK7TD | 2026-09-03 12:24:14 | 47.69211 | 9.83069 | 153° | 40km/h | 17457m | -9.5m/s | -57°C | 0% | 0hPa | 4.7V | 00:00:00 | 00:00:00 | 00:00:00 | |
| BIOWL1-15 | 2026-09-03 12:24:13 | 47.69220 | 9.83062 | 151° | 38km/h | 17466m | -8.7m/s | -57°C | 0% | 0hPa | 4.7V | 00:00:00 | 00:00:00 | 00:00:00 | |
| IW2NTF | 2026-09-03 12:24:12 | 47.69266 | 9.83009 | 135° | 40km/h | 17528m | -9.3m/s | 0°C | 0% | 0hPa | 0V | 00:00:00 | 00:00:00 | 00:00:00 | |
| NBG1-10 | 2026-09-03 12:24:09 | 47.69244 | 9.83039 | 142° | 40km/h | 17502m | -8.2m/s | 0°C | 0% | 0hPa | 4.7V | 00:00:00 | 00:00:00 | 00:00:00 | |
| DO3MHA-12 | 2026-09-03 12:24:08 | 47.69252 | 9.83030 | 136° | 38km/h | 17510m | -8.4m/s | 0°C | 0% | 0hPa | 4.7V | 00:00:00 | 00:00:00 | 00:00:00 | |
| DK7TD | 2026-09-03 12:24:04 | 47.69288 | 9.82979 | 141° | 38km/h | 17545m | -8.5m/s | -57.2°C | 0% | 0hPa | 4.7V | 00:00:00 | 00:00:00 | 00:00:00 | |
| BIOWL1-15 | 2026-09-03 12:24:03 | 47.69309 | 9.82952 | 133° | 35km/h | 17572m | -9.2m/s | -57.3°C | 0% | 0hPa | 4.7V | 00:00:00 | 00:00:00 | 00:00:00 | |
| DO8TBO-1 | 2026-09-03 12:24:02 | 47.69296 | 9.82971 | 139° | 38km/h | 17563m | -8.9m/s | 0°C | 0% | 0hPa | 0V | 00:00:00 | 00:00:00 | 00:00:00 | |
| IW2NTF | 2026-09-03 12:23:58 | 47.69330 | 9.82903 | 117° | 42km/h | 17617m | -9.5m/s | 0°C | 0% | 0hPa | 0V | 00:00:00 | 00:00:00 | 00:00:00 | |
| DO3MHA-12 | 2026-09-03 12:23:58 | 47.69320 | 9.82930 | 121° | 40km/h | 17599m | -9.3m/s | 0°C | 0% | 0hPa | 0V | 00:00:00 | 00:00:00 | 00:00:00 | |
| DN1GJH-1 | 2026-09-03 12:23:55 | 47.69339 | 9.82876 | 118° | 40km/h | 17626m | -9.3m/s | -57.3°C | 0% | 0hPa | 0V | 00:00:00 | 00:00:00 | 00:00:00 | |
| DM0DOS-11 | 2026-09-03 12:23:53 | 47.69348 | 9.82849 | 114° | 40km/h | 17652m | -7.8m/s | 0°C | 0% | 0hPa | 0V | 00:00:00 | 00:00:00 | 00:00:00 | |
| DK7TD | 2026-09-03 12:23:53 | 47.69348 | 9.82849 | 115° | 40km/h | 17644m | -9m/s | -57.3°C | 0% | 0hPa | 4.7V | 00:00:00 | 00:00:00 | 00:00:00 | |
| OE3JTB-15 | 2026-09-03 12:23:52 | 47.69361 | 9.82821 | 116° | 44km/h | 17690m | -8.6m/s | 0°C | 0% | 0hPa | 4.7V | 00:00:00 | 00:00:00 | 00:00:00 | |
| BIOWL1-15 | 2026-09-03 12:23:50 | 47.69361 | 9.82808 | 114° | 38km/h | 17672m | -9.2m/s | -57.4°C | 0% | 0hPa | 4.7V | 00:00:00 | 00:00:00 | 00:00:00 | |
| DO3MHA-12 | 2026-09-03 12:23:48 | 47.69365 | 9.82795 | 116° | 42km/h | 17690m | -8.6m/s | 0°C | 0% | 0hPa | 0V | 00:00:00 | 00:00:00 | 00:00:00 | |
| DM0DOS-11 | 2026-09-03 12:23:47 | 47.69391 | 9.82715 | 111° | 44km/h | 17749m | -8.7m/s | 0°C | 0% | 0hPa | 0V | 00:00:00 | 00:00:00 | 00:00:00 | |
| IW2NTF | 2026-09-03 12:23:47 | 47.69373 | 9.82770 | 116° | 38km/h | 17707m | -9m/s | 0°C | 0% | 0hPa | 0V | 00:00:00 | 00:00:00 | 00:00:00 | |
| DK7TD | 2026-09-03 12:23:43 | 47.69391 | 9.82715 | 112° | 44km/h | 17732m | -8.3m/s | -57.2°C | 0% | 0hPa | 4.7V | 00:00:00 | 00:00:00 | 00:00:00 | |
| IW2NTF | 2026-09-03 12:23:42 | 47.69405 | 9.82621 | 95° | 42km/h | 17792m | -9.2m/s | 0°C | 0% | 0hPa | 0V | 00:00:00 | 00:00:00 | 00:00:00 | |
| BIOWL1-15 | 2026-09-03 12:23:40 | 47.69405 | 9.82621 | 96° | 42km/h | 17783m | -9.2m/s | -56.9°C | 0% | 0hPa | 4.7V | 00:00:00 | 00:00:00 | 00:00:00 | |
| DO3MHA-12 | 2026-09-03 12:23:38 | 47.69403 | 9.82652 | 97° | 44km/h | 17775m | -7.6m/s | 0°C | 0% | 0hPa | 0V | 00:00:00 | 00:00:00 | 00:00:00 | |
| DM0DOS-11 | 2026-09-03 12:23:36 | 47.69411 | 9.82559 | 105° | 44km/h | 17827m | -9.1m/s | 0°C | 0% | 0hPa | 0V | 00:00:00 | 00:00:00 | 00:00:00 | |
| DN1GJH-1 | 2026-09-03 12:23:34 | 47.69407 | 9.82590 | 98° | 42km/h | 17801m | -8.7m/s | -56.8°C | 0% | 0hPa | 4.7V | 00:00:00 | 00:00:00 | 00:00:00 | |
| DK7TD | 2026-09-03 12:23:32 | 47.69413 | 9.82542 | 105° | 46km/h | 17827m | -9.1m/s | -56.7°C | 0% | 0hPa | 4.7V | 00:00:00 | 00:00:00 | 00:00:00 | |
| DO8TBO-1 | 2026-09-03 12:23:32 | 47.69411 | 9.82559 | 106° | 46km/h | 17828m | -9.0m/s | 0°C | 0% | 0hPa | 0V | 00:00:00 | 00:00:00 | 00:00:00 | |
| IW2NTF | 2026-09-03 12:23:28 | 47.69434 | 9.82461 | 112° | 46km/h | 17882m | -9.3m/s | 0°C | 0% | 0hPa | 0V | 00:00:00 | 00:00:00 | 00:00:00 | |
| DO3MHA-12 | 2026-09-03 12:23:28 | 47.69425 | 9.82493 | 112° | 46km/h | 17864m | -8.8m/s | 0°C | 0% | 0hPa | 0V | 00:00:00 | 00:00:00 | 00:00:00 | |
| DM0DOS-11 | 2026-09-03 12:23:23 | 47.69452 | 9.82398 | 112° | 46km/h | 17918m | -8.9m/s | 0°C | 0% | 0hPa | 0V | 00:00:00 | 00:00:00 | 00:00:00 | |
| DK7TD | 2026-09-03 12:23:21 | 47.69461 | 9.82366 | 113° | 46km/h | 17927m | -9.7m/s | -56.3°C | 0% | 0hPa | 4.7V | 00:00:00 | 00:00:00 | 00:00:00 | |
| OE3JTB-15 | 2026-09-03 12:23:21 | 47.69471 | 9.82334 | 118° | 40km/h | 18007m | -8.9m/s | 0°C | 0% | 0hPa | 0V | 00:00:00 | 00:00:00 | 00:00:00 | |
| DO3MHA-12 | 2026-09-03 12:23:18 | 47.69471 | 9.82334 | 118° | 44km/h | 17955m | -7.9m/s | 0°C | 0% | 0hPa | 0V | 00:00:00 | 00:00:00 | 00:00:00 | |
| DM0DOS-11 | 2026-09-03 12:23:17 | 47.69510 | 9.82246 | 123° | 44km/h | 18007m | -9m/s | 0°C | 0% | 0hPa | 0V | 00:00:00 | 00:00:00 | 00:00:00 | |
| IW2NTF | 2026-09-03 12:23:17 | 47.69483 | 9.82304 | 122° | 46km/h | 17972m | -8.5m/s | 0°C | 0% | 0hPa | 0V | 00:00:00 | 00:00:00 | 00:00:00 | |
| DN1GJH-1 | 2026-09-03 12:23:14 | 47.69503 | 9.82260 | 127° | 46km/h | 17989m | -9.1m/s | -56.2°C | 0% | 0hPa | 0V | 00:00:00 | 00:00:00 | 00:00:00 | |
| IW2NTF | 2026-09-03 12:23:10 | 47.69547 | 9.82177 | 142° | 40km/h | 18060m | -9.3m/s | 0°C | 0% | 0hPa | 0V | 00:00:00 | 00:00:00 | 00:00:00 | |
| DK7TD | 2026-09-03 12:23:10 | 47.69527 | 9.82208 | 124° | 38km/h | 18025m | -8.8m/s | -55.8°C | 0% | 0hPa | 4.6V | 00:00:00 | 00:00:00 | 00:00:00 | |
| DO3MHA-12 | 2026-09-03 12:23:07 | 47.69539 | 9.82187 | 136° | 38km/h | 18051m | -9.0m/s | 0°C | 0% | 0hPa | 0V | 00:00:00 | 00:00:00 | 00:00:00 | |
| DM0DOS-11 | 2026-09-03 12:23:05 | 47.69579 | 9.82142 | 141° | 40km/h | 18096m | -9m/s | 0°C | 0% | 0hPa | 0V | 00:00:00 | 00:00:00 | 00:00:00 | |
| NBG1-10 | 2026-09-03 12:23:03 | 47.69571 | 9.82151 | 145° | 37km/h | 18087m | -9.3m/s | 0°C | 0% | 0hPa | 0V | 00:00:00 | 00:00:00 | 00:00:00 | |
| DO8TBO-1 | 2026-09-03 12:23:02 | 47.69579 | 9.82142 | 142° | 37km/h | 18115m | -9.1m/s | 0°C | 0% | 0hPa | 0V | 00:00:00 | 00:00:00 | 00:00:00 | |
| IW2NTF | 2026-09-03 12:23:00 | 47.69618 | 9.82087 | 136° | 35km/h | 18149m | -1.7m/s | 0°C | 0% | 0hPa | 0V | 00:00:00 | 00:00:00 | 00:00:00 | |
| DK7TD | 2026-09-03 12:23:00 | 47.69600 | 9.82114 | 135° | 35km/h | 18115m | -9.2m/s | -55.6°C | 0% | 0hPa | 4.7V | 00:00:00 | 00:00:00 | 00:00:00 | |
| DO3MHA-12 | 2026-09-03 12:22:57 | 47.69612 | 9.82095 | 137° | 35km/h | 18143m | -10.4m/s | 0°C | 0% | 0hPa | 0V | 00:00:00 | 00:00:00 | 00:00:00 | |
| DM0DOS-11 | 2026-09-03 12:22:55 | 47.69644 | 9.82056 | 152° | 35km/h | 18131m | 6m/s | 0°C | 0% | 0hPa | 0V | 00:00:00 | 00:00:00 | 00:00:00 | |
| DN1GJH-1 | 2026-09-03 12:22:53 | 47.69637 | 9.82062 | 147° | 33km/h | 18141m | 5.6m/s | -55.6°C | 0% | 0hPa | 4.7V | 00:00:00 | 00:00:00 | 00:00:00 | |
| BIOWL1-15 | 2026-09-03 12:22:49 | 47.69676 | 9.82025 | 141° | 35km/h | 18114m | 6.6m/s | -55.4°C | 0% | 0hPa | 4.7V | 00:00:00 | 00:00:00 | 00:00:00 | |
| IW2NTF | 2026-09-03 12:22:48 | 47.69689 | 9.82008 | 140° | 37km/h | 18099m | 2.4m/s | 0°C | 0% | 0hPa | 0V | 00:00:00 | 00:00:00 | 00:00:00 | |
| DO3MHA-12 | 2026-09-03 12:22:47 | 47.69682 | 9.82017 | 139° | 37km/h | 18104m | 5.6m/s | 0°C | 0% | 0hPa | 0V | 00:00:00 | 00:00:00 | 00:00:00 | |
| DM0DOS-11 | 2026-09-03 12:22:43 | 47.69718 | 9.81973 | 137° | 38km/h | 18077m | 4m/s | 0°C | 0% | 0hPa | 0V | 00:00:00 | 00:00:00 | 00:00:00 | |
| BIOWL1-15 | 2026-09-03 12:22:40 | 47.69745 | 9.81935 | 134° | 40km/h | 18058m | 7.3m/s | -56.7°C | 0% | 0hPa | 4.7V | 00:00:00 | 00:00:00 | 00:00:00 | |
| DM0DOS-11 | 2026-09-03 12:22:38 | 47.69782 | 9.81862 | 123° | 42km/h | 18018m | 4.8m/s | 0°C | 0% | 0hPa | 0V | 00:00:00 | 00:00:00 | 00:00:00 | |
| DO3MHA-12 | 2026-09-03 12:22:37 | 47.69752 | 9.81924 | 133° | 42km/h | 18046m | 7.7m/s | 0°C | 0% | 0hPa | 0V | 00:00:00 | 00:00:00 | 00:00:00 | |
| IW2NTF | 2026-09-03 12:22:36 | 47.69759 | 9.81913 | 125° | 38km/h | 18040m | 3.4m/s | 0°C | 0% | 0hPa | 0V | 00:00:00 | 00:00:00 | 00:00:00 | |
| DB0NH | 2026-09-03 12:22:35 | 47.69764 | 9.81901 | 126° | 46km/h | 18035m | 7.2m/s | 0°C | 0% | 0hPa | 0V | 00:00:00 | 00:00:00 | 00:00:00 | |
| DN1GJH-1 | 2026-09-03 12:22:32 | 47.69782 | 9.81862 | 124° | 42km/h | 18024m | 5.7m/s | -55.7°C | 0% | 0hPa | 0V | 00:00:00 | 00:00:00 | 00:00:00 | |
| IW2NTF | 2026-09-03 12:22:30 | 47.69822 | 9.81783 | 128° | 46km/h | 17985m | 5.6m/s | 0°C | 0% | 0hPa | 0V | 00:00:00 | 00:00:00 | 00:00:00 | |
| NBG1-10 | 2026-09-03 12:22:30 | 47.69794 | 9.81836 | 127° | 47km/h | 18008m | 3.8m/s | 0°C | 0% | 0hPa | 0V | 00:00:00 | 00:00:00 | 00:00:00 | |
| DB0UT-7 | 2026-09-03 12:22:28 | 47.69808 | 9.81809 | 127° | 47km/h | 17997m | 3.8m/s | 0°C | 0% | 0hPa | 0V | 00:00:00 | 00:00:00 | 00:00:00 | |
| DM0DOS-11 | 2026-09-03 12:22:27 | 47.69849 | 9.81726 | 123° | 51km/h | 17964m | 4.7m/s | 0°C | 0% | 0hPa | 0V | 00:00:00 | 00:00:00 | 00:00:00 | |
| DK7TD | 2026-09-03 12:22:27 | 47.69822 | 9.81783 | 129° | 46km/h | 17991m | 6.8m/s | -56.2°C | 0% | 0hPa | 4.7V | 00:00:00 | 00:00:00 | 00:00:00 | |
| DO3MHA-12 | 2026-09-03 12:22:27 | 47.69815 | 9.81797 | 127° | 47km/h | 17985m | 5.6m/s | 0°C | 0% | 0hPa | 0V | 00:00:00 | 00:00:00 | 00:00:00 | |
| IW2NTF | 2026-09-03 12:22:18 | 47.69884 | 9.81625 | 112° | 47km/h | 17933m | 4m/s | 0°C | 0% | 0hPa | 0V | 00:00:00 | 00:00:00 | 00:00:00 | |
| DM0DOS-11 | 2026-09-03 12:22:17 | 47.69902 | 9.81559 | 106° | 49km/h | 17911m | 6.5m/s | 0°C | 0% | 0hPa | 0V | 00:00:00 | 00:00:00 | 00:00:00 | |
| DO3MHA-12 | 2026-09-03 12:22:17 | 47.69879 | 9.81641 | 119° | 47km/h | 17939m | 6.6m/s | 0°C | 0% | 0hPa | 4.7V | 00:00:00 | 00:00:00 | 00:00:00 | |
| DK7TD | 2026-09-03 12:22:16 | 47.69889 | 9.81609 | 113° | 46km/h | 17933m | 4m/s | -56.1°C | 0% | 0hPa | 4.7V | 00:00:00 | 00:00:00 | 00:00:00 | |
| DN1GJH-1 | 2026-09-03 12:22:12 | 47.69902 | 9.81559 | 110° | 49km/h | 17917m | 4.7m/s | -56.1°C | 0% | 0hPa | 0V | 00:00:00 | 00:00:00 | 00:00:00 | |
| IW2NTF | 2026-09-03 12:22:08 | 47.69926 | 9.81461 | 117° | 44km/h | 17877m | 5.1m/s | 0°C | 0% | 0hPa | 0V | 00:00:00 | 00:00:00 | 00:00:00 | |
| DO3MHA-12 | 2026-09-03 12:22:07 | 47.69921 | 9.81476 | 114° | 46km/h | 17883m | 5.6m/s | 0°C | 0% | 0hPa | 4.7V | 00:00:00 | 00:00:00 | 00:00:00 | |
| DK7TD | 2026-09-03 12:22:06 | 47.69932 | 9.81447 | 122° | 46km/h | 17877m | 5.1m/s | -56.6°C | 0% | 0hPa | 4.7V | 00:00:00 | 00:00:00 | 00:00:00 | |
| DM0DOS-11 | 2026-09-03 12:22:06 | 47.69949 | 9.81404 | 116° | 42km/h | 17841m | 3.5m/s | 0°C | 0% | 0hPa | 0V | 00:00:00 | 00:00:00 | 00:00:00 | |
| DB0NH | 2026-09-03 12:22:05 | 47.69932 | 9.81447 | 122° | 44km/h | 17872m | 4.8m/s | 0°C | 0% | 0hPa | 0V | 00:00:00 | 00:00:00 | 00:00:00 | |
| IW2NTF | 2026-09-03 12:21:58 | 47.69964 | 9.81298 | 96° | 51km/h | 17824m | 6.5m/s | 0°C | 0% | 0hPa | 0V | 00:00:00 | 00:00:00 | 00:00:00 | |
| DB0UT-7 | 2026-09-03 12:21:58 | 47.69961 | 9.81336 | 93° | 42km/h | 17836m | 7.5m/s | 0°C | 0% | 0hPa | 4.7V | 00:00:00 | 00:00:00 | 00:00:00 | |
| DO3MHA-12 | 2026-09-03 12:21:57 | 47.69962 | 9.81316 | 97° | 44km/h | 17830m | 4.7m/s | 0°C | 0% | 0hPa | 4.7V | 00:00:00 | 00:00:00 | 00:00:00 | |
| DK7TD | 2026-09-03 12:21:55 | 47.69966 | 9.81262 | 100° | 44km/h | 17818m | 4.2m/s | -56.7°C | 0% | 0hPa | 4.7V | 00:00:00 | 00:00:00 | 00:00:00 | |
| DM0DOS-11 | 2026-09-03 12:21:52 | 47.69976 | 9.81217 | 111° | 38km/h | 17797m | 4.8m/s | 0°C | 0% | 0hPa | 0V | 00:00:00 | 00:00:00 | 00:00:00 | |
| DN1GJH-1 | 2026-09-03 12:21:51 | 47.69976 | 9.81217 | 113° | 38km/h | 17803m | 5.8m/s | -56.7°C | 0% | 0hPa | 0V | 00:00:00 | 00:00:00 | 00:00:00 | |
| IW2NTF | 2026-09-03 12:21:48 | 47.69987 | 9.81143 | 96° | 46km/h | 17772m | 4.3m/s | 0°C | 0% | 0hPa | 0V | 00:00:00 | 00:00:00 | 00:00:00 | |
| DO3MHA-12 | 2026-09-03 12:21:47 | 47.69985 | 9.81160 | 101° | 44km/h | 17778m | 6.2m/s | 0°C | 0% | 0hPa | 0V | 00:00:00 | 00:00:00 | 00:00:00 | |
| DM0DOS-11 | 2026-09-03 12:21:46 | 47.70000 | 9.81061 | 111° | 44km/h | 17748m | 3.8m/s | 0°C | 0% | 0hPa | 0V | 00:00:00 | 00:00:00 | 00:00:00 | |
| DK7TD | 2026-09-03 12:21:44 | 47.69992 | 9.81093 | 106° | 46km/h | 17763m | 5.4m/s | -57.1°C | 0% | 0hPa | 4.7V | 00:00:00 | 00:00:00 | 00:00:00 | |
| DO3MHA-12 | 2026-09-03 12:21:37 | 47.70019 | 9.81007 | 117° | 38km/h | 17727m | 4.3m/s | 0°C | 0% | 0hPa | 0V | 00:00:00 | 00:00:00 | 00:00:00 | |
| IW2NTF | 2026-09-03 12:21:36 | 47.70023 | 9.80995 | 110° | 37km/h | 17721m | 6.5m/s | 0°C | 0% | 0hPa | 0V | 00:00:00 | 00:00:00 | 00:00:00 | |
| BIOWL1-15 | 2026-09-03 12:21:36 | 47.70026 | 9.80981 | 112° | 37km/h | 17721m | 6.5m/s | -57.2°C | 0% | 0hPa | 4.7V | 00:00:00 | 00:00:00 | 00:00:00 | |
| DK7TD | 2026-09-03 12:21:34 | 47.70032 | 9.80955 | 105° | 37km/h | 17710m | 6.6m/s | -57.1°C | 0% | 0hPa | 4.7V | 00:00:00 | 00:00:00 | 00:00:00 | |
| DN1GJH-1 | 2026-09-03 12:21:31 | 47.70036 | 9.80928 | 105° | 38km/h | 17700m | 5.3m/s | -57.2°C | 0% | 0hPa | 0V | 00:00:00 | 00:00:00 | 00:00:00 | |
| DO3MHA-12 | 2026-09-03 12:21:27 | 47.70052 | 9.80874 | 126° | 38km/h | 17673m | 5.9m/s | 0°C | 0% | 0hPa | 0V | 00:00:00 | 00:00:00 | 00:00:00 | |
| IW2NTF | 2026-09-03 12:21:26 | 47.70058 | 9.80862 | 125° | 38km/h | 17667m | 4.8m/s | 0°C | 0% | 0hPa | 0V | 00:00:00 | 00:00:00 | 00:00:00 | |
| BIOWL1-15 | 2026-09-03 12:21:25 | 47.70068 | 9.80839 | 116° | 37km/h | 17662m | 5.6m/s | -57.2°C | 0% | 0hPa | 4.7V | 00:00:00 | 00:00:00 | 00:00:00 | |
| NBG1-10 | 2026-09-03 12:21:24 | 47.70068 | 9.80839 | 117° | 38km/h | 17658m | 4.5m/s | 0°C | 0% | 0hPa | 4.7V | 00:00:00 | 00:00:00 | 00:00:00 | |
| DK7TD | 2026-09-03 12:21:23 | 47.70076 | 9.80813 | 115° | 38km/h | 17652m | 6.6m/s | -57.2°C | 0% | 0hPa | 4.7V | 00:00:00 | 00:00:00 | 00:00:00 | |
| DM0DOS-11 | 2026-09-03 12:21:22 | 47.70092 | 9.80762 | 118° | 37km/h | 17632m | 4.5m/s | 0°C | 0% | 0hPa | 0V | 00:00:00 | 00:00:00 | 00:00:00 | |
| BIOWL1-15 | 2026-09-03 12:21:18 | 47.70122 | 9.80709 | 134° | 42km/h | 17603m | 5.2m/s | -57.1°C | 0% | 0hPa | 4.7V | 00:00:00 | 00:00:00 | 00:00:00 | |
| DO3MHA-12 | 2026-09-03 12:21:17 | 47.70096 | 9.80751 | 128° | 38km/h | 17620m | 5.5m/s | 0°C | 0% | 0hPa | 0V | 00:00:00 | 00:00:00 | 00:00:00 | |
| IW2NTF | 2026-09-03 12:21:16 | 47.70102 | 9.80741 | 129° | 37km/h | 17614m | 5.1m/s | 0°C | 0% | 0hPa | 0V | 00:00:00 | 00:00:00 | 00:00:00 | |
| DK7TD | 2026-09-03 12:21:12 | 47.70135 | 9.80684 | 119° | 40km/h | 17592m | 4.6m/s | -57.1°C | 0% | 0hPa | 4.7V | 00:00:00 | 00:00:00 | 00:00:00 | |
| DM0DOS-11 | 2026-09-03 12:21:09 | 47.70153 | 9.80639 | 121° | 31km/h | 17563m | 5m/s | 0°C | 0% | 0hPa | 0V | 00:00:00 | 00:00:00 | 00:00:00 | |
| DO3MHA-12 | 2026-09-03 12:21:07 | 47.70153 | 9.80639 | 122° | 35km/h | 17531m | 6.0m/s | 0°C | 0% | 0hPa | 0V | 00:00:00 | 00:00:00 | 00:00:00 | |
| IW2NTF | 2026-09-03 12:21:06 | 47.70158 | 9.80630 | 131° | 31km/h | 17557m | 6.2m/s | 0°C | 0% | 0hPa | 0V | 00:00:00 | 00:00:00 | 00:00:00 | |
| DB0NH | 2026-09-03 12:21:04 | 47.70172 | 9.80613 | 148° | 40km/h | 17546m | 6.4m/s | 0°C | 0% | 0hPa | 4.7V | 00:00:00 | 00:00:00 | 00:00:00 | |
| BIOWL1-15 | 2026-09-03 12:21:03 | 47.70189 | 9.80595 | 139° | 42km/h | 17541m | 4.7m/s | -57°C | 0% | 0hPa | 4.7V | 00:00:00 | 00:00:00 | 00:00:00 | |
| DK7TD | 2026-09-03 12:21:01 | 47.70204 | 9.80574 | 139° | 42km/h | 17531m | 6m/s | -56.9°C | 0% | 0hPa | 4.7V | 00:00:00 | 00:00:00 | 00:00:00 | |
| DB0UT-7 | 2026-09-03 12:20:58 | 47.70218 | 9.80556 | 137° | 40km/h | 17515m | 4.6m/s | 0°C | 0% | 0hPa | 0V | 00:00:00 | 00:00:00 | 00:00:00 | |
| IW2NTF | 2026-09-03 12:20:56 | 47.70230 | 9.80540 | 143° | 31km/h | 17505m | 3.9m/s | 0°C | 0% | 0hPa | 0V | 00:00:00 | 00:00:00 | 00:00:00 | |
| OE3JTB-15 | 2026-09-03 12:20:56 | 47.70253 | 9.80514 | 142° | 42km/h | 17473m | 4.0m/s | 0°C | 0% | 0hPa | 4.7V | 00:00:00 | 00:00:00 | 00:00:00 | |
| DO3MHA-12 | 2026-09-03 12:20:54 | 47.70245 | 9.80523 | 140° | 40km/h | 17494m | 4.7m/s | 0°C | 0% | 0hPa | 4.7V | 00:00:00 | 00:00:00 | 00:00:00 | |
| BIOWL1-15 | 2026-09-03 12:20:53 | 47.70262 | 9.80504 | 145° | 46km/h | 17488m | 6.2m/s | -56.9°C | 0% | 0hPa | 4.7V | 00:00:00 | 00:00:00 | 00:00:00 | |
| NBG1-10 | 2026-09-03 12:20:51 | 47.70271 | 9.80494 | 145° | 42km/h | 17478m | 5.4m/s | 0°C | 0% | 0hPa | 4.7V | 00:00:00 | 00:00:00 | 00:00:00 | |
| DK7TD | 2026-09-03 12:20:50 | 47.70289 | 9.80475 | 145° | 40km/h | 17473m | 4m/s | -56.8°C | 0% | 0hPa | 4.7V | 00:00:00 | 00:00:00 | 00:00:00 | |
| IW2NTF | 2026-09-03 12:20:46 | 47.70314 | 9.80454 | 142° | 37km/h | 17452m | 4.4m/s | 0°C | 0% | 0hPa | 0V | 00:00:00 | 00:00:00 | 00:00:00 | |
| DO3MHA-12 | 2026-09-03 12:20:44 | 47.70330 | 9.80436 | 146° | 46km/h | 17442m | 6.2m/s | 0°C | 0% | 0hPa | 4.7V | 00:00:00 | 00:00:00 | 00:00:00 | |
| BIOWL1-15 | 2026-09-03 12:20:42 | 47.70357 | 9.80406 | 141° | 44km/h | 17430m | 6.6m/s | -56.9°C | 0% | 0hPa | 4.7V | 00:00:00 | 00:00:00 | 00:00:00 | |
| DK7TD | 2026-09-03 12:20:40 | 47.70375 | 9.80387 | 146° | 44km/h | 17418m | 5.7m/s | -56.9°C | 0% | 0hPa | 4.7V | 00:00:00 | 00:00:00 | 00:00:00 | |
| IW2NTF | 2026-09-03 12:20:36 | 47.70400 | 9.80359 | 140° | 42km/h | 17395m | 5.5m/s | 0°C | 0% | 0hPa | 0V | 00:00:00 | 00:00:00 | 00:00:00 | |
| DB0NH | 2026-09-03 12:20:34 | 47.70417 | 9.80338 | 136° | 40km/h | 17384m | 4.5m/s | 0°C | 0% | 0hPa | 4.7V | 00:00:00 | 00:00:00 | 00:00:00 | |
| BIOWL1-15 | 2026-09-03 12:20:32 | 47.70547 | 9.80141 | 133° | 47km/h | 17288m | 4.3m/s | -56.2°C | 0% | 0hPa | 4.7V | 00:00:00 | 00:00:00 | 00:00:00 | |
| DK7TD | 2026-09-03 12:20:29 | 47.70458 | 9.80269 | 134° | 42km/h | 17355m | 6.7m/s | -56.7°C | 0% | 0hPa | 4.7V | 00:00:00 | 00:00:00 | 00:00:00 | |
| DB0UT-7 | 2026-09-03 12:20:28 | 47.70458 | 9.80269 | 134° | 40km/h | 17350m | 3.8m/s | 0°C | 0% | 0hPa | 0V | 00:00:00 | 00:00:00 | 00:00:00 | |
| OE3JTB-15 | 2026-09-03 12:20:27 | 47.70466 | 9.80258 | 139° | 40km/h | 17345m | 6.8m/s | 0°C | 0% | 0hPa | 0V | 00:00:00 | 00:00:00 | 00:00:00 | |
| IW2NTF | 2026-09-03 12:20:26 | 47.70473 | 9.80247 | 138° | 40km/h | 17340m | 3.1m/s | 0°C | 0% | 0hPa | 0V | 00:00:00 | 00:00:00 | 00:00:00 | |
| BIOWL1-15 | 2026-09-03 12:20:19 | 47.70629 | 9.80030 | 136° | 40km/h | 17230m | 3.8m/s | -56°C | 0% | 0hPa | 4.7V | 00:00:00 | 00:00:00 | 00:00:00 | |
| NBG1-10 | 2026-09-03 12:20:18 | 47.70531 | 9.80166 | 133° | 42km/h | 17293m | 5.8m/s | 0°C | 0% | 0hPa | 0V | 00:00:00 | 00:00:00 | 00:00:00 | |
| IW2NTF | 2026-09-03 12:20:16 | 47.70546 | 9.80140 | 131° | 47km/h | 17283m | 6m/s | 0°C | 0% | 0hPa | 0V | 00:00:00 | 00:00:00 | 00:00:00 | |
| DN1GJH-1 | 2026-09-03 12:20:10 | 47.70606 | 9.80058 | 144° | 38km/h | 17246m | 6.6m/s | -56.0°C | 0% | 0hPa | 4.7V | 00:00:00 | 00:00:00 | 00:00:00 | |
| DK7TD | 2026-09-03 12:20:07 | 47.70622 | 9.80040 | 139° | 40km/h | 17235m | 6.6m/s | -56°C | 0% | 0hPa | 4.7V | 00:00:00 | 00:00:00 | 00:00:00 | |
| IW2NTF | 2026-09-03 12:20:06 | 47.70622 | 9.80040 | 138° | 40km/h | 17230m | 3.8m/s | 0°C | 0% | 0hPa | 0V | 00:00:00 | 00:00:00 | 00:00:00 | |
| DB0NH | 2026-09-03 12:20:04 | 47.70636 | 9.80019 | 137° | 46km/h | 17220m | 5.4m/s | 0°C | 0% | 0hPa | 4.7V | 00:00:00 | 00:00:00 | 00:00:00 | |
| BIOWL1-15 | 2026-09-03 12:20:01 | 47.70662 | 9.79985 | 136° | 44km/h | 17210m | 6.6m/s | -55.9°C | 0% | 0hPa | 4.7V | 00:00:00 | 00:00:00 | 00:00:00 | |
| DB0UT-7 | 2026-09-03 12:19:58 | 47.70682 | 9.79954 | 143° | 47km/h | 17189m | 4.8m/s | 0°C | 0% | 0hPa | 0V | 00:00:00 | 00:00:00 | 00:00:00 | |
| IW2NTF | 2026-09-03 12:19:56 | 47.70697 | 9.79938 | 135° | 37km/h | 17177m | 4.8m/s | 0°C | 0% | 0hPa | 0V | 00:00:00 | 00:00:00 | 00:00:00 | |
| DK7TD | 2026-09-03 12:19:56 | 47.70704 | 9.79927 | 136° | 40km/h | 17177m | 4.8m/s | -55.8°C | 0% | 0hPa | 4.7V | 00:00:00 | 00:00:00 | 00:00:00 | |
| DO8TBO-1 | 2026-09-03 12:19:55 | 47.70704 | 9.79927 | 136° | 49km/h | 17172m | 6.7m/s | 0°C | 0% | 0hPa | 4.7V | 00:00:00 | 00:00:00 | 00:00:00 | |
| BIOWL1-15 | 2026-09-03 12:19:51 | 47.70812 | 9.79750 | 132° | 49km/h | 17097m | 6.3m/s | -56.1°C | 0% | 0hPa | 4.7V | 00:00:00 | 00:00:00 | 00:00:00 | |
| IW2NTF | 2026-09-03 12:19:51 | 47.70773 | 9.79814 | 129° | 42km/h | 17120m | 4.2m/s | 0°C | 0% | 0hPa | 0V | 00:00:00 | 00:00:00 | 00:00:00 | |
| DN1GJH-1 | 2026-09-03 12:19:48 | 47.70760 | 9.79840 | 129° | 46km/h | 17137m | 6.8m/s | -56.0°C | 0% | 0hPa | 4.7V | 00:00:00 | 00:00:00 | 00:00:00 | |
| DK7TD | 2026-09-03 12:19:46 | 47.70780 | 9.79801 | 131° | 42km/h | 17120m | 4.2m/s | -56°C | 0% | 0hPa | 4.7V | 00:00:00 | 00:00:00 | 00:00:00 | |
| NBG1-10 | 2026-09-03 12:19:45 | 47.70780 | 9.79801 | 132° | 53km/h | 17115m | 6.5m/s | 0°C | 0% | 0hPa | 0V | 00:00:00 | 00:00:00 | 00:00:00 | |
| DM0DOS-11 | 2026-09-03 12:19:42 | 47.70842 | 9.79692 | 122° | 49km/h | 17069m | 5.6m/s | 0°C | 0% | 0hPa | 0V | 00:00:00 | 00:00:00 | 00:00:00 | |
| BIOWL1-15 | 2026-09-03 12:19:39 | 47.70849 | 9.79675 | 122° | 51km/h | 17069m | 5.6m/s | -56°C | 0% | 0hPa | 4.7V | 00:00:00 | 00:00:00 | 00:00:00 | |
| IW2NTF | 2026-09-03 12:19:37 | 47.70849 | 9.79675 | 122° | 51km/h | 17063m | 4.8m/s | 0°C | 0% | 0hPa | 0V | 00:00:00 | 00:00:00 | 00:00:00 | |
| DK7TD | 2026-09-03 12:19:35 | 47.70864 | 9.79643 | 129° | 55km/h | 17058m | 6.3m/s | -56°C | 0% | 0hPa | 4.7V | 00:00:00 | 00:00:00 | 00:00:00 | |
| DB0NH | 2026-09-03 12:19:34 | 47.70864 | 9.79643 | 129° | 57km/h | 17052m | 4.8m/s | 0°C | 0% | 0hPa | 0V | 00:00:00 | 00:00:00 | 00:00:00 | |
| IW2NTF | 2026-09-03 12:19:31 | 47.70933 | 9.79514 | 126° | 47km/h | 17007m | 4m/s | 0°C | 0% | 0hPa | 0V | 00:00:00 | 00:00:00 | 00:00:00 | |
| DM0DOS-11 | 2026-09-03 12:19:29 | 47.70926 | 9.79529 | 122° | 49km/h | 16990m | 7.6m/s | 0°C | 0% | 0hPa | 0V | 00:00:00 | 00:00:00 | 00:00:00 | |
| OE3JTB-15 | 2026-09-03 12:19:29 | 47.70910 | 9.79560 | 131° | 57km/h | 17024m | 7.0m/s | 0°C | 0% | 0hPa | 4.7V | 00:00:00 | 00:00:00 | 00:00:00 | |
| DN1GJH-1 | 2026-09-03 12:19:28 | 47.70926 | 9.79529 | 124° | 49km/h | 17019m | 4.8m/s | -55.9°C | 0% | 0hPa | 4.7V | 00:00:00 | 00:00:00 | 00:00:00 | |
| BIOWL1-15 | 2026-09-03 12:19:26 | 47.70940 | 9.79499 | 126° | 49km/h | 17008m | 4m/s | -55.9°C | 0% | 0hPa | 4.7V | 00:00:00 | 00:00:00 | 00:00:00 | |
| DO3MHA-12 | 2026-09-03 12:19:25 | 47.70940 | 9.79499 | 127° | 57km/h | 17002m | 6.9m/s | 0°C | 0% | 0hPa | 4.7V | 00:00:00 | 00:00:00 | 00:00:00 | |
| DK7TD | 2026-09-03 12:19:24 | 47.70955 | 9.79466 | 125° | 55km/h | 16996m | 4.5m/s | -56°C | 0% | 0hPa | 4.7V | 00:00:00 | 00:00:00 | 00:00:00 | |
| BIOWL1-15 | 2026-09-03 12:19:18 | 47.71028 | 9.79329 | 120° | 57km/h | 16948m | 5.3m/s | -56.3°C | 0% | 0hPa | 4.7V | 00:00:00 | 00:00:00 | 00:00:00 | |
| IW2NTF | 2026-09-03 12:19:16 | 47.71020 | 9.79347 | 125° | 57km/h | 16948m | 5.3m/s | 0°C | 0% | 0hPa | 0V | 00:00:00 | 00:00:00 | 00:00:00 | |
| DO3MHA-12 | 2026-09-03 12:19:15 | 47.71027 | 9.79329 | 121° | 58km/h | 16942m | 6.2m/s | 0°C | 0% | 0hPa | 4.7V | 00:00:00 | 00:00:00 | 00:00:00 | |
| DK7TD | 2026-09-03 12:19:13 | 47.71048 | 9.79276 | 119° | 57km/h | 16932m | 7.5m/s | -56.3°C | 0% | 0hPa | 4.7V | 00:00:00 | 00:00:00 | 00:00:00 | |
| NBG1-10 | 2026-09-03 12:19:12 | 47.71047 | 9.79276 | 119° | 58km/h | 16920m | 7.3m/s | 0°C | 0% | 0hPa | 0V | 00:00:00 | 00:00:00 | 00:00:00 | |
| IW2NTF | 2026-09-03 12:19:11 | 47.71099 | 9.79160 | 125° | 64km/h | 16892m | 3.6m/s | 0°C | 0% | 0hPa | 0V | 00:00:00 | 00:00:00 | 00:00:00 | |
| BIOWL1-15 | 2026-09-03 12:19:09 | 47.71115 | 9.79121 | 118° | 60km/h | 16887m | 7.3m/s | -56.3°C | 0% | 0hPa | 4.7V | 00:00:00 | 00:00:00 | 00:00:00 | |
| DN1GJH-1 | 2026-09-03 12:19:07 | 47.71090 | 9.79179 | 126° | 66km/h | 16902m | 3.7m/s | -56.2°C | 0% | 0hPa | 4.7V | 00:00:00 | 00:00:00 | 00:00:00 | |
| DO3MHA-12 | 2026-09-03 12:19:05 | 47.71108 | 9.79141 | 118° | 58km/h | 16887m | 7.2m/s | 0°C | 0% | 0hPa | 4.7V | 00:00:00 | 00:00:00 | 00:00:00 | |
| DK7TD | 2026-09-03 12:19:03 | 47.71127 | 9.79081 | 112° | 57km/h | 16874m | 6.6m/s | -56.3°C | 0% | 0hPa | 4.7V | 00:00:00 | 00:00:00 | 00:00:00 | |
| OE3JTB-15 | 2026-09-03 12:19:00 | 47.71137 | 9.79041 | 114° | 57km/h | 16852m | 6.8m/s | 0°C | 0% | 0hPa | 0V | 00:00:00 | 00:00:00 | 00:00:00 | |
| DB0UT-7 | 2026-09-03 12:18:58 | 47.71149 | 9.79002 | 118° | 57km/h | 16846m | 5.0m/s | 0°C | 0% | 0hPa | 0V | 00:00:00 | 00:00:00 | 00:00:00 | |
| IW2NTF | 2026-09-03 12:18:56 | 47.71163 | 9.78962 | 117° | 62km/h | 16835m | 5.3m/s | 0°C | 0% | 0hPa | 0V | 00:00:00 | 00:00:00 | 00:00:00 | |
| DO3MHA-12 | 2026-09-03 12:18:55 | 47.71170 | 9.78941 | 118° | 58km/h | 16830m | 6.2m/s | 0°C | 0% | 0hPa | 4.7V | 00:00:00 | 00:00:00 | 00:00:00 | |
| BIOWL1-15 | 2026-09-03 12:18:54 | 47.71184 | 9.78901 | 114° | 58km/h | 16825m | 2.7m/s | -56.3°C | 0% | 0hPa | 4.7V | 00:00:00 | 00:00:00 | 00:00:00 | |
| DK7TD | 2026-09-03 12:18:52 | 47.71194 | 9.78859 | 107° | 62km/h | 16814m | 3.9m/s | -56.4°C | 0% | 0hPa | 4.7V | 00:00:00 | 00:00:00 | 00:00:00 | |
| DO8TBO-1 | 2026-09-03 12:18:52 | 47.71189 | 9.78880 | 107° | 57km/h | 16814m | 3.9m/s | 0°C | 0% | 0hPa | 0V | 00:00:00 | 00:00:00 | 00:00:00 | |
| DM0DOS-11 | 2026-09-03 12:18:49 | 47.71214 | 9.78757 | 109° | 51km/h | 16779m | 4.1m/s | 0°C | 0% | 0hPa | 0V | 00:00:00 | 00:00:00 | 00:00:00 | |
| DN1GJH-1 | 2026-09-03 12:18:46 | 47.71214 | 9.78757 | 111° | 51km/h | 16785m | 6.5m/s | -56.5°C | 0% | 0hPa | 4.8V | 00:00:00 | 00:00:00 | 00:00:00 | |
| BIOWL1-15 | 2026-09-03 12:18:45 | 47.71238 | 9.78690 | 121° | 51km/h | 16763m | 6.5m/s | -56.5°C | 0% | 0hPa | 4.8V | 00:00:00 | 00:00:00 | 00:00:00 | |
| DK7TD | 2026-09-03 12:18:41 | 47.71250 | 9.78654 | 112° | 55km/h | 16752m | 4.8m/s | -56.6°C | 0% | 0hPa | 4.8V | 00:00:00 | 00:00:00 | 00:00:00 | |
| NBG1-10 | 2026-09-03 12:18:39 | 47.71255 | 9.78634 | 110° | 57km/h | 16741m | 5.5m/s | 0°C | 0% | 0hPa | 0V | 00:00:00 | 00:00:00 | 00:00:00 | |
| IW2NTF | 2026-09-03 12:18:36 | 47.71268 | 9.78580 | 111° | 55km/h | 16725m | 5.2m/s | 0°C | 0% | 0hPa | 0V | 00:00:00 | 00:00:00 | 00:00:00 | |
| DO3MHA-12 | 2026-09-03 12:18:35 | 47.71274 | 9.78561 | 117° | 57km/h | 16720m | 5.3m/s | 0°C | 0% | 0hPa | 4.8V | 00:00:00 | 00:00:00 | 00:00:00 | |
| BIOWL1-15 | 2026-09-03 12:18:34 | 47.71301 | 9.78486 | 116° | 58km/h | 16703m | 6.1m/s | -56.6°C | 0% | 0hPa | 4.8V | 00:00:00 | 00:00:00 | 00:00:00 | |
| OE3JTB-15 | 2026-09-03 12:18:31 | 47.71312 | 9.78447 | 109° | 58km/h | 16671m | 4.8m/s | 0°C | 0% | 0hPa | 4.8V | 00:00:00 | 00:00:00 | 00:00:00 | |
| DK7TD | 2026-09-03 12:18:30 | 47.71312 | 9.78447 | 109° | 57km/h | 16692m | 4.9m/s | -56.6°C | 0% | 0hPa | 4.8V | 00:00:00 | 00:00:00 | 00:00:00 | |
| DM0DOS-11 | 2026-09-03 12:18:29 | 47.71326 | 9.78384 | 112° | 57km/h | 16671m | 4.8m/s | 0°C | 0% | 0hPa | 0V | 00:00:00 | 00:00:00 | 00:00:00 | |
| DB0UT-7 | 2026-09-03 12:18:28 | 47.71317 | 9.78425 | 108° | 58km/h | 16682m | 5.0m/s | 0°C | 0% | 0hPa | 4.8V | 00:00:00 | 00:00:00 | 00:00:00 | |
| DN1GJH-1 | 2026-09-03 12:18:26 | 47.71326 | 9.78384 | 110° | 57km/h | 16677m | 5.3m/s | -56.5°C | 0% | 0hPa | 4.8V | 00:00:00 | 00:00:00 | 00:00:00 | |
| DO3MHA-12 | 2026-09-03 12:18:25 | 47.71331 | 9.78364 | 113° | 57km/h | 16666m | 5.1m/s | 0°C | 0% | 0hPa | 4.8V | 00:00:00 | 00:00:00 | 00:00:00 | |
| BIOWL1-15 | 2026-09-03 12:18:22 | 47.71382 | 9.78164 | 111° | 62km/h | 16620m | 4.1m/s | -56.2°C | 0% | 0hPa | 4.8V | 00:00:00 | 00:00:00 | 00:00:00 | |
| DK7TD | 2026-09-03 12:18:20 | 47.71363 | 9.78245 | 105° | 57km/h | 16641m | 4.7m/s | -56.4°C | 0% | 0hPa | 4.8V | 00:00:00 | 00:00:00 | 00:00:00 | |
| IW2NTF | 2026-09-03 12:18:16 | 47.71376 | 9.78185 | 110° | 58km/h | 16620m | 4.1m/s | 0°C | 0% | 0hPa | 0V | 00:00:00 | 00:00:00 | 00:00:00 | |
| DO3MHA-12 | 2026-09-03 12:18:14 | 47.71388 | 9.78143 | 113° | 57km/h | 16610m | 4.8m/s | 0°C | 0% | 0hPa | 4.8V | 00:00:00 | 00:00:00 | 00:00:00 | |
| BIOWL1-15 | 2026-09-03 12:18:13 | 47.71408 | 9.78064 | 109° | 55km/h | 16595m | 5.3m/s | -56.1°C | 0% | 0hPa | 4.8V | 00:00:00 | 00:00:00 | 00:00:00 | |
| DM0DOS-11 | 2026-09-03 12:18:09 | 47.71430 | 9.77987 | 113° | 58km/h | 16566m | 5.4m/s | 0°C | 0% | 0hPa | 0V | 00:00:00 | 00:00:00 | 00:00:00 | |
| DK7TD | 2026-09-03 12:18:09 | 47.71419 | 9.78026 | 114° | 55km/h | 16583m | 5.1m/s | -56.1°C | 0% | 0hPa | 4.8V | 00:00:00 | 00:00:00 | 00:00:00 | |
| NBG1-10 | 2026-09-03 12:18:06 | 47.71430 | 9.77987 | 114° | 60km/h | 16561m | 4.5m/s | 0°C | 0% | 0hPa | 4.8V | 00:00:00 | 00:00:00 | 00:00:00 | |
| LOEBOVI | 2026-09-03 12:18:05 | 47.71443 | 9.77946 | 115° | 62km/h | 16561m | 4.6m/s | -56.0°C | 0% | 0hPa | 4.8V | 00:00:00 | 00:00:00 | 00:00:00 | |
| DF7PN | 2026-09-03 12:18:04 | 47.71449 | 9.77925 | 111° | 60km/h | 16556m | 5.4m/s | -56.0°C | -1.0% | -1.0hPa | 4.8V | 00:00:00 | 00:00:00 | 00:00:00 | |
| OE3JTB-15 | 2026-09-03 12:18:02 | 47.71460 | 9.77883 | 113° | 60km/h | 16536m | 5.4m/s | 0°C | 0% | 0hPa | 4.8V | 00:00:00 | 00:00:00 | 00:00:00 | |
| BIOWL1-15 | 2026-09-03 12:18:00 | 47.71474 | 9.77843 | 117° | 58km/h | 16536m | 5.4m/s | -56.1°C | 0% | 0hPa | 4.8V | 00:00:00 | 00:00:00 | 00:00:00 | |
| DB0UT-7 | 2026-09-03 12:17:58 | 47.71480 | 9.77822 | 119° | 60km/h | 16525m | 6.0m/s | 0°C | 0% | 0hPa | 0V | 00:00:00 | 00:00:00 | 00:00:00 | |
| IW2NTF | 2026-09-03 12:17:56 | 47.71494 | 9.77787 | 119° | 55km/h | 16513m | 6.3m/s | 0°C | 0% | 0hPa | 0V | 00:00:00 | 00:00:00 | 00:00:00 | |
| DO3MHA-12 | 2026-09-03 12:17:54 | 47.71506 | 9.77753 | 117° | 58km/h | 16503m | 6.3m/s | 0°C | 0% | 0hPa | 0V | 00:00:00 | 00:00:00 | 00:00:00 | |
| DO8TBO-1 | 2026-09-03 12:17:52 | 47.71519 | 9.77717 | 120° | 64km/h | 16492m | 7.0m/s | 0°C | 0% | 0hPa | 0V | 00:00:00 | 00:00:00 | 00:00:00 | |
| IW2NTF | 2026-09-03 12:17:51 | 47.71563 | 9.77598 | 117° | 62km/h | 16461m | 4m/s | 0°C | 0% | 0hPa | 0V | 00:00:00 | 00:00:00 | 00:00:00 | |
| BIOWL1-15 | 2026-09-03 12:17:49 | 47.71547 | 9.77639 | 121° | 64km/h | 16475m | 5m/s | -56.5°C | 0% | 0hPa | 4.8V | 00:00:00 | 00:00:00 | 00:00:00 | |
| DK7TD | 2026-09-03 12:17:47 | 47.71563 | 9.77598 | 118° | 62km/h | 16467m | 7m/s | -56.5°C | 0% | 0hPa | 4.8V | 00:00:00 | 00:00:00 | 00:00:00 | |
| DN1GJH-1 | 2026-09-03 12:17:45 | 47.71570 | 9.77578 | 117° | 62km/h | 16461m | 4.0m/s | -56.5°C | 0% | 0hPa | 4.8V | 00:00:00 | 00:00:00 | 00:00:00 | |
| DO3MHA-12 | 2026-09-03 12:17:44 | 47.71577 | 9.77557 | 118° | 62km/h | 16450m | 5.6m/s | 0°C | 0% | 0hPa | 4.8V | 00:00:00 | 00:00:00 | 00:00:00 | |
| BIOWL1-15 | 2026-09-03 12:17:43 | 47.71624 | 9.77443 | 126° | 62km/h | 16425m | 5.4m/s | -56.8°C | 0% | 0hPa | 4.8V | 00:00:00 | 00:00:00 | 00:00:00 | |
| IW2NTF | 2026-09-03 12:17:38 | 47.71643 | 9.77405 | 123° | 68km/h | 16409m | 3.1m/s | 0°C | 0% | 0hPa | 0V | 00:00:00 | 00:00:00 | 00:00:00 | |
| DK7TD | 2026-09-03 12:17:36 | 47.71653 | 9.77383 | 124° | 69km/h | 16409m | 3.1m/s | -56.8°C | 0% | 0hPa | 4.8V | 00:00:00 | 00:00:00 | 00:00:00 | |
| DO3MHA-12 | 2026-09-03 12:17:34 | 47.71662 | 9.77361 | 118° | 66km/h | 16399m | 4.2m/s | 0°C | 0% | 0hPa | 0V | 00:00:00 | 00:00:00 | 00:00:00 | |
| OE3JTB-15 | 2026-09-03 12:17:33 | 47.71679 | 9.77313 | 120° | 62km/h | 16388m | 4.2m/s | 0°C | 0% | 0hPa | 0V | 00:00:00 | 00:00:00 | 00:00:00 | |
| DB0UT-7 | 2026-09-03 12:17:28 | 47.71713 | 9.77230 | 123° | 60km/h | 16367m | 5.4m/s | 0°C | 0% | 0hPa | 0V | 00:00:00 | 00:00:00 | 00:00:00 | |
| IW2NTF | 2026-09-03 12:17:27 | 47.71731 | 9.77189 | 120° | 64km/h | 16356m | 6.4m/s | 0°C | 0% | 0hPa | 0V | 00:00:00 | 00:00:00 | 00:00:00 | |
| DK7TD | 2026-09-03 12:17:26 | 47.71739 | 9.77168 | 121° | 64km/h | 16356m | 6.4m/s | -57°C | 0% | 0hPa | 4.8V | 00:00:00 | 00:00:00 | 00:00:00 | |
| DN1GJH-1 | 2026-09-03 12:17:25 | 47.71747 | 9.77147 | 122° | 66km/h | 16351m | 4.2m/s | -57.0°C | 0% | 0hPa | 0V | 00:00:00 | 00:00:00 | 00:00:00 | |
| DO3MHA-12 | 2026-09-03 12:17:24 | 47.71747 | 9.77147 | 121° | 64km/h | 16347m | 4.8m/s | 0°C | 0% | 0hPa | 0V | 00:00:00 | 00:00:00 | 00:00:00 | |
| DO8TBO-1 | 2026-09-03 12:17:22 | 47.71763 | 9.77104 | 116° | 58km/h | 16337m | 4.6m/s | 0°C | 0% | 0hPa | 0V | 00:00:00 | 00:00:00 | 00:00:00 | |
| IW2NTF | 2026-09-03 12:17:17 | 47.71807 | 9.76979 | 117° | 64km/h | 16305m | 4.4m/s | 0°C | 0% | 0hPa | 0V | 00:00:00 | 00:00:00 | 00:00:00 | |
| BIOWL1-15 | 2026-09-03 12:17:17 | 47.71807 | 9.76979 | 118° | 64km/h | 16311m | 6.5m/s | -57°C | 0% | 0hPa | 4.8V | 00:00:00 | 00:00:00 | 00:00:00 | |
| DK7TD | 2026-09-03 12:17:15 | 47.71821 | 9.76936 | 115° | 62km/h | 16300m | 6.3m/s | -56.9°C | 0% | 0hPa | 4.8V | 00:00:00 | 00:00:00 | 00:00:00 | |
| DO3MHA-12 | 2026-09-03 12:17:14 | 47.71821 | 9.76936 | 115° | 60km/h | 16295m | 3.0m/s | 0°C | 0% | 0hPa | 4.8V | 00:00:00 | 00:00:00 | 00:00:00 | |
| DG1MJG | 2026-09-03 12:17:12 | 47.71840 | 9.76874 | 115° | 62km/h | 16285m | 4.8m/s | -56.8°C | 0% | 0hPa | 4.8V | 00:00:00 | 00:00:00 | 00:00:00 | |
| BIOWL1-15 | 2026-09-03 12:17:08 | 47.71880 | 9.76755 | 123° | 57km/h | 16257m | 5.7m/s | -56.6°C | 0% | 0hPa | 4.8V | 00:00:00 | 00:00:00 | 00:00:00 | |
| IW2NTF | 2026-09-03 12:17:07 | 47.71872 | 9.76772 | 122° | 60km/h | 16257m | 5.7m/s | 0°C | 0% | 0hPa | 0V | 00:00:00 | 00:00:00 | 00:00:00 | |
| DO3MHA-12 | 2026-09-03 12:17:04 | 47.71888 | 9.76737 | 125° | 55km/h | 16247m | 5.7m/s | 0°C | 0% | 0hPa | 0V | 00:00:00 | 00:00:00 | 00:00:00 | |
| DK7TD | 2026-09-03 12:17:04 | 47.71895 | 9.76720 | 124° | 55km/h | 16246m | 5.7m/s | -56.6°C | 0% | 0hPa | 4.8V | 00:00:00 | 00:00:00 | 00:00:00 | |
| DB0NH | 2026-09-03 12:17:03 | 47.71895 | 9.76720 | 125° | 55km/h | 16242m | 3.6m/s | 0°C | 0% | 0hPa | 0V | 00:00:00 | 00:00:00 | 00:00:00 | |
| NBG1-10 | 2026-09-03 12:17:00 | 47.71917 | 9.76668 | 119° | 55km/h | 16227m | 6.2m/s | 0°C | 0% | 0hPa | 0V | 00:00:00 | 00:00:00 | 00:00:00 | |
| DB0UT-7 | 2026-09-03 12:16:58 | 47.71930 | 9.76632 | 121° | 55km/h | 16217m | 6.5m/s | 0°C | 0% | 0hPa | 0V | 00:00:00 | 00:00:00 | 00:00:00 | |
| IW2NTF | 2026-09-03 12:16:57 | 47.71944 | 9.76597 | 122° | 53km/h | 16208m | 7m/s | 0°C | 0% | 0hPa | 0V | 00:00:00 | 00:00:00 | 00:00:00 | |
| BIOWL1-15 | 2026-09-03 12:16:55 | 47.71952 | 9.76581 | 126° | 53km/h | 16208m | 7m/s | -56.9°C | 0% | 0hPa | 4.8V | 00:00:00 | 00:00:00 | 00:00:00 | |
| DO3MHA-12 | 2026-09-03 12:16:54 | 47.71960 | 9.76565 | 129° | 51km/h | 16198m | 5.9m/s | 0°C | 0% | 0hPa | 4.8V | 00:00:00 | 00:00:00 | 00:00:00 | |
| DK7TD | 2026-09-03 12:16:53 | 47.71976 | 9.76534 | 128° | 51km/h | 16192m | 4.6m/s | -57°C | 0% | 0hPa | 4.8V | 00:00:00 | 00:00:00 | 00:00:00 | |
| DO8TBO-1 | 2026-09-03 12:16:52 | 47.71976 | 9.76534 | 129° | 55km/h | 16182m | 5.6m/s | 0°C | 0% | 0hPa | 0V | 00:00:00 | 00:00:00 | 00:00:00 | |
| IW2NTF | 2026-09-03 12:16:47 | 47.72021 | 9.76440 | 125° | 53km/h | 16157m | 3.6m/s | 0°C | 0% | 0hPa | 0V | 00:00:00 | 00:00:00 | 00:00:00 | |
| BIOWL1-15 | 2026-09-03 12:16:47 | 47.72037 | 9.76406 | 126° | 58km/h | 16152m | 6.1m/s | -56.9°C | 0% | 0hPa | 4.8V | 00:00:00 | 00:00:00 | 00:00:00 | |
| DO3MHA-12 | 2026-09-03 12:16:44 | 47.72037 | 9.76406 | 127° | 55km/h | 16146m | 3.9m/s | 0°C | 0% | 0hPa | 4.8V | 00:00:00 | 00:00:00 | 00:00:00 | |
| DK7TD | 2026-09-03 12:16:43 | 47.72056 | 9.76370 | 127° | 62km/h | 16141m | 5.9m/s | -56.9°C | 0% | 0hPa | 4.8V | 00:00:00 | 00:00:00 | 00:00:00 | |
| IW2NTF | 2026-09-03 12:16:41 | 47.72107 | 9.76275 | 134° | 49km/h | 16107m | 4.8m/s | 0°C | 0% | 0hPa | 0V | 00:00:00 | 00:00:00 | 00:00:00 | |
| DB0NH | 2026-09-03 12:16:34 | 47.72134 | 9.76229 | 127° | 62km/h | 16094m | 3.8m/s | 0°C | 0% | 0hPa | 4.8V | 00:00:00 | 00:00:00 | 00:00:00 | |
| DK7TD | 2026-09-03 12:16:32 | 47.72152 | 9.76190 | 126° | 66km/h | 16088m | 6.1m/s | -57.5°C | 0% | 0hPa | 4.8V | 00:00:00 | 00:00:00 | 00:00:00 | |
| IW2NTF | 2026-09-03 12:16:32 | 47.72197 | 9.76105 | 136° | 49km/h | 16057m | 5.2m/s | 0°C | 0% | 0hPa | 0V | 00:00:00 | 00:00:00 | 00:00:00 | |
| DB0UT-7 | 2026-09-03 12:16:28 | 47.72179 | 9.76134 | 129° | 64km/h | 16068m | 5.0m/s | 0°C | 0% | 0hPa | 0V | 00:00:00 | 00:00:00 | 00:00:00 | |
| NBG1-10 | 2026-09-03 12:16:27 | 47.72188 | 9.76119 | 135° | 64km/h | 16062m | 5.5m/s | 0°C | 0% | 0hPa | 0V | 00:00:00 | 00:00:00 | 00:00:00 | |
| DO3MHA-12 | 2026-09-03 12:16:24 | 47.72215 | 9.76081 | 138° | 60km/h | 16050m | 5.2m/s | 0°C | 0% | 0hPa | 0V | 00:00:00 | 00:00:00 | 00:00:00 | |
| DN1GJH-1 | 2026-09-03 12:16:23 | 47.72224 | 9.76069 | 140° | 51km/h | 16050m | 5.2m/s | -57.8°C | 0% | 0hPa | 0V | 00:00:00 | 00:00:00 | 00:00:00 | |
| IW2NTF | 2026-09-03 12:16:21 | 47.72298 | 9.75950 | 133° | 64km/h | 16009m | 5.1m/s | 0°C | 0% | 0hPa | 0V | 00:00:00 | 00:00:00 | 00:00:00 | |
| BIOWL1-15 | 2026-09-03 12:16:21 | 47.72298 | 9.75950 | 134° | 64km/h | 16014m | 3.5m/s | -57.9°C | 0% | 0hPa | 4.8V | 00:00:00 | 00:00:00 | 00:00:00 | |
| DO8TBO-1 | 2026-09-03 12:16:21 | 47.72245 | 9.76041 | 130° | 69km/h | 16035m | 2.1m/s | 0°C | 0% | 0hPa | 0V | 00:00:00 | 00:00:00 | 00:00:00 | |
| DK7TD | 2026-09-03 12:16:21 | 47.72255 | 9.76023 | 130° | 62km/h | 16034m | 2.2m/s | -57.9°C | 0% | 0hPa | 4.8V | 00:00:00 | 00:00:00 | 00:00:00 | |
| DO3MHA-12 | 2026-09-03 12:16:14 | 47.72323 | 9.75916 | 141° | 68km/h | 16000m | 6.1m/s | 0°C | 0% | 0hPa | 0V | 00:00:00 | 00:00:00 | 00:00:00 | |
| IW2NTF | 2026-09-03 12:16:12 | 47.72422 | 9.75784 | 132° | 73km/h | 15961m | 3m/s | 0°C | 0% | 0hPa | 0V | 00:00:00 | 00:00:00 | 00:00:00 | |
| DK7TD | 2026-09-03 12:16:10 | 47.72385 | 9.75838 | 139° | 68km/h | 15980m | 4.1m/s | -58°C | 0% | 0hPa | 4.8V | 00:00:00 | 00:00:00 | 00:00:00 | |
| BIOWL1-15 | 2026-09-03 12:16:06 | 47.72459 | 9.75719 | 129° | 75km/h | 15953m | 3.1m/s | -58.1°C | 0% | 0hPa | 4.8V | 00:00:00 | 00:00:00 | 00:00:00 | |
| DO3MHA-12 | 2026-09-03 12:16:04 | 47.72447 | 9.75740 | 130° | 71km/h | 15953m | 3.1m/s | 0°C | 0% | 0hPa | 0V | 00:00:00 | 00:00:00 | 00:00:00 | |
| DN1GJH-1 | 2026-09-03 12:16:03 | 47.72471 | 9.75698 | 133° | 75km/h | 15948m | 5.8m/s | -58.1°C | 0% | 0hPa | 0V | 00:00:00 | 00:00:00 | 00:00:00 | |
| IW2NTF | 2026-09-03 12:16:01 | 47.72548 | 9.75586 | 134° | 69km/h | 15917m | 3.6m/s | 0°C | 0% | 0hPa | 0V | 00:00:00 | 00:00:00 | 00:00:00 | |
| DK7TD | 2026-09-03 12:16:00 | 47.72509 | 9.75639 | 135° | 69km/h | 15933m | 2.6m/s | -58.2°C | 0% | 0hPa | 4.8V | 00:00:00 | 00:00:00 | 00:00:00 | |
| BIOWL1-15 | 2026-09-03 12:15:55 | 47.72571 | 9.75546 | 129° | 73km/h | 15912m | 5.2m/s | -58.2°C | 0% | 0hPa | 4.8V | 00:00:00 | 00:00:00 | 00:00:00 | |
| DO3MHA-12 | 2026-09-03 12:15:54 | 47.72571 | 9.75545 | 130° | 73km/h | 15908m | 5.0m/s | 0°C | 0% | 0hPa | 0V | 00:00:00 | 00:00:00 | 00:00:00 | |
| IW2NTF | 2026-09-03 12:15:51 | 47.72665 | 9.75372 | 130° | 71km/h | 15871m | 2.5m/s | 0°C | 0% | 0hPa | 0V | 00:00:00 | 00:00:00 | 00:00:00 | |
| DO8TBO-1 | 2026-09-03 12:15:51 | 47.72606 | 9.75478 | 127° | 75km/h | 15893m | 5.0m/s | 0°C | 0% | 0hPa | 4.8V | 00:00:00 | 00:00:00 | 00:00:00 | |
| DK7TD | 2026-09-03 12:15:49 | 47.72642 | 9.75411 | 130° | 73km/h | 15884m | 5m/s | -58.2°C | 0% | 0hPa | 4.8V | 00:00:00 | 00:00:00 | 00:00:00 | |
| DO3MHA-12 | 2026-09-03 12:15:44 | 47.72687 | 9.75331 | 123° | 77km/h | 15860m | 4.0m/s | 0°C | 0% | 0hPa | 4.8V | 00:00:00 | 00:00:00 | 00:00:00 | |
| BIOWL1-15 | 2026-09-03 12:15:44 | 47.72698 | 9.75307 | 122° | 75km/h | 15860m | 4m/s | -58.2°C | 0% | 0hPa | 4.8V | 00:00:00 | 00:00:00 | 00:00:00 | |
| DN1GJH-1 | 2026-09-03 12:15:42 | 47.72718 | 9.75256 | 122° | 82km/h | 15850m | 4.8m/s | -58.3°C | 0% | 0hPa | 4.8V | 00:00:00 | 00:00:00 | 00:00:00 | |
| DK7TD | 2026-09-03 12:15:38 | 47.72762 | 9.75155 | 125° | 77km/h | 15832m | 3.4m/s | -58.4°C | 0% | 0hPa | 4.8V | 00:00:00 | 00:00:00 | 00:00:00 | |
| BIOWL1-15 | 2026-09-03 12:15:36 | 47.72802 | 9.75067 | 125° | 71km/h | 15813m | 3.6m/s | -58.6°C | 0% | 0hPa | 4.8V | 00:00:00 | 00:00:00 | 00:00:00 | |
| DO3MHA-12 | 2026-09-03 12:15:34 | 47.72792 | 9.75089 | 126° | 75km/h | 15814m | 3.5m/s | 0°C | 0% | 0hPa | 0V | 00:00:00 | 00:00:00 | 00:00:00 | |
| DB0NH | 2026-09-03 12:15:33 | 47.72802 | 9.75067 | 125° | 73km/h | 15808m | 6.4m/s | 0°C | 0% | 0hPa | 0V | 00:00:00 | 00:00:00 | 00:00:00 | |
| IW2NTF | 2026-09-03 12:15:31 | 47.72873 | 9.74895 | 123° | 78km/h | 15774m | 6.1m/s | 0°C | 0% | 0hPa | 0V | 00:00:00 | 00:00:00 | 00:00:00 | |
| DB0UT-7 | 2026-09-03 12:15:28 | 47.72852 | 9.74946 | 120° | 73km/h | 15784m | 6.0m/s | 0°C | 0% | 0hPa | 4.8V | 00:00:00 | 00:00:00 | 00:00:00 | |
| DK7TD | 2026-09-03 12:15:27 | 47.72872 | 9.74895 | 123° | 78km/h | 15779m | 3.2m/s | -58.8°C | 0% | 0hPa | 4.8V | 00:00:00 | 00:00:00 | 00:00:00 | |
| DO3MHA-12 | 2026-09-03 12:15:24 | 47.72893 | 9.74847 | 123° | 73km/h | 15764m | 6.0m/s | 0°C | 0% | 0hPa | 4.8V | 00:00:00 | 00:00:00 | 00:00:00 | |
| BIOWL1-15 | 2026-09-03 12:15:22 | 47.72930 | 9.74753 | 115° | 71km/h | 15750m | 4.2m/s | -58.6°C | 0% | 0hPa | 4.8V | 00:00:00 | 00:00:00 | 00:00:00 | |
| IW2NTF | 2026-09-03 12:15:21 | 47.72961 | 9.74652 | 122° | 71km/h | 15725m | 6m/s | 0°C | 0% | 0hPa | 0V | 00:00:00 | 00:00:00 | 00:00:00 | |
| NBG1-10 | 2026-09-03 12:15:21 | 47.72921 | 9.74777 | 116° | 71km/h | 15750m | 4.1m/s | 0°C | 0% | 0hPa | 4.8V | 00:00:00 | 00:00:00 | 00:00:00 | |
| OE3JTB-15 | 2026-09-03 12:15:19 | 47.72960 | 9.74653 | 119° | 73km/h | 15730m | 4.4m/s | 0°C | 0% | 0hPa | 4.8V | 00:00:00 | 00:00:00 | 00:00:00 | |
| DK7TD | 2026-09-03 12:15:16 | 47.72970 | 9.74629 | 122° | 71km/h | 15725m | 6m/s | -58.6°C | 0% | 0hPa | 4.8V | 00:00:00 | 00:00:00 | 00:00:00 | |
| DO3MHA-12 | 2026-09-03 12:15:13 | 47.72991 | 9.74586 | 129° | 71km/h | 15711m | 4.0m/s | 0°C | 0% | 0hPa | 4.8V | 00:00:00 | 00:00:00 | 00:00:00 | |
| BIOWL1-15 | 2026-09-03 12:15:09 | 47.73048 | 9.74451 | 115° | 73km/h | 15687m | 4.7m/s | -58.3°C | 0% | 0hPa | 4.8V | 00:00:00 | 00:00:00 | 00:00:00 | |
| DK7TD | 2026-09-03 12:15:06 | 47.73064 | 9.74402 | 119° | 73km/h | 15677m | 3.8m/s | -58.3°C | 0% | 0hPa | 4.8V | 00:00:00 | 00:00:00 | 00:00:00 | |
| DO3MHA-12 | 2026-09-03 12:15:03 | 47.73083 | 9.74358 | 126° | 71km/h | 15663m | 5.0m/s | 0°C | 0% | 0hPa | 0V | 00:00:00 | 00:00:00 | 00:00:00 | |
| IW2NTF | 2026-09-03 12:15:01 | 47.73149 | 9.74201 | 115° | 71km/h | 15629m | 6.4m/s | 0°C | 0% | 0hPa | 0V | 00:00:00 | 00:00:00 | 00:00:00 | |
| BIOWL1-15 | 2026-09-03 12:14:59 | 47.73149 | 9.74201 | 115° | 73km/h | 15634m | 3.7m/s | 0°C | 0% | 0hPa | 0V | 00:00:00 | 00:00:00 | 00:00:00 | |
| DB0UT-7 | 2026-09-03 12:14:58 | 47.73132 | 9.74250 | 121° | 71km/h | 15639m | 6.5m/s | 0°C | 0% | 0hPa | 4.8V | 00:00:00 | 00:00:00 | 00:00:00 | |
| DK7TD | 2026-09-03 12:14:55 | 47.73166 | 9.74152 | 117° | 71km/h | 15623m | 4.4m/s | -58.1°C | 0% | 0hPa | 4.8V | 00:00:00 | 00:00:00 | 00:00:00 | |
| DO3MHA-12 | 2026-09-03 12:14:53 | 47.73173 | 9.74129 | 118° | 69km/h | 15619m | 4.9m/s | 0°C | 0% | 0hPa | 0V | 00:00:00 | 00:00:00 | 00:00:00 | |
| IW2NTF | 2026-09-03 12:14:51 | 47.73235 | 9.73976 | 112° | 75km/h | 15580m | 5.4m/s | 0°C | 0% | 0hPa | 0V | 00:00:00 | 00:00:00 | 00:00:00 | |
| DO8TBO-1 | 2026-09-03 12:14:51 | 47.73190 | 9.74087 | 124° | 69km/h | 15604m | 5.0m/s | 0°C | 0% | 0hPa | 4.8V | 00:00:00 | 00:00:00 | 00:00:00 | |
| NBG1-10 | 2026-09-03 12:14:48 | 47.73218 | 9.74027 | 119° | 71km/h | 15589m | 5.1m/s | 0°C | 0% | 0hPa | 4.8V | 00:00:00 | 00:00:00 | 00:00:00 | |
| DK7TD | 2026-09-03 12:14:44 | 47.73256 | 9.73903 | 112° | 69km/h | 15572m | 4.7m/s | -58.3°C | 0% | 0hPa | 4.8V | 00:00:00 | 00:00:00 | 00:00:00 | |
| DO3MHA-12 | 2026-09-03 12:14:43 | 47.73256 | 9.73903 | 113° | 71km/h | 15567m | 4.6m/s | 0°C | 0% | 0hPa | 0V | 00:00:00 | 00:00:00 | 00:00:00 | |
| IW2NTF | 2026-09-03 12:14:41 | 47.73320 | 9.73746 | 124° | 71km/h | 15534m | 5m/s | 0°C | 0% | 0hPa | 0V | 00:00:00 | 00:00:00 | 00:00:00 | |
| DK7TD | 2026-09-03 12:14:34 | 47.73351 | 9.73677 | 123° | 73km/h | 15523m | 5.3m/s | -58.1°C | 0% | 0hPa | 4.8V | 00:00:00 | 00:00:00 | 00:00:00 | |
| DO3MHA-12 | 2026-09-03 12:14:33 | 47.73351 | 9.73677 | 123° | 71km/h | 15519m | 4.6m/s | 0°C | 0% | 0hPa | 0V | 00:00:00 | 00:00:00 | 00:00:00 | |
| IW2NTF | 2026-09-03 12:14:31 | 47.73421 | 9.73528 | 128° | 71km/h | 15483m | 5m/s | 0°C | 0% | 0hPa | 0V | 00:00:00 | 00:00:00 | 00:00:00 | |
| DB0UT-7 | 2026-09-03 12:14:28 | 47.73399 | 9.73569 | 128° | 75km/h | 15493m | 5.9m/s | 0°C | 0% | 0hPa | 4.8V | 00:00:00 | 00:00:00 | 00:00:00 | |
| DK7TD | 2026-09-03 12:14:23 | 47.73464 | 9.73444 | 123° | 69km/h | 15469m | 6.1m/s | -57.9°C | 0% | 0hPa | 4.8V | 00:00:00 | 00:00:00 | 00:00:00 | |
| DO3MHA-12 | 2026-09-03 12:14:23 | 47.73454 | 9.73465 | 127° | 71km/h | 15469m | 6.1m/s | 0°C | 0% | 0hPa | 0V | 00:00:00 | 00:00:00 | 00:00:00 | |
| IW2NTF | 2026-09-03 12:14:21 | 47.73525 | 9.73311 | 132° | 73km/h | 15432m | 2.9m/s | 0°C | 0% | 0hPa | 0V | 00:00:00 | 00:00:00 | 00:00:00 | |
| DO8TBO-1 | 2026-09-03 12:14:21 | 47.73474 | 9.73421 | 120° | 78km/h | 15459m | 6.1m/s | 0°C | 0% | 0hPa | 4.8V | 00:00:00 | 00:00:00 | 00:00:00 | |
| NBG1-10 | 2026-09-03 12:14:15 | 47.73537 | 9.73291 | 133° | 80km/h | 15428m | 6.5m/s | 0°C | 0% | 0hPa | 4.8V | 00:00:00 | 00:00:00 | 00:00:00 | |
| DO3MHA-12 | 2026-09-03 12:14:13 | 47.73561 | 9.73249 | 131° | 78km/h | 15417m | 6.9m/s | 0°C | 0% | 0hPa | 4.8V | 00:00:00 | 00:00:00 | 00:00:00 | |
| DK7TD | 2026-09-03 12:14:12 | 47.73586 | 9.73205 | 128° | 77km/h | 15411m | 4.2m/s | -58°C | 0% | 0hPa | 4.8V | 00:00:00 | 00:00:00 | 00:00:00 | |
| IW2NTF | 2026-09-03 12:14:10 | 47.73647 | 9.73088 | 129° | 80km/h | 15380m | 6.3m/s | 0°C | 0% | 0hPa | 0V | 00:00:00 | 00:00:00 | 00:00:00 | |
| DO3MHA-12 | 2026-09-03 12:14:03 | 47.73686 | 9.73023 | 132° | 82km/h | 15364m | 4.3m/s | 0°C | 0% | 0hPa | 4.8V | 00:00:00 | 00:00:00 | 00:00:00 | |
| DK7TD | 2026-09-03 12:14:01 | 47.73724 | 9.72956 | 127° | 78km/h | 15354m | 3.2m/s | -58.1°C | 0% | 0hPa | 4.8V | 00:00:00 | 00:00:00 | 00:00:00 | |
| IW2NTF | 2026-09-03 12:13:59 | 47.73773 | 9.72852 | 124° | 82km/h | 15331m | 4.2m/s | 0°C | 0% | 0hPa | 0V | 00:00:00 | 00:00:00 | 00:00:00 | |
| DB0UT-7 | 2026-09-03 12:13:58 | 47.73749 | 9.72905 | 124° | 82km/h | 15340m | 6.8m/s | 0°C | 0% | 0hPa | 4.8V | 00:00:00 | 00:00:00 | 00:00:00 | |
| DO3MHA-12 | 2026-09-03 12:13:53 | 47.73810 | 9.72776 | 128° | 82km/h | 15316m | 4.7m/s | 0°C | 0% | 0hPa | 4.8V | 00:00:00 | 00:00:00 | 00:00:00 | |
| DO8TBO-1 | 2026-09-03 12:13:51 | 47.73836 | 9.72727 | 129° | 82km/h | 15304m | 4.6m/s | 0°C | 0% | 0hPa | 4.8V | 00:00:00 | 00:00:00 | 00:00:00 | |
| DK7TD | 2026-09-03 12:13:50 | 47.73862 | 9.72677 | 126° | 80km/h | 15299m | 6.6m/s | -58.1°C | 0% | 0hPa | 4.8V | 00:00:00 | 00:00:00 | 00:00:00 | |
| IW2NTF | 2026-09-03 12:13:49 | 47.73895 | 9.72601 | 121° | 84km/h | 15278m | 5.3m/s | 0°C | 0% | 0hPa | 0V | 00:00:00 | 00:00:00 | 00:00:00 | |
| DO3MHA-12 | 2026-09-03 12:13:43 | 47.73928 | 9.72523 | 124° | 84km/h | 15263m | 5.0m/s | 0°C | 0% | 0hPa | 4.8V | 00:00:00 | 00:00:00 | 00:00:00 | |
| NBG1-10 | 2026-09-03 12:13:42 | 47.73940 | 9.72496 | 124° | 80km/h | 15258m | 5.4m/s | 0°C | 0% | 0hPa | 4.8V | 00:00:00 | 00:00:00 | 00:00:00 | |
| DK7TD | 2026-09-03 12:13:40 | 47.73975 | 9.72417 | 122° | 82km/h | 15247m | 5.1m/s | -58.2°C | 0% | 0hPa | 4.8V | 00:00:00 | 00:00:00 | 00:00:00 | |
| IW2NTF | 2026-09-03 12:13:36 | 47.74006 | 9.72337 | 119° | 80km/h | 15225m | 6.6m/s | 0°C | 0% | 0hPa | 0V | 00:00:00 | 00:00:00 | 00:00:00 | |
| DO3MHA-12 | 2026-09-03 12:13:33 | 47.74038 | 9.72258 | 121° | 80km/h | 15210m | 3.5m/s | 0°C | 0% | 0hPa | 0V | 00:00:00 | 00:00:00 | 00:00:00 | |
| IW2NTF | 2026-09-03 12:13:29 | 47.74105 | 9.72074 | 116° | 80km/h | 15171m | 6m/s | 0°C | 0% | 0hPa | 0V | 00:00:00 | 00:00:00 | 00:00:00 | |
| DK7TD | 2026-09-03 12:13:29 | 47.74087 | 9.72127 | 116° | 78km/h | 15188m | 3.7m/s | -58.1°C | 0% | 0hPa | 4.8V | 00:00:00 | 00:00:00 | 00:00:00 | |
| DH7VM-15 | 2026-09-03 12:13:28 | 47.74095 | 9.72101 | 117° | 80km/h | 15183m | 7.1m/s | -58.0°C | 0% | 0hPa | 4.9V | 00:00:00 | 00:00:00 | 00:00:00 | |
| DO3MHA-12 | 2026-09-03 12:13:23 | 47.74132 | 9.71994 | 119° | 78km/h | 15157m | 3.8m/s | 0°C | 0% | 0hPa | 4.9V | 00:00:00 | 00:00:00 | 00:00:00 | |
| DO8TBO-1 | 2026-09-03 12:13:21 | 47.74151 | 9.71942 | 119° | 75km/h | 15147m | 4.7m/s | 0°C | 0% | 0hPa | 4.9V | 00:00:00 | 00:00:00 | 00:00:00 | |
| DK7TD | 2026-09-03 12:13:18 | 47.74192 | 9.71838 | 119° | 78km/h | 15132m | 3.8m/s | -57.6°C | 0% | 0hPa | 4.9V | 00:00:00 | 00:00:00 | 00:00:00 | |
| DO3MHA-12 | 2026-09-03 12:13:13 | 47.74230 | 9.71735 | 120° | 77km/h | 15107m | 6.5m/s | 0°C | 0% | 0hPa | 0V | 00:00:00 | 00:00:00 | 00:00:00 | |
| NBG1-10 | 2026-09-03 12:13:09 | 47.74272 | 9.71639 | 125° | 73km/h | 15084m | 5.2m/s | 0°C | 0% | 0hPa | 0V | 00:00:00 | 00:00:00 | 00:00:00 | |
| IW2NTF | 2026-09-03 12:13:08 | 47.74304 | 9.71567 | 120° | 73km/h | 15068m | 3.2m/s | 0°C | 0% | 0hPa | 0V | 00:00:00 | 00:00:00 | 00:00:00 | |
| DK7TD | 2026-09-03 12:13:07 | 47.74304 | 9.71567 | 121° | 73km/h | 15073m | 5.5m/s | -57.6°C | 0% | 0hPa | 4.8V | 00:00:00 | 00:00:00 | 00:00:00 | |
| DO3MHA-12 | 2026-09-03 12:13:03 | 47.74332 | 9.71493 | 119° | 73km/h | 15053m | 5.4m/s | 0°C | 0% | 0hPa | 0V | 00:00:00 | 00:00:00 | 00:00:00 | |
| IW2NTF | 2026-09-03 12:12:58 | 47.74404 | 9.71334 | 124° | 73km/h | 15018m | 4.9m/s | 0°C | 0% | 0hPa | 0V | 00:00:00 | 00:00:00 | 00:00:00 | |
| DB0UT-7 | 2026-09-03 12:12:58 | 47.74382 | 9.71377 | 128° | 71km/h | 15030m | 3.3m/s | 0°C | 0% | 0hPa | 4.9V | 00:00:00 | 00:00:00 | 00:00:00 | |
| DK7TD | 2026-09-03 12:12:56 | 47.74415 | 9.71311 | 124° | 73km/h | 15019m | 4.9m/s | -57.4°C | 0% | 0hPa | 4.9V | 00:00:00 | 00:00:00 | 00:00:00 | |
| DO3MHA-12 | 2026-09-03 12:12:53 | 47.74434 | 9.71266 | 119° | 71km/h | 15003m | 5.7m/s | 0°C | 0% | 0hPa | 0V | 00:00:00 | 00:00:00 | 00:00:00 | |
| DO8TBO-1 | 2026-09-03 12:12:51 | 47.74451 | 9.71219 | 120° | 71km/h | 14993m | 5.8m/s | 0°C | 0% | 0hPa | 0V | 00:00:00 | 00:00:00 | 00:00:00 | |
| IW2NTF | 2026-09-03 12:12:48 | 47.74500 | 9.71104 | 124° | 71km/h | 14969m | 3m/s | 0°C | 0% | 0hPa | 0V | 00:00:00 | 00:00:00 | 00:00:00 | |
| DK7TD | 2026-09-03 12:12:46 | 47.74510 | 9.71082 | 123° | 71km/h | 14969m | 3.1m/s | -57.2°C | 0% | 0hPa | 4.9V | 00:00:00 | 00:00:00 | 00:00:00 | |
| DO3MHA-12 | 2026-09-03 12:12:43 | 47.74530 | 9.71036 | 122° | 71km/h | 14956m | 5.3m/s | 0°C | 0% | 0hPa | 0V | 00:00:00 | 00:00:00 | 00:00:00 | |
| IW2NTF | 2026-09-03 12:12:38 | 47.74594 | 9.70879 | 123° | 71km/h | 14919m | 4.2m/s | 0°C | 0% | 0hPa | 0V | 00:00:00 | 00:00:00 | 00:00:00 | |
| NBG1-10 | 2026-09-03 12:12:36 | 47.74594 | 9.70879 | 124° | 68km/h | 14919m | 4.1m/s | 0°C | 0% | 0hPa | 4.9V | 00:00:00 | 00:00:00 | 00:00:00 | |
| DK7TD | 2026-09-03 12:12:35 | 47.74614 | 9.70834 | 124° | 71km/h | 14914m | 6.1m/s | -57.1°C | 0% | 0hPa | 4.9V | 00:00:00 | 00:00:00 | 00:00:00 | |
| DO3MHA-12 | 2026-09-03 12:12:33 | 47.74624 | 9.70813 | 122° | 69km/h | 14904m | 5.8m/s | 0°C | 0% | 0hPa | 0V | 00:00:00 | 00:00:00 | 00:00:00 | |
| IW2NTF | 2026-09-03 12:12:28 | 47.74684 | 9.70649 | 119° | 69km/h | 14871m | 5.1m/s | 0°C | 0% | 0hPa | 0V | 00:00:00 | 00:00:00 | 00:00:00 | |
| DB0UT-7 | 2026-09-03 12:12:28 | 47.74667 | 9.70696 | 118° | 68km/h | 14881m | 5.3m/s | 0°C | 0% | 0hPa | 4.9V | 00:00:00 | 00:00:00 | 00:00:00 | |
| OE3JTB-15 | 2026-09-03 12:12:26 | 47.74709 | 9.70584 | 119° | 68km/h | 14832m | 4.8m/s | 0°C | 0% | 0hPa | 4.9V | 00:00:00 | 00:00:00 | 00:00:00 | |
| DK7TD | 2026-09-03 12:12:24 | 47.74709 | 9.70584 | 118° | 68km/h | 14861m | 5.3m/s | -57.2°C | 0% | 0hPa | 4.9V | 00:00:00 | 00:00:00 | 00:00:00 | |
| DO3MHA-12 | 2026-09-03 12:12:23 | 47.74709 | 9.70584 | 119° | 68km/h | 14857m | 2.8m/s | 0°C | 0% | 0hPa | 0V | 00:00:00 | 00:00:00 | 00:00:00 | |
| DO8TBO-1 | 2026-09-03 12:12:21 | 47.74725 | 9.70538 | 116° | 68km/h | 14848m | 4.3m/s | 0°C | 0% | 0hPa | 0V | 00:00:00 | 00:00:00 | 00:00:00 | |
| IW2NTF | 2026-09-03 12:12:18 | 47.74754 | 9.70417 | 108° | 64km/h | 14823m | 5.5m/s | 0°C | 0% | 0hPa | 0V | 00:00:00 | 00:00:00 | 00:00:00 | |
| DK7TD | 2026-09-03 12:12:13 | 47.74779 | 9.70329 | 118° | 64km/h | 14808m | 5.6m/s | -57.1°C | 0% | 0hPa | 4.9V | 00:00:00 | 00:00:00 | 00:00:00 | |
| DO3MHA-12 | 2026-09-03 12:12:13 | 47.74772 | 9.70350 | 118° | 66km/h | 14808m | 5.6m/s | 0°C | 0% | 0hPa | 0V | 00:00:00 | 00:00:00 | 00:00:00 | |
| IW2NTF | 2026-09-03 12:12:06 | 47.74826 | 9.70200 | 114° | 68km/h | 14772m | 4.9m/s | 0°C | 0% | 0hPa | 0V | 00:00:00 | 00:00:00 | 00:00:00 | |
| DK7TD | 2026-09-03 12:12:03 | 47.74856 | 9.70108 | 119° | 69km/h | 14758m | 4.1m/s | -56.9°C | 0% | 0hPa | 4.9V | 00:00:00 | 00:00:00 | 00:00:00 | |
| IW2NTF | 2026-09-03 12:11:59 | 47.74909 | 9.69970 | 119° | 71km/h | 14722m | 3.8m/s | 0°C | 0% | 0hPa | 0V | 00:00:00 | 00:00:00 | 00:00:00 | |
| DB0UT-7 | 2026-09-03 12:11:58 | 47.74891 | 9.70017 | 120° | 68km/h | 14732m | 4.1m/s | 0°C | 0% | 0hPa | 4.9V | 00:00:00 | 00:00:00 | 00:00:00 | |
| OE3JTB-15 | 2026-09-03 12:11:57 | 47.74918 | 9.69948 | 120° | 68km/h | 14717m | 5.7m/s | 0°C | 0% | 0hPa | 4.9V | 00:00:00 | 00:00:00 | 00:00:00 | |
| DO3MHA-12 | 2026-09-03 12:11:53 | 47.74934 | 9.69903 | 116° | 69km/h | 14707m | 5.5m/s | 0°C | 0% | 0hPa | 4.9V | 00:00:00 | 00:00:00 | 00:00:00 | |
| DK7TD | 2026-09-03 12:11:52 | 47.74949 | 9.69858 | 117° | 68km/h | 14703m | 3.9m/s | -56.9°C | 0% | 0hPa | 4.9V | 00:00:00 | 00:00:00 | 00:00:00 | |
| DO8TBO-1 | 2026-09-03 12:11:51 | 47.74949 | 9.69858 | 118° | 68km/h | 14697m | 7.1m/s | 0°C | 0% | 0hPa | 0V | 00:00:00 | 00:00:00 | 00:00:00 | |
| IW2NTF | 2026-09-03 12:11:47 | 47.74986 | 9.69739 | 112° | 73km/h | 14672m | 6.1m/s | 0°C | 0% | 0hPa | 0V | 00:00:00 | 00:00:00 | 00:00:00 | |
| DO3MHA-12 | 2026-09-03 12:11:42 | 47.75017 | 9.69641 | 114° | 68km/h | 14652m | 6.4m/s | 0°C | 0% | 0hPa | 4.9V | 00:00:00 | 00:00:00 | 00:00:00 | |
| DK7TD | 2026-09-03 12:11:41 | 47.75030 | 9.69596 | 117° | 66km/h | 14646m | 5.5m/s | -56.7°C | 0% | 0hPa | 4.9V | 00:00:00 | 00:00:00 | 00:00:00 | |
| IW2NTF | 2026-09-03 12:11:36 | 47.75059 | 9.69509 | 117° | 69km/h | 14622m | 2.8m/s | 0°C | 0% | 0hPa | 0V | 00:00:00 | 00:00:00 | 00:00:00 | |
| DB0NH | 2026-09-03 12:11:33 | 47.75082 | 9.69435 | 114° | 68km/h | 14608m | 5.8m/s | 0°C | 0% | 0hPa | 4.9V | 00:00:00 | 00:00:00 | 00:00:00 | |
| DG1MJG | 2026-09-03 12:11:32 | 47.75097 | 9.69389 | 118° | 66km/h | 14602m | 4.6m/s | 0°C | 0% | 0hPa | 4.9V | 00:00:00 | 00:00:00 | 00:00:00 | |
| DK7TD | 2026-09-03 12:11:30 | 47.75110 | 9.69347 | 113° | 58km/h | 14593m | 2.6m/s | -56.4°C | 0% | 0hPa | 4.9V | 00:00:00 | 00:00:00 | 00:00:00 | |
| NBG1-10 | 2026-09-03 12:11:30 | 47.75104 | 9.69367 | 113° | 68km/h | 14593m | 2.6m/s | 0°C | 0% | 0hPa | 0V | 00:00:00 | 00:00:00 | 00:00:00 | |
| DB0UT-7 | 2026-09-03 12:11:28 | 47.75116 | 9.69328 | 118° | 69km/h | 14584m | 4.3m/s | 0°C | 0% | 0hPa | 0V | 00:00:00 | 00:00:00 | 00:00:00 | |
| IW2NTF | 2026-09-03 12:11:26 | 47.75129 | 9.69289 | 116° | 60km/h | 14573m | 4.3m/s | 0°C | 0% | 0hPa | 0V | 00:00:00 | 00:00:00 | 00:00:00 | |
| DO3MHA-12 | 2026-09-03 12:11:22 | 47.75160 | 9.69199 | 117° | 69km/h | 14553m | 4.4m/s | 0°C | 0% | 0hPa | 4.9V | 00:00:00 | 00:00:00 | 00:00:00 | |
| DK7TD | 2026-09-03 12:11:20 | 47.75185 | 9.69131 | 118° | 68km/h | 14543m | 4.8m/s | -56.5°C | 0% | 0hPa | 4.9V | 00:00:00 | 00:00:00 | 00:00:00 | |
| IW2NTF | 2026-09-03 12:11:16 | 47.75208 | 9.69065 | 119° | 68km/h | 14523m | 5m/s | 0°C | 0% | 0hPa | 0V | 00:00:00 | 00:00:00 | 00:00:00 | |
| DO3MHA-12 | 2026-09-03 12:11:12 | 47.75242 | 9.68970 | 120° | 69km/h | 14503m | 6.1m/s | 0°C | 0% | 0hPa | 0V | 00:00:00 | 00:00:00 | 00:00:00 | |
| IW2NTF | 2026-09-03 12:11:11 | 47.75295 | 9.68839 | 121° | 68km/h | 14471m | 6.3m/s | 0°C | 0% | 0hPa | 0V | 00:00:00 | 00:00:00 | 00:00:00 | |
| DK7TD | 2026-09-03 12:11:09 | 47.75277 | 9.68880 | 125° | 68km/h | 14487m | 4.2m/s | -56.2°C | 0% | 0hPa | 4.9V | 00:00:00 | 00:00:00 | 00:00:00 | |
| DB0NH | 2026-09-03 12:11:03 | 47.75324 | 9.68772 | 122° | 75km/h | 14455m | 4.8m/s | 0°C | 0% | 0hPa | 0V | 00:00:00 | 00:00:00 | 00:00:00 | |
| DO3MHA-12 | 2026-09-03 12:11:02 | 47.75334 | 9.68749 | 123° | 71km/h | 14449m | 6.3m/s | 0°C | 0% | 0hPa | 0V | 00:00:00 | 00:00:00 | 00:00:00 | |
| DB0UT-7 | 2026-09-03 12:10:58 | 47.75371 | 9.68653 | 122° | 75km/h | 14430m | 6.1m/s | 0°C | 0% | 0hPa | 0V | 00:00:00 | 00:00:00 | 00:00:00 | |
| NBG1-10 | 2026-09-03 12:10:57 | 47.75380 | 9.68632 | 122° | 75km/h | 14425m | 4.8m/s | 0°C | 0% | 0hPa | 0V | 00:00:00 | 00:00:00 | 00:00:00 | |
| IW2NTF | 2026-09-03 12:10:56 | 47.75389 | 9.68611 | 126° | 68km/h | 14419m | 6m/s | 0°C | 0% | 0hPa | 0V | 00:00:00 | 00:00:00 | 00:00:00 | |
| DO3MHA-12 | 2026-09-03 12:10:52 | 47.75430 | 9.68527 | 127° | 77km/h | 14399m | 4.9m/s | 0°C | 0% | 0hPa | 0V | 00:00:00 | 00:00:00 | 00:00:00 | |
| IW2NTF | 2026-09-03 12:10:51 | 47.75495 | 9.68383 | 123° | 80km/h | 14371m | 4.7m/s | 0°C | 0% | 0hPa | 0V | 00:00:00 | 00:00:00 | 00:00:00 | |
| DO8TBO-1 | 2026-09-03 12:10:50 | 47.75450 | 9.68482 | 122° | 78km/h | 14390m | 4.6m/s | 0°C | 0% | 0hPa | 4.9V | 00:00:00 | 00:00:00 | 00:00:00 | |
| DK7TD | 2026-09-03 12:10:47 | 47.75495 | 9.68383 | 124° | 80km/h | 14376m | 4.8m/s | -56.1°C | 0% | 0hPa | 4.9V | 00:00:00 | 00:00:00 | 00:00:00 | |
| DO3MHA-12 | 2026-09-03 12:10:42 | 47.75543 | 9.68289 | 128° | 75km/h | 14352m | 4.8m/s | 0°C | 0% | 0hPa | 0V | 00:00:00 | 00:00:00 | 00:00:00 | |
| IW2NTF | 2026-09-03 12:10:36 | 47.75613 | 9.68159 | 131° | 73km/h | 14325m | 3.6m/s | 0°C | 0% | 0hPa | 0V | 00:00:00 | 00:00:00 | 00:00:00 | |
| DK7TD | 2026-09-03 12:10:36 | 47.75625 | 9.68137 | 131° | 77km/h | 14325m | 3.6m/s | -55.8°C | 0% | 0hPa | 4.9V | 00:00:00 | 00:00:00 | 00:00:00 | |
| DB0NH | 2026-09-03 12:10:33 | 47.75651 | 9.68092 | 130° | 77km/h | 14310m | 5.5m/s | 0°C | 0% | 0hPa | 0V | 00:00:00 | 00:00:00 | 00:00:00 | |
| DO3MHA-12 | 2026-09-03 12:10:32 | 47.75664 | 9.68068 | 131° | 77km/h | 14306m | 3.4m/s | 0°C | 0% | 0hPa | 0V | 00:00:00 | 00:00:00 | 00:00:00 | |
| IW2NTF | 2026-09-03 12:10:31 | 47.75739 | 9.67936 | 129° | 75km/h | 14278m | 4.1m/s | 0°C | 0% | 0hPa | 0V | 00:00:00 | 00:00:00 | 00:00:00 | |
| DB0UT-7 | 2026-09-03 12:10:28 | 47.75714 | 9.67979 | 132° | 77km/h | 14289m | 3.6m/s | 0°C | 0% | 0hPa | 4.9V | 00:00:00 | 00:00:00 | 00:00:00 | |
| DK7TD | 2026-09-03 12:10:26 | 47.75751 | 9.67914 | 131° | 77km/h | 14278m | 4.1m/s | -55.7°C | 0% | 0hPa | 4.9V | 00:00:00 | 00:00:00 | 00:00:00 | |
| NBG1-10 | 2026-09-03 12:10:24 | 47.75764 | 9.67893 | 134° | 78km/h | 14269m | 4.9m/s | 0°C | 0% | 0hPa | 0V | 00:00:00 | 00:00:00 | 00:00:00 | |
| DO3MHA-12 | 2026-09-03 12:10:22 | 47.75792 | 9.67850 | 133° | 77km/h | 14260m | 4.6m/s | 0°C | 0% | 0hPa | 0V | 00:00:00 | 00:00:00 | 00:00:00 | |
| IW2NTF | 2026-09-03 12:10:19 | 47.75875 | 9.67723 | 133° | 75km/h | 14231m | 5.9m/s | 0°C | 0% | 0hPa | 0V | 00:00:00 | 00:00:00 | 00:00:00 | |
| DK7TD | 2026-09-03 12:10:15 | 47.75900 | 9.67682 | 131° | 75km/h | 14227m | 4.1m/s | -55.8°C | 0% | 0hPa | 4.9V | 00:00:00 | 00:00:00 | 00:00:00 | |
| DO3MHA-12 | 2026-09-03 12:10:12 | 47.75925 | 9.67640 | 136° | 77km/h | 14214m | 5.6m/s | 0°C | 0% | 0hPa | 0V | 00:00:00 | 00:00:00 | 00:00:00 | |
| IW2NTF | 2026-09-03 12:10:11 | 47.76004 | 9.67517 | 131° | 78km/h | 14186m | 5.3m/s | 0°C | 0% | 0hPa | 0V | 00:00:00 | 00:00:00 | 00:00:00 | |
| DK7TD | 2026-09-03 12:10:04 | 47.76044 | 9.67450 | 130° | 82km/h | 14177m | 5.7m/s | -55.7°C | 0% | 0hPa | 4.9V | 00:00:00 | 00:00:00 | 00:00:00 | |
| DB0NH | 2026-09-03 12:10:03 | 47.76044 | 9.67450 | 130° | 80km/h | 14172m | 3.6m/s | 0°C | 0% | 0hPa | 0V | 00:00:00 | 00:00:00 | 00:00:00 | |
| DO3MHA-12 | 2026-09-03 12:10:02 | 47.76057 | 9.67425 | 132° | 80km/h | 14168m | 5.2m/s | 0°C | 0% | 0hPa | 0V | 00:00:00 | 00:00:00 | 00:00:00 | |
| IW2NTF | 2026-09-03 12:09:59 | 47.76141 | 9.67290 | 132° | 78km/h | 14140m | 5.2m/s | 0°C | 0% | 0hPa | 0V | 00:00:00 | 00:00:00 | 00:00:00 | |
| DB0UT-7 | 2026-09-03 12:09:58 | 47.76113 | 9.67335 | 132° | 82km/h | 14149m | 5.3m/s | 0°C | 0% | 0hPa | 4.9V | 00:00:00 | 00:00:00 | 00:00:00 | |
| DK7TD | 2026-09-03 12:09:53 | 47.76192 | 9.67199 | 129° | 78km/h | 14125m | 4.5m/s | -55.5°C | 0% | 0hPa | 4.9V | 00:00:00 | 00:00:00 | 00:00:00 | |
| DO3MHA-12 | 2026-09-03 12:09:52 | 47.76192 | 9.67199 | 129° | 78km/h | 14120m | 4.9m/s | 0°C | 0% | 0hPa | 0V | 00:00:00 | 00:00:00 | 00:00:00 | |
| IW2NTF | 2026-09-03 12:09:51 | 47.76266 | 9.67054 | 127° | 80km/h | 14093m | 5.2m/s | 0°C | 0% | 0hPa | 0V | 00:00:00 | 00:00:00 | 00:00:00 | |
| NBG1-10 | 2026-09-03 12:09:51 | 47.76205 | 9.67175 | 127° | 84km/h | 14116m | 3.0m/s | 0°C | 0% | 0hPa | 4.9V | 00:00:00 | 00:00:00 | 00:00:00 | |
| DK7TD | 2026-09-03 12:09:43 | 47.76316 | 9.66964 | 131° | 78km/h | 14079m | 4.5m/s | -55.5°C | 0% | 0hPa | 4.9V | 00:00:00 | 00:00:00 | 00:00:00 | |
| DO3MHA-12 | 2026-09-03 12:09:42 | 47.76316 | 9.66964 | 131° | 82km/h | 14074m | 5.6m/s | 0°C | 0% | 0hPa | 0V | 00:00:00 | 00:00:00 | 00:00:00 | |
| IW2NTF | 2026-09-03 12:09:37 | 47.76394 | 9.66824 | 125° | 84km/h | 14048m | 5.5m/s | 0°C | 0% | 0hPa | 0V | 00:00:00 | 00:00:00 | 00:00:00 | |
| DB0NH | 2026-09-03 12:09:33 | 47.76433 | 9.66743 | 128° | 88km/h | 14012m | 5.0m/s | 0°C | 0% | 0hPa | 4.9V | 00:00:00 | 00:00:00 | 00:00:00 | |
| DK7TD | 2026-09-03 12:09:32 | 47.76461 | 9.66691 | 129° | 91km/h | 14029m | 5.1m/s | -55.7°C | 0% | 0hPa | 4.9V | 00:00:00 | 00:00:00 | 00:00:00 | |
| IW2NTF | 2026-09-03 12:09:31 | 47.76529 | 9.66559 | 124° | 86km/h | 14003m | 4.5m/s | 0°C | 0% | 0hPa | 0V | 00:00:00 | 00:00:00 | 00:00:00 | |
| DB0UT-7 | 2026-09-03 12:09:28 | 47.76503 | 9.66610 | 127° | 88km/h | 14012m | 5.0m/s | 0°C | 0% | 0hPa | 4.9V | 00:00:00 | 00:00:00 | 00:00:00 | |
| DO3MHA-12 | 2026-09-03 12:09:22 | 47.76577 | 9.66449 | 126° | 88km/h | 13985m | 6.6m/s | 0°C | 0% | 0hPa | 4.9V | 00:00:00 | 00:00:00 | 00:00:00 | |
| DK7TD | 2026-09-03 12:09:21 | 47.76604 | 9.66396 | 129° | 89km/h | 13979m | 4.3m/s | -55.8°C | 0% | 0hPa | 4.9V | 00:00:00 | 00:00:00 | 00:00:00 | |
| NBG1-10 | 2026-09-03 12:09:18 | 47.76634 | 9.66345 | 133° | 89km/h | 13965m | 5.4m/s | 0°C | 0% | 0hPa | 0V | 00:00:00 | 00:00:00 | 00:00:00 | |
| IW2NTF | 2026-09-03 12:09:17 | 47.76663 | 9.66297 | 130° | 84km/h | 13956m | 6.3m/s | 0°C | 0% | 0hPa | 0V | 00:00:00 | 00:00:00 | 00:00:00 | |
| DO3MHA-12 | 2026-09-03 12:09:12 | 47.76718 | 9.66196 | 129° | 88km/h | 13937m | 3.9m/s | 0°C | 0% | 0hPa | 0V | 00:00:00 | 00:00:00 | 00:00:00 | |
| IW2NTF | 2026-09-03 12:09:11 | 47.76804 | 9.66044 | 131° | 86km/h | 13910m | 3.4m/s | 0°C | 0% | 0hPa | 0V | 00:00:00 | 00:00:00 | 00:00:00 | |
| DK7TD | 2026-09-03 12:09:10 | 47.76760 | 9.66118 | 130° | 88km/h | 13928m | 3m/s | -56.1°C | 0% | 0hPa | 4.9V | 00:00:00 | 00:00:00 | 00:00:00 | |
| DO3MHA-12 | 2026-09-03 12:09:02 | 47.76862 | 9.65944 | 129° | 89km/h | 13893m | 4.2m/s | 0°C | 0% | 0hPa | 4.9V | 00:00:00 | 00:00:00 | 00:00:00 | |
| DK7TD | 2026-09-03 12:09:00 | 47.76904 | 9.65862 | 127° | 95km/h | 13884m | 4.4m/s | -56.1°C | 0% | 0hPa | 4.9V | 00:00:00 | 00:00:00 | 00:00:00 | |
| DB0UT-7 | 2026-09-03 12:08:58 | 47.76919 | 9.65834 | 129° | 93km/h | 13875m | 4.2m/s | 0°C | 0% | 0hPa | 0V | 00:00:00 | 00:00:00 | 00:00:00 | |
| IW2NTF | 2026-09-03 12:08:57 | 47.76947 | 9.65780 | 129° | 91km/h | 13865m | 3.2m/s | 0°C | 0% | 0hPa | 0V | 00:00:00 | 00:00:00 | 00:00:00 | |
| DO3MHA-12 | 2026-09-03 12:08:52 | 47.77003 | 9.65680 | 130° | 89km/h | 13848m | 3.0m/s | 0°C | 0% | 0hPa | 0V | 00:00:00 | 00:00:00 | 00:00:00 | |
| IW2NTF | 2026-09-03 12:08:51 | 47.77095 | 9.65531 | 134° | 91km/h | 13818m | 5m/s | 0°C | 0% | 0hPa | 0V | 00:00:00 | 00:00:00 | 00:00:00 | |
| DK7TD | 2026-09-03 12:08:49 | 47.77063 | 9.65581 | 133° | 91km/h | 13833m | 6.8m/s | -56.3°C | 0% | 0hPa | 5V | 00:00:00 | 00:00:00 | 00:00:00 | |
| NBG1-10 | 2026-09-03 12:08:44 | 47.77126 | 9.65480 | 133° | 100km/h | 13809m | 5.7m/s | 0°C | 0% | 0hPa | 0V | 00:00:00 | 00:00:00 | 00:00:00 | |
| DO3MHA-12 | 2026-09-03 12:08:42 | 47.77157 | 9.65431 | 133° | 97km/h | 13801m | 5.4m/s | 0°C | 0% | 0hPa | 0V | 00:00:00 | 00:00:00 | 00:00:00 | |
| IW2NTF | 2026-09-03 12:08:37 | 47.77255 | 9.65278 | 135° | 100km/h | 13773m | 5.7m/s | 0°C | 0% | 0hPa | 0V | 00:00:00 | 00:00:00 | 00:00:00 | |
| DO3MHA-12 | 2026-09-03 12:08:32 | 47.77328 | 9.65169 | 135° | 100km/h | 13755m | 2.9m/s | 0°C | 0% | 0hPa | 0V | 00:00:00 | 00:00:00 | 00:00:00 | |
| IW2NTF | 2026-09-03 12:08:31 | 47.77431 | 9.65005 | 132° | 102km/h | 13728m | 4m/s | 0°C | 0% | 0hPa | 0V | 00:00:00 | 00:00:00 | 00:00:00 | |
| DB0NH | 2026-09-03 12:08:30 | 47.77364 | 9.65115 | 133° | 104km/h | 13746m | 4.5m/s | 0°C | 0% | 0hPa | 5V | 00:00:00 | 00:00:00 | 00:00:00 | |
| DB0UT-7 | 2026-09-03 12:08:28 | 47.77398 | 9.65059 | 133° | 104km/h | 13737m | 4.0m/s | 0°C | 0% | 0hPa | 5V | 00:00:00 | 00:00:00 | 00:00:00 | |
| DK7TD | 2026-09-03 12:08:27 | 47.77432 | 9.65005 | 132° | 102km/h | 13732m | 4.5m/s | -56.8°C | 0% | 0hPa | 5V | 00:00:00 | 00:00:00 | 00:00:00 | |
| DO3MHA-12 | 2026-09-03 12:08:22 | 47.77502 | 9.64891 | 133° | 104km/h | 13709m | 6.5m/s | 0°C | 0% | 0hPa | 0V | 00:00:00 | 00:00:00 | 00:00:00 | |
| IW2NTF | 2026-09-03 12:08:17 | 47.77608 | 9.64716 | 131° | 104km/h | 13681m | 3.4m/s | 0°C | 0% | 0hPa | 0V | 00:00:00 | 00:00:00 | 00:00:00 | |
| DK7TD | 2026-09-03 12:08:16 | 47.77625 | 9.64687 | 132° | 106km/h | 13681m | 3.4m/s | -56.9°C | 0% | 0hPa | 4.9V | 00:00:00 | 00:00:00 | 00:00:00 | |
| IW2NTF | 2026-09-03 12:08:11 | 47.77776 | 9.64407 | 124° | 108km/h | 13634m | 3.4m/s | 0°C | 0% | 0hPa | 0V | 00:00:00 | 00:00:00 | 00:00:00 | |
| DO3MHA-12 | 2026-09-03 12:08:11 | 47.77695 | 9.64569 | 130° | 106km/h | 13657m | 6.0m/s | 0°C | 0% | 0hPa | 4.9V | 00:00:00 | 00:00:00 | 00:00:00 | |
| NBG1-10 | 2026-09-03 12:08:10 | 47.77712 | 9.64540 | 127° | 108km/h | 13652m | 3.5m/s | 0°C | 0% | 0hPa | 4.9V | 00:00:00 | 00:00:00 | 00:00:00 | |
| DK7TD | 2026-09-03 12:08:06 | 47.77792 | 9.64374 | 126° | 106km/h | 13634m | 3.4m/s | -57.6°C | 0% | 0hPa | 4.9V | 00:00:00 | 00:00:00 | 00:00:00 | |
| DO3MHA-12 | 2026-09-03 12:08:01 | 47.77857 | 9.64251 | 130° | 104km/h | 13609m | 4.8m/s | 0°C | 0% | 0hPa | 0V | 00:00:00 | 00:00:00 | 00:00:00 | |
| DB0NH | 2026-09-03 12:08:00 | 47.77874 | 9.64220 | 130° | 110km/h | 13605m | 3.5m/s | 0°C | 0% | 0hPa | 0V | 00:00:00 | 00:00:00 | 00:00:00 | |
| DB0UT-7 | 2026-09-03 12:07:58 | 47.77907 | 9.64158 | 127° | 110km/h | 13597m | 3.6m/s | 0°C | 0% | 0hPa | 0V | 00:00:00 | 00:00:00 | 00:00:00 | |
| IW2NTF | 2026-09-03 12:07:57 | 47.77939 | 9.64096 | 126° | 106km/h | 13587m | 4.5m/s | 0°C | 0% | 0hPa | 0V | 00:00:00 | 00:00:00 | 00:00:00 | |
| DK7TD | 2026-09-03 12:07:55 | 47.77972 | 9.64033 | 129° | 104km/h | 13582m | 5.5m/s | -58°C | 0% | 0hPa | 5V | 00:00:00 | 00:00:00 | 00:00:00 | |
| IW2NTF | 2026-09-03 12:07:51 | 47.78111 | 9.63798 | 129° | 108km/h | 13540m | 5.9m/s | 0°C | 0% | 0hPa | 0V | 00:00:00 | 00:00:00 | 00:00:00 | |
| DO3MHA-12 | 2026-09-03 12:07:51 | 47.78023 | 9.63945 | 133° | 108km/h | 13564m | 5.4m/s | 0°C | 0% | 0hPa | 0V | 00:00:00 | 00:00:00 | 00:00:00 | |
| DG1MJG | 2026-09-03 12:07:44 | 47.78147 | 9.63642 | 138° | 115km/h | 13520m | 5.4m/s | -58.6°C | 0% | 0hPa | 0V | 00:00:00 | 00:00:00 | 00:00:00 | |
| DK7TD | 2026-09-03 12:07:44 | 47.78167 | 9.63702 | 133° | 115km/h | 13530m | 6.6m/s | -58.5°C | 0% | 0hPa | 5V | 00:00:00 | 00:00:00 | 00:00:00 | |
| DO3MHA-12 | 2026-09-03 12:07:41 | 47.78207 | 9.63642 | 138° | 113km/h | 13516m | 4.0m/s | 0°C | 0% | 0hPa | 0V | 00:00:00 | 00:00:00 | 00:00:00 | |
| IW2NTF | 2026-09-03 12:07:37 | 47.78312 | 9.63496 | 133° | 115km/h | 13491m | 5.2m/s | 0°C | 0% | 0hPa | 0V | 00:00:00 | 00:00:00 | 00:00:00 | |
| NBG1-10 | 2026-09-03 12:07:37 | 47.78291 | 9.63526 | 136° | 108km/h | 13496m | 4.6m/s | 0°C | 0% | 0hPa | 5V | 00:00:00 | 00:00:00 | 00:00:00 | |
| DK7TD | 2026-09-03 12:07:33 | 47.78389 | 9.63369 | 133° | 113km/h | 13476m | 3.4m/s | -58.6°C | 0% | 0hPa | 5V | 00:00:00 | 00:00:00 | 00:00:00 | |
| IW2NTF | 2026-09-03 12:07:31 | 47.78504 | 9.63191 | 132° | 108km/h | 13442m | 5.4m/s | 0°C | 0% | 0hPa | 0V | 00:00:00 | 00:00:00 | 00:00:00 | |
| DB0NH | 2026-09-03 12:07:30 | 47.78427 | 9.63308 | 135° | 108km/h | 13461m | 4.6m/s | 0°C | 0% | 0hPa | 5V | 00:00:00 | 00:00:00 | 00:00:00 | |
| DB0UT-7 | 2026-09-03 12:07:28 | 47.78466 | 9.63250 | 135° | 108km/h | 13451m | 4.6m/s | 0°C | 0% | 0hPa | 5V | 00:00:00 | 00:00:00 | 00:00:00 | |
| OE3JTB-15 | 2026-09-03 12:07:27 | 47.78542 | 9.63128 | 132° | 111km/h | 13427m | 5.5m/s | 0°C | 0% | 0hPa | 5V | 00:00:00 | 00:00:00 | 00:00:00 | |
| DK7TD | 2026-09-03 12:07:23 | 47.78580 | 9.63064 | 130° | 115km/h | 13427m | 5.5m/s | -59.4°C | 0% | 0hPa | 5V | 00:00:00 | 00:00:00 | 00:00:00 | |
| DO3MHA-12 | 2026-09-03 12:07:21 | 47.78598 | 9.63031 | 130° | 106km/h | 13419m | 5.8m/s | 0°C | 0% | 0hPa | 0V | 00:00:00 | 00:00:00 | 00:00:00 | |
| IW2NTF | 2026-09-03 12:07:17 | 47.78682 | 9.62874 | 127° | 102km/h | 13394m | 5.4m/s | 0°C | 0% | 0hPa | 0V | 00:00:00 | 00:00:00 | 00:00:00 | |
| DK7TD | 2026-09-03 12:07:12 | 47.78763 | 9.62719 | 129° | 100km/h | 13376m | 3.2m/s | -60.4°C | 0% | 0hPa | 5V | 00:00:00 | 00:00:00 | 00:00:00 | |
| IW2NTF | 2026-09-03 12:07:11 | 47.78846 | 9.62579 | 134° | 106km/h | 13343m | 4.8m/s | 0°C | 0% | 0hPa | 0V | 00:00:00 | 00:00:00 | 00:00:00 | |
| DO3MHA-12 | 2026-09-03 12:07:11 | 47.78763 | 9.62719 | 130° | 106km/h | 13371m | 6.8m/s | 0°C | 0% | 0hPa | 5V | 00:00:00 | 00:00:00 | 00:00:00 | |
| NBG1-10 | 2026-09-03 12:07:04 | 47.78885 | 9.62521 | 136° | 115km/h | 13331m | 5.1m/s | 0°C | 0% | 0hPa | 5V | 00:00:00 | 00:00:00 | 00:00:00 | |
| DK7TD | 2026-09-03 12:07:01 | 47.78971 | 9.62399 | 136° | 113km/h | 13317m | 4.4m/s | -61.6°C | 0% | 0hPa | 5V | 00:00:00 | 00:00:00 | 00:00:00 | |
| DO3MHA-12 | 2026-09-03 12:07:01 | 47.78949 | 9.62429 | 137° | 115km/h | 13317m | 4.3m/s | 0°C | 0% | 0hPa | 0V | 00:00:00 | 00:00:00 | 00:00:00 | |
| DB0NH | 2026-09-03 12:07:00 | 47.78971 | 9.62399 | 137° | 115km/h | 13313m | 4.2m/s | 0°C | 0% | 0hPa | 0V | 00:00:00 | 00:00:00 | 00:00:00 | |
| DB0UT-7 | 2026-09-03 12:06:58 | 47.79012 | 9.62340 | 136° | 115km/h | 13304m | 5.9m/s | 0°C | 0% | 0hPa | 0V | 00:00:00 | 00:00:00 | 00:00:00 | |
| IW2NTF | 2026-09-03 12:06:57 | 47.79052 | 9.62282 | 134° | 110km/h | 13294m | 5.5m/s | 0°C | 0% | 0hPa | 0V | 00:00:00 | 00:00:00 | 00:00:00 | |
| IW2NTF | 2026-09-03 12:06:51 | 47.79259 | 9.61973 | 134° | 113km/h | 13246m | 3.8m/s | 0°C | 0% | 0hPa | 0V | 00:00:00 | 00:00:00 | 00:00:00 | |
| DO3MHA-12 | 2026-09-03 12:06:51 | 47.79155 | 9.62125 | 135° | 115km/h | 13270m | 3.7m/s | 0°C | 0% | 0hPa | 5V | 00:00:00 | 00:00:00 | 00:00:00 | |
| DK7TD | 2026-09-03 12:06:50 | 47.79197 | 9.62063 | 135° | 115km/h | 13265m | 6.1m/s | -61.5°C | 0% | 0hPa | 5V | 00:00:00 | 00:00:00 | 00:00:00 | |
| DO3MHA-12 | 2026-09-03 12:06:41 | 47.79360 | 9.61816 | 132° | 117km/h | 13221m | 5.7m/s | 0°C | 0% | 0hPa | 5V | 00:00:00 | 00:00:00 | 00:00:00 | |
| DK7TD | 2026-09-03 12:06:40 | 47.79401 | 9.61750 | 133° | 119km/h | 13216m | 4m/s | -61.3°C | 0% | 0hPa | 5V | 00:00:00 | 00:00:00 | 00:00:00 | |
| IW2NTF | 2026-09-03 12:06:37 | 47.79462 | 9.61657 | 136° | 115km/h | 13197m | 5.9m/s | 0°C | 0% | 0hPa | 0V | 00:00:00 | 00:00:00 | 00:00:00 | |
| IW2NTF | 2026-09-03 12:06:31 | 47.79664 | 9.61336 | 130° | 117km/h | 13152m | 5.4m/s | 0°C | 0% | 0hPa | 0V | 00:00:00 | 00:00:00 | 00:00:00 | |
| DO3MHA-12 | 2026-09-03 12:06:31 | 47.79564 | 9.61504 | 132° | 119km/h | 13173m | 3.0m/s | 0°C | 0% | 0hPa | 5V | 00:00:00 | 00:00:00 | 00:00:00 | |
| DB0NH | 2026-09-03 12:06:30 | 47.79584 | 9.61471 | 132° | 117km/h | 13152m | 5.3m/s | 0°C | 0% | 0hPa | 5V | 00:00:00 | 00:00:00 | 00:00:00 | |
| DK7TD | 2026-09-03 12:06:29 | 47.79625 | 9.61403 | 132° | 120km/h | 13165m | 3.1m/s | -61°C | 0% | 0hPa | 5V | 00:00:00 | 00:00:00 | 00:00:00 | |
| DB0UT-7 | 2026-09-03 12:06:28 | 47.79625 | 9.61403 | 132° | 117km/h | 13161m | 5.6m/s | 0°C | 0% | 0hPa | 5V | 00:00:00 | 00:00:00 | 00:00:00 | |
| DO3MHA-12 | 2026-09-03 12:06:21 | 47.79764 | 9.61171 | 134° | 119km/h | 13127m | 5.4m/s | 0°C | 0% | 0hPa | 5V | 00:00:00 | 00:00:00 | 00:00:00 | |
| DK7TD | 2026-09-03 12:06:18 | 47.79847 | 9.61040 | 133° | 120km/h | 13112m | 3m/s | -60.6°C | 0% | 0hPa | 5V | 00:00:00 | 00:00:00 | 00:00:00 | |
| IW2NTF | 2026-09-03 12:06:11 | 47.80066 | 9.60680 | 134° | 122km/h | 13055m | 5.7m/s | 0°C | 0% | 0hPa | 0V | 00:00:00 | 00:00:00 | 00:00:00 | |
| DO3MHA-12 | 2026-09-03 12:06:11 | 47.79963 | 9.60845 | 131° | 119km/h | 13078m | 3.6m/s | 0°C | 0% | 0hPa | 5V | 00:00:00 | 00:00:00 | 00:00:00 | |
| DK7TD | 2026-09-03 12:06:07 | 47.80066 | 9.60680 | 135° | 122km/h | 13059m | 3.6m/s | -60.3°C | 0% | 0hPa | 5V | 00:00:00 | 00:00:00 | 00:00:00 | |
| DO3MHA-12 | 2026-09-03 12:06:01 | 47.80165 | 9.60517 | 129° | 117km/h | 13031m | 4.3m/s | 0°C | 0% | 0hPa | 0V | 00:00:00 | 00:00:00 | 00:00:00 | |
| DB0NH | 2026-09-03 12:05:59 | 47.80201 | 9.60452 | 130° | 117km/h | 13021m | 4.1m/s | 0°C | 0% | 0hPa | 0V | 00:00:00 | 00:00:00 | 00:00:00 | |
| IW2NTF | 2026-09-03 12:05:58 | 47.80259 | 9.60349 | 133° | 122km/h | 13004m | 5.7m/s | 0°C | 0% | 0hPa | 0V | 00:00:00 | 00:00:00 | 00:00:00 | |
| NBG1-10 | 2026-09-03 12:05:58 | 47.80220 | 9.60419 | 131° | 119km/h | 13016m | 5.1m/s | 0°C | 0% | 0hPa | 5V | 00:00:00 | 00:00:00 | 00:00:00 | |
| DK7TD | 2026-09-03 12:05:56 | 47.80279 | 9.60317 | 134° | 120km/h | 13004m | 5.7m/s | -60.9°C | 0% | 0hPa | 5V | 00:00:00 | 00:00:00 | 00:00:00 | |
| IW2NTF | 2026-09-03 12:05:51 | 47.80466 | 9.60029 | 137° | 117km/h | 12951m | 6.8m/s | 0°C | 0% | 0hPa | 0V | 00:00:00 | 00:00:00 | 00:00:00 | |
| DK7TD | 2026-09-03 12:05:46 | 47.80488 | 9.59999 | 137° | 117km/h | 12952m | 6.8m/s | -60.6°C | 0% | 0hPa | 5V | 00:00:00 | 00:00:00 | 00:00:00 | |
| DO3MHA-12 | 2026-09-03 12:05:41 | 47.80574 | 9.59879 | 137° | 117km/h | 12925m | 5.4m/s | 0°C | 0% | 0hPa | 0V | 00:00:00 | 00:00:00 | 00:00:00 | |
| IW2NTF | 2026-09-03 12:05:36 | 47.80684 | 9.59726 | 137° | 117km/h | 12901m | 3.2m/s | 0°C | 0% | 0hPa | 0V | 00:00:00 | 00:00:00 | 00:00:00 | |
| DK7TD | 2026-09-03 12:05:35 | 47.80728 | 9.59668 | 137° | 117km/h | 12896m | 7.1m/s | -60.5°C | 0% | 0hPa | 5V | 00:00:00 | 00:00:00 | 00:00:00 | |
| IW2NTF | 2026-09-03 12:05:31 | 47.80906 | 9.59437 | 140° | 122km/h | 12852m | 4.1m/s | 0°C | 0% | 0hPa | 0V | 00:00:00 | 00:00:00 | 00:00:00 | |
| DO3MHA-12 | 2026-09-03 12:05:31 | 47.80792 | 9.59583 | 140° | 117km/h | 12870m | 3.8m/s | 0°C | 0% | 0hPa | 5V | 00:00:00 | 00:00:00 | 00:00:00 | |
| DB0NH | 2026-09-03 12:05:29 | 47.80836 | 9.59526 | 139° | 126km/h | 12866m | 5.1m/s | 0°C | 0% | 0hPa | 5V | 00:00:00 | 00:00:00 | 00:00:00 | |
| DB0UT-7 | 2026-09-03 12:05:28 | 47.80859 | 9.59497 | 140° | 126km/h | 12861m | 4.2m/s | 0°C | 0% | 0hPa | 5V | 00:00:00 | 00:00:00 | 00:00:00 | |
| NBG1-10 | 2026-09-03 12:05:25 | 47.80929 | 9.59408 | 141° | 130km/h | 12848m | 5.5m/s | 0°C | 0% | 0hPa | 5V | 00:00:00 | 00:00:00 | 00:00:00 | |
| DK7TD | 2026-09-03 12:05:24 | 47.80977 | 9.59351 | 142° | 122km/h | 12843m | 4.1m/s | -60.8°C | 0% | 0hPa | 5V | 00:00:00 | 00:00:00 | 00:00:00 | |
| DG1MJG | 2026-09-03 12:05:22 | 47.81026 | 9.59295 | 142° | 120km/h | 12834m | 3.2m/s | -60.8°C | 0% | 0hPa | 0V | 00:00:00 | 00:00:00 | 00:00:00 | |
| DO3MHA-12 | 2026-09-03 12:05:21 | 47.81026 | 9.59295 | 142° | 124km/h | 12814m | 4.3m/s | 0°C | 0% | 0hPa | 0V | 00:00:00 | 00:00:00 | 00:00:00 | |
| IW2NTF | 2026-09-03 12:05:16 | 47.81149 | 9.59150 | 141° | 128km/h | 12804m | 4.6m/s | 0°C | 0% | 0hPa | 0V | 00:00:00 | 00:00:00 | 00:00:00 | |
| DK7TD | 2026-09-03 12:05:13 | 47.81250 | 9.59031 | 144° | 130km/h | 12789m | 4.5m/s | -60.9°C | 0% | 0hPa | 5V | 00:00:00 | 00:00:00 | 00:00:00 | |
| IW2NTF | 2026-09-03 12:05:11 | 47.81410 | 9.58864 | 144° | 126km/h | 12752m | 5m/s | 0°C | 0% | 0hPa | 0V | 00:00:00 | 00:00:00 | 00:00:00 | |
| DO3MHA-12 | 2026-09-03 12:05:10 | 47.81303 | 9.58974 | 145° | 128km/h | 12758m | 5.1m/s | 0°C | 0% | 0hPa | 5V | 00:00:00 | 00:00:00 | 00:00:00 | |
| DK7TD | 2026-09-03 12:05:03 | 47.81514 | 9.58755 | 146° | 128km/h | 12739m | 4.5m/s | -61.5°C | 0% | 0hPa | 5V | 00:00:00 | 00:00:00 | 00:00:00 | |
| IW2NTF | 2026-09-03 12:05:01 | 47.81685 | 9.58591 | 147° | 137km/h | 12706m | 5m/s | 0°C | 0% | 0hPa | 0V | 00:00:00 | 00:00:00 | 00:00:00 | |
| DO3MHA-12 | 2026-09-03 12:04:59 | 47.81598 | 9.58675 | 148° | 139km/h | 12711m | 5.2m/s | 0°C | 0% | 0hPa | 5V | 00:00:00 | 00:00:00 | 00:00:00 | |
| DB0UT-7 | 2026-09-03 12:04:58 | 47.81627 | 9.58646 | 147° | 141km/h | 12716m | 4.0m/s | 0°C | 0% | 0hPa | 5V | 00:00:00 | 00:00:00 | 00:00:00 | |
| DK7TD | 2026-09-03 12:04:52 | 47.81835 | 9.58448 | 147° | 142km/h | 12686m | 6m/s | -61.6°C | 0% | 0hPa | 5V | 00:00:00 | 00:00:00 | 00:00:00 | |
| IW2NTF | 2026-09-03 12:04:51 | 47.81981 | 9.58307 | 145° | 137km/h | 12657m | 5.3m/s | 0°C | 0% | 0hPa | 0V | 00:00:00 | 00:00:00 | 00:00:00 | |
| DG1MJG | 2026-09-03 12:04:51 | 47.81864 | 9.58419 | 148° | 141km/h | 12680m | 4.5m/s | -61.6°C | 0% | 0hPa | 0V | 00:00:00 | 00:00:00 | 00:00:00 | |
| DO3MHA-12 | 2026-09-03 12:04:48 | 47.81923 | 9.58364 | 148° | 139km/h | 12666m | 5.5m/s | 0°C | 0% | 0hPa | 0V | 00:00:00 | 00:00:00 | 00:00:00 | |
| IW2NTF | 2026-09-03 12:04:41 | 47.82281 | 9.58026 | 146° | 142km/h | 12610m | 4m/s | 0°C | 0% | 0hPa | 0V | 00:00:00 | 00:00:00 | 00:00:00 | |
| DK7TD | 2026-09-03 12:04:41 | 47.82160 | 9.58137 | 149° | 142km/h | 12633m | 5.6m/s | -61.6°C | 0% | 0hPa | 5V | 00:00:00 | 00:00:00 | 00:00:00 | |
| DO3MHA-12 | 2026-09-03 12:04:38 | 47.82221 | 9.58082 | 150° | 142km/h | 12614m | 4.9m/s | 0°C | 0% | 0hPa | 0V | 00:00:00 | 00:00:00 | 00:00:00 | |
| IW2NTF | 2026-09-03 12:04:31 | 47.82586 | 9.57739 | 148° | 142km/h | 12563m | 4.1m/s | 0°C | 0% | 0hPa | 0V | 00:00:00 | 00:00:00 | 00:00:00 | |
| DK7TD | 2026-09-03 12:04:30 | 47.82495 | 9.57821 | 150° | 141km/h | 12581m | 4.1m/s | -61.9°C | 0% | 0hPa | 5V | 00:00:00 | 00:00:00 | 00:00:00 | |
| DB0NH | 2026-09-03 12:04:29 | 47.82495 | 9.57821 | 150° | 150km/h | 12577m | 5.0m/s | 0°C | 0% | 0hPa | 0V | 00:00:00 | 00:00:00 | 00:00:00 | |
| DO3MHA-12 | 2026-09-03 12:04:28 | 47.82525 | 9.57794 | 148° | 144km/h | 12572m | 3.8m/s | 0°C | 0% | 0hPa | 0V | 00:00:00 | 00:00:00 | 00:00:00 | |
| IW2NTF | 2026-09-03 12:04:21 | 47.82897 | 9.57443 | 148° | 151km/h | 12511m | 5.7m/s | 0°C | 0% | 0hPa | 0V | 00:00:00 | 00:00:00 | 00:00:00 | |
| DK7TD | 2026-09-03 12:04:20 | 47.82800 | 9.57532 | 147° | 150km/h | 12531m | 4.9m/s | -61.8°C | 0% | 0hPa | 5V | 00:00:00 | 00:00:00 | 00:00:00 | |
| NBG1-10 | 2026-09-03 12:04:19 | 47.82799 | 9.57532 | 148° | 153km/h | 12526m | 5.1m/s | 0°C | 0% | 0hPa | 0V | 00:00:00 | 00:00:00 | 00:00:00 | |
| DO3MHA-12 | 2026-09-03 12:04:18 | 47.82832 | 9.57502 | 149° | 150km/h | 12521m | 4.1m/s | 0°C | 0% | 0hPa | 0V | 00:00:00 | 00:00:00 | 00:00:00 | |
| IW2NTF | 2026-09-03 12:04:11 | 47.83220 | 9.57146 | 151° | 155km/h | 12458m | 6.7m/s | 0°C | 0% | 0hPa | 0V | 00:00:00 | 00:00:00 | 00:00:00 | |
| DK7TD | 2026-09-03 12:04:09 | 47.83153 | 9.57203 | 148° | 151km/h | 12475m | 6.5m/s | -61.5°C | 0% | 0hPa | 5V | 00:00:00 | 00:00:00 | 00:00:00 | |
| DO3MHA-12 | 2026-09-03 12:04:08 | 47.83153 | 9.57203 | 149° | 155km/h | 12468m | 7.3m/s | 0°C | 0% | 0hPa | 5V | 00:00:00 | 00:00:00 | 00:00:00 | |
| DB0NH | 2026-09-03 12:03:59 | 47.83464 | 9.56940 | 150° | 157km/h | 12417m | 3.5m/s | 0°C | 0% | 0hPa | 5V | 00:00:00 | 00:00:00 | 00:00:00 | |
| DK7TD | 2026-09-03 12:03:58 | 47.83525 | 9.56885 | 148° | 141km/h | 12411m | 7.8m/s | -61°C | 0% | 0hPa | 5V | 00:00:00 | 00:00:00 | 00:00:00 | |
| DO3MHA-12 | 2026-09-03 12:03:58 | 47.83495 | 9.56914 | 150° | 151km/h | 12412m | 7.8m/s | 0°C | 0% | 0hPa | 0V | 00:00:00 | 00:00:00 | 00:00:00 | |
| IW2NTF | 2026-09-03 12:03:48 | 47.83904 | 9.56548 | 148° | 161km/h | 12330m | 5.3m/s | 0°C | 0% | 0hPa | 0V | 00:00:00 | 00:00:00 | 00:00:00 | |
| DK7TD | 2026-09-03 12:03:47 | 47.83904 | 9.56548 | 148° | 161km/h | 12335m | 4.1m/s | -60.7°C | 0% | 0hPa | 5V | 00:00:00 | 00:00:00 | 00:00:00 | |
| NBG1-10 | 2026-09-03 12:03:46 | 47.83904 | 9.56548 | 149° | 161km/h | 12330m | 5.2m/s | 0°C | 0% | 0hPa | 0V | 00:00:00 | 00:00:00 | 00:00:00 | |
| IW2NTF | 2026-09-03 12:03:38 | 47.84258 | 9.56238 | 149° | 161km/h | 12287m | 6.1m/s | 0°C | 0% | 0hPa | 0V | 00:00:00 | 00:00:00 | 00:00:00 | |
| DK7TD | 2026-09-03 12:03:36 | 47.84293 | 9.56207 | 149° | 161km/h | 12287m | 6.1m/s | -60.3°C | 0% | 0hPa | 5V | 00:00:00 | 00:00:00 | 00:00:00 | |
| IW2NTF | 2026-09-03 12:03:31 | 47.84607 | 9.55924 | 148° | 161km/h | 12238m | 3.5m/s | 0°C | 0% | 0hPa | 0V | 00:00:00 | 00:00:00 | 00:00:00 | |
| DO3MHA-12 | 2026-09-03 12:03:30 | 47.84468 | 9.56051 | 150° | 162km/h | 12263m | 6.3m/s | 0°C | 0% | 0hPa | 5V | 00:00:00 | 00:00:00 | 00:00:00 | |
| DB0NH | 2026-09-03 12:03:29 | 47.84502 | 9.56020 | 150° | 161km/h | 12253m | 6.3m/s | 0°C | 0% | 0hPa | 5V | 00:00:00 | 00:00:00 | 00:00:00 | |
| DB0UT-7 | 2026-09-03 12:03:28 | 47.84537 | 9.55988 | 148° | 161km/h | 12247m | 3.7m/s | 0°C | 0% | 0hPa | 5V | 00:00:00 | 00:00:00 | 00:00:00 | |
| DK7TD | 2026-09-03 12:03:26 | 47.84641 | 9.55892 | 148° | 159km/h | 12238m | 3.5m/s | -59.9°C | 0% | 0hPa | 5V | 00:00:00 | 00:00:00 | 00:00:00 | |
| DO3MHA-12 | 2026-09-03 12:03:20 | 47.84815 | 9.55730 | 149° | 162km/h | 12208m | 5.1m/s | 0°C | 0% | 0hPa | 0V | 00:00:00 | 00:00:00 | 00:00:00 | |
| IW2NTF | 2026-09-03 12:03:18 | 47.84955 | 9.55606 | 149° | 161km/h | 12188m | 6.4m/s | 0°C | 0% | 0hPa | 0V | 00:00:00 | 00:00:00 | 00:00:00 | |
| DG1MJG | 2026-09-03 12:03:16 | 47.84956 | 9.55606 | 150° | 161km/h | 12194m | 3.5m/s | -59.6°C | 0% | 0hPa | 5V | 00:00:00 | 00:00:00 | 00:00:00 | |
| DK7TD | 2026-09-03 12:03:15 | 47.85024 | 9.55544 | 149° | 157km/h | 12183m | 3.9m/s | -59.5°C | 0% | 0hPa | 5V | 00:00:00 | 00:00:00 | 00:00:00 | |
| NBG1-10 | 2026-09-03 12:03:13 | 47.85058 | 9.55514 | 148° | 161km/h | 12174m | 3.5m/s | 0°C | 0% | 0hPa | 0V | 00:00:00 | 00:00:00 | 00:00:00 | |
| DO3MHA-12 | 2026-09-03 12:03:10 | 47.85162 | 9.55415 | 148° | 161km/h | 12158m | 5.2m/s | 0°C | 0% | 0hPa | 0V | 00:00:00 | 00:00:00 | 00:00:00 | |
| IW2NTF | 2026-09-03 12:03:08 | 47.85302 | 9.55287 | 148° | 159km/h | 12139m | 5.3m/s | 0°C | 0% | 0hPa | 0V | 00:00:00 | 00:00:00 | 00:00:00 | |
| DK7TD | 2026-09-03 12:03:04 | 47.85404 | 9.55192 | 148° | 159km/h | 12129m | 4m/s | -59.1°C | 0% | 0hPa | 5V | 00:00:00 | 00:00:00 | 00:00:00 | |
| DF7PN | 2026-09-03 12:03:03 | 47.85438 | 9.55160 | 148° | 159km/h | 12124m | 5.5m/s | -59.0°C | -1.0% | -1.0hPa | 0V | 00:00:00 | 00:00:00 | 00:00:00 | |
| IW2NTF | 2026-09-03 12:03:01 | 47.85646 | 9.54970 | 147° | 159km/h | 12090m | 3m/s | 0°C | 0% | 0hPa | 0V | 00:00:00 | 00:00:00 | 00:00:00 | |
| DO3MHA-12 | 2026-09-03 12:03:00 | 47.85508 | 9.55097 | 149° | 159km/h | 12109m | 3.9m/s | 0°C | 0% | 0hPa | 5.1V | 00:00:00 | 00:00:00 | 00:00:00 | |
| DB0NH | 2026-09-03 12:02:59 | 47.85542 | 9.55066 | 149° | 161km/h | 12104m | 6.3m/s | 0°C | 0% | 0hPa | 5.1V | 00:00:00 | 00:00:00 | 00:00:00 | |
| DB0UT-7 | 2026-09-03 12:02:58 | 47.85577 | 9.55034 | 149° | 161km/h | 12100m | 2.5m/s | 0°C | 0% | 0hPa | 5.1V | 00:00:00 | 00:00:00 | 00:00:00 | |
| DK7TD | 2026-09-03 12:02:53 | 47.85780 | 9.54842 | 148° | 157km/h | 12076m | 4.4m/s | -58.7°C | 0% | 0hPa | 5.1V | 00:00:00 | 00:00:00 | 00:00:00 | |
| DO3MHA-12 | 2026-09-03 12:02:50 | 47.85850 | 9.54779 | 150° | 161km/h | 12062m | 5.8m/s | 0°C | 0% | 0hPa | 0V | 00:00:00 | 00:00:00 | 00:00:00 | |
| IW2NTF | 2026-09-03 12:02:48 | 47.85989 | 9.54655 | 147° | 161km/h | 12042m | 5.5m/s | 0°C | 0% | 0hPa | 0V | 00:00:00 | 00:00:00 | 00:00:00 | |
| DG1MJG | 2026-09-03 12:02:47 | 47.85989 | 9.54655 | 149° | 161km/h | 12047m | 4.8m/s | -58.5°C | 0% | 0hPa | 5.1V | 00:00:00 | 00:00:00 | 00:00:00 | |
| DK7TD | 2026-09-03 12:02:43 | 47.86126 | 9.54523 | 147° | 162km/h | 12027m | 5.5m/s | -58.3°C | 0% | 0hPa | 5.1V | 00:00:00 | 00:00:00 | 00:00:00 | |
| IW2NTF | 2026-09-03 12:02:41 | 47.86332 | 9.54331 | 146° | 162km/h | 11992m | 3.2m/s | 0°C | 0% | 0hPa | 0V | 00:00:00 | 00:00:00 | 00:00:00 | |
| DO3MHA-12 | 2026-09-03 12:02:40 | 47.86194 | 9.54457 | 149° | 161km/h | 12013m | 3.8m/s | 0°C | 0% | 0hPa | 5.1V | 00:00:00 | 00:00:00 | 00:00:00 | |
| DK7TD | 2026-09-03 12:02:32 | 47.86502 | 9.54163 | 146° | 161km/h | 11972m | 6.1m/s | -57.7°C | 0% | 0hPa | 5.1V | 00:00:00 | 00:00:00 | 00:00:00 | |
| DO3MHA-12 | 2026-09-03 12:02:30 | 47.86536 | 9.54130 | 147° | 161km/h | 11962m | 5.4m/s | 0°C | 0% | 0hPa | 0V | 00:00:00 | 00:00:00 | 00:00:00 | |
| DB0NH | 2026-09-03 12:02:29 | 47.86570 | 9.54097 | 147° | 159km/h | 11957m | 5.2m/s | 0°C | 0% | 0hPa | 0V | 00:00:00 | 00:00:00 | 00:00:00 | |
| DB0UT-7 | 2026-09-03 12:02:28 | 47.86603 | 9.54064 | 147° | 159km/h | 11951m | 5.4m/s | 0°C | 0% | 0hPa | 0V | 00:00:00 | 00:00:00 | 00:00:00 | |
| IW2NTF | 2026-09-03 12:02:25 | 47.86706 | 9.53964 | 147° | 162km/h | 11937m | 4.6m/s | 0°C | 0% | 0hPa | 0V | 00:00:00 | 00:00:00 | 00:00:00 | |
| DK7TD | 2026-09-03 12:02:21 | 47.86877 | 9.53800 | 146° | 159km/h | 11916m | 6.3m/s | -57.4°C | 0% | 0hPa | 5.1V | 00:00:00 | 00:00:00 | 00:00:00 | |
| IW2NTF | 2026-09-03 12:02:20 | 47.87047 | 9.53635 | 147° | 157km/h | 11890m | 4.6m/s | 0°C | 0% | 0hPa | 0V | 00:00:00 | 00:00:00 | 00:00:00 | |
| DO3MHA-12 | 2026-09-03 12:02:20 | 47.86877 | 9.53800 | 147° | 159km/h | 11912m | 4.0m/s | 0°C | 0% | 0hPa | 5.1V | 00:00:00 | 00:00:00 | 00:00:00 | |
| DG1MJG | 2026-09-03 12:02:16 | 47.87014 | 9.53667 | 148° | 159km/h | 11899m | 5.6m/s | -57.3°C | 0% | 0hPa | 5.1V | 00:00:00 | 00:00:00 | 00:00:00 | |
| DK7TD | 2026-09-03 12:02:10 | 47.87246 | 9.53434 | 144° | 161km/h | 11867m | 5.4m/s | -57°C | 0% | 0hPa | 5.1V | 00:00:00 | 00:00:00 | 00:00:00 | |
| DO3MHA-12 | 2026-09-03 12:02:09 | 47.87246 | 9.53434 | 144° | 157km/h | 11863m | 3.5m/s | 0°C | 0% | 0hPa | 0V | 00:00:00 | 00:00:00 | 00:00:00 | |
| NBG1-10 | 2026-09-03 12:02:07 | 47.87312 | 9.53363 | 145° | 157km/h | 11854m | 2.7m/s | 0°C | 0% | 0hPa | 0V | 00:00:00 | 00:00:00 | 00:00:00 | |
| IW2NTF | 2026-09-03 12:02:05 | 47.87379 | 9.53294 | 145° | 159km/h | 11844m | 4.8m/s | 0°C | 0% | 0hPa | 0V | 00:00:00 | 00:00:00 | 00:00:00 | |
| IW2NTF | 2026-09-03 12:02:00 | 47.87706 | 9.52968 | 145° | 161km/h | 11798m | 3.4m/s | 0°C | 0% | 0hPa | 0V | 00:00:00 | 00:00:00 | 00:00:00 | |
| DK7TD | 2026-09-03 12:01:59 | 47.87606 | 9.53068 | 146° | 155km/h | 11816m | 4.2m/s | -56.6°C | 0% | 0hPa | 5.1V | 00:00:00 | 00:00:00 | 00:00:00 | |
| DB0UT-7 | 2026-09-03 12:01:58 | 47.87606 | 9.53068 | 146° | 155km/h | 11811m | 5.6m/s | 0°C | 0% | 0hPa | 5.1V | 00:00:00 | 00:00:00 | 00:00:00 | |
| DK7TD | 2026-09-03 12:01:49 | 47.87934 | 9.52735 | 145° | 155km/h | 11766m | 5.5m/s | -56.2°C | 0% | 0hPa | 5.1V | 00:00:00 | 00:00:00 | 00:00:00 | |
| IW2NTF | 2026-09-03 12:01:45 | 47.88031 | 9.52637 | 146° | 155km/h | 11744m | 4.6m/s | 0°C | 0% | 0hPa | 0V | 00:00:00 | 00:00:00 | 00:00:00 | |
| IW2NTF | 2026-09-03 12:01:40 | 47.88358 | 9.52302 | 144° | 153km/h | 11696m | 6m/s | 0°C | 0% | 0hPa | 0V | 00:00:00 | 00:00:00 | 00:00:00 | |
| DO3MHA-12 | 2026-09-03 12:01:39 | 47.88227 | 9.52437 | 145° | 155km/h | 11715m | 4.2m/s | 0°C | 0% | 0hPa | 5.1V | 00:00:00 | 00:00:00 | 00:00:00 | |
| DK7TD | 2026-09-03 12:01:38 | 47.88293 | 9.52369 | 145° | 157km/h | 11710m | 5.4m/s | -55.7°C | 0% | 0hPa | 5.1V | 00:00:00 | 00:00:00 | 00:00:00 | |
| NBG1-10 | 2026-09-03 12:01:34 | 47.88389 | 9.52269 | 146° | 153km/h | 11692m | 3.5m/s | 0°C | 0% | 0hPa | 0V | 00:00:00 | 00:00:00 | 00:00:00 | |
| DO3MHA-12 | 2026-09-03 12:01:29 | 47.88552 | 9.52105 | 146° | 153km/h | 11671m | 4.4m/s | 0°C | 0% | 0hPa | 0V | 00:00:00 | 00:00:00 | 00:00:00 | |
| DB0UT-7 | 2026-09-03 12:01:28 | 47.88584 | 9.52073 | 146° | 153km/h | 11666m | 5.9m/s | 0°C | 0% | 0hPa | 0V | 00:00:00 | 00:00:00 | 00:00:00 | |
| IW2NTF | 2026-09-03 12:01:25 | 47.88680 | 9.51974 | 145° | 155km/h | 11650m | 7.5m/s | 0°C | 0% | 0hPa | 0V | 00:00:00 | 00:00:00 | 00:00:00 | |
| IW2NTF | 2026-09-03 12:01:20 | 47.88998 | 9.51643 | 144° | 153km/h | 11598m | 3.4m/s | 0°C | 0% | 0hPa | 0V | 00:00:00 | 00:00:00 | 00:00:00 | |
| DO3MHA-12 | 2026-09-03 12:01:19 | 47.88871 | 9.51776 | 145° | 153km/h | 11618m | 4.0m/s | 0°C | 0% | 0hPa | 5.1V | 00:00:00 | 00:00:00 | 00:00:00 | |
| DK7TD | 2026-09-03 12:01:16 | 47.88997 | 9.51643 | 145° | 153km/h | 11603m | 5.5m/s | -54.8°C | 0% | 0hPa | 5.1V | 00:00:00 | 00:00:00 | 00:00:00 | |
| DG1MJG | 2026-09-03 12:01:15 | 47.89029 | 9.51609 | 145° | 153km/h | 11599m | 3.4m/s | -54.7°C | 0% | 0hPa | 5.1V | 00:00:00 | 00:00:00 | 00:00:00 | |
| DO3MHA-12 | 2026-09-03 12:01:09 | 47.89187 | 9.51442 | 146° | 153km/h | 11568m | 4.0m/s | 0°C | 0% | 0hPa | 5.1V | 00:00:00 | 00:00:00 | 00:00:00 | |
| DK7TD | 2026-09-03 12:01:06 | 47.89317 | 9.51308 | 145° | 153km/h | 11555m | 4.2m/s | -54.3°C | 0% | 0hPa | 5.1V | 00:00:00 | 00:00:00 | 00:00:00 | |
| IW2NTF | 2026-09-03 12:01:05 | 47.89317 | 9.51308 | 145° | 153km/h | 11551m | 5.5m/s | 0°C | 0% | 0hPa | 0V | 00:00:00 | 00:00:00 | 00:00:00 | |
| NBG1-10 | 2026-09-03 12:01:01 | 47.89444 | 9.51175 | 145° | 153km/h | 11531m | 4.5m/s | 0°C | 0% | 0hPa | 0V | 00:00:00 | 00:00:00 | 00:00:00 | |
| IW2NTF | 2026-09-03 12:00:59 | 47.89634 | 9.50975 | 145° | 153km/h | 11504m | 5.1m/s | 0°C | 0% | 0hPa | 0V | 00:00:00 | 00:00:00 | 00:00:00 | |
| DO3MHA-12 | 2026-09-03 12:00:59 | 47.89507 | 9.51108 | 146° | 153km/h | 11522m | 4.5m/s | 0°C | 0% | 0hPa | 5.1V | 00:00:00 | 00:00:00 | 00:00:00 | |
| DB0UT-7 | 2026-09-03 12:00:58 | 47.89539 | 9.51075 | 146° | 153km/h | 11517m | 4.6m/s | 0°C | 0% | 0hPa | 5.1V | 00:00:00 | 00:00:00 | 00:00:00 | |
| DK7TD | 2026-09-03 12:00:55 | 47.89666 | 9.50942 | 145° | 155km/h | 11504m | 5.1m/s | -53.9°C | 0% | 0hPa | 5.1V | 00:00:00 | 00:00:00 | 00:00:00 | |
| DO3MHA-12 | 2026-09-03 12:00:49 | 47.89826 | 9.50776 | 145° | 153km/h | 11469m | 5.7m/s | 0°C | 0% | 0hPa | 0V | 00:00:00 | 00:00:00 | 00:00:00 | |
| IW2NTF | 2026-09-03 12:00:45 | 47.89951 | 9.50644 | 144° | 151km/h | 11446m | 5.9m/s | 0°C | 0% | 0hPa | 0V | 00:00:00 | 00:00:00 | 00:00:00 | |
| DK7TD | 2026-09-03 12:00:44 | 47.90013 | 9.50578 | 145° | 153km/h | 11440m | 4.2m/s | -53.4°C | 0% | 0hPa | 5.1V | 00:00:00 | 00:00:00 | 00:00:00 | |
| DG1MJG | 2026-09-03 12:00:44 | 47.90014 | 9.50578 | 146° | 153km/h | 11440m | 4.2m/s | -53.4°C | 0% | 0hPa | 0V | 00:00:00 | 00:00:00 | 00:00:00 | |
| DO3MHA-12 | 2026-09-03 12:00:39 | 47.90142 | 9.50444 | 146° | 153km/h | 11414m | 5.1m/s | 0°C | 0% | 0hPa | 0V | 00:00:00 | 00:00:00 | 00:00:00 | |
| IW2NTF | 2026-09-03 12:00:35 | 47.90271 | 9.50308 | 143° | 155km/h | 11391m | 6.5m/s | 0°C | 0% | 0hPa | 0V | 00:00:00 | 00:00:00 | 00:00:00 | |
| DK7TD | 2026-09-03 12:00:33 | 47.90365 | 9.50209 | 145° | 150km/h | 11379m | 5.3m/s | -52.9°C | 0% | 0hPa | 5.1V | 00:00:00 | 00:00:00 | 00:00:00 | |
| DO3MHA-12 | 2026-09-03 12:00:29 | 47.90458 | 9.50112 | 144° | 151km/h | 11357m | 4.6m/s | 0°C | 0% | 0hPa | 0V | 00:00:00 | 00:00:00 | 00:00:00 | |
| DB0UT-7 | 2026-09-03 12:00:28 | 47.90489 | 9.50077 | 144° | 150km/h | 11352m | 5.9m/s | 0°C | 0% | 0hPa | 0V | 00:00:00 | 00:00:00 | 00:00:00 | |
| IW2NTF | 2026-09-03 12:00:25 | 47.90584 | 9.49976 | 144° | 153km/h | 11335m | 3.4m/s | 0°C | 0% | 0hPa | 0V | 00:00:00 | 00:00:00 | 00:00:00 | |
| DK7TD | 2026-09-03 12:00:23 | 47.90679 | 9.49876 | 144° | 151km/h | 11324m | 7.2m/s | -52.4°C | 0% | 0hPa | 5.1V | 00:00:00 | 00:00:00 | 00:00:00 | |
| DO3MHA-12 | 2026-09-03 12:00:19 | 47.90772 | 9.49778 | 145° | 150km/h | 11304m | 4.1m/s | 0°C | 0% | 0hPa | 0V | 00:00:00 | 00:00:00 | 00:00:00 | |
| IW2NTF | 2026-09-03 12:00:15 | 47.90896 | 9.49646 | 144° | 151km/h | 11285m | 6.3m/s | 0°C | 0% | 0hPa | 0V | 00:00:00 | 00:00:00 | 00:00:00 | |
| DG1MJG | 2026-09-03 12:00:13 | 47.90957 | 9.49579 | 145° | 150km/h | 11280m | 3.9m/s | -52.0°C | 0% | 0hPa | 5.1V | 00:00:00 | 00:00:00 | 00:00:00 | |
| DK7TD | 2026-09-03 12:00:12 | 47.91019 | 9.49514 | 145° | 148km/h | 11270m | 4.7m/s | -51.9°C | 0% | 0hPa | 5.1V | 00:00:00 | 00:00:00 | 00:00:00 | |
| DO3MHA-12 | 2026-09-03 12:00:09 | 47.91079 | 9.49449 | 145° | 150km/h | 11256m | 4.5m/s | 0°C | 0% | 0hPa | 0V | 00:00:00 | 00:00:00 | 00:00:00 | |
| IW2NTF | 2026-09-03 12:00:05 | 47.91202 | 9.49320 | 144° | 150km/h | 11237m | 3.8m/s | 0°C | 0% | 0hPa | 0V | 00:00:00 | 00:00:00 | 00:00:00 | |
| DK7TD | 2026-09-03 12:00:01 | 47.91355 | 9.49154 | 144° | 151km/h | 11219m | 4.7m/s | -51.4°C | 0% | 0hPa | 5.1V | 00:00:00 | 00:00:00 | 00:00:00 | |
| DO3MHA-12 | 2026-09-03 11:59:59 | 47.91386 | 9.49120 | 144° | 148km/h | 11211m | 2.7m/s | 0°C | 0% | 0hPa | 0V | 00:00:00 | 00:00:00 | 00:00:00 | |
| DB0UT-7 | 2026-09-03 11:59:58 | 47.91417 | 9.49086 | 144° | 148km/h | 11206m | 6.1m/s | 0°C | 0% | 0hPa | 0V | 00:00:00 | 00:00:00 | 00:00:00 | |
| IW2NTF | 2026-09-03 11:59:55 | 47.91509 | 9.48987 | 143° | 146km/h | 11191m | 5m/s | 0°C | 0% | 0hPa | 0V | 00:00:00 | 00:00:00 | 00:00:00 | |
| NBG1-10 | 2026-09-03 11:59:55 | 47.91509 | 9.48987 | 144° | 148km/h | 11191m | 5.0m/s | 0°C | 0% | 0hPa | 0V | 00:00:00 | 00:00:00 | 00:00:00 | |
| IW2NTF | 2026-09-03 11:59:50 | 47.91809 | 9.48656 | 143° | 151km/h | 11140m | 5.2m/s | 0°C | 0% | 0hPa | 0V | 00:00:00 | 00:00:00 | 00:00:00 | |
| DK7TD | 2026-09-03 11:59:50 | 47.91687 | 9.48791 | 144° | 148km/h | 11167m | 3.7m/s | -51°C | 0% | 0hPa | 5.1V | 00:00:00 | 00:00:00 | 00:00:00 | |
| DO3MHA-12 | 2026-09-03 11:59:49 | 47.91686 | 9.48791 | 145° | 148km/h | 11162m | 6.8m/s | 0°C | 0% | 0hPa | 0V | 00:00:00 | 00:00:00 | 00:00:00 | |
| DG1MJG | 2026-09-03 11:59:42 | 47.91898 | 9.48554 | 144° | 146km/h | 11131m | 6.1m/s | -50.8°C | 0% | 0hPa | 0V | 00:00:00 | 00:00:00 | 00:00:00 | |
| IW2NTF | 2026-09-03 11:59:41 | 47.92109 | 9.48326 | 143° | 150km/h | 11096m | 3.2m/s | 0°C | 0% | 0hPa | 0V | 00:00:00 | 00:00:00 | 00:00:00 | |
| DK7TD | 2026-09-03 11:59:39 | 47.92017 | 9.48423 | 145° | 148km/h | 11110m | 5.4m/s | -50.6°C | 0% | 0hPa | 5.1V | 00:00:00 | 00:00:00 | 00:00:00 | |
| DO3MHA-12 | 2026-09-03 11:59:39 | 47.91987 | 9.48454 | 146° | 148km/h | 11110m | 5.4m/s | 0°C | 0% | 0hPa | 5.1V | 00:00:00 | 00:00:00 | 00:00:00 | |
| DK7TD | 2026-09-03 11:59:29 | 47.92314 | 9.48088 | 141° | 144km/h | 11062m | 6.7m/s | -50.3°C | 0% | 0hPa | 5.1V | 00:00:00 | 00:00:00 | 00:00:00 | |
| DB0UT-7 | 2026-09-03 11:59:28 | 47.92314 | 9.48088 | 141° | 146km/h | 11057m | 4.3m/s | 0°C | 0% | 0hPa | 5.1V | 00:00:00 | 00:00:00 | 00:00:00 | |
| NBG1-10 | 2026-09-03 11:59:22 | 47.92493 | 9.47892 | 142° | 146km/h | 11023m | 4.0m/s | 0°C | 0% | 0hPa | 5.1V | 00:00:00 | 00:00:00 | 00:00:00 | |
| DO3MHA-12 | 2026-09-03 11:59:19 | 47.92580 | 9.47791 | 142° | 146km/h | 11015m | 6.2m/s | 0°C | 0% | 0hPa | 5.1V | 00:00:00 | 00:00:00 | 00:00:00 | |
| DK7TD | 2026-09-03 11:59:18 | 47.92637 | 9.47725 | 142° | 146km/h | 11009m | 5.2m/s | -49.8°C | 0% | 0hPa | 5.1V | 00:00:00 | 00:00:00 | 00:00:00 | |
| DG1MJG | 2026-09-03 11:59:12 | 47.92816 | 9.47524 | 144° | 144km/h | 10983m | 5.6m/s | -49.5°C | 0% | 0hPa | 5.1V | 00:00:00 | 00:00:00 | 00:00:00 | |
| DO3MHA-12 | 2026-09-03 11:59:09 | 47.92874 | 9.47459 | 143° | 148km/h | 10969m | 3.4m/s | 0°C | 0% | 0hPa | 5.1V | 00:00:00 | 00:00:00 | 00:00:00 | |
| DK7TD | 2026-09-03 11:59:07 | 47.92962 | 9.47359 | 142° | 146km/h | 10960m | 2.9m/s | -49.3°C | 0% | 0hPa | 5.1V | 00:00:00 | 00:00:00 | 00:00:00 | |
| DO3MHA-12 | 2026-09-03 11:58:59 | 47.93171 | 9.47120 | 146° | 144km/h | 10918m | 6.3m/s | 0°C | 0% | 0hPa | 5.1V | 00:00:00 | 00:00:00 | 00:00:00 | |
| DB0UT-7 | 2026-09-03 11:58:58 | 47.93201 | 9.47089 | 146° | 141km/h | 10913m | 2.5m/s | 0°C | 0% | 0hPa | 5.1V | 00:00:00 | 00:00:00 | 00:00:00 | |
| DK7TD | 2026-09-03 11:58:56 | 47.93287 | 9.46994 | 140° | 137km/h | 10904m | 3.4m/s | -49°C | 0% | 0hPa | 5.1V | 00:00:00 | 00:00:00 | 00:00:00 | |
| DO3MHA-12 | 2026-09-03 11:58:49 | 47.93458 | 9.46787 | 147° | 142km/h | 10872m | 3.4m/s | 0°C | 0% | 0hPa | 5.1V | 00:00:00 | 00:00:00 | 00:00:00 | |
| DK7TD | 2026-09-03 11:58:46 | 47.93584 | 9.46649 | 138° | 146km/h | 10860m | 8.4m/s | -48.6°C | 0% | 0hPa | 5.1V | 00:00:00 | 00:00:00 | 00:00:00 | |
| DG1MJG | 2026-09-03 11:58:40 | 47.93715 | 9.46481 | 144° | 133km/h | 10824m | 4.6m/s | -48.3°C | 0% | 0hPa | 5.1V | 00:00:00 | 00:00:00 | 00:00:00 | |
| DO3MHA-12 | 2026-09-03 11:58:38 | 47.93772 | 9.46421 | 145° | 139km/h | 10805m | 10.1m/s | 0°C | 0% | 0hPa | 5.1V | 00:00:00 | 00:00:00 | 00:00:00 | |
| DK7TD | 2026-09-03 11:58:35 | 47.93879 | 9.46284 | 136° | 133km/h | 10781m | 6.2m/s | -47.9°C | 0% | 0hPa | 5.1V | 00:00:00 | 00:00:00 | 00:00:00 | |
| DB0NH | 2026-09-03 11:58:29 | 47.94007 | 9.46112 | 140° | 133km/h | 10748m | 9.8m/s | 0°C | 0% | 0hPa | 5.1V | 00:00:00 | 00:00:00 | 00:00:00 | |
| DO3MHA-12 | 2026-09-03 11:58:28 | 47.94034 | 9.46078 | 142° | 137km/h | 10739m | 5.9m/s | 0°C | 0% | 0hPa | 5.1V | 00:00:00 | 00:00:00 | 00:00:00 | |
| DK7TD | 2026-09-03 11:58:24 | 47.94163 | 9.45915 | 138° | 142km/h | 10709m | 3.3m/s | -47.4°C | 0% | 0hPa | 5.1V | 00:00:00 | 00:00:00 | 00:00:00 | |
| DO3MHA-12 | 2026-09-03 11:58:18 | 47.94289 | 9.45735 | 137° | 130km/h | 10679m | 7.4m/s | 0°C | 0% | 0hPa | 5.1V | 00:00:00 | 00:00:00 | 00:00:00 | |
| NBG1-10 | 2026-09-03 11:58:16 | 47.94336 | 9.45672 | 139° | 131km/h | 10668m | 5.8m/s | 0°C | 0% | 0hPa | 5.1V | 00:00:00 | 00:00:00 | 00:00:00 | |
| DK7TD | 2026-09-03 11:58:13 | 47.94436 | 9.45545 | 139° | 133km/h | 10652m | 7.4m/s | -47°C | 0% | 0hPa | 5.1V | 00:00:00 | 00:00:00 | 00:00:00 | |
| DG1MJG | 2026-09-03 11:58:11 | 47.94485 | 9.45477 | 137° | 133km/h | 10642m | 7.2m/s | -46.9°C | 0% | 0hPa | 5.1V | 00:00:00 | 00:00:00 | 00:00:00 | |
| DO3MHA-12 | 2026-09-03 11:58:08 | 47.94534 | 9.45406 | 136° | 131km/h | 10626m | 3.7m/s | 0°C | 0% | 0hPa | 5.1V | 00:00:00 | 00:00:00 | 00:00:00 | |
| DK7TD | 2026-09-03 11:58:03 | 47.94683 | 9.45201 | 139° | 126km/h | 10596m | 4m/s | -46.5°C | 0% | 0hPa | 5.1V | 00:00:00 | 00:00:00 | 00:00:00 | |
| DB0NH | 2026-09-03 11:57:59 | 47.94755 | 9.45105 | 138° | 131km/h | 10574m | 4.9m/s | 0°C | 0% | 0hPa | 5.2V | 00:00:00 | 00:00:00 | 00:00:00 | |
| DO3MHA-12 | 2026-09-03 11:57:58 | 47.94778 | 9.45074 | 136° | 133km/h | 10568m | 5.8m/s | 0°C | 0% | 0hPa | 5.2V | 00:00:00 | 00:00:00 | 00:00:00 | |
| DK7TD | 2026-09-03 11:57:52 | 47.94948 | 9.44824 | 138° | 133km/h | 10534m | 7.3m/s | -46°C | 0% | 0hPa | 5.2V | 00:00:00 | 00:00:00 | 00:00:00 | |
| DO3MHA-12 | 2026-09-03 11:57:48 | 47.95021 | 9.44725 | 136° | 130km/h | 10514m | 6.1m/s | 0°C | 0% | 0hPa | 5.1V | 00:00:00 | 00:00:00 | 00:00:00 | |
| NBG1-10 | 2026-09-03 11:57:42 | 47.95161 | 9.44519 | 137° | 130km/h | 10486m | 5.9m/s | 0°C | 0% | 0hPa | 5.1V | 00:00:00 | 00:00:00 | 00:00:00 | |
| DK7TD | 2026-09-03 11:57:41 | 47.95209 | 9.44452 | 138° | 130km/h | 10482m | 3.8m/s | -45.5°C | 0% | 0hPa | 5.1V | 00:00:00 | 00:00:00 | 00:00:00 | |
| DG1MJG | 2026-09-03 11:57:38 | 47.95283 | 9.44360 | 142° | 128km/h | 10470m | 6.2m/s | -45.4°C | 0% | 0hPa | 5.2V | 00:00:00 | 00:00:00 | 00:00:00 | |
| DK7TD | 2026-09-03 11:57:30 | 47.95473 | 9.44082 | 137° | 128km/h | 10425m | 5m/s | -45°C | 0% | 0hPa | 5.2V | 00:00:00 | 00:00:00 | 00:00:00 | |
| DB0NH | 2026-09-03 11:57:29 | 47.95473 | 9.44082 | 138° | 128km/h | 10419m | 6.8m/s | 0°C | 0% | 0hPa | 5.2V | 00:00:00 | 00:00:00 | 00:00:00 | |
| DO3MHA-12 | 2026-09-03 11:57:28 | 47.95497 | 9.44050 | 138° | 126km/h | 10414m | 4.0m/s | 0°C | 0% | 0hPa | 5.2V | 00:00:00 | 00:00:00 | 00:00:00 | |
| DK7TD | 2026-09-03 11:57:19 | 47.95729 | 9.43724 | 138° | 128km/h | 10364m | 2.8m/s | -44.5°C | 0% | 0hPa | 5.2V | 00:00:00 | 00:00:00 | 00:00:00 | |
| DO3MHA-12 | 2026-09-03 11:57:18 | 47.95729 | 9.43723 | 139° | 130km/h | 10359m | 7.5m/s | 0°C | 0% | 0hPa | 5.2V | 00:00:00 | 00:00:00 | 00:00:00 | |
| DK7TD | 2026-09-03 11:57:09 | 47.95973 | 9.43393 | 135° | 130km/h | 10312m | 4.5m/s | -43.9°C | 0% | 0hPa | 5.2V | 00:00:00 | 00:00:00 | 00:00:00 | |
| DO3MHA-12 | 2026-09-03 11:57:08 | 47.95973 | 9.43392 | 136° | 130km/h | 10308m | 5.2m/s | 0°C | 0% | 0hPa | 5.1V | 00:00:00 | 00:00:00 | 00:00:00 | |
| DG1MJG | 2026-09-03 11:57:06 | 47.96020 | 9.43324 | 137° | 128km/h | 10303m | 7.7m/s | -43.8°C | 0% | 0hPa | 5.1V | 00:00:00 | 00:00:00 | 00:00:00 | |
| DB0NH | 2026-09-03 11:56:59 | 47.96191 | 9.43095 | 140° | 130km/h | 10262m | 6.2m/s | 0°C | 0% | 0hPa | 5.1V | 00:00:00 | 00:00:00 | 00:00:00 | |
| DO3MHA-12 | 2026-09-03 11:56:58 | 47.96217 | 9.43064 | 138° | 128km/h | 10257m | 4.7m/s | 0°C | 0% | 0hPa | 5.1V | 00:00:00 | 00:00:00 | 00:00:00 | |
| DK7TD | 2026-09-03 11:56:57 | 47.96265 | 9.42998 | 138° | 130km/h | 10251m | 6.7m/s | -43.4°C | 0% | 0hPa | 5.1V | 00:00:00 | 00:00:00 | 00:00:00 | |
| DO3MHA-12 | 2026-09-03 11:56:48 | 47.96453 | 9.42732 | 138° | 131km/h | 10204m | 4.4m/s | 0°C | 0% | 0hPa | 5.2V | 00:00:00 | 00:00:00 | 00:00:00 | |
| DK7TD | 2026-09-03 11:56:47 | 47.96501 | 9.42666 | 137° | 130km/h | 10199m | 6.2m/s | -42.9°C | 0% | 0hPa | 5.2V | 00:00:00 | 00:00:00 | 00:00:00 | |
| DO3MHA-12 | 2026-09-03 11:56:38 | 47.96698 | 9.42396 | 133° | 130km/h | 10151m | 7.1m/s | 0°C | 0% | 0hPa | 5.2V | 00:00:00 | 00:00:00 | 00:00:00 | |
| DK7TD | 2026-09-03 11:56:36 | 47.96765 | 9.42288 | 134° | 130km/h | 10139m | 7.6m/s | -42.4°C | 0% | 0hPa | 5.2V | 00:00:00 | 00:00:00 | 00:00:00 | |
| DG1MJG | 2026-09-03 11:56:34 | 47.96813 | 9.42222 | 141° | 130km/h | 10128m | 7.0m/s | -42.3°C | 0% | 0hPa | 5.2V | 00:00:00 | 00:00:00 | 00:00:00 | |
| DB0NH | 2026-09-03 11:56:29 | 47.96913 | 9.42090 | 136° | 133km/h | 10097m | 6.4m/s | 0°C | 0% | 0hPa | 5.2V | 00:00:00 | 00:00:00 | 00:00:00 | |
| DO3MHA-12 | 2026-09-03 11:56:28 | 47.96936 | 9.42056 | 133° | 131km/h | 10092m | 3.5m/s | 0°C | 0% | 0hPa | 5.2V | 00:00:00 | 00:00:00 | 00:00:00 | |
| DK7TD | 2026-09-03 11:56:26 | 47.97002 | 9.41946 | 131° | 130km/h | 10081m | 3m/s | -41.9°C | 0% | 0hPa | 5.2V | 00:00:00 | 00:00:00 | 00:00:00 | |
| DO3MHA-12 | 2026-09-03 11:56:18 | 47.97171 | 9.41702 | 135° | 135km/h | 10041m | 4.7m/s | 0°C | 0% | 0hPa | 5.2V | 00:00:00 | 00:00:00 | 00:00:00 | |
| DK7TD | 2026-09-03 11:56:15 | 47.97266 | 9.41560 | 136° | 133km/h | 10023m | 3.7m/s | -41.4°C | 0% | 0hPa | 5.2V | 00:00:00 | 00:00:00 | 00:00:00 | |
| DO3MHA-12 | 2026-09-03 11:56:08 | 47.97408 | 9.41336 | 138° | 130km/h | 9979m | 9.7m/s | 0°C | 0% | 0hPa | 5.2V | 00:00:00 | 00:00:00 | 00:00:00 | |
| DK7TD | 2026-09-03 11:56:04 | 47.97507 | 9.41209 | 141° | 122km/h | 9958m | 4.3m/s | -40.9°C | 0% | 0hPa | 5.2V | 00:00:00 | 00:00:00 | 00:00:00 | |
| DG1MJG | 2026-09-03 11:56:03 | 47.97554 | 9.41148 | 138° | 130km/h | 9947m | 7.3m/s | -40.8°C | 0% | 0hPa | 5.2V | 00:00:00 | 00:00:00 | 00:00:00 | |
| DB0NH | 2026-09-03 11:55:59 | 47.97626 | 9.41038 | 134° | 131km/h | 9916m | 4.8m/s | 0°C | 0% | 0hPa | 5.2V | 00:00:00 | 00:00:00 | 00:00:00 | |
| DO3MHA-12 | 2026-09-03 11:55:58 | 47.97650 | 9.41002 | 136° | 135km/h | 9911m | 3.7m/s | 0°C | 0% | 0hPa | 5.2V | 00:00:00 | 00:00:00 | 00:00:00 | |
| DK7TD | 2026-09-03 11:55:53 | 47.97791 | 9.40777 | 132° | 142km/h | 9883m | 8m/s | -40.3°C | 0% | 0hPa | 5.2V | 00:00:00 | 00:00:00 | 00:00:00 | |
| DO3MHA-12 | 2026-09-03 11:55:48 | 47.97885 | 9.40634 | 136° | 128km/h | 9847m | 5.2m/s | 0°C | 0% | 0hPa | 5.2V | 00:00:00 | 00:00:00 | 00:00:00 | |
| DK7TD | 2026-09-03 11:55:43 | 47.98022 | 9.40431 | 136° | 119km/h | 9814m | 8.9m/s | -39.7°C | 0% | 0hPa | 5.2V | 00:00:00 | 00:00:00 | 00:00:00 | |
| DO3MHA-12 | 2026-09-03 11:55:37 | 47.98138 | 9.40260 | 133° | 131km/h | 9774m | 5.8m/s | 0°C | 0% | 0hPa | 5.2V | 00:00:00 | 00:00:00 | 00:00:00 | |
| DK7TD | 2026-09-03 11:55:32 | 47.98262 | 9.40034 | 134° | 122km/h | 9743m | 9.7m/s | -39.1°C | 0% | 0hPa | 5.2V | 00:00:00 | 00:00:00 | 00:00:00 | |
| DG1MJG | 2026-09-03 11:55:31 | 47.98262 | 9.40034 | 135° | 122km/h | 9743m | 9.7m/s | -39.1°C | 0% | 0hPa | 5.2V | 00:00:00 | 00:00:00 | 00:00:00 | |
| NBG1-10 | 2026-09-03 11:55:30 | 47.98284 | 9.40000 | 137° | 130km/h | 9729m | 4.4m/s | 0°C | 0% | 0hPa | 5.2V | 00:00:00 | 00:00:00 | 00:00:00 | |
| DB0NH | 2026-09-03 11:55:29 | 47.98310 | 9.39966 | 139° | 130km/h | 9724m | 5.2m/s | 0°C | 0% | 0hPa | 5.2V | 00:00:00 | 00:00:00 | 00:00:00 | |
| DB0UT-7 | 2026-09-03 11:55:28 | 47.98336 | 9.39931 | 138° | 128km/h | 9719m | 5.2m/s | 0°C | 0% | 0hPa | 5.2V | 00:00:00 | 00:00:00 | 00:00:00 | |
| DO3MHA-12 | 2026-09-03 11:55:27 | 47.98361 | 9.39896 | 132° | 128km/h | 9712m | 8.3m/s | 0°C | 0% | 0hPa | 5.2V | 00:00:00 | 00:00:00 | 00:00:00 | |
| DK7TD | 2026-09-03 11:55:21 | 47.98507 | 9.39643 | 133° | 126km/h | 9673m | 4.8m/s | -38.5°C | 0% | 0hPa | 5.2V | 00:00:00 | 00:00:00 | 00:00:00 | |
| DO3MHA-12 | 2026-09-03 11:55:17 | 47.98575 | 9.39534 | 134° | 126km/h | 9646m | 6.7m/s | 0°C | 0% | 0hPa | 5.2V | 00:00:00 | 00:00:00 | 00:00:00 | |
| DK7TD | 2026-09-03 11:55:10 | 47.98747 | 9.39256 | 128° | 122km/h | 9599m | 5.8m/s | -37.9°C | 0% | 0hPa | 5.2V | 00:00:00 | 00:00:00 | 00:00:00 | |
| DO3MHA-12 | 2026-09-03 11:55:07 | 47.98787 | 9.39183 | 131° | 131km/h | 9585m | 5.4m/s | 0°C | 0% | 0hPa | 5.2V | 00:00:00 | 00:00:00 | 00:00:00 | |
| DB0ND-19 | 2026-09-03 11:55:05 | 47.98849 | 9.39067 | 127° | 128km/h | 9571m | 4.4m/s | -37.6°C | -1.0% | -1.0hPa | 5.2V | 00:00:00 | 00:00:00 | 00:00:00 | |
| DL6DJ-15 | 2026-09-03 11:55:04 | 47.98914 | 9.38952 | 132° | 135km/h | 9558m | 6.1m/s | -37.5°C | -1.0% | -1.0hPa | 5.2V | 00:00:00 | 00:00:00 | 00:00:00 | |
| DG1MJG | 2026-09-03 11:55:00 | 47.98957 | 9.38878 | 132° | 126km/h | 9548m | 5.7m/s | -37.4°C | 0% | 0hPa | 5.2V | 00:00:00 | 00:00:00 | 00:00:00 | |
| DK7TD | 2026-09-03 11:54:59 | 47.98978 | 9.38842 | 131° | 126km/h | 9541m | 8.2m/s | -37.3°C | 0% | 0hPa | 5.2V | 00:00:00 | 00:00:00 | 00:00:00 | |
| DB0NH | 2026-09-03 11:54:59 | 47.98957 | 9.38878 | 132° | 124km/h | 9541m | 8.1m/s | 0°C | 0% | 0hPa | 5.2V | 00:00:00 | 00:00:00 | 00:00:00 | |
| DB0UT-7 | 2026-09-03 11:54:58 | 47.98978 | 9.38842 | 132° | 124km/h | 9534m | 4.6m/s | 0°C | 0% | 0hPa | 5.2V | 00:00:00 | 00:00:00 | 00:00:00 | |
| DO3MHA-12 | 2026-09-03 11:54:57 | 47.98999 | 9.38806 | 131° | 130km/h | 9530m | 3.9m/s | 0°C | 0% | 0hPa | 5.2V | 00:00:00 | 00:00:00 | 00:00:00 | |
| DK7TD | 2026-09-03 11:54:49 | 47.99206 | 9.38490 | 128° | 122km/h | 9480m | 5.8m/s | -36.8°C | 0% | 0hPa | 5.2V | 00:00:00 | 00:00:00 | 00:00:00 | |
| DO3MHA-12 | 2026-09-03 11:54:47 | 47.99224 | 9.38454 | 128° | 122km/h | 9465m | 9.0m/s | 0°C | 0% | 0hPa | 5.2V | 00:00:00 | 00:00:00 | 00:00:00 | |
| DK7TD | 2026-09-03 11:54:38 | 47.99428 | 9.38110 | 131° | 124km/h | 9407m | 3.2m/s | -36.1°C | 0% | 0hPa | 5.2V | 00:00:00 | 00:00:00 | 00:00:00 | |
| DO3MHA-12 | 2026-09-03 11:54:37 | 47.99428 | 9.38110 | 132° | 120km/h | 9402m | 5.9m/s | 0°C | 0% | 0hPa | 5.2V | 00:00:00 | 00:00:00 | 00:00:00 | |
| DB0NH | 2026-09-03 11:54:29 | 47.99588 | 9.37831 | 133° | 120km/h | 9361m | 4.8m/s | 0°C | 0% | 0hPa | 5.2V | 00:00:00 | 00:00:00 | 00:00:00 | |
| DB0UT-7 | 2026-09-03 11:54:28 | 47.99608 | 9.37798 | 133° | 122km/h | 9356m | 6.1m/s | 0°C | 0% | 0hPa | 5.2V | 00:00:00 | 00:00:00 | 00:00:00 | |
| DO3MHA-12 | 2026-09-03 11:54:27 | 47.99629 | 9.37765 | 133° | 122km/h | 9350m | 4.3m/s | 0°C | 0% | 0hPa | 5.2V | 00:00:00 | 00:00:00 | 00:00:00 | |
| DK7TD | 2026-09-03 11:54:27 | 47.99650 | 9.37731 | 133° | 122km/h | 9350m | 4.4m/s | -35.6°C | 0% | 0hPa | 5.2V | 00:00:00 | 00:00:00 | 00:00:00 | |
| NBG1-10 | 2026-09-03 11:54:24 | 47.99692 | 9.37662 | 133° | 122km/h | 9333m | 6.5m/s | 0°C | 0% | 0hPa | 5.2V | 00:00:00 | 00:00:00 | 00:00:00 | |
| DO3MHA-12 | 2026-09-03 11:54:17 | 47.99833 | 9.37421 | 130° | 119km/h | 9289m | 6.0m/s | 0°C | 0% | 0hPa | 5.2V | 00:00:00 | 00:00:00 | 00:00:00 | |
| DK7TD | 2026-09-03 11:54:16 | 47.99871 | 9.37356 | 132° | 113km/h | 9283m | 5.6m/s | -35.1°C | 0% | 0hPa | 5.2V | 00:00:00 | 00:00:00 | 00:00:00 | |
| DO3MHA-12 | 2026-09-03 11:54:07 | 48.00030 | 9.37075 | 130° | 124km/h | 9233m | 5.1m/s | 0°C | 0% | 0hPa | 5.2V | 00:00:00 | 00:00:00 | 00:00:00 | |
| DK7TD | 2026-09-03 11:54:06 | 48.00071 | 9.37003 | 130° | 122km/h | 9228m | 5m/s | -34.6°C | 0% | 0hPa | 5.2V | 00:00:00 | 00:00:00 | 00:00:00 | |
| DB0ND-19 | 2026-09-03 11:54:03 | 48.00151 | 9.36863 | 130° | 120km/h | 9205m | 4.2m/s | -34.3°C | -1.0% | -1.0hPa | 5.2V | 00:00:00 | 00:00:00 | 00:00:00 | |
| DB0NH | 2026-09-03 11:53:59 | 48.00192 | 9.36792 | 129° | 124km/h | 9185m | 8.6m/s | 0°C | 0% | 0hPa | 5.2V | 00:00:00 | 00:00:00 | 00:00:00 | |
| DB0UT-7 | 2026-09-03 11:53:58 | 48.00212 | 9.36756 | 129° | 124km/h | 9177m | 5.5m/s | 0°C | 0% | 0hPa | 5.2V | 00:00:00 | 00:00:00 | 00:00:00 | |
| DO3MHA-12 | 2026-09-03 11:53:57 | 48.00232 | 9.36719 | 132° | 124km/h | 9172m | 3.7m/s | 0°C | 0% | 0hPa | 5.2V | 00:00:00 | 00:00:00 | 00:00:00 | |
| DK7TD | 2026-09-03 11:53:55 | 48.00292 | 9.36619 | 133° | 120km/h | 9159m | 5.2m/s | -34.1°C | 0% | 0hPa | 5.2V | 00:00:00 | 00:00:00 | 00:00:00 | |
| DG1MJG | 2026-09-03 11:53:54 | 48.00292 | 9.36619 | 134° | 120km/h | 9159m | 5.2m/s | -34.1°C | 0% | 0hPa | 5.2V | 00:00:00 | 00:00:00 | 00:00:00 | |
| NBG1-10 | 2026-09-03 11:53:51 | 48.00353 | 9.36515 | 131° | 126km/h | 9132m | 4.9m/s | 0°C | 0% | 0hPa | 5.2V | 00:00:00 | 00:00:00 | 00:00:00 | |
| DO3MHA-12 | 2026-09-03 11:53:47 | 48.00439 | 9.36371 | 133° | 126km/h | 9107m | 6.5m/s | 0°C | 0% | 0hPa | 5.2V | 00:00:00 | 00:00:00 | 00:00:00 | |
| DK7TD | 2026-09-03 11:53:44 | 48.00523 | 9.36233 | 132° | 122km/h | 9092m | 3.3m/s | -33.5°C | 0% | 0hPa | 5.2V | 00:00:00 | 00:00:00 | 00:00:00 | |
| DO3MHA-12 | 2026-09-03 11:53:37 | 48.00657 | 9.36025 | 133° | 126km/h | 9049m | 5.8m/s | 0°C | 0% | 0hPa | 5.2V | 00:00:00 | 00:00:00 | 00:00:00 | |
| DK7TD | 2026-09-03 11:53:33 | 48.00761 | 9.35845 | 133° | 126km/h | 9027m | 4.7m/s | -32.9°C | 0% | 0hPa | 5.2V | 00:00:00 | 00:00:00 | 00:00:00 | |
| DB0NH | 2026-09-03 11:53:29 | 48.00827 | 9.35743 | 133° | 122km/h | 9004m | 3.5m/s | 0°C | 0% | 0hPa | 5.2V | 00:00:00 | 00:00:00 | 00:00:00 | |
| DB0UT-7 | 2026-09-03 11:53:28 | 48.00849 | 9.35708 | 133° | 124km/h | 8997m | 8.7m/s | 0°C | 0% | 0hPa | 5.2V | 00:00:00 | 00:00:00 | 00:00:00 | |
| DO3MHA-12 | 2026-09-03 11:53:27 | 48.00871 | 9.35672 | 134° | 126km/h | 8997m | 8.7m/s | 0°C | 0% | 0hPa | 5.2V | 00:00:00 | 00:00:00 | 00:00:00 | |
| DK7TD | 2026-09-03 11:53:23 | 48.00983 | 9.35495 | 131° | 128km/h | 8964m | 8m/s | -32.5°C | 0% | 0hPa | 5.2V | 00:00:00 | 00:00:00 | 00:00:00 | |
| NBG1-10 | 2026-09-03 11:53:18 | 48.01061 | 9.35353 | 134° | 122km/h | 8931m | 8.5m/s | 0°C | 0% | 0hPa | 5.2V | 00:00:00 | 00:00:00 | 00:00:00 | |
| DO3MHA-12 | 2026-09-03 11:53:17 | 48.01082 | 9.35319 | 134° | 122km/h | 8922m | 8.0m/s | 0°C | 0% | 0hPa | 5.2V | 00:00:00 | 00:00:00 | 00:00:00 | |
| DK7TD | 2026-09-03 11:53:12 | 48.01205 | 9.35113 | 129° | 122km/h | 8891m | 6.9m/s | -31.9°C | 0% | 0hPa | 5.2V | 00:00:00 | 00:00:00 | 00:00:00 | |
| DO3MHA-12 | 2026-09-03 11:53:07 | 48.01284 | 9.34970 | 130° | 120km/h | 8864m | 7.3m/s | 0°C | 0% | 0hPa | 5.2V | 00:00:00 | 00:00:00 | 00:00:00 | |
| DK7TD | 2026-09-03 11:53:01 | 48.01424 | 9.34729 | 128° | 122km/h | 8813m | 8.3m/s | -31.3°C | 0% | 0hPa | 5.2V | 00:00:00 | 00:00:00 | 00:00:00 | |
| DB0UT-7 | 2026-09-03 11:52:58 | 48.01463 | 9.34657 | 131° | 119km/h | 8790m | 7.7m/s | 0°C | 0% | 0hPa | 5.2V | 00:00:00 | 00:00:00 | 00:00:00 | |
| DK7TD | 2026-09-03 11:52:50 | 48.01645 | 9.34344 | 130° | 119km/h | 8731m | 8.8m/s | -30.5°C | 0% | 0hPa | 5.2V | 00:00:00 | 00:00:00 | 00:00:00 | |
| DO3MHA-12 | 2026-09-03 11:52:47 | 48.01683 | 9.34273 | 130° | 119km/h | 8707m | 7.4m/s | 0°C | 0% | 0hPa | 5.2V | 00:00:00 | 00:00:00 | 00:00:00 | |
| NBG1-10 | 2026-09-03 11:52:45 | 48.01721 | 9.34208 | 131° | 115km/h | 8692m | 7.6m/s | 0°C | 0% | 0hPa | 5.2V | 00:00:00 | 00:00:00 | 00:00:00 | |
| DK7TD | 2026-09-03 11:52:39 | 48.01858 | 9.33969 | 128° | 113km/h | 8645m | 7.2m/s | -29.8°C | 0% | 0hPa | 5.2V | 00:00:00 | 00:00:00 | 00:00:00 | |
| DO3MHA-12 | 2026-09-03 11:52:37 | 48.01875 | 9.33934 | 126° | 115km/h | 8631m | 8.5m/s | 0°C | 0% | 0hPa | 5.2V | 00:00:00 | 00:00:00 | 00:00:00 | |
| DK7TD | 2026-09-03 11:52:29 | 48.02039 | 9.33632 | 127° | 113km/h | 8569m | 8.6m/s | -29.2°C | 0% | 0hPa | 5.2V | 00:00:00 | 00:00:00 | 00:00:00 | |
| DB0UT-7 | 2026-09-03 11:52:28 | 48.02039 | 9.33632 | 127° | 111km/h | 8562m | 8.9m/s | 0°C | 0% | 0hPa | 5.2V | 00:00:00 | 00:00:00 | 00:00:00 | |
| DO3MHA-12 | 2026-09-03 11:52:27 | 48.02056 | 9.33597 | 128° | 111km/h | 8553m | 9.0m/s | 0°C | 0% | 0hPa | 5.2V | 00:00:00 | 00:00:00 | 00:00:00 | |
| DK7TD | 2026-09-03 11:52:18 | 48.02233 | 9.33271 | 130° | 104km/h | 8480m | 7.3m/s | -28.5°C | 0% | 0hPa | 5.2V | 00:00:00 | 00:00:00 | 00:00:00 | |
| DO3MHA-12 | 2026-09-03 11:52:17 | 48.02233 | 9.33271 | 131° | 111km/h | 8473m | 8.0m/s | 0°C | 0% | 0hPa | 5.2V | 00:00:00 | 00:00:00 | 00:00:00 | |
| NBG1-10 | 2026-09-03 11:52:12 | 48.02323 | 9.33107 | 127° | 113km/h | 8436m | 8.0m/s | 0°C | 0% | 0hPa | 5.2V | 00:00:00 | 00:00:00 | 00:00:00 | |
| DK7TD | 2026-09-03 11:52:07 | 48.02431 | 9.32914 | 132° | 110km/h | 8400m | 7.2m/s | -28°C | 0% | 0hPa | 5.2V | 00:00:00 | 00:00:00 | 00:00:00 | |
| DO3MHA-12 | 2026-09-03 11:52:07 | 48.02412 | 9.32946 | 132° | 113km/h | 8401m | 7.1m/s | 0°C | 0% | 0hPa | 5.2V | 00:00:00 | 00:00:00 | 00:00:00 | |
| DB0UT-7 | 2026-09-03 11:51:58 | 48.02575 | 9.32647 | 128° | 113km/h | 8331m | 8.3m/s | 0°C | 0% | 0hPa | 5.2V | 00:00:00 | 00:00:00 | 00:00:00 | |
| DO3MHA-12 | 2026-09-03 11:51:57 | 48.02592 | 9.32614 | 127° | 115km/h | 8323m | 7.5m/s | 0°C | 0% | 0hPa | 5.2V | 00:00:00 | 00:00:00 | 00:00:00 | |
| DK7TD | 2026-09-03 11:51:56 | 48.02628 | 9.32547 | 130° | 113km/h | 8315m | 7.2m/s | -27.4°C | 0% | 0hPa | 5.2V | 00:00:00 | 00:00:00 | 00:00:00 | |
| DO3MHA-12 | 2026-09-03 11:51:47 | 48.02771 | 9.32272 | 129° | 115km/h | 8244m | 9.1m/s | 0°C | 0% | 0hPa | 5.2V | 00:00:00 | 00:00:00 | 00:00:00 | |
| DK7TD | 2026-09-03 11:51:46 | 48.02805 | 9.32208 | 128° | 106km/h | 8235m | 8.2m/s | -26.9°C | 0% | 0hPa | 5.2V | 00:00:00 | 00:00:00 | 00:00:00 | |
| NBG1-10 | 2026-09-03 11:51:39 | 48.02915 | 9.32002 | 127° | 108km/h | 8187m | 8.7m/s | 0°C | 0% | 0hPa | 5.2V | 00:00:00 | 00:00:00 | 00:00:00 | |
| DO3MHA-12 | 2026-09-03 11:51:37 | 48.02949 | 9.31933 | 125° | 108km/h | 8180m | 7.5m/s | 0°C | 0% | 0hPa | 5.2V | 00:00:00 | 00:00:00 | 00:00:00 | |
| DK7TD | 2026-09-03 11:51:35 | 48.02998 | 9.31835 | 128° | 106km/h | 8155m | 7.5m/s | -26.5°C | 0% | 0hPa | 5.2V | 00:00:00 | 00:00:00 | 00:00:00 | |
| DB0NH | 2026-09-03 11:51:27 | 48.03112 | 9.31606 | 127° | 108km/h | 8093m | 8.2m/s | 0°C | 0% | 0hPa | 5.2V | 00:00:00 | 00:00:00 | 00:00:00 | |
| DO3MHA-12 | 2026-09-03 11:51:26 | 48.03127 | 9.31574 | 126° | 106km/h | 8093m | 8.2m/s | 0°C | 0% | 0hPa | 5.2V | 00:00:00 | 00:00:00 | 00:00:00 | |
| DK7TD | 2026-09-03 11:51:24 | 48.03157 | 9.31507 | 122° | 111km/h | 8078m | 5.2m/s | -26°C | 0% | 0hPa | 5.2V | 00:00:00 | 00:00:00 | 00:00:00 | |
| DO3MHA-12 | 2026-09-03 11:51:16 | 48.03282 | 9.31242 | 121° | 108km/h | 8003m | 7.8m/s | 0°C | 0% | 0hPa | 5.2V | 00:00:00 | 00:00:00 | 00:00:00 | |
| DK7TD | 2026-09-03 11:51:13 | 48.03343 | 9.31102 | 126° | 104km/h | 7989m | 7.7m/s | -25.4°C | 0% | 0hPa | 5.2V | 00:00:00 | 00:00:00 | 00:00:00 | |
| DO3MHA-12 | 2026-09-03 11:51:06 | 48.03443 | 9.30911 | 129° | 110km/h | 7933m | 8.4m/s | 0°C | 0% | 0hPa | 5.2V | 00:00:00 | 00:00:00 | 00:00:00 | |
| DK7TD | 2026-09-03 11:51:03 | 48.03513 | 9.30774 | 127° | 113km/h | 7910m | 8m/s | -24.9°C | 0% | 0hPa | 5.2V | 00:00:00 | 00:00:00 | 00:00:00 | |
| DB0UT-7 | 2026-09-03 11:50:58 | 48.03573 | 9.30638 | 125° | 108km/h | 7871m | 8.0m/s | 0°C | 0% | 0hPa | 5.2V | 00:00:00 | 00:00:00 | 00:00:00 | |
| DB0NH | 2026-09-03 11:50:57 | 48.03588 | 9.30606 | 125° | 110km/h | 7862m | 7.8m/s | 0°C | 0% | 0hPa | 5.2V | 00:00:00 | 00:00:00 | 00:00:00 | |
| DO3MHA-12 | 2026-09-03 11:50:56 | 48.03603 | 9.30573 | 127° | 110km/h | 7855m | 6.1m/s | 0°C | 0% | 0hPa | 5.2V | 00:00:00 | 00:00:00 | 00:00:00 | |
| DK7TD | 2026-09-03 11:50:52 | 48.03685 | 9.30407 | 123° | 110km/h | 7821m | 8.3m/s | -24.3°C | 0% | 0hPa | 5.2V | 00:00:00 | 00:00:00 | 00:00:00 | |
| DO3MHA-12 | 2026-09-03 11:50:46 | 48.03762 | 9.30233 | 124° | 111km/h | 7775m | 8.1m/s | 0°C | 0% | 0hPa | 5.2V | 00:00:00 | 00:00:00 | 00:00:00 | |
| DK7TD | 2026-09-03 11:50:41 | 48.03858 | 9.30028 | 126° | 104km/h | 7739m | 8.2m/s | -23.7°C | 0% | 0hPa | 5.2V | 00:00:00 | 00:00:00 | 00:00:00 | |
| DO3MHA-12 | 2026-09-03 11:50:36 | 48.03922 | 9.29890 | 124° | 106km/h | 7697m | 7.5m/s | 0°C | 0% | 0hPa | 5.2V | 00:00:00 | 00:00:00 | 00:00:00 | |
| NBG1-10 | 2026-09-03 11:50:33 | 48.03964 | 9.29785 | 123° | 104km/h | 7651m | 7.7m/s | 0°C | 0% | 0hPa | 5.2V | 00:00:00 | 00:00:00 | 00:00:00 | |
| DK7TD | 2026-09-03 11:50:30 | 48.04024 | 9.29659 | 130° | 108km/h | 7651m | 7.8m/s | -23.1°C | 0% | 0hPa | 5.2V | 00:00:00 | 00:00:00 | 00:00:00 | |
| DB0UT-7 | 2026-09-03 11:50:28 | 48.04041 | 9.29630 | 126° | 104km/h | 7635m | 7.8m/s | 0°C | 0% | 0hPa | 5.2V | 00:00:00 | 00:00:00 | 00:00:00 | |
| DB0NH | 2026-09-03 11:50:27 | 48.04058 | 9.29593 | 126° | 104km/h | 7628m | 7.0m/s | 0°C | 0% | 0hPa | 5.2V | 00:00:00 | 00:00:00 | 00:00:00 | |
| DO3MHA-12 | 2026-09-03 11:50:26 | 48.04075 | 9.29556 | 124° | 111km/h | 7620m | 8.9m/s | 0°C | 0% | 0hPa | 5.2V | 00:00:00 | 00:00:00 | 00:00:00 | |
| DK7TD | 2026-09-03 11:50:19 | 48.04196 | 9.29280 | 126° | 106km/h | 7569m | 6.8m/s | -23.5°C | 0% | 0hPa | 5.2V | 00:00:00 | 00:00:00 | 00:00:00 | |
| DO3MHA-12 | 2026-09-03 11:50:16 | 48.04228 | 9.29217 | 127° | 102km/h | 7539m | 7.5m/s | 0°C | 0% | 0hPa | 5.2V | 00:00:00 | 00:00:00 | 00:00:00 | |
| DK7TD | 2026-09-03 11:50:09 | 48.04347 | 9.28967 | 128° | 99km/h | 7490m | 8.9m/s | -23.2°C | 0% | 0hPa | 5.2V | 00:00:00 | 00:00:00 | 00:00:00 | |
| DO3MHA-12 | 2026-09-03 11:50:04 | 48.04407 | 9.28840 | 125° | 100km/h | 7450m | 7.5m/s | 0°C | 0% | 0hPa | 5.2V | 00:00:00 | 00:00:00 | 00:00:00 | |
| DK7TD | 2026-09-03 11:49:58 | 48.04507 | 9.28622 | 125° | 100km/h | 7402m | 9.1m/s | -22.6°C | 0% | 0hPa | 5.2V | 00:00:00 | 00:00:00 | 00:00:00 | |
| DB0UT-7 | 2026-09-03 11:49:58 | 48.04493 | 9.28652 | 125° | 95km/h | 7402m | 9.0m/s | 0°C | 0% | 0hPa | 5.2V | 00:00:00 | 00:00:00 | 00:00:00 | |
| DB0NH | 2026-09-03 11:49:57 | 48.04507 | 9.28622 | 125° | 95km/h | 7393m | 8.4m/s | 0°C | 0% | 0hPa | 5.2V | 00:00:00 | 00:00:00 | 00:00:00 | |
| DO3MHA-12 | 2026-09-03 11:49:54 | 48.04550 | 9.28532 | 124° | 93km/h | 7355m | 8.3m/s | 0°C | 0% | 0hPa | 5.2V | 00:00:00 | 00:00:00 | 00:00:00 | |
| DK7TD | 2026-09-03 11:49:47 | 48.04656 | 9.28291 | 123° | 88km/h | 7313m | 8.3m/s | -22.3°C | 0% | 0hPa | 5.2V | 00:00:00 | 00:00:00 | 00:00:00 | |
| DO3MHA-12 | 2026-09-03 11:49:44 | 48.04682 | 9.28235 | 128° | 95km/h | 7288m | 7.8m/s | 0°C | 0% | 0hPa | 5.2V | 00:00:00 | 00:00:00 | 00:00:00 | |
| DK7TD | 2026-09-03 11:49:36 | 48.04806 | 9.27967 | 125° | 89km/h | 7223m | 8m/s | -21.6°C | 0% | 0hPa | 5.2V | 00:00:00 | 00:00:00 | 00:00:00 | |
| DO3MHA-12 | 2026-09-03 11:49:34 | 48.04819 | 9.27938 | 125° | 95km/h | 7206m | 6.9m/s | 0°C | 0% | 0hPa | 5.2V | 00:00:00 | 00:00:00 | 00:00:00 | |
| DB0UT-7 | 2026-09-03 11:49:28 | 48.04901 | 9.27763 | 127° | 91km/h | 7159m | 8.0m/s | 0°C | 0% | 0hPa | 5.2V | 00:00:00 | 00:00:00 | 00:00:00 | |
| DK7TD | 2026-09-03 11:49:26 | 48.04943 | 9.27678 | 127° | 95km/h | 7143m | 7.7m/s | -21°C | 0% | 0hPa | 5.2V | 00:00:00 | 00:00:00 | 00:00:00 | |
| NBG1-10 | 2026-09-03 11:49:25 | 48.04943 | 9.27678 | 128° | 91km/h | 7135m | 8.8m/s | 0°C | 0% | 0hPa | 5.2V | 00:00:00 | 00:00:00 | 00:00:00 | |
| DO3MHA-12 | 2026-09-03 11:49:24 | 48.04958 | 9.27650 | 128° | 95km/h | 7127m | 7.5m/s | 0°C | 0% | 0hPa | 5.2V | 00:00:00 | 00:00:00 | 00:00:00 | |
| DK7TD | 2026-09-03 11:49:15 | 48.05103 | 9.27369 | 128° | 89km/h | 7053m | 8.1m/s | -20.4°C | 0% | 0hPa | 5.2V | 00:00:00 | 00:00:00 | 00:00:00 | |
| DO3MHA-12 | 2026-09-03 11:49:14 | 48.05103 | 9.27369 | 128° | 88km/h | 7045m | 7.0m/s | 0°C | 0% | 0hPa | 5.2V | 00:00:00 | 00:00:00 | 00:00:00 | |
| DK7TD | 2026-09-03 11:49:04 | 48.05250 | 9.27075 | 131° | 93km/h | 6967m | 6.5m/s | -19.6°C | 0% | 0hPa | 5.2V | 00:00:00 | 00:00:00 | 00:00:00 | |
| DO3MHA-12 | 2026-09-03 11:49:04 | 48.05234 | 9.27103 | 131° | 91km/h | 6967m | 6.5m/s | 0°C | 0% | 0hPa | 5.2V | 00:00:00 | 00:00:00 | 00:00:00 | |
| DB0UT-7 | 2026-09-03 11:48:58 | 48.05314 | 9.26933 | 125° | 88km/h | 6928m | 7.5m/s | 0°C | 0% | 0hPa | 5.2V | 00:00:00 | 00:00:00 | 00:00:00 | |
| DB0NH | 2026-09-03 11:48:56 | 48.05342 | 9.26878 | 131° | 88km/h | 6919m | 8.1m/s | 0°C | 0% | 0hPa | 5.2V | 00:00:00 | 00:00:00 | 00:00:00 | |
| DO3MHA-12 | 2026-09-03 11:48:54 | 48.05372 | 9.26825 | 129° | 88km/h | 6905m | 9.5m/s | 0°C | 0% | 0hPa | 5.2V | 00:00:00 | 00:00:00 | 00:00:00 | |
| DK7TD | 2026-09-03 11:48:53 | 48.05398 | 9.26775 | 127° | 84km/h | 6897m | 5.3m/s | -18.9°C | 0% | 0hPa | 5.2V | 00:00:00 | 00:00:00 | 00:00:00 | |
| NBG1-10 | 2026-09-03 11:48:52 | 48.05398 | 9.26775 | 127° | 88km/h | 6891m | 7.5m/s | 0°C | 0% | 0hPa | 5.2V | 00:00:00 | 00:00:00 | 00:00:00 | |
| DO3MHA-12 | 2026-09-03 11:48:44 | 48.05504 | 9.26560 | 129° | 88km/h | 6845m | 7.4m/s | 0°C | 0% | 0hPa | 5.2V | 00:00:00 | 00:00:00 | 00:00:00 | |
| DK7TD | 2026-09-03 11:48:43 | 48.05531 | 9.26510 | 130° | 80km/h | 6838m | 7.5m/s | -18.4°C | 0% | 0hPa | 5.2V | 00:00:00 | 00:00:00 | 00:00:00 | |
| DO3MHA-12 | 2026-09-03 11:48:34 | 48.05640 | 9.26301 | 126° | 88km/h | 6784m | 4.2m/s | 0°C | 0% | 0hPa | 5.3V | 00:00:00 | 00:00:00 | 00:00:00 | |
| DK7TD | 2026-09-03 11:48:32 | 48.05679 | 9.26220 | 125° | 88km/h | 6774m | 5m/s | -17.8°C | 0% | 0hPa | 5.3V | 00:00:00 | 00:00:00 | 00:00:00 | |
| DB0UT-7 | 2026-09-03 11:48:28 | 48.05719 | 9.26138 | 128° | 84km/h | 6753m | 4.8m/s | 0°C | 0% | 0hPa | 5.3V | 00:00:00 | 00:00:00 | 00:00:00 | |
| DO3MHA-12 | 2026-09-03 11:48:24 | 48.05774 | 9.26037 | 129° | 86km/h | 6729m | 4.7m/s | 0°C | 0% | 0hPa | 5.3V | 00:00:00 | 00:00:00 | 00:00:00 | |
| DK7TD | 2026-09-03 11:48:22 | 48.05810 | 9.25960 | 120° | 80km/h | 6718m | 3.3m/s | -17.2°C | 0% | 0hPa | 5.3V | 00:00:00 | 00:00:00 | 00:00:00 | |
| NBG1-10 | 2026-09-03 11:48:19 | 48.05832 | 9.25906 | 126° | 86km/h | 6702m | 8.3m/s | 0°C | 0% | 0hPa | 5.3V | 00:00:00 | 00:00:00 | 00:00:00 | |
| DO3MHA-12 | 2026-09-03 11:48:14 | 48.05901 | 9.25777 | 130° | 82km/h | 6670m | 7.9m/s | 0°C | 0% | 0hPa | 5.3V | 00:00:00 | 00:00:00 | 00:00:00 | |
| DK7TD | 2026-09-03 11:48:08 | 48.05992 | 9.25609 | 132° | 86km/h | 6635m | 3.6m/s | -16.5°C | 0% | 0hPa | 5.3V | 00:00:00 | 00:00:00 | 00:00:00 | |
| DO3MHA-12 | 2026-09-03 11:48:04 | 48.06033 | 9.25535 | 128° | 84km/h | 6610m | 7.0m/s | 0°C | 0% | 0hPa | 5.3V | 00:00:00 | 00:00:00 | 00:00:00 | |
| HARRO8 | 2026-09-03 11:48:03 | 48.06074 | 9.25458 | 130° | 82km/h | 6597m | 7.0m/s | -16.2°C | -1.0% | -1.0hPa | 5.3V | 00:00:00 | 00:00:00 | 00:00:00 | |
| DF7PN | 2026-09-03 11:48:02 | 48.06074 | 9.25458 | 130° | 82km/h | 6597m | 7.0m/s | -16.2°C | -1.0% | -1.0hPa | 5.3V | 00:00:00 | 00:00:00 | 00:00:00 | |
| DB0UT-7 | 2026-09-03 11:47:58 | 48.06114 | 9.25388 | 132° | 88km/h | 6575m | 7.8m/s | 0°C | 0% | 0hPa | 5.3V | 00:00:00 | 00:00:00 | 00:00:00 | |
| DK7TD | 2026-09-03 11:47:57 | 48.06140 | 9.25338 | 124° | 88km/h | 6569m | 5.5m/s | -16°C | 0% | 0hPa | 5.3V | 00:00:00 | 00:00:00 | 00:00:00 | |
| DO3MHA-12 | 2026-09-03 11:47:54 | 48.06164 | 9.25280 | 124° | 88km/h | 6550m | 6.2m/s | 0°C | 0% | 0hPa | 5.3V | 00:00:00 | 00:00:00 | 00:00:00 | |
| DK7TD | 2026-09-03 11:47:47 | 48.06267 | 9.25067 | 131° | 86km/h | 6502m | 6.2m/s | -15.5°C | 0% | 0hPa | 5.3V | 00:00:00 | 00:00:00 | 00:00:00 | |
| NBG1-10 | 2026-09-03 11:47:46 | 48.06267 | 9.25067 | 131° | 88km/h | 6497m | 3.9m/s | 0°C | 0% | 0hPa | 5.3V | 00:00:00 | 00:00:00 | 00:00:00 | |
| DO3MHA-12 | 2026-09-03 11:47:44 | 48.06295 | 9.25017 | 125° | 84km/h | 6485m | 5.2m/s | 0°C | 0% | 0hPa | 5.3V | 00:00:00 | 00:00:00 | 00:00:00 | |
| DK7TD | 2026-09-03 11:47:36 | 48.06405 | 9.24785 | 128° | 86km/h | 6438m | 6.5m/s | -15.2°C | 0% | 0hPa | 5.3V | 00:00:00 | 00:00:00 | 00:00:00 | |
| DO3MHA-12 | 2026-09-03 11:47:34 | 48.06419 | 9.24759 | 127° | 88km/h | 6424m | 6.6m/s | 0°C | 0% | 0hPa | 5.3V | 00:00:00 | 00:00:00 | 00:00:00 | |
| DB0UT-7 | 2026-09-03 11:47:28 | 48.06500 | 9.24589 | 125° | 89km/h | 6386m | 5.4m/s | 0°C | 0% | 0hPa | 5.3V | 00:00:00 | 00:00:00 | 00:00:00 | |
| DK7TD | 2026-09-03 11:47:25 | 48.06546 | 9.24487 | 125° | 84km/h | 6372m | 5.5m/s | -14.8°C | 0% | 0hPa | 5.3V | 00:00:00 | 00:00:00 | 00:00:00 | |
| DO3MHA-12 | 2026-09-03 11:47:24 | 48.06546 | 9.24487 | 125° | 95km/h | 6367m | 6.0m/s | 0°C | 0% | 0hPa | 5.3V | 00:00:00 | 00:00:00 | 00:00:00 | |
| DK7TD | 2026-09-03 11:47:14 | 48.06701 | 9.24173 | 129° | 89km/h | 6304m | 3.4m/s | -14.6°C | 0% | 0hPa | 5.3V | 00:00:00 | 00:00:00 | 00:00:00 | |
| DO3MHA-12 | 2026-09-03 11:47:14 | 48.06686 | 9.24199 | 129° | 91km/h | 6304m | 3.3m/s | 0°C | 0% | 0hPa | 5.3V | 00:00:00 | 00:00:00 | 00:00:00 | |
| NBG1-10 | 2026-09-03 11:47:13 | 48.06701 | 9.24173 | 129° | 86km/h | 6294m | 8.9m/s | 0°C | 0% | 0hPa | 5.3V | 00:00:00 | 00:00:00 | 00:00:00 | |
| DO3MHA-12 | 2026-09-03 11:47:04 | 48.06834 | 9.23930 | 131° | 86km/h | 6244m | 3.6m/s | 0°C | 0% | 0hPa | 5.3V | 00:00:00 | 00:00:00 | 00:00:00 | |
| DK7TD | 2026-09-03 11:47:03 | 48.06864 | 9.23876 | 130° | 88km/h | 6239m | 7.1m/s | -14.5°C | 0% | 0hPa | 5.3V | 00:00:00 | 00:00:00 | 00:00:00 | |
| DB0UT-7 | 2026-09-03 11:46:58 | 48.06916 | 9.23777 | 125° | 80km/h | 6208m | 4.6m/s | 0°C | 0% | 0hPa | 5.3V | 00:00:00 | 00:00:00 | 00:00:00 | |
| DO3MHA-12 | 2026-09-03 11:46:54 | 48.06971 | 9.23677 | 134° | 78km/h | 6183m | 3.0m/s | 0°C | 0% | 0hPa | 5.3V | 00:00:00 | 00:00:00 | 00:00:00 | |
| DK7TD | 2026-09-03 11:46:53 | 48.07001 | 9.23626 | 130° | 88km/h | 6178m | 6.8m/s | -14.4°C | 0% | 0hPa | 5.3V | 00:00:00 | 00:00:00 | 00:00:00 | |
| DO3MHA-12 | 2026-09-03 11:46:43 | 48.07109 | 9.23421 | 127° | 78km/h | 6111m | 6.5m/s | 0°C | 0% | 0hPa | 5.3V | 00:00:00 | 00:00:00 | 00:00:00 | |
| DK7TD | 2026-09-03 11:46:42 | 48.07133 | 9.23372 | 125° | 80km/h | 6105m | 5.7m/s | -14.2°C | 0% | 0hPa | 5.3V | 00:00:00 | 00:00:00 | 00:00:00 | |
| NBG1-10 | 2026-09-03 11:46:40 | 48.07144 | 9.23347 | 127° | 80km/h | 6093m | 4.4m/s | 0°C | 0% | 0hPa | 5.3V | 00:00:00 | 00:00:00 | 00:00:00 | |
| DO3MHA-12 | 2026-09-03 11:46:33 | 48.07223 | 9.23178 | 123° | 82km/h | 6054m | 2.7m/s | 0°C | 0% | 0hPa | 5.3V | 00:00:00 | 00:00:00 | 00:00:00 | |
| DK7TD | 2026-09-03 11:46:31 | 48.07257 | 9.23099 | 121° | 80km/h | 6044m | 3.5m/s | -13.9°C | 0% | 0hPa | 5.3V | 00:00:00 | 00:00:00 | 00:00:00 | |
| DB0UT-7 | 2026-09-03 11:46:28 | 48.07276 | 9.23046 | 118° | 80km/h | 6030m | 6.2m/s | 0°C | 0% | 0hPa | 5.3V | 00:00:00 | 00:00:00 | 00:00:00 | |
| DO3MHA-12 | 2026-09-03 11:46:23 | 48.07333 | 9.22918 | 129° | 78km/h | 6004m | 6.1m/s | 0°C | 0% | 0hPa | 5.3V | 00:00:00 | 00:00:00 | 00:00:00 | |
| DK7TD | 2026-09-03 11:46:20 | 48.07380 | 9.22823 | 123° | 75km/h | 5987m | 6.4m/s | -13.7°C | 0% | 0hPa | 5.3V | 00:00:00 | 00:00:00 | 00:00:00 | |
| DO3MHA-12 | 2026-09-03 11:46:13 | 48.07444 | 9.22672 | 123° | 80km/h | 5943m | 4.1m/s | 0°C | 0% | 0hPa | 5.3V | 00:00:00 | 00:00:00 | 00:00:00 | |
| DK7TD | 2026-09-03 11:46:10 | 48.07487 | 9.22568 | 124° | 82km/h | 5927m | 5m/s | -13.2°C | 0% | 0hPa | 5.3V | 00:00:00 | 00:00:00 | 00:00:00 | |
| NBG1-10 | 2026-09-03 11:46:07 | 48.07509 | 9.22517 | 127° | 78km/h | 5912m | 6.1m/s | 0°C | 0% | 0hPa | 5.3V | 00:00:00 | 00:00:00 | 00:00:00 | |
| DO3MHA-12 | 2026-09-03 11:46:03 | 48.07556 | 9.22413 | 120° | 77km/h | 5888m | 7.6m/s | 0°C | 0% | 0hPa | 5.3V | 00:00:00 | 00:00:00 | 00:00:00 | |
| DK7TD | 2026-09-03 11:45:59 | 48.07604 | 9.22287 | 124° | 77km/h | 5864m | 4.3m/s | -12.6°C | 0% | 0hPa | 5.3V | 00:00:00 | 00:00:00 | 00:00:00 | |
| DB0UT-7 | 2026-09-03 11:45:58 | 48.07604 | 9.22287 | 125° | 77km/h | 5859m | 7.0m/s | 0°C | 0% | 0hPa | 5.3V | 00:00:00 | 00:00:00 | 00:00:00 | |
| DO3MHA-12 | 2026-09-03 11:45:53 | 48.07660 | 9.22171 | 122° | 80km/h | 5829m | 7.6m/s | 0°C | 0% | 0hPa | 5.3V | 00:00:00 | 00:00:00 | 00:00:00 | |
| DK7TD | 2026-09-03 11:45:48 | 48.07727 | 9.22016 | 128° | 82km/h | 5801m | 5.9m/s | -12.1°C | 0% | 0hPa | 5.3V | 00:00:00 | 00:00:00 | 00:00:00 | |
| DO3MHA-12 | 2026-09-03 11:45:43 | 48.07774 | 9.21918 | 123° | 77km/h | 5770m | 6.9m/s | 0°C | 0% | 0hPa | 5.3V | 00:00:00 | 00:00:00 | 00:00:00 | |
| DK7TD | 2026-09-03 11:45:37 | 48.07846 | 9.21743 | 123° | 69km/h | 5738m | 5.2m/s | -11.6°C | 0% | 0hPa | 5.3V | 00:00:00 | 00:00:00 | 00:00:00 | |
| NBG1-10 | 2026-09-03 11:45:34 | 48.07865 | 9.21697 | 124° | 75km/h | 5716m | 6.2m/s | 0°C | 0% | 0hPa | 5.3V | 00:00:00 | 00:00:00 | 00:00:00 | |
| DO3MHA-12 | 2026-09-03 11:45:33 | 48.07875 | 9.21673 | 123° | 77km/h | 5716m | 6.2m/s | 0°C | 0% | 0hPa | 5.3V | 00:00:00 | 00:00:00 | 00:00:00 | |
| DB0UT-7 | 2026-09-03 11:45:28 | 48.07929 | 9.21554 | 124° | 75km/h | 5691m | 3.1m/s | 0°C | 0% | 0hPa | 5.3V | 00:00:00 | 00:00:00 | 00:00:00 | |
| DK7TD | 2026-09-03 11:45:24 | 48.07983 | 9.21434 | 121° | 75km/h | 5670m | 6.9m/s | -11.2°C | 0% | 0hPa | 5.3V | 00:00:00 | 00:00:00 | 00:00:00 | |
| DO3MHA-12 | 2026-09-03 11:45:23 | 48.07983 | 9.21434 | 122° | 69km/h | 5664m | 5.8m/s | 0°C | 0% | 0hPa | 5.3V | 00:00:00 | 00:00:00 | 00:00:00 | |
| DK7TD | 2026-09-03 11:45:14 | 48.08079 | 9.21211 | 126° | 73km/h | 5608m | 6.2m/s | -10.9°C | 0% | 0hPa | 5.3V | 00:00:00 | 00:00:00 | 00:00:00 | |
| DO3MHA-12 | 2026-09-03 11:45:13 | 48.08079 | 9.21211 | 127° | 77km/h | 5603m | 2.7m/s | 0°C | 0% | 0hPa | 5.3V | 00:00:00 | 00:00:00 | 00:00:00 | |
| DK7TD | 2026-09-03 11:45:03 | 48.08202 | 9.20953 | 126° | 73km/h | 5555m | 5.3m/s | -10.6°C | 0% | 0hPa | 5.3V | 00:00:00 | 00:00:00 | 00:00:00 | |
| NBG1-10 | 2026-09-03 11:45:01 | 48.08213 | 9.20931 | 127° | 75km/h | 5542m | 3.4m/s | 0°C | 0% | 0hPa | 5.3V | 00:00:00 | 00:00:00 | 00:00:00 | |
| DB0UT-7 | 2026-09-03 11:44:58 | 48.08249 | 9.20863 | 127° | 75km/h | 5531m | 4.1m/s | 0°C | 0% | 0hPa | 5.3V | 00:00:00 | 00:00:00 | 00:00:00 | |
| DO3MHA-12 | 2026-09-03 11:44:53 | 48.08303 | 9.20749 | 124° | 73km/h | 5504m | 6.3m/s | 0°C | 0% | 0hPa | 5.3V | 00:00:00 | 00:00:00 | 00:00:00 | |
| DK7TD | 2026-09-03 11:44:51 | 48.08337 | 9.20683 | 128° | 73km/h | 5492m | 7.2m/s | -10.1°C | 0% | 0hPa | 5.3V | 00:00:00 | 00:00:00 | 00:00:00 | |
| DO3MHA-12 | 2026-09-03 11:44:43 | 48.08406 | 9.20521 | 122° | 77km/h | 5451m | 5.5m/s | 0°C | 0% | 0hPa | 5.3V | 00:00:00 | 00:00:00 | 00:00:00 | |
| DK7TD | 2026-09-03 11:44:40 | 48.08448 | 9.20419 | 123° | 82km/h | 5435m | 6.7m/s | -9.5°C | 0% | 0hPa | 5.3V | 00:00:00 | 00:00:00 | 00:00:00 | |
| DO3MHA-12 | 2026-09-03 11:44:33 | 48.08509 | 9.20276 | 120° | 75km/h | 5398m | 5.8m/s | 0°C | 0% | 0hPa | 5.3V | 00:00:00 | 00:00:00 | 00:00:00 | |
| NBG1-10 | 2026-09-03 11:44:28 | 48.08558 | 9.20150 | 120° | 75km/h | 5371m | 4.4m/s | 0°C | 0% | 0hPa | 5.3V | 00:00:00 | 00:00:00 | 00:00:00 | |
| DK7TD | 2026-09-03 11:44:24 | 48.08606 | 9.20035 | 127° | 73km/h | 5350m | 3m/s | -8.8°C | 0% | 0hPa | 5.3V | 00:00:00 | 00:00:00 | 00:00:00 | |
| DO3MHA-12 | 2026-09-03 11:44:23 | 48.08606 | 9.20035 | 127° | 73km/h | 5345m | 6.0m/s | 0°C | 0% | 0hPa | 5.3V | 00:00:00 | 00:00:00 | 00:00:00 | |
| DK7TD | 2026-09-03 11:44:13 | 48.08719 | 9.19786 | 125° | 78km/h | 5294m | 4.3m/s | -8.3°C | 0% | 0hPa | 5.3V | 00:00:00 | 00:00:00 | 00:00:00 | |
| DO3MHA-12 | 2026-09-03 11:44:13 | 48.08709 | 9.19810 | 125° | 77km/h | 5294m | 4.3m/s | 0°C | 0% | 0hPa | 5.3V | 00:00:00 | 00:00:00 | 00:00:00 | |
| DK7TD | 2026-09-03 11:44:03 | 48.08827 | 9.19547 | 122° | 73km/h | 5248m | 1.6m/s | -7.9°C | 0% | 0hPa | 5.3V | 00:00:00 | 00:00:00 | 00:00:00 | |
| DB0UT-7 | 2026-09-03 11:43:58 | 48.08870 | 9.19453 | 125° | 77km/h | 5226m | 7.5m/s | 0°C | 0% | 0hPa | 5.3V | 00:00:00 | 00:00:00 | 00:00:00 | |
| NBG1-10 | 2026-09-03 11:43:55 | 48.08903 | 9.19378 | 124° | 77km/h | 5210m | 4.5m/s | 0°C | 0% | 0hPa | 5.3V | 00:00:00 | 00:00:00 | 00:00:00 | |
| DO3MHA-12 | 2026-09-03 11:43:53 | 48.08925 | 9.19332 | 129° | 78km/h | 5201m | 5.1m/s | 0°C | 0% | 0hPa | 5.3V | 00:00:00 | 00:00:00 | 00:00:00 | |
| DK7TD | 2026-09-03 11:43:52 | 48.08949 | 9.19286 | 125° | 80km/h | 5196m | 4.8m/s | -7.6°C | 0% | 0hPa | 5.3V | 00:00:00 | 00:00:00 | 00:00:00 | |
| DO3MHA-12 | 2026-09-03 11:43:42 | 48.09056 | 9.19070 | 129° | 77km/h | 5144m | 2.7m/s | 0°C | 0% | 0hPa | 5.3V | 00:00:00 | 00:00:00 | 00:00:00 | |
| DK7TD | 2026-09-03 11:43:35 | 48.09141 | 9.18867 | 125° | 75km/h | 5108m | 5.5m/s | -7°C | 0% | 0hPa | 5.3V | 00:00:00 | 00:00:00 | 00:00:00 | |
| DO3MHA-12 | 2026-09-03 11:43:32 | 48.09162 | 9.18823 | 128° | 77km/h | 5093m | 6.5m/s | 0°C | 0% | 0hPa | 5.3V | 00:00:00 | 00:00:00 | 00:00:00 | |
| DO3MHA-12 | 2026-09-03 11:43:22 | 48.09272 | 9.18582 | 123° | 75km/h | 5044m | 6.5m/s | 0°C | 0% | 0hPa | 5.3V | 00:00:00 | 00:00:00 | 00:00:00 | |
| DK7TD | 2026-09-03 11:43:18 | 48.09324 | 9.18465 | 124° | 82km/h | 5022m | 4.2m/s | -6.5°C | 0% | 0hPa | 5.3V | 00:00:00 | 00:00:00 | 00:00:00 | |
| NBG1-10 | 2026-09-03 11:43:17 | 48.09324 | 9.18465 | 124° | 73km/h | 5017m | 7.2m/s | 0°C | 0% | 0hPa | 5.3V | 00:00:00 | 00:00:00 | 00:00:00 | |
| DO3MHA-12 | 2026-09-03 11:43:12 | 48.09375 | 9.18341 | 123° | 73km/h | 4989m | 2.7m/s | 0°C | 0% | 0hPa | 5.3V | 00:00:00 | 00:00:00 | 00:00:00 | |
| DB0UT-7 | 2026-09-03 11:43:11 | 48.09386 | 9.18316 | 125° | 71km/h | 4985m | 6.0m/s | 0°C | 0% | 0hPa | 5.3V | 00:00:00 | 00:00:00 | 00:00:00 | |
| DO3MHA-12 | 2026-09-03 11:43:02 | 48.09477 | 9.18110 | 119° | 73km/h | 4940m | 4.6m/s | 0°C | 0% | 0hPa | 5.3V | 00:00:00 | 00:00:00 | 00:00:00 | |
| DO3MHA-12 | 2026-09-03 11:42:52 | 48.09562 | 9.17862 | 118° | 69km/h | 4892m | 7.0m/s | 0°C | 0% | 0hPa | 5.3V | 00:00:00 | 00:00:00 | 00:00:00 | |
| DK7TD | 2026-09-03 11:42:44 | 48.09641 | 9.17658 | 118° | 66km/h | 4853m | 4.8m/s | -5.3°C | 0% | 0hPa | 5.3V | 00:00:00 | 00:00:00 | 00:00:00 | |
| NBG1-10 | 2026-09-03 11:42:44 | 48.09633 | 9.17680 | 118° | 71km/h | 4853m | 4.8m/s | 0°C | 0% | 0hPa | 5.3V | 00:00:00 | 00:00:00 | 00:00:00 | |
| DO3MHA-12 | 2026-09-03 11:42:42 | 48.09649 | 9.17636 | 122° | 71km/h | 4844m | 2.7m/s | 0°C | 0% | 0hPa | 5.3V | 00:00:00 | 00:00:00 | 00:00:00 | |
| DB0UT-7 | 2026-09-03 11:42:41 | 48.09658 | 9.17615 | 125° | 71km/h | 4840m | 7.4m/s | 0°C | 0% | 0hPa | 5.3V | 00:00:00 | 00:00:00 | 00:00:00 | |
| DK7TD | 2026-09-03 11:42:34 | 48.09731 | 9.17428 | 121° | 66km/h | 4808m | 5.3m/s | -5°C | 0% | 0hPa | 5.3V | 00:00:00 | 00:00:00 | 00:00:00 | |
| DO3MHA-12 | 2026-09-03 11:42:32 | 48.09740 | 9.17407 | 124° | 73km/h | 4798m | 5.6m/s | 0°C | 0% | 0hPa | 5.3V | 00:00:00 | 00:00:00 | 00:00:00 | |
| DO3MHA-12 | 2026-09-03 11:42:22 | 48.09836 | 9.17174 | 121° | 71km/h | 4745m | 5.6m/s | 0°C | 0% | 0hPa | 5.3V | 00:00:00 | 00:00:00 | 00:00:00 | |
| DK7TD | 2026-09-03 11:42:15 | 48.09906 | 9.16986 | 119° | 69km/h | 4706m | 4.8m/s | -4.6°C | 0% | 0hPa | 5.3V | 00:00:00 | 00:00:00 | 00:00:00 | |
| DO3MHA-12 | 2026-09-03 11:42:12 | 48.09925 | 9.16941 | 127° | 71km/h | 4691m | 2.5m/s | 0°C | 0% | 0hPa | 5.3V | 00:00:00 | 00:00:00 | 00:00:00 | |
| NBG1-10 | 2026-09-03 11:42:11 | 48.09936 | 9.16920 | 129° | 69km/h | 4687m | 6.5m/s | 0°C | 0% | 0hPa | 5.3V | 00:00:00 | 00:00:00 | 00:00:00 | |
| DK7TD | 2026-09-03 11:42:04 | 48.10021 | 9.16745 | 129° | 69km/h | 4654m | 8.5m/s | -4.1°C | 0% | 0hPa | 5.3V | 00:00:00 | 00:00:00 | 00:00:00 | |
| DO3MHA-12 | 2026-09-03 11:42:02 | 48.10033 | 9.16727 | 132° | 69km/h | 4641m | 7.4m/s | 0°C | 0% | 0hPa | 5.3V | 00:00:00 | 00:00:00 | 00:00:00 | |
| DO3MHA-12 | 2026-09-03 11:41:52 | 48.10138 | 9.16518 | 131° | 68km/h | 4588m | 1.0m/s | 0°C | 0% | 0hPa | 5.3V | 00:00:00 | 00:00:00 | 00:00:00 | |
| DK7TD | 2026-09-03 11:41:45 | 48.10220 | 9.16349 | 124° | 64km/h | 4552m | 5.4m/s | -3.2°C | 0% | 0hPa | 5.3V | 00:00:00 | 00:00:00 | 00:00:00 | |
| DO3MHA-12 | 2026-09-03 11:41:42 | 48.10240 | 9.16309 | 128° | 69km/h | 4534m | 5.6m/s | 0°C | 0% | 0hPa | 5.3V | 00:00:00 | 00:00:00 | 00:00:00 | |
| DB0UT-7 | 2026-09-03 11:41:41 | 48.10251 | 9.16289 | 131° | 69km/h | 4529m | 4.2m/s | 0°C | 0% | 0hPa | 5.3V | 00:00:00 | 00:00:00 | 00:00:00 | |
| NBG1-10 | 2026-09-03 11:41:38 | 48.10284 | 9.16231 | 130° | 68km/h | 4519m | 2.7m/s | 0°C | 0% | 0hPa | 5.3V | 00:00:00 | 00:00:00 | 00:00:00 | |
| DK7TD | 2026-09-03 11:41:34 | 48.10339 | 9.16128 | 126° | 71km/h | 4492m | 6m/s | -2.7°C | 0% | 0hPa | 5.3V | 00:00:00 | 00:00:00 | 00:00:00 | |
| DO3MHA-12 | 2026-09-03 11:41:32 | 48.10349 | 9.16107 | 127° | 68km/h | 4482m | 5.1m/s | 0°C | 0% | 0hPa | 5.3V | 00:00:00 | 00:00:00 | 00:00:00 | |
| DK7TD | 2026-09-03 11:41:23 | 48.10460 | 9.15911 | 135° | 73km/h | 4438m | 4.8m/s | -2.3°C | 0% | 0hPa | 5.3V | 00:00:00 | 00:00:00 | 00:00:00 | |
| DO3MHA-12 | 2026-09-03 11:41:22 | 48.10460 | 9.15911 | 136° | 69km/h | 4433m | 5.4m/s | 0°C | 0% | 0hPa | 5.3V | 00:00:00 | 00:00:00 | 00:00:00 | |
| DK7TD | 2026-09-03 11:41:12 | 48.10583 | 9.15691 | 129° | 68km/h | 4384m | 5.8m/s | -1.7°C | 0% | 0hPa | 5.3V | 00:00:00 | 00:00:00 | 00:00:00 | |
| DO3MHA-12 | 2026-09-03 11:41:12 | 48.10571 | 9.15711 | 130° | 68km/h | 4384m | 5.8m/s | 0°C | 0% | 0hPa | 5.3V | 00:00:00 | 00:00:00 | 00:00:00 | |
| DB0UT-7 | 2026-09-03 11:41:11 | 48.10583 | 9.15691 | 130° | 69km/h | 4380m | 4.2m/s | 0°C | 0% | 0hPa | 5.3V | 00:00:00 | 00:00:00 | 00:00:00 | |
| DO3MHA-12 | 2026-09-03 11:41:02 | 48.10682 | 9.15515 | 132° | 69km/h | 4329m | 5.7m/s | 0°C | 0% | 0hPa | 5.3V | 00:00:00 | 00:00:00 | 00:00:00 | |
| NBG1-10 | 2026-09-03 11:41:01 | 48.10693 | 9.15496 | 131° | 68km/h | 4324m | 3.9m/s | 0°C | 0% | 0hPa | 5.3V | 00:00:00 | 00:00:00 | 00:00:00 | |
| DK7TD | 2026-09-03 11:41:00 | 48.10714 | 9.15457 | 125° | 68km/h | 4319m | 5.4m/s | -1.3°C | 0% | 0hPa | 5.3V | 00:00:00 | 00:00:00 | 00:00:00 | |
| DO3MHA-12 | 2026-09-03 11:40:52 | 48.10789 | 9.15308 | 128° | 71km/h | 4275m | 5.2m/s | 0°C | 0% | 0hPa | 5.3V | 00:00:00 | 00:00:00 | 00:00:00 | |
| DK7TD | 2026-09-03 11:40:45 | 48.10880 | 9.15147 | 129° | 75km/h | 4235m | 5.2m/s | -0.6°C | 0% | 0hPa | 5.3V | 00:00:00 | 00:00:00 | 00:00:00 | |
| DO3MHA-12 | 2026-09-03 11:40:41 | 48.10914 | 9.15082 | 128° | 68km/h | 4212m | 7.3m/s | 0°C | 0% | 0hPa | 5.3V | 00:00:00 | 00:00:00 | 00:00:00 | |
| DK7TD | 2026-09-03 11:40:34 | 48.10995 | 9.14919 | 127° | 77km/h | 4182m | 5.9m/s | -0.4°C | 0% | 0hPa | 5.3V | 00:00:00 | 00:00:00 | 00:00:00 | |
| DO3MHA-12 | 2026-09-03 11:40:31 | 48.11017 | 9.14875 | 126° | 68km/h | 4171m | 5.0m/s | 0°C | 0% | 0hPa | 5.3V | 00:00:00 | 00:00:00 | 00:00:00 | |
| DK7TD | 2026-09-03 11:40:23 | 48.11113 | 9.14698 | 127° | 68km/h | 4128m | 3.8m/s | 0°C | 0% | 0hPa | 5.3V | 00:00:00 | 00:00:00 | 00:00:00 | |
| DO3MHA-12 | 2026-09-03 11:40:21 | 48.11123 | 9.14678 | 127° | 68km/h | 4118m | 4.9m/s | 0°C | 0% | 0hPa | 5.3V | 00:00:00 | 00:00:00 | 00:00:00 | |
| DB0UT-7 | 2026-09-03 11:40:11 | 48.11232 | 9.14485 | 125° | 66km/h | 4069m | 2.9m/s | 0°C | 0% | 0hPa | 5.3V | 00:00:00 | 00:00:00 | 00:00:00 | |
| DK7TD | 2026-09-03 11:40:09 | 48.11259 | 9.14427 | 130° | 69km/h | 4061m | 0.4m/s | 0.1°C | 0% | 0hPa | 5.3V | 00:00:00 | 00:00:00 | 00:00:00 | |
| DO3MHA-12 | 2026-09-03 11:40:08 | 48.11259 | 9.14410 | 129° | 68km/h | 4057m | 6.5m/s | 0°C | 0% | 0hPa | 5.3V | 00:00:00 | 00:00:00 | 00:00:00 | |
| DO3MHA-12 | 2026-09-03 11:39:57 | 48.11378 | 9.14211 | 122° | 66km/h | 4001m | 5.5m/s | 0°C | 0% | 0hPa | 5.3V | 00:00:00 | 00:00:00 | 00:00:00 | |
| DK7TD | 2026-09-03 11:39:55 | 48.11404 | 9.14155 | 130° | 66km/h | 3990m | 5.8m/s | 0.4°C | 0% | 0hPa | 5.3V | 00:00:00 | 00:00:00 | 00:00:00 | |
| NBG1-10 | 2026-09-03 11:39:48 | 48.11472 | 9.14033 | 127° | 58km/h | 3956m | 2.3m/s | 0°C | 0% | 0hPa | 5.3V | 00:00:00 | 00:00:00 | 00:00:00 | |
| DO3MHA-12 | 2026-09-03 11:39:47 | 48.11481 | 9.14015 | 127° | 62km/h | 3954m | 5.3m/s | 0°C | 0% | 0hPa | 5.3V | 00:00:00 | 00:00:00 | 00:00:00 | |
| DK7TD | 2026-09-03 11:39:44 | 48.11518 | 9.13940 | 125° | 62km/h | 3937m | 7.7m/s | -0.1°C | 0% | 0hPa | 5.3V | 00:00:00 | 00:00:00 | 00:00:00 | |
| DB0UT-7 | 2026-09-03 11:39:41 | 48.11535 | 9.13899 | 122° | 58km/h | 3923m | 2.8m/s | 0°C | 0% | 0hPa | 5.3V | 00:00:00 | 00:00:00 | 00:00:00 | |
| DO3MHA-12 | 2026-09-03 11:39:37 | 48.11569 | 9.13817 | 124° | 57km/h | 3907m | 8.4m/s | 0°C | 0% | 0hPa | 5.3V | 00:00:00 | 00:00:00 | 00:00:00 | |
| DK7TD | 2026-09-03 11:39:33 | 48.11611 | 9.13731 | 127° | 55km/h | 3886m | 6.1m/s | -0.5°C | 0% | 0hPa | 5.3V | 00:00:00 | 00:00:00 | 00:00:00 | |
| DO3MHA-12 | 2026-09-03 11:39:27 | 48.11651 | 9.13642 | 128° | 55km/h | 3857m | 3.2m/s | 0°C | 0% | 0hPa | 5.3V | 00:00:00 | 00:00:00 | 00:00:00 | |
| DK7TD | 2026-09-03 11:39:23 | 48.11691 | 9.13557 | 121° | 55km/h | 3838m | 5.7m/s | -0.1°C | 0% | 0hPa | 5.3V | 00:00:00 | 00:00:00 | 00:00:00 | |
| DO3MHA-12 | 2026-09-03 11:39:18 | 48.11730 | 9.13473 | 131° | 57km/h | 3807m | 2.9m/s | 0°C | 0% | 0hPa | 5.3V | 00:00:00 | 00:00:00 | 00:00:00 | |
| NBG1-10 | 2026-09-03 11:39:15 | 48.11748 | 9.13438 | 125° | 55km/h | 3795m | 7.0m/s | 0°C | 0% | 0hPa | 5.3V | 00:00:00 | 00:00:00 | 00:00:00 | |
| DB0UT-7 | 2026-09-03 11:39:11 | 48.11782 | 9.13365 | 125° | 55km/h | 3775m | 5.5m/s | 0°C | 0% | 0hPa | 5.3V | 00:00:00 | 00:00:00 | 00:00:00 | |
| DK7TD | 2026-09-03 11:39:07 | 48.11820 | 9.13275 | 123° | 64km/h | 3754m | 2.5m/s | 0.6°C | 0% | 0hPa | 5.3V | 00:00:00 | 00:00:00 | 00:00:00 | |
| DO3MHA-12 | 2026-09-03 11:39:07 | 48.11812 | 9.13295 | 124° | 57km/h | 3754m | 2.5m/s | 0°C | 0% | 0hPa | 5.3V | 00:00:00 | 00:00:00 | 00:00:00 | |
| DB0ND-19 | 2026-09-03 11:39:03 | 48.11860 | 9.13182 | 124° | 53km/h | 3730m | 5.1m/s | 1.4°C | -1.0% | -1.0hPa | 5.3V | 00:00:00 | 00:00:00 | 00:00:00 | |
| DK7TD | 2026-09-03 11:38:57 | 48.11899 | 9.13101 | 124° | 53km/h | 3705m | 8.5m/s | 0.9°C | 0% | 0hPa | 5.3V | 00:00:00 | 00:00:00 | 00:00:00 | |
| DK7TD | 2026-09-03 11:38:47 | 48.11979 | 9.12924 | 120° | 51km/h | 3654m | 3.5m/s | 1.3°C | 0% | 0hPa | 5.3V | 00:00:00 | 00:00:00 | 00:00:00 | |
| NBG1-10 | 2026-09-03 11:38:42 | 48.12004 | 9.12856 | 124° | 51km/h | 3630m | 5.9m/s | 0°C | 0% | 0hPa | 5.3V | 00:00:00 | 00:00:00 | 00:00:00 | |
| DB0UT-7 | 2026-09-03 11:38:41 | 48.12010 | 9.12840 | 122° | 51km/h | 3624m | 6.3m/s | 0°C | 0% | 0hPa | 5.3V | 00:00:00 | 00:00:00 | 00:00:00 | |
| DO3MHA-12 | 2026-09-03 11:38:37 | 48.12034 | 9.12775 | 124° | 55km/h | 3603m | 5.7m/s | 0°C | 0% | 0hPa | 5.3V | 00:00:00 | 00:00:00 | 00:00:00 | |
| DK7TD | 2026-09-03 11:38:34 | 48.12061 | 9.12705 | 112° | 57km/h | 3592m | 5.4m/s | 1.8°C | 0% | 0hPa | 5.3V | 00:00:00 | 00:00:00 | 00:00:00 | |
| DO3MHA-12 | 2026-09-03 11:38:27 | 48.12101 | 9.12591 | 122° | 51km/h | 3561m | 5.8m/s | 0°C | 0% | 0hPa | 5.3V | 00:00:00 | 00:00:00 | 00:00:00 | |
| DK7TD | 2026-09-03 11:38:23 | 48.12132 | 9.12507 | 114° | 49km/h | 3542m | 2.1m/s | 2.2°C | 0% | 0hPa | 5.3V | 00:00:00 | 00:00:00 | 00:00:00 | |
| DO3MHA-12 | 2026-09-03 11:38:17 | 48.12167 | 9.12426 | 124° | 47km/h | 3509m | 4.6m/s | 0°C | 0% | 0hPa | 5.3V | 00:00:00 | 00:00:00 | 00:00:00 | |
| DK7TD | 2026-09-03 11:38:12 | 48.12201 | 9.12332 | 114° | 46km/h | 3486m | 3.5m/s | 2.4°C | 0% | 0hPa | 5.3V | 00:00:00 | 00:00:00 | 00:00:00 | |
| DB0UT-7 | 2026-09-03 11:38:11 | 48.12201 | 9.12333 | 116° | 46km/h | 3481m | 6.0m/s | 0°C | 0% | 0hPa | 5.3V | 00:00:00 | 00:00:00 | 00:00:00 | |
| NBG1-10 | 2026-09-03 11:38:09 | 48.12211 | 9.12299 | 110° | 46km/h | 3471m | 5.8m/s | 0°C | 0% | 0hPa | 5.3V | 00:00:00 | 00:00:00 | 00:00:00 | |
| DO3MHA-12 | 2026-09-03 11:38:06 | 48.12224 | 9.12251 | 113° | 46km/h | 3459m | 7.2m/s | 0°C | 0% | 0hPa | 5.3V | 00:00:00 | 00:00:00 | 00:00:00 | |
| DK7TD | 2026-09-03 11:38:01 | 48.12259 | 9.12167 | 116° | 44km/h | 3436m | 3.7m/s | 2.7°C | 0% | 0hPa | 5.3V | 00:00:00 | 00:00:00 | 00:00:00 | |
| DO3MHA-12 | 2026-09-03 11:37:56 | 48.12278 | 9.12103 | 119° | 44km/h | 3411m | 3.5m/s | 0°C | 0% | 0hPa | 5.3V | 00:00:00 | 00:00:00 | 00:00:00 | |
| DK7TD | 2026-09-03 11:37:50 | 48.12313 | 9.11998 | 118° | 46km/h | 3381m | 5.5m/s | 3°C | 0% | 0hPa | 5.3V | 00:00:00 | 00:00:00 | 00:00:00 | |
| DO3MHA-12 | 2026-09-03 11:37:46 | 48.12329 | 9.11953 | 111° | 46km/h | 3364m | 5.8m/s | 0°C | 0% | 0hPa | 5.3V | 00:00:00 | 00:00:00 | 00:00:00 | |
| DB0UT-7 | 2026-09-03 11:37:41 | 48.12353 | 9.11870 | 118° | 44km/h | 3340m | 3.0m/s | 0°C | 0% | 0hPa | 5.3V | 00:00:00 | 00:00:00 | 00:00:00 | |
| DK7TD | 2026-09-03 11:37:39 | 48.12369 | 9.11826 | 117° | 44km/h | 3330m | 7.5m/s | 3.5°C | 0% | 0hPa | 5.3V | 00:00:00 | 00:00:00 | 00:00:00 | |
| DO3MHA-12 | 2026-09-03 11:37:36 | 48.12378 | 9.11798 | 119° | 46km/h | 3313m | 8.5m/s | 0°C | 0% | 0hPa | 5.3V | 00:00:00 | 00:00:00 | 00:00:00 | |
| DK7TD | 2026-09-03 11:37:28 | 48.12429 | 9.11662 | 115° | 49km/h | 3272m | 6.5m/s | 4.1°C | 0% | 0hPa | 5.3V | 00:00:00 | 00:00:00 | 00:00:00 | |
| DO3MHA-12 | 2026-09-03 11:37:26 | 48.12434 | 9.11646 | 107° | 46km/h | 3259m | 7.9m/s | 0°C | 0% | 0hPa | 5.3V | 00:00:00 | 00:00:00 | 00:00:00 | |
| DK7TD | 2026-09-03 11:37:18 | 48.12474 | 9.11502 | 121° | 46km/h | 3216m | 8.8m/s | 4.5°C | 0% | 0hPa | 5.3V | 00:00:00 | 00:00:00 | 00:00:00 | |
| DO3MHA-12 | 2026-09-03 11:37:16 | 48.12480 | 9.11487 | 120° | 40km/h | 3206m | 3.5m/s | 0°C | 0% | 0hPa | 5.3V | 00:00:00 | 00:00:00 | 00:00:00 | |
| DB0UT-7 | 2026-09-03 11:37:11 | 48.12496 | 9.11421 | 110° | 38km/h | 3176m | 6.1m/s | 0°C | 0% | 0hPa | 5.3V | 00:00:00 | 00:00:00 | 00:00:00 | |
| DK7TD | 2026-09-03 11:37:07 | 48.12516 | 9.11345 | 116° | 42km/h | 3154m | 6.6m/s | 4.9°C | 0% | 0hPa | 5.3V | 00:00:00 | 00:00:00 | 00:00:00 | |
| DO3MHA-12 | 2026-09-03 11:37:06 | 48.12516 | 9.11345 | 117° | 38km/h | 3147m | 7.6m/s | 0°C | 0% | 0hPa | 5.3V | 00:00:00 | 00:00:00 | 00:00:00 | |
| DK7TD | 2026-09-03 11:36:56 | 48.12560 | 9.11198 | 117° | 38km/h | 3093m | 3.9m/s | 5.2°C | 0% | 0hPa | 5.3V | 00:00:00 | 00:00:00 | 00:00:00 | |
| DO3MHA-12 | 2026-09-03 11:36:56 | 48.12556 | 9.11211 | 118° | 40km/h | 3093m | 3.9m/s | 0°C | 0% | 0hPa | 5.3V | 00:00:00 | 00:00:00 | 00:00:00 | |
| DO3MHA-12 | 2026-09-03 11:36:46 | 48.12599 | 9.11079 | 125° | 35km/h | 3043m | 2.2m/s | 0°C | 0% | 0hPa | 5.3V | 00:00:00 | 00:00:00 | 00:00:00 | |
| DK7TD | 2026-09-03 11:36:45 | 48.12608 | 9.11056 | 119° | 33km/h | 3038m | 7.6m/s | 5.7°C | 0% | 0hPa | 5.3V | 00:00:00 | 00:00:00 | 00:00:00 | |
| DB0UT-7 | 2026-09-03 11:36:41 | 48.12619 | 9.11022 | 119° | 38km/h | 3014m | 6.0m/s | 0°C | 0% | 0hPa | 5.3V | 00:00:00 | 00:00:00 | 00:00:00 | |
| DK7TD | 2026-09-03 11:36:35 | 48.12651 | 9.10930 | 124° | 40km/h | 2981m | 7.2m/s | 5.8°C | 0% | 0hPa | 5.3V | 00:00:00 | 00:00:00 | 00:00:00 | |
| DK7TD | 2026-09-03 11:36:24 | 48.12703 | 9.10789 | 110° | 31km/h | 2919m | 6.7m/s | 6.2°C | 0% | 0hPa | 5.3V | 00:00:00 | 00:00:00 | 00:00:00 | |
| DK7TD | 2026-09-03 11:36:13 | 48.12738 | 9.10642 | 115° | 42km/h | 2858m | 5.8m/s | 6.5°C | 0% | 0hPa | 5.3V | 00:00:00 | 00:00:00 | 00:00:00 | |
| DB0UT-7 | 2026-09-03 11:36:11 | 48.12743 | 9.10625 | 128° | 37km/h | 2847m | 7.8m/s | 0°C | 0% | 0hPa | 5.3V | 00:00:00 | 00:00:00 | 00:00:00 | |
| DK7TD | 2026-09-03 11:36:02 | 48.12793 | 9.10516 | 118° | 35km/h | 2794m | 7.3m/s | 7°C | 0% | 0hPa | 5.3V | 00:00:00 | 00:00:00 | 00:00:00 | |
| DK7TD | 2026-09-03 11:35:52 | 48.12835 | 9.10392 | 112° | 40km/h | 2729m | 7m/s | 7.6°C | 0% | 0hPa | 5.3V | 00:00:00 | 00:00:00 | 00:00:00 | |
| DK7TD | 2026-09-03 11:35:41 | 48.12869 | 9.10245 | 110° | 38km/h | 2664m | 6m/s | 8.1°C | 0% | 0hPa | 5.3V | 00:00:00 | 00:00:00 | 00:00:00 | |
| DK7TD | 2026-09-03 11:35:30 | 48.12894 | 9.10075 | 105° | 47km/h | 2600m | 4.2m/s | 8.3°C | 0% | 0hPa | 5.3V | 00:00:00 | 00:00:00 | 00:00:00 | |
| DK7TD | 2026-09-03 11:35:19 | 48.12919 | 9.09903 | 94° | 42km/h | 2536m | 4.8m/s | 8.1°C | 0% | 0hPa | 5.3V | 00:00:00 | 00:00:00 | 00:00:00 | |
| DB0UT-7 | 2026-09-03 11:35:11 | 48.12933 | 9.09789 | 99° | 44km/h | 2490m | 7.9m/s | 0°C | 0% | 0hPa | 5.3V | 00:00:00 | 00:00:00 | 00:00:00 | |
| DK7TD | 2026-09-03 11:35:08 | 48.12936 | 9.09744 | 89° | 37km/h | 2479m | 2.7m/s | 7.4°C | 0% | 0hPa | 5.3V | 00:00:00 | 00:00:00 | 00:00:00 | |
| DK7TD | 2026-09-03 11:34:58 | 48.12938 | 9.09554 | 90° | 47km/h | 2424m | 4.9m/s | 7.1°C | 0% | 0hPa | 5.3V | 00:00:00 | 00:00:00 | 00:00:00 | |
| DK7TD | 2026-09-03 11:34:47 | 48.12933 | 9.09369 | 93° | 40km/h | 2368m | 3.2m/s | 0°C | 0% | 0hPa | 0V | 00:00:00 | 00:00:00 | 00:00:00 | |
| DB0UT-7 | 2026-09-03 11:34:41 | 48.12932 | 9.09293 | 91° | 44km/h | 2336m | 6.4m/s | 0°C | 0% | 0hPa | 0V | 00:00:00 | 00:00:00 | 00:00:00 | |
| DB0ND-19 | 2026-09-03 11:34:23 | 48.12936 | 9.08991 | 90° | 37km/h | 2240m | 4.2m/s | 8.1°C | -1.0% | -1.0hPa | 0V | 00:00:00 | 00:00:00 | 00:00:00 |